﻿<?xml version="1.0" encoding="utf-8" standalone="yes"?>
<gpx version="1.0" creator="CanWay - http://www.canwaygps.com" xmlns:xsi="http://www.w3.org/2001/XMLSchema-instance" xmlns="http://www.topografix.com/GPX/1/0" xsi:schemaLocation="http://www.topografix.com/GPX/1/0 http://www.topografix.com/GPX/1/0/gpx.xsd">
<time>2023-05-12T20:26:52Z</time>
<bounds minlat="47.374481" minlon="9.198817" maxlat="47.412136" maxlon="9.257733" />
<trk>
<name>Degersheim-Schwänberg-Gossau SG</name>
<trkseg>
<trkpt lat="47.374633" lon="9.199249">
<ele>845.9</ele>
<time>2003-09-26T06:06:02Z</time>
<speed>0.0</speed>
</trkpt>
<trkpt lat="47.374616" lon="9.199238">
<ele>842.1</ele>
<time>2003-09-26T06:06:07Z</time>
<speed>0.0</speed>
</trkpt>
<trkpt lat="47.374598" lon="9.199238">
<ele>839.9</ele>
<time>2003-09-26T06:06:12Z</time>
<speed>0.0</speed>
</trkpt>
<trkpt lat="47.374593" lon="9.199227">
<ele>837.7</ele>
<time>2003-09-26T06:06:17Z</time>
<speed>0.0</speed>
</trkpt>
<trkpt lat="47.374593" lon="9.199229">
<ele>836.3</ele>
<time>2003-09-26T06:06:22Z</time>
<speed>0.0</speed>
</trkpt>
<trkpt lat="47.374600" lon="9.199231">
<ele>835.6</ele>
<time>2003-09-26T06:06:27Z</time>
<speed>0.0</speed>
</trkpt>
<trkpt lat="47.374593" lon="9.199244">
<ele>835.0</ele>
<time>2003-09-26T06:06:32Z</time>
<speed>0.0</speed>
</trkpt>
<trkpt lat="47.374582" lon="9.199233">
<ele>832.0</ele>
<time>2003-09-26T06:06:37Z</time>
<speed>0.0</speed>
</trkpt>
<trkpt lat="47.374550" lon="9.199244">
<ele>829.8</ele>
<time>2003-09-26T06:06:42Z</time>
<speed>0.0</speed>
</trkpt>
<trkpt lat="47.374544" lon="9.199244">
<ele>829.1</ele>
<time>2003-09-26T06:06:47Z</time>
<speed>0.3</speed>
</trkpt>
<trkpt lat="47.374531" lon="9.199257">
<ele>827.7</ele>
<time>2003-09-26T06:06:52Z</time>
<speed>0.3</speed>
</trkpt>
<trkpt lat="47.374536" lon="9.199270">
<ele>828.6</ele>
<time>2003-09-26T06:06:57Z</time>
<speed>0.0</speed>
</trkpt>
<trkpt lat="47.374543" lon="9.199257">
<ele>829.2</ele>
<time>2003-09-26T06:07:02Z</time>
<speed>0.0</speed>
</trkpt>
<trkpt lat="47.374550" lon="9.199244">
<ele>829.8</ele>
<time>2003-09-26T06:07:07Z</time>
<speed>0.0</speed>
</trkpt>
<trkpt lat="47.374551" lon="9.199231">
<ele>829.7</ele>
<time>2003-09-26T06:07:12Z</time>
<speed>0.0</speed>
</trkpt>
<trkpt lat="47.374551" lon="9.199231">
<ele>829.7</ele>
<time>2003-09-26T06:07:17Z</time>
<speed>0.0</speed>
</trkpt>
<trkpt lat="47.374552" lon="9.199218">
<ele>829.6</ele>
<time>2003-09-26T06:07:22Z</time>
<speed>0.0</speed>
</trkpt>
<trkpt lat="47.374540" lon="9.199218">
<ele>828.1</ele>
<time>2003-09-26T06:07:27Z</time>
<speed>0.0</speed>
</trkpt>
<trkpt lat="47.374536" lon="9.199209">
<ele>824.5</ele>
<time>2003-09-26T06:07:32Z</time>
<speed>0.0</speed>
</trkpt>
<trkpt lat="47.374525" lon="9.199198">
<ele>821.5</ele>
<time>2003-09-26T06:07:37Z</time>
<speed>0.0</speed>
</trkpt>
<trkpt lat="47.374531" lon="9.199198">
<ele>822.2</ele>
<time>2003-09-26T06:07:42Z</time>
<speed>0.0</speed>
</trkpt>
<trkpt lat="47.374523" lon="9.199207">
<ele>824.4</ele>
<time>2003-09-26T06:07:47Z</time>
<speed>0.0</speed>
</trkpt>
<trkpt lat="47.374492" lon="9.199205">
<ele>822.2</ele>
<time>2003-09-26T06:07:52Z</time>
<speed>0.3</speed>
</trkpt>
<trkpt lat="47.374481" lon="9.199192">
<ele>820.6</ele>
<time>2003-09-26T06:07:57Z</time>
<speed>0.0</speed>
</trkpt>
<trkpt lat="47.374488" lon="9.199194">
<ele>819.9</ele>
<time>2003-09-26T06:08:02Z</time>
<speed>0.0</speed>
</trkpt>
<trkpt lat="47.374507" lon="9.199196">
<ele>820.7</ele>
<time>2003-09-26T06:08:07Z</time>
<speed>0.0</speed>
</trkpt>
<trkpt lat="47.374531" lon="9.199216">
<ele>819.5</ele>
<time>2003-09-26T06:08:13Z</time>
<speed>0.0</speed>
</trkpt>
<trkpt lat="47.374524" lon="9.199231">
<ele>817.5</ele>
<time>2003-09-26T06:08:18Z</time>
<speed>0.0</speed>
</trkpt>
<trkpt lat="47.374524" lon="9.199246">
<ele>816.2</ele>
<time>2003-09-26T06:08:23Z</time>
<speed>0.0</speed>
</trkpt>
<trkpt lat="47.374491" lon="9.199251">
<ele>818.3</ele>
<time>2003-09-26T06:08:28Z</time>
<speed>0.0</speed>
</trkpt>
<trkpt lat="47.374490" lon="9.199266">
<ele>817.0</ele>
<time>2003-09-26T06:08:33Z</time>
<speed>0.0</speed>
</trkpt>
<trkpt lat="47.374484" lon="9.199266">
<ele>816.2</ele>
<time>2003-09-26T06:08:38Z</time>
<speed>0.0</speed>
</trkpt>
<trkpt lat="47.374485" lon="9.199255">
<ele>814.7</ele>
<time>2003-09-26T06:08:43Z</time>
<speed>0.0</speed>
</trkpt>
<trkpt lat="47.374485" lon="9.199255">
<ele>814.7</ele>
<time>2003-09-26T06:08:48Z</time>
<speed>0.0</speed>
</trkpt>
<trkpt lat="47.374485" lon="9.199255">
<ele>814.7</ele>
<time>2003-09-26T06:08:53Z</time>
<speed>0.0</speed>
</trkpt>
<trkpt lat="47.374485" lon="9.199255">
<ele>814.7</ele>
<time>2003-09-26T06:08:58Z</time>
<speed>0.0</speed>
</trkpt>
<trkpt lat="47.374518" lon="9.199246">
<ele>815.5</ele>
<time>2003-09-26T06:09:03Z</time>
<speed>0.0</speed>
</trkpt>
<trkpt lat="47.374518" lon="9.199246">
<ele>815.5</ele>
<time>2003-09-26T06:09:08Z</time>
<speed>0.0</speed>
</trkpt>
<trkpt lat="47.374518" lon="9.199246">
<ele>815.5</ele>
<time>2003-09-26T06:09:13Z</time>
<speed>0.0</speed>
</trkpt>
<trkpt lat="47.374518" lon="9.199246">
<ele>815.5</ele>
<time>2003-09-26T06:09:18Z</time>
<speed>0.0</speed>
</trkpt>
<trkpt lat="47.374531" lon="9.199233">
<ele>816.8</ele>
<time>2003-09-26T06:09:23Z</time>
<speed>0.0</speed>
</trkpt>
<trkpt lat="47.374531" lon="9.199233">
<ele>816.8</ele>
<time>2003-09-26T06:09:28Z</time>
<speed>0.0</speed>
</trkpt>
<trkpt lat="47.374531" lon="9.199233">
<ele>816.8</ele>
<time>2003-09-26T06:09:33Z</time>
<speed>0.0</speed>
</trkpt>
<trkpt lat="47.374531" lon="9.199233">
<ele>816.8</ele>
<time>2003-09-26T06:09:38Z</time>
<speed>0.0</speed>
</trkpt>
<trkpt lat="47.374544" lon="9.199235">
<ele>816.9</ele>
<time>2003-09-26T06:09:43Z</time>
<speed>0.0</speed>
</trkpt>
<trkpt lat="47.374545" lon="9.199222">
<ele>816.8</ele>
<time>2003-09-26T06:09:48Z</time>
<speed>0.0</speed>
</trkpt>
<trkpt lat="47.374544" lon="9.199235">
<ele>816.9</ele>
<time>2003-09-26T06:09:53Z</time>
<speed>0.0</speed>
</trkpt>
<trkpt lat="47.374550" lon="9.199237">
<ele>816.2</ele>
<time>2003-09-26T06:09:58Z</time>
<speed>0.0</speed>
</trkpt>
<trkpt lat="47.374551" lon="9.199224">
<ele>816.1</ele>
<time>2003-09-26T06:10:03Z</time>
<speed>0.0</speed>
</trkpt>
<trkpt lat="47.374557" lon="9.199224">
<ele>816.9</ele>
<time>2003-09-26T06:10:08Z</time>
<speed>0.3</speed>
</trkpt>
<trkpt lat="47.374558" lon="9.199211">
<ele>816.8</ele>
<time>2003-09-26T06:10:13Z</time>
<speed>0.3</speed>
</trkpt>
<trkpt lat="47.374585" lon="9.199202">
<ele>816.8</ele>
<time>2003-09-26T06:10:18Z</time>
<speed>0.3</speed>
</trkpt>
<trkpt lat="47.374592" lon="9.199189">
<ele>817.4</ele>
<time>2003-09-26T06:10:23Z</time>
<speed>0.3</speed>
</trkpt>
<trkpt lat="47.374586" lon="9.199189">
<ele>816.7</ele>
<time>2003-09-26T06:10:28Z</time>
<speed>0.0</speed>
</trkpt>
<trkpt lat="47.374586" lon="9.199189">
<ele>816.7</ele>
<time>2003-09-26T06:10:33Z</time>
<speed>0.0</speed>
</trkpt>
<trkpt lat="47.374585" lon="9.199202">
<ele>816.8</ele>
<time>2003-09-26T06:10:38Z</time>
<speed>0.0</speed>
</trkpt>
<trkpt lat="47.374544" lon="9.199218">
<ele>819.6</ele>
<time>2003-09-26T06:10:43Z</time>
<speed>0.3</speed>
</trkpt>
<trkpt lat="47.374533" lon="9.199187">
<ele>820.7</ele>
<time>2003-09-26T06:10:48Z</time>
<speed>0.6</speed>
</trkpt>
<trkpt lat="47.374566" lon="9.199181">
<ele>820.1</ele>
<time>2003-09-26T06:10:53Z</time>
<speed>0.6</speed>
</trkpt>
<trkpt lat="47.374603" lon="9.199200">
<ele>820.4</ele>
<time>2003-09-26T06:10:58Z</time>
<speed>0.6</speed>
</trkpt>
<trkpt lat="47.374623" lon="9.199191">
<ele>819.7</ele>
<time>2003-09-26T06:11:03Z</time>
<speed>0.6</speed>
</trkpt>
<trkpt lat="47.374639" lon="9.199154">
<ele>819.4</ele>
<time>2003-09-26T06:11:08Z</time>
<speed>0.3</speed>
</trkpt>
<trkpt lat="47.374672" lon="9.199132">
<ele>820.1</ele>
<time>2003-09-26T06:11:13Z</time>
<speed>0.6</speed>
</trkpt>
<trkpt lat="47.374756" lon="9.199121">
<ele>819.6</ele>
<time>2003-09-26T06:11:18Z</time>
<speed>0.8</speed>
</trkpt>
<trkpt lat="47.374834" lon="9.199108">
<ele>819.8</ele>
<time>2003-09-26T06:11:23Z</time>
<speed>1.1</speed>
</trkpt>
<trkpt lat="47.374875" lon="9.199073">
<ele>821.1</ele>
<time>2003-09-26T06:11:28Z</time>
<speed>1.4</speed>
</trkpt>
<trkpt lat="47.374922" lon="9.199040">
<ele>821.7</ele>
<time>2003-09-26T06:11:33Z</time>
<speed>1.1</speed>
</trkpt>
<trkpt lat="47.375005" lon="9.199041">
<ele>821.3</ele>
<time>2003-09-26T06:11:38Z</time>
<speed>0.8</speed>
</trkpt>
<trkpt lat="47.375083" lon="9.199028">
<ele>821.5</ele>
<time>2003-09-26T06:11:43Z</time>
<speed>1.1</speed>
</trkpt>
<trkpt lat="47.375154" lon="9.199010">
<ele>823.8</ele>
<time>2003-09-26T06:11:48Z</time>
<speed>1.1</speed>
</trkpt>
<trkpt lat="47.375207" lon="9.198993">
<ele>823.8</ele>
<time>2003-09-26T06:11:53Z</time>
<speed>0.8</speed>
</trkpt>
<trkpt lat="47.375260" lon="9.198962">
<ele>823.8</ele>
<time>2003-09-26T06:11:58Z</time>
<speed>0.8</speed>
</trkpt>
<trkpt lat="47.375307" lon="9.198929">
<ele>824.4</ele>
<time>2003-09-26T06:12:03Z</time>
<speed>0.8</speed>
</trkpt>
<trkpt lat="47.375356" lon="9.198883">
<ele>824.9</ele>
<time>2003-09-26T06:12:08Z</time>
<speed>1.1</speed>
</trkpt>
<trkpt lat="47.375403" lon="9.198850">
<ele>825.5</ele>
<time>2003-09-26T06:12:13Z</time>
<speed>0.8</speed>
</trkpt>
<trkpt lat="47.375437" lon="9.198833">
<ele>823.3</ele>
<time>2003-09-26T06:12:18Z</time>
<speed>0.8</speed>
</trkpt>
<trkpt lat="47.375490" lon="9.198817">
<ele>822.0</ele>
<time>2003-09-26T06:12:23Z</time>
<speed>0.8</speed>
</trkpt>
<trkpt lat="47.375535" lon="9.198826">
<ele>821.5</ele>
<time>2003-09-26T06:12:28Z</time>
<speed>1.1</speed>
</trkpt>
<trkpt lat="47.375586" lon="9.198821">
<ele>821.7</ele>
<time>2003-09-26T06:12:33Z</time>
<speed>0.8</speed>
</trkpt>
<trkpt lat="47.375618" lon="9.198827">
<ele>821.1</ele>
<time>2003-09-26T06:12:38Z</time>
<speed>0.8</speed>
</trkpt>
<trkpt lat="47.375657" lon="9.198821">
<ele>821.2</ele>
<time>2003-09-26T06:12:43Z</time>
<speed>0.6</speed>
</trkpt>
<trkpt lat="47.375709" lon="9.198818">
<ele>820.0</ele>
<time>2003-09-26T06:12:48Z</time>
<speed>0.8</speed>
</trkpt>
<trkpt lat="47.375803" lon="9.198833">
<ele>821.2</ele>
<time>2003-09-26T06:12:53Z</time>
<speed>1.4</speed>
</trkpt>
<trkpt lat="47.375882" lon="9.198885">
<ele>822.7</ele>
<time>2003-09-26T06:12:58Z</time>
<speed>1.1</speed>
</trkpt>
<trkpt lat="47.375959" lon="9.198948">
<ele>825.6</ele>
<time>2003-09-26T06:13:03Z</time>
<speed>1.4</speed>
</trkpt>
<trkpt lat="47.376035" lon="9.199024">
<ele>828.7</ele>
<time>2003-09-26T06:13:08Z</time>
<speed>1.4</speed>
</trkpt>
<trkpt lat="47.376085" lon="9.199110">
<ele>830.4</ele>
<time>2003-09-26T06:13:13Z</time>
<speed>1.4</speed>
</trkpt>
<trkpt lat="47.376113" lon="9.199154">
<ele>831.6</ele>
<time>2003-09-26T06:13:18Z</time>
<speed>0.8</speed>
</trkpt>
<trkpt lat="47.376167" lon="9.199204">
<ele>831.5</ele>
<time>2003-09-26T06:13:23Z</time>
<speed>1.1</speed>
</trkpt>
<trkpt lat="47.376241" lon="9.199240">
<ele>833.5</ele>
<time>2003-09-26T06:13:28Z</time>
<speed>1.4</speed>
</trkpt>
<trkpt lat="47.376298" lon="9.199251">
<ele>833.1</ele>
<time>2003-09-26T06:13:33Z</time>
<speed>1.4</speed>
</trkpt>
<trkpt lat="47.376350" lon="9.199249">
<ele>831.9</ele>
<time>2003-09-26T06:13:38Z</time>
<speed>0.8</speed>
</trkpt>
<trkpt lat="47.376360" lon="9.199214">
<ele>829.5</ele>
<time>2003-09-26T06:13:43Z</time>
<speed>0.6</speed>
</trkpt>
<trkpt lat="47.376416" lon="9.199237">
<ele>829.2</ele>
<time>2003-09-26T06:13:48Z</time>
<speed>1.1</speed>
</trkpt>
<trkpt lat="47.376467" lon="9.199248">
<ele>828.1</ele>
<time>2003-09-26T06:13:53Z</time>
<speed>0.8</speed>
</trkpt>
<trkpt lat="47.376503" lon="9.199267">
<ele>828.4</ele>
<time>2003-09-26T06:13:58Z</time>
<speed>0.8</speed>
</trkpt>
<trkpt lat="47.376542" lon="9.199260">
<ele>828.5</ele>
<time>2003-09-26T06:14:03Z</time>
<speed>0.6</speed>
</trkpt>
<trkpt lat="47.376586" lon="9.199267">
<ele>829.4</ele>
<time>2003-09-26T06:14:08Z</time>
<speed>0.8</speed>
</trkpt>
<trkpt lat="47.376648" lon="9.199290">
<ele>829.9</ele>
<time>2003-09-26T06:14:13Z</time>
<speed>1.1</speed>
</trkpt>
<trkpt lat="47.376703" lon="9.199325">
<ele>831.1</ele>
<time>2003-09-26T06:14:18Z</time>
<speed>0.8</speed>
</trkpt>
<trkpt lat="47.376765" lon="9.199349">
<ele>831.5</ele>
<time>2003-09-26T06:14:23Z</time>
<speed>1.1</speed>
</trkpt>
<trkpt lat="47.376807" lon="9.199381">
<ele>832.7</ele>
<time>2003-09-26T06:14:28Z</time>
<speed>0.3</speed>
</trkpt>
<trkpt lat="47.376831" lon="9.199399">
<ele>832.9</ele>
<time>2003-09-26T06:14:33Z</time>
<speed>0.8</speed>
</trkpt>
<trkpt lat="47.376886" lon="9.199420">
<ele>834.0</ele>
<time>2003-09-26T06:14:38Z</time>
<speed>0.8</speed>
</trkpt>
<trkpt lat="47.376936" lon="9.199442">
<ele>834.4</ele>
<time>2003-09-26T06:14:43Z</time>
<speed>1.1</speed>
</trkpt>
<trkpt lat="47.376984" lon="9.199476">
<ele>834.9</ele>
<time>2003-09-26T06:14:48Z</time>
<speed>0.8</speed>
</trkpt>
<trkpt lat="47.377027" lon="9.199496">
<ele>835.9</ele>
<time>2003-09-26T06:14:53Z</time>
<speed>0.8</speed>
</trkpt>
<trkpt lat="47.377057" lon="9.199513">
<ele>836.9</ele>
<time>2003-09-26T06:14:58Z</time>
<speed>0.6</speed>
</trkpt>
<trkpt lat="47.377106" lon="9.199548">
<ele>837.4</ele>
<time>2003-09-26T06:15:03Z</time>
<speed>0.8</speed>
</trkpt>
<trkpt lat="47.377160" lon="9.199582">
<ele>838.6</ele>
<time>2003-09-26T06:15:08Z</time>
<speed>0.8</speed>
</trkpt>
<trkpt lat="47.377196" lon="9.199615">
<ele>839.0</ele>
<time>2003-09-26T06:15:13Z</time>
<speed>0.8</speed>
</trkpt>
<trkpt lat="47.377246" lon="9.199623">
<ele>839.3</ele>
<time>2003-09-26T06:15:18Z</time>
<speed>0.8</speed>
</trkpt>
<trkpt lat="47.377290" lon="9.199629">
<ele>840.3</ele>
<time>2003-09-26T06:15:23Z</time>
<speed>0.8</speed>
</trkpt>
<trkpt lat="47.377331" lon="9.199594">
<ele>841.5</ele>
<time>2003-09-26T06:15:28Z</time>
<speed>0.6</speed>
</trkpt>
<trkpt lat="47.377347" lon="9.199560">
<ele>839.9</ele>
<time>2003-09-26T06:15:33Z</time>
<speed>0.6</speed>
</trkpt>
<trkpt lat="47.377382" lon="9.199527">
<ele>839.0</ele>
<time>2003-09-26T06:15:38Z</time>
<speed>0.6</speed>
</trkpt>
<trkpt lat="47.377438" lon="9.199548">
<ele>840.1</ele>
<time>2003-09-26T06:15:43Z</time>
<speed>0.8</speed>
</trkpt>
<trkpt lat="47.377499" lon="9.199570">
<ele>842.0</ele>
<time>2003-09-26T06:15:48Z</time>
<speed>0.8</speed>
</trkpt>
<trkpt lat="47.377536" lon="9.199587">
<ele>843.7</ele>
<time>2003-09-26T06:15:53Z</time>
<speed>0.0</speed>
</trkpt>
<trkpt lat="47.377579" lon="9.199609">
<ele>843.3</ele>
<time>2003-09-26T06:15:58Z</time>
<speed>0.8</speed>
</trkpt>
<trkpt lat="47.377617" lon="9.199615">
<ele>843.5</ele>
<time>2003-09-26T06:16:03Z</time>
<speed>0.8</speed>
</trkpt>
<trkpt lat="47.377636" lon="9.199619">
<ele>842.9</ele>
<time>2003-09-26T06:16:08Z</time>
<speed>0.0</speed>
</trkpt>
<trkpt lat="47.377661" lon="9.199623">
<ele>843.1</ele>
<time>2003-09-26T06:16:13Z</time>
<speed>0.8</speed>
</trkpt>
<trkpt lat="47.377724" lon="9.199634">
<ele>843.4</ele>
<time>2003-09-26T06:16:18Z</time>
<speed>1.1</speed>
</trkpt>
<trkpt lat="47.377786" lon="9.199655">
<ele>845.3</ele>
<time>2003-09-26T06:16:23Z</time>
<speed>0.6</speed>
</trkpt>
<trkpt lat="47.377842" lon="9.199677">
<ele>846.4</ele>
<time>2003-09-26T06:16:28Z</time>
<speed>0.6</speed>
</trkpt>
<trkpt lat="47.377896" lon="9.199714">
<ele>846.2</ele>
<time>2003-09-26T06:16:33Z</time>
<speed>0.8</speed>
</trkpt>
<trkpt lat="47.377945" lon="9.199748">
<ele>846.7</ele>
<time>2003-09-26T06:16:38Z</time>
<speed>0.8</speed>
</trkpt>
<trkpt lat="47.377987" lon="9.199781">
<ele>847.8</ele>
<time>2003-09-26T06:16:43Z</time>
<speed>0.8</speed>
</trkpt>
<trkpt lat="47.378015" lon="9.199824">
<ele>849.0</ele>
<time>2003-09-26T06:16:48Z</time>
<speed>0.8</speed>
</trkpt>
<trkpt lat="47.378042" lon="9.199883">
<ele>848.9</ele>
<time>2003-09-26T06:16:53Z</time>
<speed>0.8</speed>
</trkpt>
<trkpt lat="47.378063" lon="9.199939">
<ele>849.5</ele>
<time>2003-09-26T06:16:58Z</time>
<speed>0.6</speed>
</trkpt>
<trkpt lat="47.378091" lon="9.199998">
<ele>849.4</ele>
<time>2003-09-26T06:17:03Z</time>
<speed>1.1</speed>
</trkpt>
<trkpt lat="47.378118" lon="9.200057">
<ele>849.3</ele>
<time>2003-09-26T06:17:08Z</time>
<speed>0.8</speed>
</trkpt>
<trkpt lat="47.378140" lon="9.200113">
<ele>849.9</ele>
<time>2003-09-26T06:17:13Z</time>
<speed>1.1</speed>
</trkpt>
<trkpt lat="47.378154" lon="9.200170">
<ele>849.7</ele>
<time>2003-09-26T06:17:18Z</time>
<speed>0.8</speed>
</trkpt>
<trkpt lat="47.378175" lon="9.200226">
<ele>850.3</ele>
<time>2003-09-26T06:17:23Z</time>
<speed>0.8</speed>
</trkpt>
<trkpt lat="47.378195" lon="9.200296">
<ele>850.9</ele>
<time>2003-09-26T06:17:28Z</time>
<speed>1.4</speed>
</trkpt>
<trkpt lat="47.378228" lon="9.200368">
<ele>851.7</ele>
<time>2003-09-26T06:17:33Z</time>
<speed>1.1</speed>
</trkpt>
<trkpt lat="47.378263" lon="9.200413">
<ele>852.2</ele>
<time>2003-09-26T06:17:38Z</time>
<speed>0.8</speed>
</trkpt>
<trkpt lat="47.378271" lon="9.200467">
<ele>852.7</ele>
<time>2003-09-26T06:17:43Z</time>
<speed>0.8</speed>
</trkpt>
<trkpt lat="47.378299" lon="9.200511">
<ele>853.9</ele>
<time>2003-09-26T06:17:48Z</time>
<speed>0.8</speed>
</trkpt>
<trkpt lat="47.378315" lon="9.200552">
<ele>855.0</ele>
<time>2003-09-26T06:17:53Z</time>
<speed>0.6</speed>
</trkpt>
<trkpt lat="47.378352" lon="9.200556">
<ele>856.6</ele>
<time>2003-09-26T06:17:58Z</time>
<speed>0.8</speed>
</trkpt>
<trkpt lat="47.378384" lon="9.200563">
<ele>856.1</ele>
<time>2003-09-26T06:18:03Z</time>
<speed>0.0</speed>
</trkpt>
<trkpt lat="47.378390" lon="9.200563">
<ele>856.8</ele>
<time>2003-09-26T06:18:08Z</time>
<speed>0.0</speed>
</trkpt>
<trkpt lat="47.378397" lon="9.200565">
<ele>856.2</ele>
<time>2003-09-26T06:18:13Z</time>
<speed>0.0</speed>
</trkpt>
<trkpt lat="47.378415" lon="9.200567">
<ele>857.0</ele>
<time>2003-09-26T06:18:18Z</time>
<speed>0.3</speed>
</trkpt>
<trkpt lat="47.378434" lon="9.200571">
<ele>856.4</ele>
<time>2003-09-26T06:18:23Z</time>
<speed>0.3</speed>
</trkpt>
<trkpt lat="47.378488" lon="9.200621">
<ele>856.3</ele>
<time>2003-09-26T06:18:28Z</time>
<speed>1.1</speed>
</trkpt>
<trkpt lat="47.378524" lon="9.200656">
<ele>855.3</ele>
<time>2003-09-26T06:18:33Z</time>
<speed>1.1</speed>
</trkpt>
<trkpt lat="47.378580" lon="9.200679">
<ele>855.0</ele>
<time>2003-09-26T06:18:38Z</time>
<speed>1.1</speed>
</trkpt>
<trkpt lat="47.378642" lon="9.200718">
<ele>854.2</ele>
<time>2003-09-26T06:18:43Z</time>
<speed>0.8</speed>
</trkpt>
<trkpt lat="47.378696" lon="9.200770">
<ele>852.7</ele>
<time>2003-09-26T06:18:48Z</time>
<speed>1.7</speed>
</trkpt>
<trkpt lat="47.378736" lon="9.200831">
<ele>852.7</ele>
<time>2003-09-26T06:18:53Z</time>
<speed>1.4</speed>
</trkpt>
<trkpt lat="47.378784" lon="9.200881">
<ele>851.8</ele>
<time>2003-09-26T06:18:58Z</time>
<speed>0.8</speed>
</trkpt>
<trkpt lat="47.378825" lon="9.200944">
<ele>850.4</ele>
<time>2003-09-26T06:19:03Z</time>
<speed>1.7</speed>
</trkpt>
<trkpt lat="47.378865" lon="9.201004">
<ele>850.4</ele>
<time>2003-09-26T06:19:08Z</time>
<speed>1.1</speed>
</trkpt>
<trkpt lat="47.378905" lon="9.201065">
<ele>850.3</ele>
<time>2003-09-26T06:19:13Z</time>
<speed>0.8</speed>
</trkpt>
<trkpt lat="47.378938" lon="9.201139">
<ele>849.7</ele>
<time>2003-09-26T06:19:18Z</time>
<speed>0.8</speed>
</trkpt>
<trkpt lat="47.378979" lon="9.201202">
<ele>848.2</ele>
<time>2003-09-26T06:19:23Z</time>
<speed>1.4</speed>
</trkpt>
<trkpt lat="47.378988" lon="9.201260">
<ele>845.9</ele>
<time>2003-09-26T06:19:28Z</time>
<speed>1.1</speed>
</trkpt>
<trkpt lat="47.379014" lon="9.201332">
<ele>845.9</ele>
<time>2003-09-26T06:19:33Z</time>
<speed>0.8</speed>
</trkpt>
<trkpt lat="47.379041" lon="9.201404">
<ele>846.0</ele>
<time>2003-09-26T06:19:38Z</time>
<speed>0.8</speed>
</trkpt>
<trkpt lat="47.379060" lon="9.201489">
<ele>845.3</ele>
<time>2003-09-26T06:19:43Z</time>
<speed>1.1</speed>
</trkpt>
<trkpt lat="47.379093" lon="9.201562">
<ele>844.7</ele>
<time>2003-09-26T06:19:48Z</time>
<speed>1.4</speed>
</trkpt>
<trkpt lat="47.379132" lon="9.201636">
<ele>844.7</ele>
<time>2003-09-26T06:19:53Z</time>
<speed>1.1</speed>
</trkpt>
<trkpt lat="47.379158" lon="9.201721">
<ele>844.9</ele>
<time>2003-09-26T06:19:58Z</time>
<speed>0.6</speed>
</trkpt>
<trkpt lat="47.379197" lon="9.201795">
<ele>844.9</ele>
<time>2003-09-26T06:20:03Z</time>
<speed>1.4</speed>
</trkpt>
<trkpt lat="47.379223" lon="9.201866">
<ele>844.9</ele>
<time>2003-09-26T06:20:08Z</time>
<speed>1.1</speed>
</trkpt>
<trkpt lat="47.379269" lon="9.201940">
<ele>845.8</ele>
<time>2003-09-26T06:20:13Z</time>
<speed>1.4</speed>
</trkpt>
<trkpt lat="47.379295" lon="9.202012">
<ele>845.8</ele>
<time>2003-09-26T06:20:18Z</time>
<speed>1.1</speed>
</trkpt>
<trkpt lat="47.379340" lon="9.202086">
<ele>846.6</ele>
<time>2003-09-26T06:20:23Z</time>
<speed>0.8</speed>
</trkpt>
<trkpt lat="47.379367" lon="9.202157">
<ele>846.6</ele>
<time>2003-09-26T06:20:28Z</time>
<speed>0.8</speed>
</trkpt>
<trkpt lat="47.379401" lon="9.202218">
<ele>845.8</ele>
<time>2003-09-26T06:20:33Z</time>
<speed>1.7</speed>
</trkpt>
<trkpt lat="47.379434" lon="9.202292">
<ele>845.2</ele>
<time>2003-09-26T06:20:38Z</time>
<speed>1.4</speed>
</trkpt>
<trkpt lat="47.379474" lon="9.202351">
<ele>846.5</ele>
<time>2003-09-26T06:20:43Z</time>
<speed>0.6</speed>
</trkpt>
<trkpt lat="47.379518" lon="9.202359">
<ele>846.1</ele>
<time>2003-09-26T06:20:48Z</time>
<speed>0.6</speed>
</trkpt>
<trkpt lat="47.379589" lon="9.202359">
<ele>845.6</ele>
<time>2003-09-26T06:20:53Z</time>
<speed>0.8</speed>
</trkpt>
<trkpt lat="47.379639" lon="9.202367">
<ele>845.9</ele>
<time>2003-09-26T06:20:58Z</time>
<speed>1.4</speed>
</trkpt>
<trkpt lat="47.379681" lon="9.202400">
<ele>847.0</ele>
<time>2003-09-26T06:21:03Z</time>
<speed>1.1</speed>
</trkpt>
<trkpt lat="47.379715" lon="9.202461">
<ele>846.3</ele>
<time>2003-09-26T06:21:08Z</time>
<speed>0.8</speed>
</trkpt>
<trkpt lat="47.379769" lon="9.202512">
<ele>844.8</ele>
<time>2003-09-26T06:21:13Z</time>
<speed>1.1</speed>
</trkpt>
<trkpt lat="47.379811" lon="9.202562">
<ele>843.3</ele>
<time>2003-09-26T06:21:18Z</time>
<speed>1.7</speed>
</trkpt>
<trkpt lat="47.379845" lon="9.202623">
<ele>842.5</ele>
<time>2003-09-26T06:21:23Z</time>
<speed>1.4</speed>
</trkpt>
<trkpt lat="47.379859" lon="9.202695">
<ele>841.0</ele>
<time>2003-09-26T06:21:28Z</time>
<speed>1.1</speed>
</trkpt>
<trkpt lat="47.379866" lon="9.202775">
<ele>841.7</ele>
<time>2003-09-26T06:21:33Z</time>
<speed>1.4</speed>
</trkpt>
<trkpt lat="47.379873" lon="9.202845">
<ele>840.9</ele>
<time>2003-09-26T06:21:38Z</time>
<speed>1.1</speed>
</trkpt>
<trkpt lat="47.379886" lon="9.202927">
<ele>841.0</ele>
<time>2003-09-26T06:21:43Z</time>
<speed>0.8</speed>
</trkpt>
<trkpt lat="47.379919" lon="9.203001">
<ele>840.3</ele>
<time>2003-09-26T06:21:48Z</time>
<speed>1.4</speed>
</trkpt>
<trkpt lat="47.379931" lon="9.203097">
<ele>840.5</ele>
<time>2003-09-26T06:21:53Z</time>
<speed>1.1</speed>
</trkpt>
<trkpt lat="47.379956" lon="9.203182">
<ele>840.6</ele>
<time>2003-09-26T06:21:58Z</time>
<speed>1.4</speed>
</trkpt>
<trkpt lat="47.379976" lon="9.203267">
<ele>840.0</ele>
<time>2003-09-26T06:22:03Z</time>
<speed>1.1</speed>
</trkpt>
<trkpt lat="47.380029" lon="9.203329">
<ele>840.0</ele>
<time>2003-09-26T06:22:08Z</time>
<speed>1.4</speed>
</trkpt>
<trkpt lat="47.380097" lon="9.203292">
<ele>837.1</ele>
<time>2003-09-26T06:22:13Z</time>
<speed>1.4</speed>
</trkpt>
<trkpt lat="47.380140" lon="9.203235">
<ele>835.4</ele>
<time>2003-09-26T06:22:18Z</time>
<speed>1.1</speed>
</trkpt>
<trkpt lat="47.380165" lon="9.203174">
<ele>834.2</ele>
<time>2003-09-26T06:22:23Z</time>
<speed>0.8</speed>
</trkpt>
<trkpt lat="47.380212" lon="9.203143">
<ele>833.4</ele>
<time>2003-09-26T06:22:28Z</time>
<speed>1.1</speed>
</trkpt>
<trkpt lat="47.380266" lon="9.203112">
<ele>833.4</ele>
<time>2003-09-26T06:22:33Z</time>
<speed>1.1</speed>
</trkpt>
<trkpt lat="47.380302" lon="9.203082">
<ele>831.1</ele>
<time>2003-09-26T06:22:38Z</time>
<speed>0.8</speed>
</trkpt>
<trkpt lat="47.380342" lon="9.203064">
<ele>829.7</ele>
<time>2003-09-26T06:22:43Z</time>
<speed>0.8</speed>
</trkpt>
<trkpt lat="47.380408" lon="9.203035">
<ele>829.7</ele>
<time>2003-09-26T06:22:48Z</time>
<speed>1.1</speed>
</trkpt>
<trkpt lat="47.380473" lon="9.203020">
<ele>829.8</ele>
<time>2003-09-26T06:22:53Z</time>
<speed>1.7</speed>
</trkpt>
<trkpt lat="47.380532" lon="9.203002">
<ele>830.6</ele>
<time>2003-09-26T06:22:58Z</time>
<speed>0.8</speed>
</trkpt>
<trkpt lat="47.380592" lon="9.202974">
<ele>829.9</ele>
<time>2003-09-26T06:23:03Z</time>
<speed>0.8</speed>
</trkpt>
<trkpt lat="47.380638" lon="9.202969">
<ele>829.3</ele>
<time>2003-09-26T06:23:08Z</time>
<speed>1.1</speed>
</trkpt>
<trkpt lat="47.380714" lon="9.202982">
<ele>829.7</ele>
<time>2003-09-26T06:23:13Z</time>
<speed>1.1</speed>
</trkpt>
<trkpt lat="47.380768" lon="9.203034">
<ele>828.3</ele>
<time>2003-09-26T06:23:18Z</time>
<speed>1.1</speed>
</trkpt>
<trkpt lat="47.380781" lon="9.203118">
<ele>826.9</ele>
<time>2003-09-26T06:23:23Z</time>
<speed>0.8</speed>
</trkpt>
<trkpt lat="47.380800" lon="9.203203">
<ele>826.3</ele>
<time>2003-09-26T06:23:28Z</time>
<speed>1.7</speed>
</trkpt>
<trkpt lat="47.380829" lon="9.203249">
<ele>826.1</ele>
<time>2003-09-26T06:23:33Z</time>
<speed>1.1</speed>
</trkpt>
<trkpt lat="47.380882" lon="9.203233">
<ele>824.7</ele>
<time>2003-09-26T06:23:38Z</time>
<speed>1.1</speed>
</trkpt>
<trkpt lat="47.380932" lon="9.203176">
<ele>823.7</ele>
<time>2003-09-26T06:23:43Z</time>
<speed>1.1</speed>
</trkpt>
<trkpt lat="47.380962" lon="9.203115">
<ele>823.3</ele>
<time>2003-09-26T06:23:48Z</time>
<speed>0.8</speed>
</trkpt>
<trkpt lat="47.380999" lon="9.203071">
<ele>820.9</ele>
<time>2003-09-26T06:23:53Z</time>
<speed>0.8</speed>
</trkpt>
<trkpt lat="47.381053" lon="9.203043">
<ele>819.5</ele>
<time>2003-09-26T06:23:58Z</time>
<speed>1.1</speed>
</trkpt>
<trkpt lat="47.381088" lon="9.203010">
<ele>818.6</ele>
<time>2003-09-26T06:24:03Z</time>
<speed>0.8</speed>
</trkpt>
<trkpt lat="47.381135" lon="9.202979">
<ele>817.8</ele>
<time>2003-09-26T06:24:08Z</time>
<speed>1.9</speed>
</trkpt>
<trkpt lat="47.381209" lon="9.202940">
<ele>817.1</ele>
<time>2003-09-26T06:24:14Z</time>
<speed>0.8</speed>
</trkpt>
<trkpt lat="47.381249" lon="9.202920">
<ele>817.0</ele>
<time>2003-09-26T06:24:19Z</time>
<speed>1.1</speed>
</trkpt>
<trkpt lat="47.381303" lon="9.202891">
<ele>815.6</ele>
<time>2003-09-26T06:24:24Z</time>
<speed>0.8</speed>
</trkpt>
<trkpt lat="47.381351" lon="9.202860">
<ele>814.8</ele>
<time>2003-09-26T06:24:29Z</time>
<speed>1.1</speed>
</trkpt>
<trkpt lat="47.381397" lon="9.202843">
<ele>814.1</ele>
<time>2003-09-26T06:24:34Z</time>
<speed>1.1</speed>
</trkpt>
<trkpt lat="47.381449" lon="9.202838">
<ele>814.3</ele>
<time>2003-09-26T06:24:39Z</time>
<speed>1.1</speed>
</trkpt>
<trkpt lat="47.381507" lon="9.202836">
<ele>813.8</ele>
<time>2003-09-26T06:24:44Z</time>
<speed>0.8</speed>
</trkpt>
<trkpt lat="47.381555" lon="9.202885">
<ele>813.0</ele>
<time>2003-09-26T06:24:49Z</time>
<speed>1.4</speed>
</trkpt>
<trkpt lat="47.381581" lon="9.202972">
<ele>811.7</ele>
<time>2003-09-26T06:24:54Z</time>
<speed>1.1</speed>
</trkpt>
<trkpt lat="47.381600" lon="9.203057">
<ele>811.1</ele>
<time>2003-09-26T06:24:59Z</time>
<speed>1.1</speed>
</trkpt>
<trkpt lat="47.381613" lon="9.203140">
<ele>811.1</ele>
<time>2003-09-26T06:25:04Z</time>
<speed>1.4</speed>
</trkpt>
<trkpt lat="47.381644" lon="9.203240">
<ele>810.7</ele>
<time>2003-09-26T06:25:09Z</time>
<speed>1.1</speed>
</trkpt>
<trkpt lat="47.381652" lon="9.203309">
<ele>809.9</ele>
<time>2003-09-26T06:25:14Z</time>
<speed>1.1</speed>
</trkpt>
<trkpt lat="47.381685" lon="9.203383">
<ele>809.2</ele>
<time>2003-09-26T06:25:19Z</time>
<speed>1.1</speed>
</trkpt>
<trkpt lat="47.381704" lon="9.203468">
<ele>808.6</ele>
<time>2003-09-26T06:25:24Z</time>
<speed>1.4</speed>
</trkpt>
<trkpt lat="47.381723" lon="9.203553">
<ele>808.0</ele>
<time>2003-09-26T06:25:29Z</time>
<speed>1.4</speed>
</trkpt>
<trkpt lat="47.381749" lon="9.203638">
<ele>808.1</ele>
<time>2003-09-26T06:25:34Z</time>
<speed>1.1</speed>
</trkpt>
<trkpt lat="47.381754" lon="9.203733">
<ele>807.5</ele>
<time>2003-09-26T06:25:39Z</time>
<speed>1.1</speed>
</trkpt>
<trkpt lat="47.381768" lon="9.203803">
<ele>807.4</ele>
<time>2003-09-26T06:25:44Z</time>
<speed>1.4</speed>
</trkpt>
<trkpt lat="47.381766" lon="9.203910">
<ele>807.6</ele>
<time>2003-09-26T06:25:49Z</time>
<speed>0.8</speed>
</trkpt>
<trkpt lat="47.381759" lon="9.204003">
<ele>807.0</ele>
<time>2003-09-26T06:25:54Z</time>
<speed>1.1</speed>
</trkpt>
<trkpt lat="47.381743" lon="9.204055">
<ele>806.0</ele>
<time>2003-09-26T06:25:59Z</time>
<speed>0.8</speed>
</trkpt>
<trkpt lat="47.381730" lon="9.204134">
<ele>805.9</ele>
<time>2003-09-26T06:26:04Z</time>
<speed>1.1</speed>
</trkpt>
<trkpt lat="47.381705" lon="9.204210">
<ele>805.7</ele>
<time>2003-09-26T06:26:09Z</time>
<speed>1.1</speed>
</trkpt>
<trkpt lat="47.381674" lon="9.204286">
<ele>804.8</ele>
<time>2003-09-26T06:26:14Z</time>
<speed>1.1</speed>
</trkpt>
<trkpt lat="47.381649" lon="9.204363">
<ele>804.7</ele>
<time>2003-09-26T06:26:19Z</time>
<speed>1.1</speed>
</trkpt>
<trkpt lat="47.381649" lon="9.204443">
<ele>804.7</ele>
<time>2003-09-26T06:26:24Z</time>
<speed>1.1</speed>
</trkpt>
<trkpt lat="47.381673" lon="9.204554">
<ele>805.0</ele>
<time>2003-09-26T06:26:29Z</time>
<speed>1.4</speed>
</trkpt>
<trkpt lat="47.381692" lon="9.204639">
<ele>804.4</ele>
<time>2003-09-26T06:26:34Z</time>
<speed>1.1</speed>
</trkpt>
<trkpt lat="47.381698" lon="9.204735">
<ele>803.8</ele>
<time>2003-09-26T06:26:39Z</time>
<speed>1.4</speed>
</trkpt>
<trkpt lat="47.381659" lon="9.204824">
<ele>802.3</ele>
<time>2003-09-26T06:26:44Z</time>
<speed>1.4</speed>
</trkpt>
<trkpt lat="47.381623" lon="9.204885">
<ele>801.9</ele>
<time>2003-09-26T06:26:49Z</time>
<speed>1.4</speed>
</trkpt>
<trkpt lat="47.381592" lon="9.204962">
<ele>801.1</ele>
<time>2003-09-26T06:26:54Z</time>
<speed>0.8</speed>
</trkpt>
<trkpt lat="47.381592" lon="9.205042">
<ele>801.0</ele>
<time>2003-09-26T06:26:59Z</time>
<speed>0.8</speed>
</trkpt>
<trkpt lat="47.381573" lon="9.205120">
<ele>800.2</ele>
<time>2003-09-26T06:27:04Z</time>
<speed>1.1</speed>
</trkpt>
<trkpt lat="47.381542" lon="9.205197">
<ele>799.3</ele>
<time>2003-09-26T06:27:09Z</time>
<speed>1.4</speed>
</trkpt>
<trkpt lat="47.381517" lon="9.205273">
<ele>799.2</ele>
<time>2003-09-26T06:27:14Z</time>
<speed>1.1</speed>
</trkpt>
<trkpt lat="47.381491" lon="9.205365">
<ele>797.7</ele>
<time>2003-09-26T06:27:19Z</time>
<speed>1.4</speed>
</trkpt>
<trkpt lat="47.381465" lon="9.205454">
<ele>797.7</ele>
<time>2003-09-26T06:27:24Z</time>
<speed>1.4</speed>
</trkpt>
<trkpt lat="47.381434" lon="9.205530">
<ele>796.8</ele>
<time>2003-09-26T06:27:29Z</time>
<speed>1.1</speed>
</trkpt>
<trkpt lat="47.381428" lon="9.205611">
<ele>796.0</ele>
<time>2003-09-26T06:27:34Z</time>
<speed>1.1</speed>
</trkpt>
<trkpt lat="47.381403" lon="9.205689">
<ele>794.5</ele>
<time>2003-09-26T06:27:39Z</time>
<speed>1.1</speed>
</trkpt>
<trkpt lat="47.381371" lon="9.205777">
<ele>795.1</ele>
<time>2003-09-26T06:27:44Z</time>
<speed>1.1</speed>
</trkpt>
<trkpt lat="47.381352" lon="9.205855">
<ele>794.3</ele>
<time>2003-09-26T06:27:49Z</time>
<speed>1.4</speed>
</trkpt>
<trkpt lat="47.381325" lon="9.205957">
<ele>794.3</ele>
<time>2003-09-26T06:27:54Z</time>
<speed>0.8</speed>
</trkpt>
<trkpt lat="47.381312" lon="9.206049">
<ele>794.4</ele>
<time>2003-09-26T06:27:59Z</time>
<speed>1.4</speed>
</trkpt>
<trkpt lat="47.381317" lon="9.206145">
<ele>793.8</ele>
<time>2003-09-26T06:28:04Z</time>
<speed>0.6</speed>
</trkpt>
<trkpt lat="47.381323" lon="9.206240">
<ele>793.2</ele>
<time>2003-09-26T06:28:09Z</time>
<speed>1.4</speed>
</trkpt>
<trkpt lat="47.381368" lon="9.206329">
<ele>792.7</ele>
<time>2003-09-26T06:28:14Z</time>
<speed>1.4</speed>
</trkpt>
<trkpt lat="47.381412" lon="9.206418">
<ele>792.2</ele>
<time>2003-09-26T06:28:19Z</time>
<speed>1.9</speed>
</trkpt>
<trkpt lat="47.381438" lon="9.206503">
<ele>792.4</ele>
<time>2003-09-26T06:28:24Z</time>
<speed>1.7</speed>
</trkpt>
<trkpt lat="47.381464" lon="9.206577">
<ele>791.0</ele>
<time>2003-09-26T06:28:29Z</time>
<speed>0.8</speed>
</trkpt>
<trkpt lat="47.381503" lon="9.206666">
<ele>789.7</ele>
<time>2003-09-26T06:28:34Z</time>
<speed>1.9</speed>
</trkpt>
<trkpt lat="47.381521" lon="9.206764">
<ele>789.2</ele>
<time>2003-09-26T06:28:39Z</time>
<speed>1.4</speed>
</trkpt>
<trkpt lat="47.381553" lon="9.206849">
<ele>790.1</ele>
<time>2003-09-26T06:28:44Z</time>
<speed>1.1</speed>
</trkpt>
<trkpt lat="47.381567" lon="9.206918">
<ele>790.0</ele>
<time>2003-09-26T06:28:49Z</time>
<speed>1.1</speed>
</trkpt>
<trkpt lat="47.381592" lon="9.207003">
<ele>790.1</ele>
<time>2003-09-26T06:28:54Z</time>
<speed>1.4</speed>
</trkpt>
<trkpt lat="47.381599" lon="9.207086">
<ele>789.4</ele>
<time>2003-09-26T06:28:59Z</time>
<speed>1.1</speed>
</trkpt>
<trkpt lat="47.381605" lon="9.207168">
<ele>788.8</ele>
<time>2003-09-26T06:29:04Z</time>
<speed>0.8</speed>
</trkpt>
<trkpt lat="47.381611" lon="9.207183">
<ele>788.2</ele>
<time>2003-09-26T06:29:09Z</time>
<speed>0.0</speed>
</trkpt>
<trkpt lat="47.381605" lon="9.207183">
<ele>787.5</ele>
<time>2003-09-26T06:29:14Z</time>
<speed>0.0</speed>
</trkpt>
<trkpt lat="47.381593" lon="9.207168">
<ele>787.3</ele>
<time>2003-09-26T06:29:19Z</time>
<speed>0.0</speed>
</trkpt>
<trkpt lat="47.381593" lon="9.207168">
<ele>787.3</ele>
<time>2003-09-26T06:29:24Z</time>
<speed>0.0</speed>
</trkpt>
<trkpt lat="47.381593" lon="9.207168">
<ele>787.3</ele>
<time>2003-09-26T06:29:29Z</time>
<speed>0.0</speed>
</trkpt>
<trkpt lat="47.381593" lon="9.207168">
<ele>787.3</ele>
<time>2003-09-26T06:29:34Z</time>
<speed>0.0</speed>
</trkpt>
<trkpt lat="47.381593" lon="9.207168">
<ele>787.3</ele>
<time>2003-09-26T06:29:39Z</time>
<speed>0.0</speed>
</trkpt>
<trkpt lat="47.381587" lon="9.207249">
<ele>786.5</ele>
<time>2003-09-26T06:29:44Z</time>
<speed>1.1</speed>
</trkpt>
<trkpt lat="47.381556" lon="9.207323">
<ele>787.0</ele>
<time>2003-09-26T06:29:49Z</time>
<speed>1.1</speed>
</trkpt>
<trkpt lat="47.381569" lon="9.207406">
<ele>787.1</ele>
<time>2003-09-26T06:29:54Z</time>
<speed>1.1</speed>
</trkpt>
<trkpt lat="47.381590" lon="9.207464">
<ele>786.3</ele>
<time>2003-09-26T06:29:59Z</time>
<speed>0.8</speed>
</trkpt>
<trkpt lat="47.381617" lon="9.207538">
<ele>784.9</ele>
<time>2003-09-26T06:30:04Z</time>
<speed>1.1</speed>
</trkpt>
<trkpt lat="47.381650" lon="9.207612">
<ele>784.2</ele>
<time>2003-09-26T06:30:09Z</time>
<speed>1.4</speed>
</trkpt>
<trkpt lat="47.381650" lon="9.207693">
<ele>784.2</ele>
<time>2003-09-26T06:30:14Z</time>
<speed>1.1</speed>
</trkpt>
<trkpt lat="47.381664" lon="9.207762">
<ele>784.1</ele>
<time>2003-09-26T06:30:19Z</time>
<speed>0.6</speed>
</trkpt>
<trkpt lat="47.381672" lon="9.207817">
<ele>784.6</ele>
<time>2003-09-26T06:30:24Z</time>
<speed>0.8</speed>
</trkpt>
<trkpt lat="47.381680" lon="9.207886">
<ele>783.8</ele>
<time>2003-09-26T06:30:29Z</time>
<speed>1.4</speed>
</trkpt>
<trkpt lat="47.381688" lon="9.207956">
<ele>783.0</ele>
<time>2003-09-26T06:30:34Z</time>
<speed>0.8</speed>
</trkpt>
<trkpt lat="47.381696" lon="9.208025">
<ele>782.2</ele>
<time>2003-09-26T06:30:39Z</time>
<speed>1.4</speed>
</trkpt>
<trkpt lat="47.381709" lon="9.208110">
<ele>780.9</ele>
<time>2003-09-26T06:30:44Z</time>
<speed>1.4</speed>
</trkpt>
<trkpt lat="47.381703" lon="9.208191">
<ele>780.1</ele>
<time>2003-09-26T06:30:49Z</time>
<speed>0.3</speed>
</trkpt>
<trkpt lat="47.381706" lon="9.208232">
<ele>779.8</ele>
<time>2003-09-26T06:30:54Z</time>
<speed>0.8</speed>
</trkpt>
<trkpt lat="47.381707" lon="9.208312">
<ele>779.8</ele>
<time>2003-09-26T06:30:59Z</time>
<speed>1.1</speed>
</trkpt>
<trkpt lat="47.381713" lon="9.208393">
<ele>780.5</ele>
<time>2003-09-26T06:31:04Z</time>
<speed>1.1</speed>
</trkpt>
<trkpt lat="47.381718" lon="9.208489">
<ele>779.9</ele>
<time>2003-09-26T06:31:09Z</time>
<speed>1.1</speed>
</trkpt>
<trkpt lat="47.381706" lon="9.208567">
<ele>779.8</ele>
<time>2003-09-26T06:31:14Z</time>
<speed>1.1</speed>
</trkpt>
<trkpt lat="47.381720" lon="9.208639">
<ele>778.4</ele>
<time>2003-09-26T06:31:19Z</time>
<speed>0.8</speed>
</trkpt>
<trkpt lat="47.381734" lon="9.208724">
<ele>777.0</ele>
<time>2003-09-26T06:31:24Z</time>
<speed>1.4</speed>
</trkpt>
<trkpt lat="47.381721" lon="9.208802">
<ele>776.9</ele>
<time>2003-09-26T06:31:29Z</time>
<speed>1.4</speed>
</trkpt>
<trkpt lat="47.381708" lon="9.208896">
<ele>775.5</ele>
<time>2003-09-26T06:31:34Z</time>
<speed>1.1</speed>
</trkpt>
<trkpt lat="47.381715" lon="9.208978">
<ele>774.9</ele>
<time>2003-09-26T06:31:39Z</time>
<speed>0.8</speed>
</trkpt>
<trkpt lat="47.381709" lon="9.209059">
<ele>774.1</ele>
<time>2003-09-26T06:31:44Z</time>
<speed>0.8</speed>
</trkpt>
<trkpt lat="47.381709" lon="9.209142">
<ele>772.7</ele>
<time>2003-09-26T06:31:49Z</time>
<speed>1.1</speed>
</trkpt>
<trkpt lat="47.381691" lon="9.209218">
<ele>773.3</ele>
<time>2003-09-26T06:31:54Z</time>
<speed>0.8</speed>
</trkpt>
<trkpt lat="47.381693" lon="9.209274">
<ele>771.6</ele>
<time>2003-09-26T06:31:59Z</time>
<speed>1.4</speed>
</trkpt>
<trkpt lat="47.381726" lon="9.209346">
<ele>772.4</ele>
<time>2003-09-26T06:32:04Z</time>
<speed>1.1</speed>
</trkpt>
<trkpt lat="47.381774" lon="9.209396">
<ele>771.6</ele>
<time>2003-09-26T06:32:09Z</time>
<speed>1.4</speed>
</trkpt>
<trkpt lat="47.381822" lon="9.209431">
<ele>772.0</ele>
<time>2003-09-26T06:32:14Z</time>
<speed>1.1</speed>
</trkpt>
<trkpt lat="47.381863" lon="9.209478">
<ele>771.9</ele>
<time>2003-09-26T06:32:20Z</time>
<speed>1.1</speed>
</trkpt>
<trkpt lat="47.381911" lon="9.209528">
<ele>771.1</ele>
<time>2003-09-26T06:32:25Z</time>
<speed>0.8</speed>
</trkpt>
<trkpt lat="47.381960" lon="9.209565">
<ele>770.2</ele>
<time>2003-09-26T06:32:30Z</time>
<speed>1.1</speed>
</trkpt>
<trkpt lat="47.382002" lon="9.209599">
<ele>769.9</ele>
<time>2003-09-26T06:32:35Z</time>
<speed>1.7</speed>
</trkpt>
<trkpt lat="47.382045" lon="9.209636">
<ele>768.3</ele>
<time>2003-09-26T06:32:40Z</time>
<speed>1.7</speed>
</trkpt>
<trkpt lat="47.382081" lon="9.209671">
<ele>767.3</ele>
<time>2003-09-26T06:32:45Z</time>
<speed>1.7</speed>
</trkpt>
<trkpt lat="47.382117" lon="9.209705">
<ele>766.3</ele>
<time>2003-09-26T06:32:50Z</time>
<speed>1.7</speed>
</trkpt>
<trkpt lat="47.382170" lon="9.209768">
<ele>766.3</ele>
<time>2003-09-26T06:32:55Z</time>
<speed>0.8</speed>
</trkpt>
<trkpt lat="47.382219" lon="9.209805">
<ele>765.4</ele>
<time>2003-09-26T06:33:00Z</time>
<speed>1.1</speed>
</trkpt>
<trkpt lat="47.382268" lon="9.209842">
<ele>764.5</ele>
<time>2003-09-26T06:33:05Z</time>
<speed>1.4</speed>
</trkpt>
<trkpt lat="47.382315" lon="9.209889">
<ele>765.1</ele>
<time>2003-09-26T06:33:10Z</time>
<speed>0.8</speed>
</trkpt>
<trkpt lat="47.382364" lon="9.209926">
<ele>764.2</ele>
<time>2003-09-26T06:33:15Z</time>
<speed>1.1</speed>
</trkpt>
<trkpt lat="47.382406" lon="9.209961">
<ele>763.9</ele>
<time>2003-09-26T06:33:20Z</time>
<speed>1.1</speed>
</trkpt>
<trkpt lat="47.382434" lon="9.210022">
<ele>762.4</ele>
<time>2003-09-26T06:33:25Z</time>
<speed>0.6</speed>
</trkpt>
<trkpt lat="47.382471" lon="9.210043">
<ele>761.3</ele>
<time>2003-09-26T06:33:30Z</time>
<speed>0.8</speed>
</trkpt>
<trkpt lat="47.382519" lon="9.210093">
<ele>760.5</ele>
<time>2003-09-26T06:33:35Z</time>
<speed>0.8</speed>
</trkpt>
<trkpt lat="47.382554" lon="9.210141">
<ele>759.6</ele>
<time>2003-09-26T06:33:40Z</time>
<speed>1.1</speed>
</trkpt>
<trkpt lat="47.382589" lon="9.210188">
<ele>758.8</ele>
<time>2003-09-26T06:33:45Z</time>
<speed>0.8</speed>
</trkpt>
<trkpt lat="47.382624" lon="9.210236">
<ele>757.9</ele>
<time>2003-09-26T06:33:50Z</time>
<speed>1.1</speed>
</trkpt>
<trkpt lat="47.382666" lon="9.210286">
<ele>756.4</ele>
<time>2003-09-26T06:33:55Z</time>
<speed>1.1</speed>
</trkpt>
<trkpt lat="47.382699" lon="9.210360">
<ele>755.7</ele>
<time>2003-09-26T06:34:00Z</time>
<speed>1.7</speed>
</trkpt>
<trkpt lat="47.382733" lon="9.210420">
<ele>754.9</ele>
<time>2003-09-26T06:34:05Z</time>
<speed>0.8</speed>
</trkpt>
<trkpt lat="47.382756" lon="9.210466">
<ele>754.0</ele>
<time>2003-09-26T06:34:10Z</time>
<speed>0.6</speed>
</trkpt>
<trkpt lat="47.382773" lon="9.210496">
<ele>753.6</ele>
<time>2003-09-26T06:34:15Z</time>
<speed>0.3</speed>
</trkpt>
<trkpt lat="47.382794" lon="9.210555">
<ele>752.8</ele>
<time>2003-09-26T06:34:20Z</time>
<speed>1.1</speed>
</trkpt>
<trkpt lat="47.382827" lon="9.210629">
<ele>752.1</ele>
<time>2003-09-26T06:34:25Z</time>
<speed>1.4</speed>
</trkpt>
<trkpt lat="47.382860" lon="9.210703">
<ele>751.4</ele>
<time>2003-09-26T06:34:30Z</time>
<speed>1.7</speed>
</trkpt>
<trkpt lat="47.382897" lon="9.210803">
<ele>751.7</ele>
<time>2003-09-26T06:34:35Z</time>
<speed>1.4</speed>
</trkpt>
<trkpt lat="47.382936" lon="9.210892">
<ele>750.5</ele>
<time>2003-09-26T06:34:40Z</time>
<speed>1.1</speed>
</trkpt>
<trkpt lat="47.382977" lon="9.210939">
<ele>750.4</ele>
<time>2003-09-26T06:34:45Z</time>
<speed>1.7</speed>
</trkpt>
<trkpt lat="47.383025" lon="9.210989">
<ele>749.6</ele>
<time>2003-09-26T06:34:50Z</time>
<speed>1.9</speed>
</trkpt>
<trkpt lat="47.383045" lon="9.211061">
<ele>748.8</ele>
<time>2003-09-26T06:34:55Z</time>
<speed>0.6</speed>
</trkpt>
<trkpt lat="47.383029" lon="9.211113">
<ele>747.8</ele>
<time>2003-09-26T06:35:00Z</time>
<speed>0.3</speed>
</trkpt>
<trkpt lat="47.383038" lon="9.211154">
<ele>748.2</ele>
<time>2003-09-26T06:35:05Z</time>
<speed>1.1</speed>
</trkpt>
<trkpt lat="47.383044" lon="9.211235">
<ele>748.9</ele>
<time>2003-09-26T06:35:10Z</time>
<speed>1.1</speed>
</trkpt>
<trkpt lat="47.383059" lon="9.211291">
<ele>748.7</ele>
<time>2003-09-26T06:35:15Z</time>
<speed>0.6</speed>
</trkpt>
<trkpt lat="47.383069" lon="9.211335">
<ele>747.7</ele>
<time>2003-09-26T06:35:20Z</time>
<speed>0.6</speed>
</trkpt>
<trkpt lat="47.383096" lon="9.211407">
<ele>747.7</ele>
<time>2003-09-26T06:35:25Z</time>
<speed>0.8</speed>
</trkpt>
<trkpt lat="47.383112" lon="9.211450">
<ele>747.5</ele>
<time>2003-09-26T06:35:30Z</time>
<speed>0.8</speed>
</trkpt>
<trkpt lat="47.383134" lon="9.211496">
<ele>746.5</ele>
<time>2003-09-26T06:35:35Z</time>
<speed>0.6</speed>
</trkpt>
<trkpt lat="47.383135" lon="9.211563">
<ele>746.4</ele>
<time>2003-09-26T06:35:40Z</time>
<speed>0.8</speed>
</trkpt>
<trkpt lat="47.383150" lon="9.211620">
<ele>746.2</ele>
<time>2003-09-26T06:35:45Z</time>
<speed>1.1</speed>
</trkpt>
<trkpt lat="47.383174" lon="9.211652">
<ele>745.2</ele>
<time>2003-09-26T06:35:50Z</time>
<speed>0.6</speed>
</trkpt>
<trkpt lat="47.383203" lon="9.211700">
<ele>743.6</ele>
<time>2003-09-26T06:35:55Z</time>
<speed>0.8</speed>
</trkpt>
<trkpt lat="47.383224" lon="9.211759">
<ele>742.7</ele>
<time>2003-09-26T06:36:00Z</time>
<speed>1.7</speed>
</trkpt>
<trkpt lat="47.383253" lon="9.211806">
<ele>741.1</ele>
<time>2003-09-26T06:36:05Z</time>
<speed>0.8</speed>
</trkpt>
<trkpt lat="47.383281" lon="9.211865">
<ele>741.0</ele>
<time>2003-09-26T06:36:10Z</time>
<speed>1.1</speed>
</trkpt>
<trkpt lat="47.383309" lon="9.211910">
<ele>740.8</ele>
<time>2003-09-26T06:36:15Z</time>
<speed>0.8</speed>
</trkpt>
<trkpt lat="47.383331" lon="9.211969">
<ele>740.0</ele>
<time>2003-09-26T06:36:20Z</time>
<speed>0.8</speed>
</trkpt>
<trkpt lat="47.383351" lon="9.212039">
<ele>740.6</ele>
<time>2003-09-26T06:36:25Z</time>
<speed>1.1</speed>
</trkpt>
<trkpt lat="47.383372" lon="9.212097">
<ele>739.8</ele>
<time>2003-09-26T06:36:30Z</time>
<speed>0.8</speed>
</trkpt>
<trkpt lat="47.383399" lon="9.212169">
<ele>739.8</ele>
<time>2003-09-26T06:36:35Z</time>
<speed>0.8</speed>
</trkpt>
<trkpt lat="47.383419" lon="9.212241">
<ele>739.1</ele>
<time>2003-09-26T06:36:40Z</time>
<speed>0.8</speed>
</trkpt>
<trkpt lat="47.383429" lon="9.212284">
<ele>738.1</ele>
<time>2003-09-26T06:36:45Z</time>
<speed>0.8</speed>
</trkpt>
<trkpt lat="47.383452" lon="9.212330">
<ele>737.1</ele>
<time>2003-09-26T06:36:50Z</time>
<speed>0.8</speed>
</trkpt>
<trkpt lat="47.383474" lon="9.212375">
<ele>736.2</ele>
<time>2003-09-26T06:36:55Z</time>
<speed>0.6</speed>
</trkpt>
<trkpt lat="47.383495" lon="9.212434">
<ele>735.4</ele>
<time>2003-09-26T06:37:00Z</time>
<speed>1.1</speed>
</trkpt>
<trkpt lat="47.383525" lon="9.212482">
<ele>733.7</ele>
<time>2003-09-26T06:37:05Z</time>
<speed>0.8</speed>
</trkpt>
<trkpt lat="47.383553" lon="9.212527">
<ele>733.5</ele>
<time>2003-09-26T06:37:10Z</time>
<speed>0.8</speed>
</trkpt>
<trkpt lat="47.383577" lon="9.212560">
<ele>732.5</ele>
<time>2003-09-26T06:37:15Z</time>
<speed>0.6</speed>
</trkpt>
<trkpt lat="47.383613" lon="9.212594">
<ele>731.5</ele>
<time>2003-09-26T06:37:20Z</time>
<speed>0.8</speed>
</trkpt>
<trkpt lat="47.383648" lon="9.212642">
<ele>730.6</ele>
<time>2003-09-26T06:37:25Z</time>
<speed>1.4</speed>
</trkpt>
<trkpt lat="47.383695" lon="9.212705">
<ele>729.9</ele>
<time>2003-09-26T06:37:30Z</time>
<speed>1.1</speed>
</trkpt>
<trkpt lat="47.383721" lon="9.212777">
<ele>729.9</ele>
<time>2003-09-26T06:37:35Z</time>
<speed>0.8</speed>
</trkpt>
<trkpt lat="47.383742" lon="9.212848">
<ele>729.2</ele>
<time>2003-09-26T06:37:40Z</time>
<speed>0.8</speed>
</trkpt>
<trkpt lat="47.383762" lon="9.212920">
<ele>728.5</ele>
<time>2003-09-26T06:37:45Z</time>
<speed>0.8</speed>
</trkpt>
<trkpt lat="47.383781" lon="9.213005">
<ele>727.9</ele>
<time>2003-09-26T06:37:50Z</time>
<speed>1.4</speed>
</trkpt>
<trkpt lat="47.383789" lon="9.213074">
<ele>727.1</ele>
<time>2003-09-26T06:37:55Z</time>
<speed>0.8</speed>
</trkpt>
<trkpt lat="47.383803" lon="9.213146">
<ele>725.6</ele>
<time>2003-09-26T06:38:00Z</time>
<speed>1.1</speed>
</trkpt>
<trkpt lat="47.383816" lon="9.213229">
<ele>725.7</ele>
<time>2003-09-26T06:38:05Z</time>
<speed>1.1</speed>
</trkpt>
<trkpt lat="47.383836" lon="9.213314">
<ele>725.0</ele>
<time>2003-09-26T06:38:10Z</time>
<speed>1.1</speed>
</trkpt>
<trkpt lat="47.383849" lon="9.213383">
<ele>725.0</ele>
<time>2003-09-26T06:38:15Z</time>
<speed>0.8</speed>
</trkpt>
<trkpt lat="47.383865" lon="9.213442">
<ele>723.4</ele>
<time>2003-09-26T06:38:20Z</time>
<speed>0.8</speed>
</trkpt>
<trkpt lat="47.383871" lon="9.213522">
<ele>724.1</ele>
<time>2003-09-26T06:38:25Z</time>
<speed>0.8</speed>
</trkpt>
<trkpt lat="47.383873" lon="9.213577">
<ele>723.9</ele>
<time>2003-09-26T06:38:30Z</time>
<speed>0.6</speed>
</trkpt>
<trkpt lat="47.383860" lon="9.213653">
<ele>725.2</ele>
<time>2003-09-26T06:38:35Z</time>
<speed>0.8</speed>
</trkpt>
<trkpt lat="47.383819" lon="9.213701">
<ele>724.0</ele>
<time>2003-09-26T06:38:40Z</time>
<speed>1.1</speed>
</trkpt>
<trkpt lat="47.383779" lon="9.213723">
<ele>722.6</ele>
<time>2003-09-26T06:38:45Z</time>
<speed>1.1</speed>
</trkpt>
<trkpt lat="47.383731" lon="9.213769">
<ele>722.1</ele>
<time>2003-09-26T06:38:50Z</time>
<speed>1.1</speed>
</trkpt>
<trkpt lat="47.383702" lon="9.213819">
<ele>721.0</ele>
<time>2003-09-26T06:38:55Z</time>
<speed>1.1</speed>
</trkpt>
<trkpt lat="47.383643" lon="9.213837">
<ele>720.2</ele>
<time>2003-09-26T06:39:00Z</time>
<speed>0.8</speed>
</trkpt>
<trkpt lat="47.383591" lon="9.213854">
<ele>720.2</ele>
<time>2003-09-26T06:39:05Z</time>
<speed>1.1</speed>
</trkpt>
<trkpt lat="47.383533" lon="9.213859">
<ele>719.3</ele>
<time>2003-09-26T06:39:10Z</time>
<speed>0.8</speed>
</trkpt>
<trkpt lat="47.383496" lon="9.213855">
<ele>717.7</ele>
<time>2003-09-26T06:39:15Z</time>
<speed>0.6</speed>
</trkpt>
<trkpt lat="47.383424" lon="9.213870">
<ele>716.8</ele>
<time>2003-09-26T06:39:20Z</time>
<speed>0.8</speed>
</trkpt>
<trkpt lat="47.383391" lon="9.213892">
<ele>716.2</ele>
<time>2003-09-26T06:39:25Z</time>
<speed>0.3</speed>
</trkpt>
<trkpt lat="47.383390" lon="9.213905">
<ele>716.3</ele>
<time>2003-09-26T06:39:30Z</time>
<speed>0.0</speed>
</trkpt>
<trkpt lat="47.383390" lon="9.213905">
<ele>716.3</ele>
<time>2003-09-26T06:39:35Z</time>
<speed>0.0</speed>
</trkpt>
<trkpt lat="47.383390" lon="9.213905">
<ele>716.3</ele>
<time>2003-09-26T06:39:40Z</time>
<speed>0.0</speed>
</trkpt>
<trkpt lat="47.383384" lon="9.213905">
<ele>715.5</ele>
<time>2003-09-26T06:39:45Z</time>
<speed>0.0</speed>
</trkpt>
<trkpt lat="47.383384" lon="9.213905">
<ele>715.5</ele>
<time>2003-09-26T06:39:50Z</time>
<speed>0.0</speed>
</trkpt>
<trkpt lat="47.383384" lon="9.213905">
<ele>715.5</ele>
<time>2003-09-26T06:39:55Z</time>
<speed>0.0</speed>
</trkpt>
<trkpt lat="47.383384" lon="9.213905">
<ele>715.5</ele>
<time>2003-09-26T06:40:00Z</time>
<speed>0.0</speed>
</trkpt>
<trkpt lat="47.383377" lon="9.213903">
<ele>716.2</ele>
<time>2003-09-26T06:40:05Z</time>
<speed>0.0</speed>
</trkpt>
<trkpt lat="47.383362" lon="9.213927">
<ele>716.4</ele>
<time>2003-09-26T06:40:10Z</time>
<speed>0.3</speed>
</trkpt>
<trkpt lat="47.383357" lon="9.213993">
<ele>716.9</ele>
<time>2003-09-26T06:40:15Z</time>
<speed>0.8</speed>
</trkpt>
<trkpt lat="47.383423" lon="9.214060">
<ele>715.6</ele>
<time>2003-09-26T06:40:20Z</time>
<speed>1.1</speed>
</trkpt>
<trkpt lat="47.383476" lon="9.214123">
<ele>715.6</ele>
<time>2003-09-26T06:40:25Z</time>
<speed>1.4</speed>
</trkpt>
<trkpt lat="47.383515" lon="9.214199">
<ele>714.3</ele>
<time>2003-09-26T06:40:30Z</time>
<speed>0.8</speed>
</trkpt>
<trkpt lat="47.383542" lon="9.214272">
<ele>712.9</ele>
<time>2003-09-26T06:40:35Z</time>
<speed>0.8</speed>
</trkpt>
<trkpt lat="47.383595" lon="9.214335">
<ele>713.0</ele>
<time>2003-09-26T06:40:40Z</time>
<speed>1.4</speed>
</trkpt>
<trkpt lat="47.383646" lon="9.214424">
<ele>713.2</ele>
<time>2003-09-26T06:40:45Z</time>
<speed>1.4</speed>
</trkpt>
<trkpt lat="47.383685" lon="9.214498">
<ele>713.3</ele>
<time>2003-09-26T06:40:50Z</time>
<speed>1.1</speed>
</trkpt>
<trkpt lat="47.383731" lon="9.214561">
<ele>712.6</ele>
<time>2003-09-26T06:40:55Z</time>
<speed>1.1</speed>
</trkpt>
<trkpt lat="47.383772" lon="9.214622">
<ele>712.5</ele>
<time>2003-09-26T06:41:00Z</time>
<speed>1.1</speed>
</trkpt>
<trkpt lat="47.383818" lon="9.214685">
<ele>711.8</ele>
<time>2003-09-26T06:41:05Z</time>
<speed>1.1</speed>
</trkpt>
<trkpt lat="47.383871" lon="9.214748">
<ele>711.9</ele>
<time>2003-09-26T06:41:10Z</time>
<speed>1.7</speed>
</trkpt>
<trkpt lat="47.383918" lon="9.214810">
<ele>711.2</ele>
<time>2003-09-26T06:41:15Z</time>
<speed>1.1</speed>
</trkpt>
<trkpt lat="47.383957" lon="9.214884">
<ele>711.3</ele>
<time>2003-09-26T06:41:20Z</time>
<speed>1.4</speed>
</trkpt>
<trkpt lat="47.384002" lon="9.214958">
<ele>712.1</ele>
<time>2003-09-26T06:41:25Z</time>
<speed>1.4</speed>
</trkpt>
<trkpt lat="47.384048" lon="9.215034">
<ele>711.5</ele>
<time>2003-09-26T06:41:30Z</time>
<speed>1.4</speed>
</trkpt>
<trkpt lat="47.384087" lon="9.215108">
<ele>711.6</ele>
<time>2003-09-26T06:41:35Z</time>
<speed>1.1</speed>
</trkpt>
<trkpt lat="47.384119" lon="9.215195">
<ele>711.0</ele>
<time>2003-09-26T06:41:40Z</time>
<speed>1.4</speed>
</trkpt>
<trkpt lat="47.384151" lon="9.215267">
<ele>711.7</ele>
<time>2003-09-26T06:41:45Z</time>
<speed>1.4</speed>
</trkpt>
<trkpt lat="47.384178" lon="9.215338">
<ele>711.8</ele>
<time>2003-09-26T06:41:50Z</time>
<speed>1.1</speed>
</trkpt>
<trkpt lat="47.384201" lon="9.215369">
<ele>712.1</ele>
<time>2003-09-26T06:41:55Z</time>
<speed>0.8</speed>
</trkpt>
<trkpt lat="47.384237" lon="9.215401">
<ele>712.5</ele>
<time>2003-09-26T06:42:00Z</time>
<speed>0.6</speed>
</trkpt>
<trkpt lat="47.384276" lon="9.215394">
<ele>712.6</ele>
<time>2003-09-26T06:42:05Z</time>
<speed>0.8</speed>
</trkpt>
<trkpt lat="47.384328" lon="9.215392">
<ele>711.4</ele>
<time>2003-09-26T06:42:10Z</time>
<speed>0.8</speed>
</trkpt>
<trkpt lat="47.384402" lon="9.215418">
<ele>711.9</ele>
<time>2003-09-26T06:42:15Z</time>
<speed>0.8</speed>
</trkpt>
<trkpt lat="47.384414" lon="9.215433">
<ele>712.1</ele>
<time>2003-09-26T06:42:20Z</time>
<speed>0.3</speed>
</trkpt>
<trkpt lat="47.384446" lon="9.215424">
<ele>712.8</ele>
<time>2003-09-26T06:42:25Z</time>
<speed>0.6</speed>
</trkpt>
<trkpt lat="47.384503" lon="9.215435">
<ele>712.4</ele>
<time>2003-09-26T06:42:30Z</time>
<speed>0.8</speed>
</trkpt>
<trkpt lat="47.384631" lon="9.215523">
<ele>713.0</ele>
<time>2003-09-26T06:42:35Z</time>
<speed>1.1</speed>
</trkpt>
<trkpt lat="47.384683" lon="9.215586">
<ele>713.0</ele>
<time>2003-09-26T06:42:40Z</time>
<speed>1.1</speed>
</trkpt>
<trkpt lat="47.384736" lon="9.215649">
<ele>713.1</ele>
<time>2003-09-26T06:42:45Z</time>
<speed>1.1</speed>
</trkpt>
<trkpt lat="47.384779" lon="9.215684">
<ele>712.8</ele>
<time>2003-09-26T06:42:50Z</time>
<speed>1.1</speed>
</trkpt>
<trkpt lat="47.384832" lon="9.215734">
<ele>712.7</ele>
<time>2003-09-26T06:42:55Z</time>
<speed>1.1</speed>
</trkpt>
<trkpt lat="47.384887" lon="9.215768">
<ele>714.0</ele>
<time>2003-09-26T06:43:00Z</time>
<speed>0.8</speed>
</trkpt>
<trkpt lat="47.384923" lon="9.215803">
<ele>713.0</ele>
<time>2003-09-26T06:43:05Z</time>
<speed>1.1</speed>
</trkpt>
<trkpt lat="47.384965" lon="9.215838">
<ele>712.7</ele>
<time>2003-09-26T06:43:10Z</time>
<speed>1.1</speed>
</trkpt>
<trkpt lat="47.385019" lon="9.215903">
<ele>711.4</ele>
<time>2003-09-26T06:43:15Z</time>
<speed>1.1</speed>
</trkpt>
<trkpt lat="47.385060" lon="9.215952">
<ele>709.8</ele>
<time>2003-09-26T06:43:20Z</time>
<speed>1.4</speed>
</trkpt>
<trkpt lat="47.385095" lon="9.216015">
<ele>707.6</ele>
<time>2003-09-26T06:43:25Z</time>
<speed>1.4</speed>
</trkpt>
<trkpt lat="47.385135" lon="9.216078">
<ele>706.2</ele>
<time>2003-09-26T06:43:30Z</time>
<speed>1.4</speed>
</trkpt>
<trkpt lat="47.385174" lon="9.216152">
<ele>706.3</ele>
<time>2003-09-26T06:43:35Z</time>
<speed>1.1</speed>
</trkpt>
<trkpt lat="47.385201" lon="9.216224">
<ele>706.3</ele>
<time>2003-09-26T06:43:40Z</time>
<speed>0.8</speed>
</trkpt>
<trkpt lat="47.385201" lon="9.216304">
<ele>706.3</ele>
<time>2003-09-26T06:43:45Z</time>
<speed>1.1</speed>
</trkpt>
<trkpt lat="47.385208" lon="9.216387">
<ele>705.6</ele>
<time>2003-09-26T06:43:50Z</time>
<speed>1.1</speed>
</trkpt>
<trkpt lat="47.385209" lon="9.216454">
<ele>705.5</ele>
<time>2003-09-26T06:43:55Z</time>
<speed>0.8</speed>
</trkpt>
<trkpt lat="47.385223" lon="9.216524">
<ele>705.4</ele>
<time>2003-09-26T06:44:00Z</time>
<speed>0.8</speed>
</trkpt>
<trkpt lat="47.385199" lon="9.216587">
<ele>705.1</ele>
<time>2003-09-26T06:44:05Z</time>
<speed>0.8</speed>
</trkpt>
<trkpt lat="47.385192" lon="9.216666">
<ele>705.8</ele>
<time>2003-09-26T06:44:10Z</time>
<speed>0.8</speed>
</trkpt>
<trkpt lat="47.385172" lon="9.216755">
<ele>706.5</ele>
<time>2003-09-26T06:44:15Z</time>
<speed>0.6</speed>
</trkpt>
<trkpt lat="47.385166" lon="9.216833">
<ele>707.1</ele>
<time>2003-09-26T06:44:20Z</time>
<speed>0.6</speed>
</trkpt>
<trkpt lat="47.385155" lon="9.216899">
<ele>706.9</ele>
<time>2003-09-26T06:44:25Z</time>
<speed>0.6</speed>
</trkpt>
<trkpt lat="47.385143" lon="9.216964">
<ele>706.7</ele>
<time>2003-09-26T06:44:30Z</time>
<speed>0.6</speed>
</trkpt>
<trkpt lat="47.385136" lon="9.217073">
<ele>704.8</ele>
<time>2003-09-26T06:44:35Z</time>
<speed>0.8</speed>
</trkpt>
<trkpt lat="47.385225" lon="9.217170">
<ele>703.9</ele>
<time>2003-09-26T06:44:40Z</time>
<speed>0.8</speed>
</trkpt>
<trkpt lat="47.385245" lon="9.217242">
<ele>703.1</ele>
<time>2003-09-26T06:44:45Z</time>
<speed>1.1</speed>
</trkpt>
<trkpt lat="47.385251" lon="9.217338">
<ele>702.6</ele>
<time>2003-09-26T06:44:50Z</time>
<speed>1.1</speed>
</trkpt>
<trkpt lat="47.385277" lon="9.217410">
<ele>702.6</ele>
<time>2003-09-26T06:44:55Z</time>
<speed>0.8</speed>
</trkpt>
<trkpt lat="47.385291" lon="9.217479">
<ele>702.5</ele>
<time>2003-09-26T06:45:00Z</time>
<speed>0.6</speed>
</trkpt>
<trkpt lat="47.385316" lon="9.217564">
<ele>702.6</ele>
<time>2003-09-26T06:45:05Z</time>
<speed>1.1</speed>
</trkpt>
<trkpt lat="47.385318" lon="9.217632">
<ele>702.5</ele>
<time>2003-09-26T06:45:10Z</time>
<speed>0.8</speed>
</trkpt>
<trkpt lat="47.385327" lon="9.217688">
<ele>701.6</ele>
<time>2003-09-26T06:45:15Z</time>
<speed>0.6</speed>
</trkpt>
<trkpt lat="47.385358" lon="9.217775">
<ele>701.0</ele>
<time>2003-09-26T06:45:20Z</time>
<speed>1.1</speed>
</trkpt>
<trkpt lat="47.385372" lon="9.217845">
<ele>701.0</ele>
<time>2003-09-26T06:45:25Z</time>
<speed>1.1</speed>
</trkpt>
<trkpt lat="47.385386" lon="9.217929">
<ele>699.6</ele>
<time>2003-09-26T06:45:30Z</time>
<speed>1.1</speed>
</trkpt>
<trkpt lat="47.385414" lon="9.217990">
<ele>698.1</ele>
<time>2003-09-26T06:45:35Z</time>
<speed>1.1</speed>
</trkpt>
<trkpt lat="47.385459" lon="9.218066">
<ele>697.5</ele>
<time>2003-09-26T06:45:40Z</time>
<speed>0.8</speed>
</trkpt>
<trkpt lat="47.385500" lon="9.218114">
<ele>697.4</ele>
<time>2003-09-26T06:45:45Z</time>
<speed>0.8</speed>
</trkpt>
<trkpt lat="47.385543" lon="9.218148">
<ele>697.1</ele>
<time>2003-09-26T06:45:50Z</time>
<speed>0.8</speed>
</trkpt>
<trkpt lat="47.385577" lon="9.218209">
<ele>696.4</ele>
<time>2003-09-26T06:45:55Z</time>
<speed>0.8</speed>
</trkpt>
<trkpt lat="47.385573" lon="9.218264">
<ele>695.4</ele>
<time>2003-09-26T06:46:00Z</time>
<speed>0.8</speed>
</trkpt>
<trkpt lat="47.385555" lon="9.218329">
<ele>694.5</ele>
<time>2003-09-26T06:46:05Z</time>
<speed>0.8</speed>
</trkpt>
<trkpt lat="47.385550" lon="9.218410">
<ele>693.7</ele>
<time>2003-09-26T06:46:10Z</time>
<speed>0.8</speed>
</trkpt>
<trkpt lat="47.385527" lon="9.218460">
<ele>693.4</ele>
<time>2003-09-26T06:46:15Z</time>
<speed>0.8</speed>
</trkpt>
<trkpt lat="47.385472" lon="9.218503">
<ele>693.5</ele>
<time>2003-09-26T06:46:20Z</time>
<speed>1.1</speed>
</trkpt>
<trkpt lat="47.385402" lon="9.218491">
<ele>693.8</ele>
<time>2003-09-26T06:46:25Z</time>
<speed>1.1</speed>
</trkpt>
<trkpt lat="47.385345" lon="9.218480">
<ele>694.2</ele>
<time>2003-09-26T06:46:30Z</time>
<speed>1.4</speed>
</trkpt>
<trkpt lat="47.385287" lon="9.218483">
<ele>694.8</ele>
<time>2003-09-26T06:46:35Z</time>
<speed>1.1</speed>
</trkpt>
<trkpt lat="47.385230" lon="9.218472">
<ele>695.1</ele>
<time>2003-09-26T06:46:40Z</time>
<speed>1.1</speed>
</trkpt>
<trkpt lat="47.385180" lon="9.218448">
<ele>696.2</ele>
<time>2003-09-26T06:46:45Z</time>
<speed>1.1</speed>
</trkpt>
<trkpt lat="47.385143" lon="9.218427">
<ele>697.3</ele>
<time>2003-09-26T06:46:50Z</time>
<speed>0.8</speed>
</trkpt>
<trkpt lat="47.385093" lon="9.218403">
<ele>698.3</ele>
<time>2003-09-26T06:46:55Z</time>
<speed>0.8</speed>
</trkpt>
<trkpt lat="47.385043" lon="9.218379">
<ele>699.3</ele>
<time>2003-09-26T06:47:00Z</time>
<speed>1.1</speed>
</trkpt>
<trkpt lat="47.384985" lon="9.218382">
<ele>699.8</ele>
<time>2003-09-26T06:47:05Z</time>
<speed>1.1</speed>
</trkpt>
<trkpt lat="47.384928" lon="9.218371">
<ele>700.2</ele>
<time>2003-09-26T06:47:10Z</time>
<speed>1.1</speed>
</trkpt>
<trkpt lat="47.384884" lon="9.218363">
<ele>700.7</ele>
<time>2003-09-26T06:47:15Z</time>
<speed>1.1</speed>
</trkpt>
<trkpt lat="47.384833" lon="9.218354">
<ele>700.4</ele>
<time>2003-09-26T06:47:20Z</time>
<speed>1.1</speed>
</trkpt>
<trkpt lat="47.384776" lon="9.218344">
<ele>700.8</ele>
<time>2003-09-26T06:47:25Z</time>
<speed>1.1</speed>
</trkpt>
<trkpt lat="47.384726" lon="9.218335">
<ele>700.5</ele>
<time>2003-09-26T06:47:30Z</time>
<speed>1.1</speed>
</trkpt>
<trkpt lat="47.384675" lon="9.218327">
<ele>700.3</ele>
<time>2003-09-26T06:47:35Z</time>
<speed>1.1</speed>
</trkpt>
<trkpt lat="47.384612" lon="9.218316">
<ele>699.9</ele>
<time>2003-09-26T06:47:40Z</time>
<speed>1.1</speed>
</trkpt>
<trkpt lat="47.384562" lon="9.218308">
<ele>699.7</ele>
<time>2003-09-26T06:47:45Z</time>
<speed>1.1</speed>
</trkpt>
<trkpt lat="47.384517" lon="9.218299">
<ele>700.1</ele>
<time>2003-09-26T06:47:50Z</time>
<speed>0.8</speed>
</trkpt>
<trkpt lat="47.384464" lon="9.218330">
<ele>700.2</ele>
<time>2003-09-26T06:47:55Z</time>
<speed>0.8</speed>
</trkpt>
<trkpt lat="47.384422" lon="9.218378">
<ele>699.0</ele>
<time>2003-09-26T06:48:00Z</time>
<speed>1.4</speed>
</trkpt>
<trkpt lat="47.384378" lon="9.218450">
<ele>699.5</ele>
<time>2003-09-26T06:48:05Z</time>
<speed>1.1</speed>
</trkpt>
<trkpt lat="47.384378" lon="9.218531">
<ele>699.4</ele>
<time>2003-09-26T06:48:10Z</time>
<speed>1.1</speed>
</trkpt>
<trkpt lat="47.384396" lon="9.218626">
<ele>700.3</ele>
<time>2003-09-26T06:48:15Z</time>
<speed>1.4</speed>
</trkpt>
<trkpt lat="47.384401" lon="9.218722">
<ele>699.8</ele>
<time>2003-09-26T06:48:20Z</time>
<speed>0.8</speed>
</trkpt>
<trkpt lat="47.384404" lon="9.218776">
<ele>699.5</ele>
<time>2003-09-26T06:48:25Z</time>
<speed>0.0</speed>
</trkpt>
<trkpt lat="47.384398" lon="9.218761">
<ele>700.1</ele>
<time>2003-09-26T06:48:30Z</time>
<speed>0.0</speed>
</trkpt>
<trkpt lat="47.384398" lon="9.218761">
<ele>700.1</ele>
<time>2003-09-26T06:48:37Z</time>
<speed>0.0</speed>
</trkpt>
<trkpt lat="47.384392" lon="9.218761">
<ele>699.4</ele>
<time>2003-09-26T06:48:42Z</time>
<speed>0.3</speed>
</trkpt>
<trkpt lat="47.384398" lon="9.218776">
<ele>698.8</ele>
<time>2003-09-26T06:48:47Z</time>
<speed>0.0</speed>
</trkpt>
<trkpt lat="47.384391" lon="9.218774">
<ele>699.5</ele>
<time>2003-09-26T06:48:52Z</time>
<speed>0.0</speed>
</trkpt>
<trkpt lat="47.384391" lon="9.218774">
<ele>699.5</ele>
<time>2003-09-26T06:48:57Z</time>
<speed>0.0</speed>
</trkpt>
<trkpt lat="47.384391" lon="9.218774">
<ele>699.5</ele>
<time>2003-09-26T06:49:02Z</time>
<speed>0.0</speed>
</trkpt>
<trkpt lat="47.384391" lon="9.218774">
<ele>699.5</ele>
<time>2003-09-26T06:49:07Z</time>
<speed>0.0</speed>
</trkpt>
<trkpt lat="47.384405" lon="9.218763">
<ele>699.4</ele>
<time>2003-09-26T06:49:12Z</time>
<speed>0.0</speed>
</trkpt>
<trkpt lat="47.384416" lon="9.218779">
<ele>699.6</ele>
<time>2003-09-26T06:49:17Z</time>
<speed>0.0</speed>
</trkpt>
<trkpt lat="47.384416" lon="9.218779">
<ele>699.6</ele>
<time>2003-09-26T06:49:22Z</time>
<speed>0.0</speed>
</trkpt>
<trkpt lat="47.384416" lon="9.218779">
<ele>699.6</ele>
<time>2003-09-26T06:49:27Z</time>
<speed>0.3</speed>
</trkpt>
<trkpt lat="47.384416" lon="9.218779">
<ele>699.6</ele>
<time>2003-09-26T06:49:32Z</time>
<speed>0.0</speed>
</trkpt>
<trkpt lat="47.384416" lon="9.218779">
<ele>699.6</ele>
<time>2003-09-26T06:49:37Z</time>
<speed>0.0</speed>
</trkpt>
<trkpt lat="47.384416" lon="9.218779">
<ele>699.6</ele>
<time>2003-09-26T06:49:42Z</time>
<speed>0.0</speed>
</trkpt>
<trkpt lat="47.384416" lon="9.218779">
<ele>699.6</ele>
<time>2003-09-26T06:49:47Z</time>
<speed>0.0</speed>
</trkpt>
<trkpt lat="47.384416" lon="9.218779">
<ele>699.6</ele>
<time>2003-09-26T06:49:52Z</time>
<speed>0.0</speed>
</trkpt>
<trkpt lat="47.384416" lon="9.218779">
<ele>699.6</ele>
<time>2003-09-26T06:49:57Z</time>
<speed>0.0</speed>
</trkpt>
<trkpt lat="47.384416" lon="9.218779">
<ele>699.6</ele>
<time>2003-09-26T06:50:02Z</time>
<speed>0.0</speed>
</trkpt>
<trkpt lat="47.384417" lon="9.218765">
<ele>699.5</ele>
<time>2003-09-26T06:50:07Z</time>
<speed>0.0</speed>
</trkpt>
<trkpt lat="47.384417" lon="9.218765">
<ele>699.5</ele>
<time>2003-09-26T06:50:12Z</time>
<speed>0.0</speed>
</trkpt>
<trkpt lat="47.384417" lon="9.218765">
<ele>699.5</ele>
<time>2003-09-26T06:50:17Z</time>
<speed>0.0</speed>
</trkpt>
<trkpt lat="47.384417" lon="9.218765">
<ele>699.5</ele>
<time>2003-09-26T06:50:22Z</time>
<speed>0.0</speed>
</trkpt>
<trkpt lat="47.384417" lon="9.218765">
<ele>699.5</ele>
<time>2003-09-26T06:50:27Z</time>
<speed>0.0</speed>
</trkpt>
<trkpt lat="47.384417" lon="9.218765">
<ele>699.5</ele>
<time>2003-09-26T06:50:32Z</time>
<speed>0.0</speed>
</trkpt>
<trkpt lat="47.384417" lon="9.218765">
<ele>699.5</ele>
<time>2003-09-26T06:50:37Z</time>
<speed>0.0</speed>
</trkpt>
<trkpt lat="47.384411" lon="9.218763">
<ele>700.2</ele>
<time>2003-09-26T06:50:42Z</time>
<speed>0.0</speed>
</trkpt>
<trkpt lat="47.384416" lon="9.218779">
<ele>699.6</ele>
<time>2003-09-26T06:50:47Z</time>
<speed>0.3</speed>
</trkpt>
<trkpt lat="47.384404" lon="9.218776">
<ele>699.5</ele>
<time>2003-09-26T06:50:52Z</time>
<speed>0.0</speed>
</trkpt>
<trkpt lat="47.384404" lon="9.218776">
<ele>699.5</ele>
<time>2003-09-26T06:50:57Z</time>
<speed>0.0</speed>
</trkpt>
<trkpt lat="47.384404" lon="9.218776">
<ele>699.5</ele>
<time>2003-09-26T06:51:02Z</time>
<speed>0.0</speed>
</trkpt>
<trkpt lat="47.384386" lon="9.218759">
<ele>700.0</ele>
<time>2003-09-26T06:51:07Z</time>
<speed>0.0</speed>
</trkpt>
<trkpt lat="47.384386" lon="9.218759">
<ele>700.0</ele>
<time>2003-09-26T06:51:12Z</time>
<speed>0.0</speed>
</trkpt>
<trkpt lat="47.384386" lon="9.218759">
<ele>700.0</ele>
<time>2003-09-26T06:51:17Z</time>
<speed>0.0</speed>
</trkpt>
<trkpt lat="47.384386" lon="9.218759">
<ele>700.0</ele>
<time>2003-09-26T06:51:22Z</time>
<speed>0.0</speed>
</trkpt>
<trkpt lat="47.384386" lon="9.218759">
<ele>700.0</ele>
<time>2003-09-26T06:51:27Z</time>
<speed>0.0</speed>
</trkpt>
<trkpt lat="47.384386" lon="9.218759">
<ele>700.0</ele>
<time>2003-09-26T06:51:32Z</time>
<speed>0.0</speed>
</trkpt>
<trkpt lat="47.384386" lon="9.218759">
<ele>700.0</ele>
<time>2003-09-26T06:51:37Z</time>
<speed>0.0</speed>
</trkpt>
<trkpt lat="47.384386" lon="9.218759">
<ele>700.0</ele>
<time>2003-09-26T06:51:42Z</time>
<speed>0.0</speed>
</trkpt>
<trkpt lat="47.384379" lon="9.218757">
<ele>700.7</ele>
<time>2003-09-26T06:51:47Z</time>
<speed>0.0</speed>
</trkpt>
<trkpt lat="47.384379" lon="9.218757">
<ele>700.7</ele>
<time>2003-09-26T06:51:52Z</time>
<speed>0.0</speed>
</trkpt>
<trkpt lat="47.384379" lon="9.218757">
<ele>700.7</ele>
<time>2003-09-26T06:51:57Z</time>
<speed>0.0</speed>
</trkpt>
<trkpt lat="47.384379" lon="9.218757">
<ele>700.7</ele>
<time>2003-09-26T06:52:02Z</time>
<speed>0.0</speed>
</trkpt>
<trkpt lat="47.384379" lon="9.218757">
<ele>700.7</ele>
<time>2003-09-26T06:52:07Z</time>
<speed>0.0</speed>
</trkpt>
<trkpt lat="47.384379" lon="9.218757">
<ele>700.7</ele>
<time>2003-09-26T06:52:12Z</time>
<speed>0.0</speed>
</trkpt>
<trkpt lat="47.384379" lon="9.218757">
<ele>700.7</ele>
<time>2003-09-26T06:52:17Z</time>
<speed>0.0</speed>
</trkpt>
<trkpt lat="47.384379" lon="9.218757">
<ele>700.7</ele>
<time>2003-09-26T06:52:22Z</time>
<speed>0.0</speed>
</trkpt>
<trkpt lat="47.384379" lon="9.218757">
<ele>700.7</ele>
<time>2003-09-26T06:52:27Z</time>
<speed>0.0</speed>
</trkpt>
<trkpt lat="47.384386" lon="9.218759">
<ele>700.0</ele>
<time>2003-09-26T06:52:32Z</time>
<speed>0.0</speed>
</trkpt>
<trkpt lat="47.384386" lon="9.218759">
<ele>700.0</ele>
<time>2003-09-26T06:52:37Z</time>
<speed>0.0</speed>
</trkpt>
<trkpt lat="47.384386" lon="9.218759">
<ele>700.0</ele>
<time>2003-09-26T06:52:42Z</time>
<speed>0.3</speed>
</trkpt>
<trkpt lat="47.384394" lon="9.218733">
<ele>700.5</ele>
<time>2003-09-26T06:52:47Z</time>
<speed>0.3</speed>
</trkpt>
<trkpt lat="47.384385" lon="9.218679">
<ele>700.0</ele>
<time>2003-09-26T06:52:52Z</time>
<speed>0.8</speed>
</trkpt>
<trkpt lat="47.384384" lon="9.218611">
<ele>700.2</ele>
<time>2003-09-26T06:52:57Z</time>
<speed>0.8</speed>
</trkpt>
<trkpt lat="47.384397" lon="9.218533">
<ele>700.2</ele>
<time>2003-09-26T06:53:02Z</time>
<speed>1.1</speed>
</trkpt>
<trkpt lat="47.384402" lon="9.218467">
<ele>699.7</ele>
<time>2003-09-26T06:53:07Z</time>
<speed>0.8</speed>
</trkpt>
<trkpt lat="47.384445" lon="9.218408">
<ele>699.4</ele>
<time>2003-09-26T06:53:12Z</time>
<speed>1.1</speed>
</trkpt>
<trkpt lat="47.384469" lon="9.218345">
<ele>699.6</ele>
<time>2003-09-26T06:53:17Z</time>
<speed>0.8</speed>
</trkpt>
<trkpt lat="47.384510" lon="9.218312">
<ele>699.5</ele>
<time>2003-09-26T06:53:22Z</time>
<speed>0.8</speed>
</trkpt>
<trkpt lat="47.384556" lon="9.218308">
<ele>698.9</ele>
<time>2003-09-26T06:53:27Z</time>
<speed>1.1</speed>
</trkpt>
<trkpt lat="47.384605" lon="9.218329">
<ele>699.3</ele>
<time>2003-09-26T06:53:32Z</time>
<speed>0.8</speed>
</trkpt>
<trkpt lat="47.384618" lon="9.218331">
<ele>699.4</ele>
<time>2003-09-26T06:53:37Z</time>
<speed>0.0</speed>
</trkpt>
<trkpt lat="47.384629" lon="9.218346">
<ele>699.6</ele>
<time>2003-09-26T06:53:42Z</time>
<speed>0.0</speed>
</trkpt>
<trkpt lat="47.384648" lon="9.218351">
<ele>699.0</ele>
<time>2003-09-26T06:53:47Z</time>
<speed>1.1</speed>
</trkpt>
<trkpt lat="47.384699" lon="9.218361">
<ele>697.8</ele>
<time>2003-09-26T06:53:52Z</time>
<speed>1.1</speed>
</trkpt>
<trkpt lat="47.384756" lon="9.218372">
<ele>697.4</ele>
<time>2003-09-26T06:53:57Z</time>
<speed>1.1</speed>
</trkpt>
<trkpt lat="47.384813" lon="9.218383">
<ele>697.0</ele>
<time>2003-09-26T06:54:02Z</time>
<speed>1.4</speed>
</trkpt>
<trkpt lat="47.384876" lon="9.218393">
<ele>697.4</ele>
<time>2003-09-26T06:54:07Z</time>
<speed>0.8</speed>
</trkpt>
<trkpt lat="47.384914" lon="9.218400">
<ele>697.6</ele>
<time>2003-09-26T06:54:12Z</time>
<speed>0.6</speed>
</trkpt>
<trkpt lat="47.384958" lon="9.218406">
<ele>698.5</ele>
<time>2003-09-26T06:54:17Z</time>
<speed>0.8</speed>
</trkpt>
<trkpt lat="47.385009" lon="9.218414">
<ele>698.8</ele>
<time>2003-09-26T06:54:22Z</time>
<speed>0.6</speed>
</trkpt>
<trkpt lat="47.385103" lon="9.218447">
<ele>697.3</ele>
<time>2003-09-26T06:54:27Z</time>
<speed>0.8</speed>
</trkpt>
<trkpt lat="47.385159" lon="9.218472">
<ele>695.6</ele>
<time>2003-09-26T06:54:32Z</time>
<speed>0.8</speed>
</trkpt>
<trkpt lat="47.385229" lon="9.218485">
<ele>695.3</ele>
<time>2003-09-26T06:54:37Z</time>
<speed>1.1</speed>
</trkpt>
<trkpt lat="47.385293" lon="9.218498">
<ele>694.2</ele>
<time>2003-09-26T06:54:42Z</time>
<speed>1.4</speed>
</trkpt>
<trkpt lat="47.385350" lon="9.218508">
<ele>693.8</ele>
<time>2003-09-26T06:54:47Z</time>
<speed>0.8</speed>
</trkpt>
<trkpt lat="47.385419" lon="9.218521">
<ele>693.5</ele>
<time>2003-09-26T06:54:52Z</time>
<speed>1.4</speed>
</trkpt>
<trkpt lat="47.385462" lon="9.218541">
<ele>694.5</ele>
<time>2003-09-26T06:54:57Z</time>
<speed>0.6</speed>
</trkpt>
<trkpt lat="47.385486" lon="9.218558">
<ele>694.8</ele>
<time>2003-09-26T06:55:02Z</time>
<speed>1.4</speed>
</trkpt>
<trkpt lat="47.385552" lon="9.218544">
<ele>693.5</ele>
<time>2003-09-26T06:55:07Z</time>
<speed>1.1</speed>
</trkpt>
<trkpt lat="47.385603" lon="9.218553">
<ele>693.7</ele>
<time>2003-09-26T06:55:12Z</time>
<speed>1.1</speed>
</trkpt>
<trkpt lat="47.385666" lon="9.218564">
<ele>694.1</ele>
<time>2003-09-26T06:55:17Z</time>
<speed>1.1</speed>
</trkpt>
<trkpt lat="47.385722" lon="9.218587">
<ele>693.8</ele>
<time>2003-09-26T06:55:22Z</time>
<speed>1.1</speed>
</trkpt>
<trkpt lat="47.385778" lon="9.218596">
<ele>694.8</ele>
<time>2003-09-26T06:55:27Z</time>
<speed>1.1</speed>
</trkpt>
<trkpt lat="47.385834" lon="9.218619">
<ele>694.5</ele>
<time>2003-09-26T06:55:32Z</time>
<speed>1.4</speed>
</trkpt>
<trkpt lat="47.385891" lon="9.218630">
<ele>694.1</ele>
<time>2003-09-26T06:55:37Z</time>
<speed>1.1</speed>
</trkpt>
<trkpt lat="47.385954" lon="9.218641">
<ele>694.4</ele>
<time>2003-09-26T06:55:42Z</time>
<speed>0.8</speed>
</trkpt>
<trkpt lat="47.386011" lon="9.218651">
<ele>694.1</ele>
<time>2003-09-26T06:55:47Z</time>
<speed>1.1</speed>
</trkpt>
<trkpt lat="47.386063" lon="9.218647">
<ele>694.2</ele>
<time>2003-09-26T06:55:52Z</time>
<speed>1.1</speed>
</trkpt>
<trkpt lat="47.386120" lon="9.218657">
<ele>693.8</ele>
<time>2003-09-26T06:55:57Z</time>
<speed>1.1</speed>
</trkpt>
<trkpt lat="47.386177" lon="9.218668">
<ele>693.4</ele>
<time>2003-09-26T06:56:02Z</time>
<speed>1.1</speed>
</trkpt>
<trkpt lat="47.386240" lon="9.218678">
<ele>693.8</ele>
<time>2003-09-26T06:56:07Z</time>
<speed>1.1</speed>
</trkpt>
<trkpt lat="47.386290" lon="9.218687">
<ele>694.0</ele>
<time>2003-09-26T06:56:12Z</time>
<speed>1.1</speed>
</trkpt>
<trkpt lat="47.386347" lon="9.218698">
<ele>693.6</ele>
<time>2003-09-26T06:56:17Z</time>
<speed>1.1</speed>
</trkpt>
<trkpt lat="47.386405" lon="9.218708">
<ele>693.2</ele>
<time>2003-09-26T06:56:22Z</time>
<speed>1.1</speed>
</trkpt>
<trkpt lat="47.386455" lon="9.218717">
<ele>693.5</ele>
<time>2003-09-26T06:56:27Z</time>
<speed>1.1</speed>
</trkpt>
<trkpt lat="47.386493" lon="9.218723">
<ele>693.7</ele>
<time>2003-09-26T06:56:32Z</time>
<speed>0.0</speed>
</trkpt>
<trkpt lat="47.386514" lon="9.218782">
<ele>692.9</ele>
<time>2003-09-26T06:56:37Z</time>
<speed>0.8</speed>
</trkpt>
<trkpt lat="47.386554" lon="9.218842">
<ele>692.8</ele>
<time>2003-09-26T06:56:42Z</time>
<speed>1.1</speed>
</trkpt>
<trkpt lat="47.386607" lon="9.218905">
<ele>692.9</ele>
<time>2003-09-26T06:56:47Z</time>
<speed>0.8</speed>
</trkpt>
<trkpt lat="47.386640" lon="9.218979">
<ele>692.2</ele>
<time>2003-09-26T06:56:52Z</time>
<speed>0.8</speed>
</trkpt>
<trkpt lat="47.386661" lon="9.219051">
<ele>691.5</ele>
<time>2003-09-26T06:56:57Z</time>
<speed>1.1</speed>
</trkpt>
<trkpt lat="47.386660" lon="9.219145">
<ele>691.6</ele>
<time>2003-09-26T06:57:02Z</time>
<speed>1.1</speed>
</trkpt>
<trkpt lat="47.386654" lon="9.219225">
<ele>690.8</ele>
<time>2003-09-26T06:57:07Z</time>
<speed>1.1</speed>
</trkpt>
<trkpt lat="47.386640" lon="9.219317">
<ele>690.8</ele>
<time>2003-09-26T06:57:12Z</time>
<speed>1.1</speed>
</trkpt>
<trkpt lat="47.386614" lon="9.219406">
<ele>690.8</ele>
<time>2003-09-26T06:57:17Z</time>
<speed>1.1</speed>
</trkpt>
<trkpt lat="47.386595" lon="9.219497">
<ele>690.1</ele>
<time>2003-09-26T06:57:22Z</time>
<speed>1.1</speed>
</trkpt>
<trkpt lat="47.386576" lon="9.219576">
<ele>689.3</ele>
<time>2003-09-26T06:57:27Z</time>
<speed>1.1</speed>
</trkpt>
<trkpt lat="47.386569" lon="9.219667">
<ele>690.0</ele>
<time>2003-09-26T06:57:32Z</time>
<speed>1.1</speed>
</trkpt>
<trkpt lat="47.386556" lon="9.219746">
<ele>689.9</ele>
<time>2003-09-26T06:57:37Z</time>
<speed>1.1</speed>
</trkpt>
<trkpt lat="47.386582" lon="9.219833">
<ele>688.7</ele>
<time>2003-09-26T06:57:42Z</time>
<speed>1.1</speed>
</trkpt>
<trkpt lat="47.386590" lon="9.219902">
<ele>687.9</ele>
<time>2003-09-26T06:57:47Z</time>
<speed>0.8</speed>
</trkpt>
<trkpt lat="47.386598" lon="9.219957">
<ele>688.4</ele>
<time>2003-09-26T06:57:53Z</time>
<speed>0.6</speed>
</trkpt>
<trkpt lat="47.386608" lon="9.219998">
<ele>688.8</ele>
<time>2003-09-26T06:57:58Z</time>
<speed>0.6</speed>
</trkpt>
<trkpt lat="47.386623" lon="9.220055">
<ele>688.6</ele>
<time>2003-09-26T06:58:03Z</time>
<speed>0.8</speed>
</trkpt>
<trkpt lat="47.386636" lon="9.220124">
<ele>688.5</ele>
<time>2003-09-26T06:58:08Z</time>
<speed>1.1</speed>
</trkpt>
<trkpt lat="47.386663" lon="9.220196">
<ele>688.5</ele>
<time>2003-09-26T06:58:13Z</time>
<speed>1.1</speed>
</trkpt>
<trkpt lat="47.386695" lon="9.220268">
<ele>689.3</ele>
<time>2003-09-26T06:58:18Z</time>
<speed>1.1</speed>
</trkpt>
<trkpt lat="47.386709" lon="9.220337">
<ele>689.2</ele>
<time>2003-09-26T06:58:23Z</time>
<speed>0.8</speed>
</trkpt>
<trkpt lat="47.386735" lon="9.220422">
<ele>689.3</ele>
<time>2003-09-26T06:58:28Z</time>
<speed>1.1</speed>
</trkpt>
<trkpt lat="47.386749" lon="9.220492">
<ele>689.3</ele>
<time>2003-09-26T06:58:33Z</time>
<speed>1.1</speed>
</trkpt>
<trkpt lat="47.386769" lon="9.220563">
<ele>688.6</ele>
<time>2003-09-26T06:58:38Z</time>
<speed>0.8</speed>
</trkpt>
<trkpt lat="47.386789" lon="9.220635">
<ele>687.8</ele>
<time>2003-09-26T06:58:43Z</time>
<speed>0.8</speed>
</trkpt>
<trkpt lat="47.386796" lon="9.220716">
<ele>688.6</ele>
<time>2003-09-26T06:58:48Z</time>
<speed>1.1</speed>
</trkpt>
<trkpt lat="47.386809" lon="9.220785">
<ele>688.5</ele>
<time>2003-09-26T06:58:53Z</time>
<speed>1.1</speed>
</trkpt>
<trkpt lat="47.386830" lon="9.220857">
<ele>687.8</ele>
<time>2003-09-26T06:58:58Z</time>
<speed>0.8</speed>
</trkpt>
<trkpt lat="47.386849" lon="9.220940">
<ele>688.6</ele>
<time>2003-09-26T06:59:03Z</time>
<speed>0.8</speed>
</trkpt>
<trkpt lat="47.386863" lon="9.221009">
<ele>688.5</ele>
<time>2003-09-26T06:59:08Z</time>
<speed>0.8</speed>
</trkpt>
<trkpt lat="47.386883" lon="9.221079">
<ele>689.2</ele>
<time>2003-09-26T06:59:13Z</time>
<speed>0.8</speed>
</trkpt>
<trkpt lat="47.386916" lon="9.221153">
<ele>688.5</ele>
<time>2003-09-26T06:59:18Z</time>
<speed>0.8</speed>
</trkpt>
<trkpt lat="47.386942" lon="9.221224">
<ele>688.5</ele>
<time>2003-09-26T06:59:23Z</time>
<speed>1.1</speed>
</trkpt>
<trkpt lat="47.386955" lon="9.221307">
<ele>688.6</ele>
<time>2003-09-26T06:59:28Z</time>
<speed>0.8</speed>
</trkpt>
<trkpt lat="47.386980" lon="9.221392">
<ele>688.7</ele>
<time>2003-09-26T06:59:33Z</time>
<speed>1.1</speed>
</trkpt>
<trkpt lat="47.387001" lon="9.221464">
<ele>688.0</ele>
<time>2003-09-26T06:59:38Z</time>
<speed>0.8</speed>
</trkpt>
<trkpt lat="47.387014" lon="9.221533">
<ele>687.9</ele>
<time>2003-09-26T06:59:43Z</time>
<speed>1.1</speed>
</trkpt>
<trkpt lat="47.387029" lon="9.221605">
<ele>686.4</ele>
<time>2003-09-26T06:59:48Z</time>
<speed>1.1</speed>
</trkpt>
<trkpt lat="47.387048" lon="9.221690">
<ele>685.8</ele>
<time>2003-09-26T06:59:53Z</time>
<speed>1.1</speed>
</trkpt>
<trkpt lat="47.387055" lon="9.221772">
<ele>685.1</ele>
<time>2003-09-26T06:59:58Z</time>
<speed>1.1</speed>
</trkpt>
<trkpt lat="47.387074" lon="9.221855">
<ele>685.9</ele>
<time>2003-09-26T07:00:03Z</time>
<speed>0.8</speed>
</trkpt>
<trkpt lat="47.387081" lon="9.221923">
<ele>686.5</ele>
<time>2003-09-26T07:00:08Z</time>
<speed>1.1</speed>
</trkpt>
<trkpt lat="47.387094" lon="9.222005">
<ele>686.6</ele>
<time>2003-09-26T07:00:13Z</time>
<speed>0.8</speed>
</trkpt>
<trkpt lat="47.387100" lon="9.222086">
<ele>687.3</ele>
<time>2003-09-26T07:00:18Z</time>
<speed>0.8</speed>
</trkpt>
<trkpt lat="47.387113" lon="9.222153">
<ele>688.7</ele>
<time>2003-09-26T07:00:23Z</time>
<speed>1.1</speed>
</trkpt>
<trkpt lat="47.387132" lon="9.222236">
<ele>689.4</ele>
<time>2003-09-26T07:00:28Z</time>
<speed>0.8</speed>
</trkpt>
<trkpt lat="47.387152" lon="9.222306">
<ele>690.1</ele>
<time>2003-09-26T07:00:33Z</time>
<speed>0.8</speed>
</trkpt>
<trkpt lat="47.387177" lon="9.222388">
<ele>691.6</ele>
<time>2003-09-26T07:00:38Z</time>
<speed>0.8</speed>
</trkpt>
<trkpt lat="47.387217" lon="9.222449">
<ele>691.6</ele>
<time>2003-09-26T07:00:43Z</time>
<speed>0.8</speed>
</trkpt>
<trkpt lat="47.387228" lon="9.222477">
<ele>691.9</ele>
<time>2003-09-26T07:00:48Z</time>
<speed>0.6</speed>
</trkpt>
<trkpt lat="47.387267" lon="9.222549">
<ele>693.4</ele>
<time>2003-09-26T07:00:53Z</time>
<speed>0.6</speed>
</trkpt>
<trkpt lat="47.387295" lon="9.222592">
<ele>694.6</ele>
<time>2003-09-26T07:00:58Z</time>
<speed>0.6</speed>
</trkpt>
<trkpt lat="47.387322" lon="9.222649">
<ele>695.9</ele>
<time>2003-09-26T07:01:03Z</time>
<speed>0.6</speed>
</trkpt>
<trkpt lat="47.387343" lon="9.222706">
<ele>696.4</ele>
<time>2003-09-26T07:01:08Z</time>
<speed>0.3</speed>
</trkpt>
<trkpt lat="47.387365" lon="9.222734">
<ele>698.2</ele>
<time>2003-09-26T07:01:13Z</time>
<speed>0.3</speed>
</trkpt>
<trkpt lat="47.387387" lon="9.222777">
<ele>698.7</ele>
<time>2003-09-26T07:01:18Z</time>
<speed>0.0</speed>
</trkpt>
<trkpt lat="47.387446" lon="9.222838">
<ele>700.8</ele>
<time>2003-09-26T07:01:23Z</time>
<speed>0.0</speed>
</trkpt>
<trkpt lat="47.387460" lon="9.222890">
<ele>703.5</ele>
<time>2003-09-26T07:01:28Z</time>
<speed>0.0</speed>
</trkpt>
<trkpt lat="47.387448" lon="9.222954">
<ele>704.7</ele>
<time>2003-09-26T07:01:33Z</time>
<speed>0.8</speed>
</trkpt>
<trkpt lat="47.387424" lon="9.223015">
<ele>705.8</ele>
<time>2003-09-26T07:01:38Z</time>
<speed>0.3</speed>
</trkpt>
<trkpt lat="47.387420" lon="9.223052">
<ele>707.6</ele>
<time>2003-09-26T07:01:43Z</time>
<speed>0.3</speed>
</trkpt>
<trkpt lat="47.387385" lon="9.223085">
<ele>708.4</ele>
<time>2003-09-26T07:01:48Z</time>
<speed>0.3</speed>
</trkpt>
<trkpt lat="47.387349" lon="9.223128">
<ele>710.8</ele>
<time>2003-09-26T07:01:53Z</time>
<speed>0.6</speed>
</trkpt>
<trkpt lat="47.387324" lon="9.223187">
<ele>713.3</ele>
<time>2003-09-26T07:01:58Z</time>
<speed>0.6</speed>
</trkpt>
<trkpt lat="47.387339" lon="9.223229">
<ele>714.5</ele>
<time>2003-09-26T07:02:03Z</time>
<speed>0.3</speed>
</trkpt>
<trkpt lat="47.387356" lon="9.223242">
<ele>716.8</ele>
<time>2003-09-26T07:02:08Z</time>
<speed>0.0</speed>
</trkpt>
<trkpt lat="47.387356" lon="9.223242">
<ele>716.8</ele>
<time>2003-09-26T07:02:13Z</time>
<speed>0.0</speed>
</trkpt>
<trkpt lat="47.387356" lon="9.223242">
<ele>716.8</ele>
<time>2003-09-26T07:02:18Z</time>
<speed>0.0</speed>
</trkpt>
<trkpt lat="47.387364" lon="9.223231">
<ele>716.0</ele>
<time>2003-09-26T07:02:23Z</time>
<speed>0.0</speed>
</trkpt>
<trkpt lat="47.387393" lon="9.223215">
<ele>711.7</ele>
<time>2003-09-26T07:02:28Z</time>
<speed>0.6</speed>
</trkpt>
<trkpt lat="47.387399" lon="9.223215">
<ele>712.5</ele>
<time>2003-09-26T07:02:33Z</time>
<speed>0.0</speed>
</trkpt>
<trkpt lat="47.387426" lon="9.223211">
<ele>709.7</ele>
<time>2003-09-26T07:02:38Z</time>
<speed>0.0</speed>
</trkpt>
<trkpt lat="47.387439" lon="9.223213">
<ele>709.7</ele>
<time>2003-09-26T07:02:43Z</time>
<speed>0.0</speed>
</trkpt>
<trkpt lat="47.387445" lon="9.223215">
<ele>709.1</ele>
<time>2003-09-26T07:02:48Z</time>
<speed>0.0</speed>
</trkpt>
<trkpt lat="47.387470" lon="9.223219">
<ele>709.2</ele>
<time>2003-09-26T07:02:53Z</time>
<speed>0.0</speed>
</trkpt>
<trkpt lat="47.387491" lon="9.223210">
<ele>708.5</ele>
<time>2003-09-26T07:02:58Z</time>
<speed>0.0</speed>
</trkpt>
<trkpt lat="47.387491" lon="9.223210">
<ele>708.5</ele>
<time>2003-09-26T07:03:03Z</time>
<speed>0.0</speed>
</trkpt>
<trkpt lat="47.387498" lon="9.223199">
<ele>707.7</ele>
<time>2003-09-26T07:03:08Z</time>
<speed>0.3</speed>
</trkpt>
<trkpt lat="47.387506" lon="9.223188">
<ele>706.9</ele>
<time>2003-09-26T07:03:13Z</time>
<speed>0.0</speed>
</trkpt>
<trkpt lat="47.387506" lon="9.223188">
<ele>706.9</ele>
<time>2003-09-26T07:03:18Z</time>
<speed>0.0</speed>
</trkpt>
<trkpt lat="47.387504" lon="9.223199">
<ele>708.5</ele>
<time>2003-09-26T07:03:23Z</time>
<speed>0.0</speed>
</trkpt>
<trkpt lat="47.387491" lon="9.223195">
<ele>709.8</ele>
<time>2003-09-26T07:03:28Z</time>
<speed>0.0</speed>
</trkpt>
<trkpt lat="47.387498" lon="9.223182">
<ele>710.4</ele>
<time>2003-09-26T07:03:33Z</time>
<speed>0.0</speed>
</trkpt>
<trkpt lat="47.387506" lon="9.223171">
<ele>709.6</ele>
<time>2003-09-26T07:03:38Z</time>
<speed>0.0</speed>
</trkpt>
<trkpt lat="47.387512" lon="9.223171">
<ele>710.4</ele>
<time>2003-09-26T07:03:43Z</time>
<speed>0.0</speed>
</trkpt>
<trkpt lat="47.387512" lon="9.223171">
<ele>710.4</ele>
<time>2003-09-26T07:03:48Z</time>
<speed>0.0</speed>
</trkpt>
<trkpt lat="47.387512" lon="9.223171">
<ele>710.4</ele>
<time>2003-09-26T07:03:53Z</time>
<speed>0.0</speed>
</trkpt>
<trkpt lat="47.387512" lon="9.223171">
<ele>710.4</ele>
<time>2003-09-26T07:03:58Z</time>
<speed>0.0</speed>
</trkpt>
<trkpt lat="47.387504" lon="9.223182">
<ele>711.2</ele>
<time>2003-09-26T07:04:03Z</time>
<speed>0.0</speed>
</trkpt>
<trkpt lat="47.387504" lon="9.223182">
<ele>711.2</ele>
<time>2003-09-26T07:04:08Z</time>
<speed>0.0</speed>
</trkpt>
<trkpt lat="47.387504" lon="9.223182">
<ele>711.2</ele>
<time>2003-09-26T07:04:13Z</time>
<speed>0.0</speed>
</trkpt>
<trkpt lat="47.387504" lon="9.223182">
<ele>711.2</ele>
<time>2003-09-26T07:04:18Z</time>
<speed>0.0</speed>
</trkpt>
<trkpt lat="47.387506" lon="9.223169">
<ele>711.1</ele>
<time>2003-09-26T07:04:23Z</time>
<speed>0.0</speed>
</trkpt>
<trkpt lat="47.387499" lon="9.223167">
<ele>711.7</ele>
<time>2003-09-26T07:04:28Z</time>
<speed>0.0</speed>
</trkpt>
<trkpt lat="47.387499" lon="9.223167">
<ele>711.7</ele>
<time>2003-09-26T07:04:33Z</time>
<speed>0.0</speed>
</trkpt>
<trkpt lat="47.387492" lon="9.223180">
<ele>711.1</ele>
<time>2003-09-26T07:04:38Z</time>
<speed>0.0</speed>
</trkpt>
<trkpt lat="47.387492" lon="9.223180">
<ele>711.1</ele>
<time>2003-09-26T07:04:43Z</time>
<speed>0.0</speed>
</trkpt>
<trkpt lat="47.387492" lon="9.223180">
<ele>711.1</ele>
<time>2003-09-26T07:04:48Z</time>
<speed>0.0</speed>
</trkpt>
<trkpt lat="47.387492" lon="9.223180">
<ele>711.1</ele>
<time>2003-09-26T07:04:53Z</time>
<speed>0.0</speed>
</trkpt>
<trkpt lat="47.387492" lon="9.223180">
<ele>711.1</ele>
<time>2003-09-26T07:04:58Z</time>
<speed>0.0</speed>
</trkpt>
<trkpt lat="47.387492" lon="9.223180">
<ele>711.1</ele>
<time>2003-09-26T07:05:03Z</time>
<speed>0.0</speed>
</trkpt>
<trkpt lat="47.387492" lon="9.223180">
<ele>711.1</ele>
<time>2003-09-26T07:05:08Z</time>
<speed>0.0</speed>
</trkpt>
<trkpt lat="47.387493" lon="9.223167">
<ele>711.0</ele>
<time>2003-09-26T07:05:13Z</time>
<speed>0.0</speed>
</trkpt>
<trkpt lat="47.387493" lon="9.223167">
<ele>711.0</ele>
<time>2003-09-26T07:05:18Z</time>
<speed>0.0</speed>
</trkpt>
<trkpt lat="47.387493" lon="9.223167">
<ele>711.0</ele>
<time>2003-09-26T07:05:23Z</time>
<speed>0.0</speed>
</trkpt>
<trkpt lat="47.387493" lon="9.223167">
<ele>711.0</ele>
<time>2003-09-26T07:05:28Z</time>
<speed>0.0</speed>
</trkpt>
<trkpt lat="47.387486" lon="9.223165">
<ele>711.7</ele>
<time>2003-09-26T07:05:33Z</time>
<speed>0.0</speed>
</trkpt>
<trkpt lat="47.387486" lon="9.223165">
<ele>711.7</ele>
<time>2003-09-26T07:05:38Z</time>
<speed>0.0</speed>
</trkpt>
<trkpt lat="47.387486" lon="9.223165">
<ele>711.7</ele>
<time>2003-09-26T07:05:43Z</time>
<speed>0.0</speed>
</trkpt>
<trkpt lat="47.387486" lon="9.223165">
<ele>711.7</ele>
<time>2003-09-26T07:05:48Z</time>
<speed>0.0</speed>
</trkpt>
<trkpt lat="47.387486" lon="9.223165">
<ele>711.7</ele>
<time>2003-09-26T07:05:53Z</time>
<speed>0.0</speed>
</trkpt>
<trkpt lat="47.387486" lon="9.223165">
<ele>711.7</ele>
<time>2003-09-26T07:05:58Z</time>
<speed>0.0</speed>
</trkpt>
<trkpt lat="47.387486" lon="9.223165">
<ele>711.7</ele>
<time>2003-09-26T07:06:03Z</time>
<speed>0.0</speed>
</trkpt>
<trkpt lat="47.387486" lon="9.223165">
<ele>711.7</ele>
<time>2003-09-26T07:06:08Z</time>
<speed>0.0</speed>
</trkpt>
<trkpt lat="47.387486" lon="9.223165">
<ele>711.7</ele>
<time>2003-09-26T07:06:13Z</time>
<speed>0.0</speed>
</trkpt>
<trkpt lat="47.387486" lon="9.223165">
<ele>711.7</ele>
<time>2003-09-26T07:06:18Z</time>
<speed>0.0</speed>
</trkpt>
<trkpt lat="47.387486" lon="9.223165">
<ele>711.7</ele>
<time>2003-09-26T07:06:23Z</time>
<speed>0.0</speed>
</trkpt>
<trkpt lat="47.387486" lon="9.223165">
<ele>711.7</ele>
<time>2003-09-26T07:06:28Z</time>
<speed>0.0</speed>
</trkpt>
<trkpt lat="47.387486" lon="9.223165">
<ele>711.7</ele>
<time>2003-09-26T07:06:33Z</time>
<speed>0.0</speed>
</trkpt>
<trkpt lat="47.387486" lon="9.223165">
<ele>711.7</ele>
<time>2003-09-26T07:06:38Z</time>
<speed>0.0</speed>
</trkpt>
<trkpt lat="47.387486" lon="9.223165">
<ele>711.7</ele>
<time>2003-09-26T07:06:43Z</time>
<speed>0.0</speed>
</trkpt>
<trkpt lat="47.387486" lon="9.223165">
<ele>711.7</ele>
<time>2003-09-26T07:06:48Z</time>
<speed>0.0</speed>
</trkpt>
<trkpt lat="47.387486" lon="9.223165">
<ele>711.7</ele>
<time>2003-09-26T07:06:53Z</time>
<speed>0.0</speed>
</trkpt>
<trkpt lat="47.387486" lon="9.223165">
<ele>711.7</ele>
<time>2003-09-26T07:06:58Z</time>
<speed>0.0</speed>
</trkpt>
<trkpt lat="47.387486" lon="9.223165">
<ele>711.7</ele>
<time>2003-09-26T07:07:03Z</time>
<speed>0.0</speed>
</trkpt>
<trkpt lat="47.387486" lon="9.223165">
<ele>711.7</ele>
<time>2003-09-26T07:07:08Z</time>
<speed>0.0</speed>
</trkpt>
<trkpt lat="47.387486" lon="9.223165">
<ele>711.7</ele>
<time>2003-09-26T07:07:13Z</time>
<speed>0.0</speed>
</trkpt>
<trkpt lat="47.387486" lon="9.223165">
<ele>711.7</ele>
<time>2003-09-26T07:07:18Z</time>
<speed>0.0</speed>
</trkpt>
<trkpt lat="47.387486" lon="9.223165">
<ele>711.7</ele>
<time>2003-09-26T07:07:23Z</time>
<speed>0.0</speed>
</trkpt>
<trkpt lat="47.387486" lon="9.223165">
<ele>711.7</ele>
<time>2003-09-26T07:07:28Z</time>
<speed>0.0</speed>
</trkpt>
<trkpt lat="47.387486" lon="9.223165">
<ele>711.7</ele>
<time>2003-09-26T07:07:33Z</time>
<speed>0.0</speed>
</trkpt>
<trkpt lat="47.387486" lon="9.223165">
<ele>711.7</ele>
<time>2003-09-26T07:07:38Z</time>
<speed>0.0</speed>
</trkpt>
<trkpt lat="47.387486" lon="9.223165">
<ele>711.7</ele>
<time>2003-09-26T07:07:43Z</time>
<speed>0.0</speed>
</trkpt>
<trkpt lat="47.387486" lon="9.223165">
<ele>711.7</ele>
<time>2003-09-26T07:07:48Z</time>
<speed>0.0</speed>
</trkpt>
<trkpt lat="47.387486" lon="9.223165">
<ele>711.7</ele>
<time>2003-09-26T07:07:53Z</time>
<speed>0.0</speed>
</trkpt>
<trkpt lat="47.387486" lon="9.223165">
<ele>711.7</ele>
<time>2003-09-26T07:07:58Z</time>
<speed>0.0</speed>
</trkpt>
<trkpt lat="47.387486" lon="9.223165">
<ele>711.7</ele>
<time>2003-09-26T07:08:03Z</time>
<speed>0.0</speed>
</trkpt>
<trkpt lat="47.387486" lon="9.223165">
<ele>711.7</ele>
<time>2003-09-26T07:08:08Z</time>
<speed>0.0</speed>
</trkpt>
<trkpt lat="47.387486" lon="9.223165">
<ele>711.7</ele>
<time>2003-09-26T07:08:13Z</time>
<speed>0.0</speed>
</trkpt>
<trkpt lat="47.387486" lon="9.223165">
<ele>711.7</ele>
<time>2003-09-26T07:08:18Z</time>
<speed>0.0</speed>
</trkpt>
<trkpt lat="47.387486" lon="9.223165">
<ele>711.7</ele>
<time>2003-09-26T07:08:23Z</time>
<speed>0.0</speed>
</trkpt>
<trkpt lat="47.387507" lon="9.223158">
<ele>709.5</ele>
<time>2003-09-26T07:08:28Z</time>
<speed>0.3</speed>
</trkpt>
<trkpt lat="47.387516" lon="9.223136">
<ele>707.2</ele>
<time>2003-09-26T07:08:33Z</time>
<speed>0.3</speed>
</trkpt>
<trkpt lat="47.387490" lon="9.223145">
<ele>707.2</ele>
<time>2003-09-26T07:08:38Z</time>
<speed>0.8</speed>
</trkpt>
<trkpt lat="47.387431" lon="9.223161">
<ele>707.8</ele>
<time>2003-09-26T07:08:43Z</time>
<speed>1.1</speed>
</trkpt>
<trkpt lat="47.387393" lon="9.223154">
<ele>707.6</ele>
<time>2003-09-26T07:08:48Z</time>
<speed>0.6</speed>
</trkpt>
<trkpt lat="47.387393" lon="9.223154">
<ele>707.6</ele>
<time>2003-09-26T07:08:53Z</time>
<speed>0.0</speed>
</trkpt>
<trkpt lat="47.387381" lon="9.223139">
<ele>707.5</ele>
<time>2003-09-26T07:08:58Z</time>
<speed>0.0</speed>
</trkpt>
<trkpt lat="47.387367" lon="9.223148">
<ele>708.9</ele>
<time>2003-09-26T07:09:03Z</time>
<speed>0.3</speed>
</trkpt>
<trkpt lat="47.387321" lon="9.223165">
<ele>709.6</ele>
<time>2003-09-26T07:09:08Z</time>
<speed>1.1</speed>
</trkpt>
<trkpt lat="47.387263" lon="9.223168">
<ele>710.1</ele>
<time>2003-09-26T07:09:13Z</time>
<speed>1.4</speed>
</trkpt>
<trkpt lat="47.387223" lon="9.223173">
<ele>711.4</ele>
<time>2003-09-26T07:09:18Z</time>
<speed>0.8</speed>
</trkpt>
<trkpt lat="47.387175" lon="9.223216">
<ele>712.3</ele>
<time>2003-09-26T07:09:23Z</time>
<speed>0.8</speed>
</trkpt>
<trkpt lat="47.387145" lon="9.223266">
<ele>711.2</ele>
<time>2003-09-26T07:09:28Z</time>
<speed>0.6</speed>
</trkpt>
<trkpt lat="47.387132" lon="9.223358">
<ele>711.2</ele>
<time>2003-09-26T07:09:33Z</time>
<speed>0.8</speed>
</trkpt>
<trkpt lat="47.387152" lon="9.223428">
<ele>711.9</ele>
<time>2003-09-26T07:09:38Z</time>
<speed>0.3</speed>
</trkpt>
<trkpt lat="47.387127" lon="9.223506">
<ele>710.3</ele>
<time>2003-09-26T07:09:43Z</time>
<speed>0.3</speed>
</trkpt>
<trkpt lat="47.387137" lon="9.223547">
<ele>710.7</ele>
<time>2003-09-26T07:09:48Z</time>
<speed>0.3</speed>
</trkpt>
<trkpt lat="47.387153" lon="9.223576">
<ele>711.8</ele>
<time>2003-09-26T07:09:53Z</time>
<speed>0.0</speed>
</trkpt>
<trkpt lat="47.387166" lon="9.223580">
<ele>710.4</ele>
<time>2003-09-26T07:09:58Z</time>
<speed>0.0</speed>
</trkpt>
<trkpt lat="47.387165" lon="9.223593">
<ele>710.5</ele>
<time>2003-09-26T07:10:03Z</time>
<speed>0.3</speed>
</trkpt>
<trkpt lat="47.387171" lon="9.223608">
<ele>710.0</ele>
<time>2003-09-26T07:10:08Z</time>
<speed>0.3</speed>
</trkpt>
<trkpt lat="47.387151" lon="9.223619">
<ele>709.3</ele>
<time>2003-09-26T07:10:13Z</time>
<speed>0.3</speed>
</trkpt>
<trkpt lat="47.387141" lon="9.223656">
<ele>710.3</ele>
<time>2003-09-26T07:10:18Z</time>
<speed>0.3</speed>
</trkpt>
<trkpt lat="47.387141" lon="9.223656">
<ele>710.3</ele>
<time>2003-09-26T07:10:23Z</time>
<speed>0.0</speed>
</trkpt>
<trkpt lat="47.387115" lon="9.223665">
<ele>710.2</ele>
<time>2003-09-26T07:10:28Z</time>
<speed>0.3</speed>
</trkpt>
<trkpt lat="47.387087" lon="9.223704">
<ele>707.6</ele>
<time>2003-09-26T07:10:33Z</time>
<speed>0.0</speed>
</trkpt>
<trkpt lat="47.387068" lon="9.223715">
<ele>706.9</ele>
<time>2003-09-26T07:10:38Z</time>
<speed>0.3</speed>
</trkpt>
<trkpt lat="47.387053" lon="9.223739">
<ele>707.1</ele>
<time>2003-09-26T07:10:43Z</time>
<speed>0.3</speed>
</trkpt>
<trkpt lat="47.387026" lon="9.223763">
<ele>705.8</ele>
<time>2003-09-26T07:10:48Z</time>
<speed>0.6</speed>
</trkpt>
<trkpt lat="47.386961" lon="9.223861">
<ele>704.2</ele>
<time>2003-09-26T07:10:53Z</time>
<speed>1.1</speed>
</trkpt>
<trkpt lat="47.386918" lon="9.223936">
<ele>703.3</ele>
<time>2003-09-26T07:10:58Z</time>
<speed>1.4</speed>
</trkpt>
<trkpt lat="47.386895" lon="9.223986">
<ele>702.9</ele>
<time>2003-09-26T07:11:03Z</time>
<speed>0.6</speed>
</trkpt>
<trkpt lat="47.386866" lon="9.224036">
<ele>701.8</ele>
<time>2003-09-26T07:11:08Z</time>
<speed>0.6</speed>
</trkpt>
<trkpt lat="47.386821" lon="9.224123">
<ele>700.9</ele>
<time>2003-09-26T07:11:13Z</time>
<speed>1.1</speed>
</trkpt>
<trkpt lat="47.386792" lon="9.224173">
<ele>699.8</ele>
<time>2003-09-26T07:11:18Z</time>
<speed>0.8</speed>
</trkpt>
<trkpt lat="47.386788" lon="9.224230">
<ele>697.4</ele>
<time>2003-09-26T07:11:23Z</time>
<speed>0.8</speed>
</trkpt>
<trkpt lat="47.386795" lon="9.224313">
<ele>696.8</ele>
<time>2003-09-26T07:11:28Z</time>
<speed>0.6</speed>
</trkpt>
<trkpt lat="47.386794" lon="9.224406">
<ele>696.9</ele>
<time>2003-09-26T07:11:33Z</time>
<speed>0.8</speed>
</trkpt>
<trkpt lat="47.386799" lon="9.224500">
<ele>697.7</ele>
<time>2003-09-26T07:11:38Z</time>
<speed>0.8</speed>
</trkpt>
<trkpt lat="47.386790" lon="9.224602">
<ele>700.0</ele>
<time>2003-09-26T07:11:43Z</time>
<speed>0.6</speed>
</trkpt>
<trkpt lat="47.386797" lon="9.224668">
<ele>702.0</ele>
<time>2003-09-26T07:11:48Z</time>
<speed>0.3</speed>
</trkpt>
<trkpt lat="47.386788" lon="9.224705">
<ele>703.0</ele>
<time>2003-09-26T07:11:53Z</time>
<speed>0.0</speed>
</trkpt>
<trkpt lat="47.386766" lon="9.224727">
<ele>703.8</ele>
<time>2003-09-26T07:11:58Z</time>
<speed>0.0</speed>
</trkpt>
<trkpt lat="47.386763" lon="9.224764">
<ele>705.5</ele>
<time>2003-09-26T07:12:03Z</time>
<speed>0.0</speed>
</trkpt>
<trkpt lat="47.386748" lon="9.224788">
<ele>705.7</ele>
<time>2003-09-26T07:12:08Z</time>
<speed>0.3</speed>
</trkpt>
<trkpt lat="47.386743" lon="9.224836">
<ele>708.9</ele>
<time>2003-09-26T07:12:13Z</time>
<speed>0.3</speed>
</trkpt>
<trkpt lat="47.386732" lon="9.224886">
<ele>710.0</ele>
<time>2003-09-26T07:12:18Z</time>
<speed>0.6</speed>
</trkpt>
<trkpt lat="47.386708" lon="9.224947">
<ele>711.1</ele>
<time>2003-09-26T07:12:23Z</time>
<speed>0.0</speed>
</trkpt>
<trkpt lat="47.386724" lon="9.224973">
<ele>713.6</ele>
<time>2003-09-26T07:12:28Z</time>
<speed>0.0</speed>
</trkpt>
<trkpt lat="47.386723" lon="9.224971">
<ele>715.0</ele>
<time>2003-09-26T07:12:33Z</time>
<speed>0.0</speed>
</trkpt>
<trkpt lat="47.386723" lon="9.224969">
<ele>716.4</ele>
<time>2003-09-26T07:12:38Z</time>
<speed>0.0</speed>
</trkpt>
<trkpt lat="47.386728" lon="9.224982">
<ele>717.2</ele>
<time>2003-09-26T07:12:43Z</time>
<speed>0.0</speed>
</trkpt>
<trkpt lat="47.386717" lon="9.225032">
<ele>718.3</ele>
<time>2003-09-26T07:12:48Z</time>
<speed>0.3</speed>
</trkpt>
<trkpt lat="47.386720" lon="9.225073">
<ele>718.0</ele>
<time>2003-09-26T07:12:53Z</time>
<speed>0.0</speed>
</trkpt>
<trkpt lat="47.386713" lon="9.225084">
<ele>718.8</ele>
<time>2003-09-26T07:12:58Z</time>
<speed>0.0</speed>
</trkpt>
<trkpt lat="47.386711" lon="9.225111">
<ele>719.0</ele>
<time>2003-09-26T07:13:03Z</time>
<speed>0.0</speed>
</trkpt>
<trkpt lat="47.386704" lon="9.225124">
<ele>718.4</ele>
<time>2003-09-26T07:13:08Z</time>
<speed>0.0</speed>
</trkpt>
<trkpt lat="47.386709" lon="9.225139">
<ele>717.8</ele>
<time>2003-09-26T07:13:13Z</time>
<speed>0.0</speed>
</trkpt>
<trkpt lat="47.386717" lon="9.225191">
<ele>719.7</ele>
<time>2003-09-26T07:13:18Z</time>
<speed>0.3</speed>
</trkpt>
<trkpt lat="47.386739" lon="9.225232">
<ele>721.6</ele>
<time>2003-09-26T07:13:23Z</time>
<speed>0.3</speed>
</trkpt>
<trkpt lat="47.386733" lon="9.225296">
<ele>723.5</ele>
<time>2003-09-26T07:13:28Z</time>
<speed>0.0</speed>
</trkpt>
<trkpt lat="47.386738" lon="9.225309">
<ele>724.4</ele>
<time>2003-09-26T07:13:33Z</time>
<speed>0.0</speed>
</trkpt>
<trkpt lat="47.386742" lon="9.225335">
<ele>725.3</ele>
<time>2003-09-26T07:13:38Z</time>
<speed>0.0</speed>
</trkpt>
<trkpt lat="47.386758" lon="9.225363">
<ele>726.3</ele>
<time>2003-09-26T07:13:43Z</time>
<speed>0.3</speed>
</trkpt>
<trkpt lat="47.386787" lon="9.225407">
<ele>727.5</ele>
<time>2003-09-26T07:13:48Z</time>
<speed>0.3</speed>
</trkpt>
<trkpt lat="47.386808" lon="9.225463">
<ele>728.1</ele>
<time>2003-09-26T07:13:53Z</time>
<speed>0.6</speed>
</trkpt>
<trkpt lat="47.386842" lon="9.225509">
<ele>728.6</ele>
<time>2003-09-26T07:13:58Z</time>
<speed>0.0</speed>
</trkpt>
<trkpt lat="47.386831" lon="9.225494">
<ele>728.4</ele>
<time>2003-09-26T07:14:03Z</time>
<speed>0.3</speed>
</trkpt>
<trkpt lat="47.386832" lon="9.225480">
<ele>728.3</ele>
<time>2003-09-26T07:14:08Z</time>
<speed>0.0</speed>
</trkpt>
<trkpt lat="47.386832" lon="9.225480">
<ele>728.3</ele>
<time>2003-09-26T07:14:13Z</time>
<speed>0.0</speed>
</trkpt>
<trkpt lat="47.386840" lon="9.225454">
<ele>728.9</ele>
<time>2003-09-26T07:14:18Z</time>
<speed>0.0</speed>
</trkpt>
<trkpt lat="47.386840" lon="9.225454">
<ele>728.9</ele>
<time>2003-09-26T07:14:23Z</time>
<speed>0.0</speed>
</trkpt>
<trkpt lat="47.386840" lon="9.225454">
<ele>728.9</ele>
<time>2003-09-26T07:14:28Z</time>
<speed>0.0</speed>
</trkpt>
<trkpt lat="47.386846" lon="9.225456">
<ele>728.2</ele>
<time>2003-09-26T07:14:33Z</time>
<speed>0.0</speed>
</trkpt>
<trkpt lat="47.386846" lon="9.225456">
<ele>728.2</ele>
<time>2003-09-26T07:14:38Z</time>
<speed>0.0</speed>
</trkpt>
<trkpt lat="47.386844" lon="9.225417">
<ele>727.1</ele>
<time>2003-09-26T07:14:43Z</time>
<speed>0.3</speed>
</trkpt>
<trkpt lat="47.386866" lon="9.225384">
<ele>724.8</ele>
<time>2003-09-26T07:14:48Z</time>
<speed>0.0</speed>
</trkpt>
<trkpt lat="47.386866" lon="9.225384">
<ele>724.8</ele>
<time>2003-09-26T07:14:53Z</time>
<speed>0.0</speed>
</trkpt>
<trkpt lat="47.386867" lon="9.225371">
<ele>724.7</ele>
<time>2003-09-26T07:14:58Z</time>
<speed>0.0</speed>
</trkpt>
<trkpt lat="47.386867" lon="9.225371">
<ele>724.7</ele>
<time>2003-09-26T07:15:03Z</time>
<speed>0.0</speed>
</trkpt>
<trkpt lat="47.386867" lon="9.225371">
<ele>724.7</ele>
<time>2003-09-26T07:15:08Z</time>
<speed>0.0</speed>
</trkpt>
<trkpt lat="47.386873" lon="9.225371">
<ele>725.4</ele>
<time>2003-09-26T07:15:13Z</time>
<speed>0.0</speed>
</trkpt>
<trkpt lat="47.386886" lon="9.225373">
<ele>725.5</ele>
<time>2003-09-26T07:15:18Z</time>
<speed>0.0</speed>
</trkpt>
<trkpt lat="47.386886" lon="9.225373">
<ele>725.5</ele>
<time>2003-09-26T07:15:23Z</time>
<speed>0.0</speed>
</trkpt>
<trkpt lat="47.386896" lon="9.225417">
<ele>724.5</ele>
<time>2003-09-26T07:15:28Z</time>
<speed>0.6</speed>
</trkpt>
<trkpt lat="47.386949" lon="9.225465">
<ele>725.8</ele>
<time>2003-09-26T07:15:33Z</time>
<speed>0.8</speed>
</trkpt>
<trkpt lat="47.386956" lon="9.225547">
<ele>725.1</ele>
<time>2003-09-26T07:15:38Z</time>
<speed>0.6</speed>
</trkpt>
<trkpt lat="47.386978" lon="9.225625">
<ele>720.2</ele>
<time>2003-09-26T07:15:43Z</time>
<speed>0.3</speed>
</trkpt>
<trkpt lat="47.387008" lon="9.225695">
<ele>713.1</ele>
<time>2003-09-26T07:15:48Z</time>
<speed>0.0</speed>
</trkpt>
<trkpt lat="47.387008" lon="9.225695">
<ele>713.1</ele>
<time>2003-09-26T07:15:53Z</time>
<speed>0.0</speed>
</trkpt>
<trkpt lat="47.387008" lon="9.225695">
<ele>713.1</ele>
<time>2003-09-26T07:15:58Z</time>
<speed>0.0</speed>
</trkpt>
<trkpt lat="47.387014" lon="9.225697">
<ele>712.4</ele>
<time>2003-09-26T07:16:03Z</time>
<speed>0.0</speed>
</trkpt>
<trkpt lat="47.387014" lon="9.225697">
<ele>712.4</ele>
<time>2003-09-26T07:16:08Z</time>
<speed>0.0</speed>
</trkpt>
<trkpt lat="47.387014" lon="9.225697">
<ele>712.4</ele>
<time>2003-09-26T07:16:13Z</time>
<speed>0.0</speed>
</trkpt>
<trkpt lat="47.387014" lon="9.225697">
<ele>712.4</ele>
<time>2003-09-26T07:16:18Z</time>
<speed>0.0</speed>
</trkpt>
<trkpt lat="47.387014" lon="9.225697">
<ele>712.4</ele>
<time>2003-09-26T07:16:23Z</time>
<speed>0.0</speed>
</trkpt>
<trkpt lat="47.387014" lon="9.225697">
<ele>712.4</ele>
<time>2003-09-26T07:16:28Z</time>
<speed>0.0</speed>
</trkpt>
<trkpt lat="47.387021" lon="9.225699">
<ele>711.7</ele>
<time>2003-09-26T07:16:33Z</time>
<speed>0.0</speed>
</trkpt>
<trkpt lat="47.387021" lon="9.225699">
<ele>711.7</ele>
<time>2003-09-26T07:16:38Z</time>
<speed>0.0</speed>
</trkpt>
<trkpt lat="47.387021" lon="9.225699">
<ele>711.7</ele>
<time>2003-09-26T07:16:43Z</time>
<speed>0.0</speed>
</trkpt>
<trkpt lat="47.387021" lon="9.225699">
<ele>711.7</ele>
<time>2003-09-26T07:16:48Z</time>
<speed>0.0</speed>
</trkpt>
<trkpt lat="47.387046" lon="9.225738">
<ele>706.5</ele>
<time>2003-09-26T07:16:53Z</time>
<speed>0.3</speed>
</trkpt>
<trkpt lat="47.387101" lon="9.225777">
<ele>704.9</ele>
<time>2003-09-26T07:16:58Z</time>
<speed>0.6</speed>
</trkpt>
<trkpt lat="47.387145" lon="9.225800">
<ele>703.1</ele>
<time>2003-09-26T07:17:03Z</time>
<speed>0.6</speed>
</trkpt>
<trkpt lat="47.387221" lon="9.225817">
<ele>700.7</ele>
<time>2003-09-26T07:17:08Z</time>
<speed>0.8</speed>
</trkpt>
<trkpt lat="47.387330" lon="9.225823">
<ele>700.5</ele>
<time>2003-09-26T07:17:13Z</time>
<speed>0.0</speed>
</trkpt>
<trkpt lat="47.387336" lon="9.225825">
<ele>699.8</ele>
<time>2003-09-26T07:17:18Z</time>
<speed>0.0</speed>
</trkpt>
<trkpt lat="47.387347" lon="9.225839">
<ele>701.4</ele>
<time>2003-09-26T07:17:23Z</time>
<speed>0.0</speed>
</trkpt>
<trkpt lat="47.387347" lon="9.225839">
<ele>701.4</ele>
<time>2003-09-26T07:17:28Z</time>
<speed>0.0</speed>
</trkpt>
<trkpt lat="47.387357" lon="9.225882">
<ele>700.4</ele>
<time>2003-09-26T07:17:33Z</time>
<speed>0.8</speed>
</trkpt>
<trkpt lat="47.387355" lon="9.225923">
<ele>699.3</ele>
<time>2003-09-26T07:17:38Z</time>
<speed>0.8</speed>
</trkpt>
<trkpt lat="47.387356" lon="9.225976">
<ele>700.5</ele>
<time>2003-09-26T07:17:43Z</time>
<speed>0.0</speed>
</trkpt>
<trkpt lat="47.387349" lon="9.225987">
<ele>701.3</ele>
<time>2003-09-26T07:17:48Z</time>
<speed>0.0</speed>
</trkpt>
<trkpt lat="47.387348" lon="9.226000">
<ele>701.4</ele>
<time>2003-09-26T07:17:53Z</time>
<speed>0.0</speed>
</trkpt>
<trkpt lat="47.387348" lon="9.226000">
<ele>701.4</ele>
<time>2003-09-26T07:17:58Z</time>
<speed>0.0</speed>
</trkpt>
<trkpt lat="47.387346" lon="9.226026">
<ele>701.6</ele>
<time>2003-09-26T07:18:03Z</time>
<speed>0.6</speed>
</trkpt>
<trkpt lat="47.387355" lon="9.226082">
<ele>700.7</ele>
<time>2003-09-26T07:18:08Z</time>
<speed>0.6</speed>
</trkpt>
<trkpt lat="47.387416" lon="9.226121">
<ele>699.8</ele>
<time>2003-09-26T07:18:13Z</time>
<speed>0.8</speed>
</trkpt>
<trkpt lat="47.387462" lon="9.226197">
<ele>699.2</ele>
<time>2003-09-26T07:18:18Z</time>
<speed>0.8</speed>
</trkpt>
<trkpt lat="47.387515" lon="9.226245">
<ele>700.6</ele>
<time>2003-09-26T07:18:23Z</time>
<speed>0.6</speed>
</trkpt>
<trkpt lat="47.387561" lon="9.226306">
<ele>701.3</ele>
<time>2003-09-26T07:18:28Z</time>
<speed>0.8</speed>
</trkpt>
<trkpt lat="47.387619" lon="9.226380">
<ele>703.6</ele>
<time>2003-09-26T07:18:33Z</time>
<speed>0.8</speed>
</trkpt>
<trkpt lat="47.387663" lon="9.226466">
<ele>704.5</ele>
<time>2003-09-26T07:18:38Z</time>
<speed>0.8</speed>
</trkpt>
<trkpt lat="47.387687" lon="9.226564">
<ele>704.7</ele>
<time>2003-09-26T07:18:43Z</time>
<speed>1.1</speed>
</trkpt>
<trkpt lat="47.387701" lon="9.226634">
<ele>704.7</ele>
<time>2003-09-26T07:18:48Z</time>
<speed>0.8</speed>
</trkpt>
<trkpt lat="47.387715" lon="9.226704">
<ele>704.6</ele>
<time>2003-09-26T07:18:53Z</time>
<speed>0.6</speed>
</trkpt>
<trkpt lat="47.387728" lon="9.226786">
<ele>704.6</ele>
<time>2003-09-26T07:18:58Z</time>
<speed>0.8</speed>
</trkpt>
<trkpt lat="47.387722" lon="9.226852">
<ele>705.2</ele>
<time>2003-09-26T07:19:03Z</time>
<speed>0.6</speed>
</trkpt>
<trkpt lat="47.387711" lon="9.226919">
<ele>703.6</ele>
<time>2003-09-26T07:19:08Z</time>
<speed>0.8</speed>
</trkpt>
<trkpt lat="47.387698" lon="9.226932">
<ele>702.2</ele>
<time>2003-09-26T07:19:13Z</time>
<speed>0.6</speed>
</trkpt>
<trkpt lat="47.387662" lon="9.226917">
<ele>699.1</ele>
<time>2003-09-26T07:19:18Z</time>
<speed>1.1</speed>
</trkpt>
<trkpt lat="47.387600" lon="9.226974">
<ele>698.6</ele>
<time>2003-09-26T07:19:23Z</time>
<speed>1.1</speed>
</trkpt>
<trkpt lat="47.387559" lon="9.227102">
<ele>697.5</ele>
<time>2003-09-26T07:19:28Z</time>
<speed>0.8</speed>
</trkpt>
<trkpt lat="47.387514" lon="9.227190">
<ele>696.6</ele>
<time>2003-09-26T07:19:33Z</time>
<speed>1.1</speed>
</trkpt>
<trkpt lat="47.387499" lon="9.227292">
<ele>698.1</ele>
<time>2003-09-26T07:19:38Z</time>
<speed>0.8</speed>
</trkpt>
<trkpt lat="47.387504" lon="9.227386">
<ele>699.0</ele>
<time>2003-09-26T07:19:43Z</time>
<speed>0.8</speed>
</trkpt>
<trkpt lat="47.387494" lon="9.227438">
<ele>698.7</ele>
<time>2003-09-26T07:19:48Z</time>
<speed>0.3</speed>
</trkpt>
<trkpt lat="47.387492" lon="9.227464">
<ele>698.9</ele>
<time>2003-09-26T07:19:53Z</time>
<speed>0.0</speed>
</trkpt>
<trkpt lat="47.387492" lon="9.227464">
<ele>698.9</ele>
<time>2003-09-26T07:19:58Z</time>
<speed>0.0</speed>
</trkpt>
<trkpt lat="47.387492" lon="9.227464">
<ele>698.9</ele>
<time>2003-09-26T07:20:03Z</time>
<speed>0.0</speed>
</trkpt>
<trkpt lat="47.387492" lon="9.227464">
<ele>698.9</ele>
<time>2003-09-26T07:20:08Z</time>
<speed>0.0</speed>
</trkpt>
<trkpt lat="47.387511" lon="9.227468">
<ele>698.3</ele>
<time>2003-09-26T07:20:13Z</time>
<speed>0.0</speed>
</trkpt>
<trkpt lat="47.387511" lon="9.227468">
<ele>698.3</ele>
<time>2003-09-26T07:20:18Z</time>
<speed>0.0</speed>
</trkpt>
<trkpt lat="47.387504" lon="9.227481">
<ele>697.7</ele>
<time>2003-09-26T07:20:23Z</time>
<speed>0.0</speed>
</trkpt>
<trkpt lat="47.387503" lon="9.227495">
<ele>697.8</ele>
<time>2003-09-26T07:20:28Z</time>
<speed>0.0</speed>
</trkpt>
<trkpt lat="47.387511" lon="9.227549">
<ele>698.3</ele>
<time>2003-09-26T07:20:33Z</time>
<speed>0.6</speed>
</trkpt>
<trkpt lat="47.387513" lon="9.227603">
<ele>698.0</ele>
<time>2003-09-26T07:20:38Z</time>
<speed>0.0</speed>
</trkpt>
<trkpt lat="47.387526" lon="9.227605">
<ele>698.1</ele>
<time>2003-09-26T07:20:43Z</time>
<speed>0.0</speed>
</trkpt>
<trkpt lat="47.387526" lon="9.227605">
<ele>698.1</ele>
<time>2003-09-26T07:20:48Z</time>
<speed>0.0</speed>
</trkpt>
<trkpt lat="47.387526" lon="9.227605">
<ele>698.1</ele>
<time>2003-09-26T07:20:53Z</time>
<speed>0.0</speed>
</trkpt>
<trkpt lat="47.387526" lon="9.227605">
<ele>698.1</ele>
<time>2003-09-26T07:20:58Z</time>
<speed>0.0</speed>
</trkpt>
<trkpt lat="47.387526" lon="9.227605">
<ele>698.1</ele>
<time>2003-09-26T07:21:03Z</time>
<speed>0.0</speed>
</trkpt>
<trkpt lat="47.387518" lon="9.227616">
<ele>698.9</ele>
<time>2003-09-26T07:21:08Z</time>
<speed>0.0</speed>
</trkpt>
<trkpt lat="47.387505" lon="9.227627">
<ele>698.9</ele>
<time>2003-09-26T07:21:13Z</time>
<speed>0.0</speed>
</trkpt>
<trkpt lat="47.387511" lon="9.227629">
<ele>698.3</ele>
<time>2003-09-26T07:21:18Z</time>
<speed>0.0</speed>
</trkpt>
<trkpt lat="47.387524" lon="9.227634">
<ele>696.9</ele>
<time>2003-09-26T07:21:23Z</time>
<speed>0.0</speed>
</trkpt>
<trkpt lat="47.387524" lon="9.227634">
<ele>696.9</ele>
<time>2003-09-26T07:21:28Z</time>
<speed>0.3</speed>
</trkpt>
<trkpt lat="47.387531" lon="9.227636">
<ele>696.2</ele>
<time>2003-09-26T07:21:33Z</time>
<speed>0.0</speed>
</trkpt>
<trkpt lat="47.387532" lon="9.227623">
<ele>696.1</ele>
<time>2003-09-26T07:21:38Z</time>
<speed>0.3</speed>
</trkpt>
<trkpt lat="47.387545" lon="9.227612">
<ele>696.1</ele>
<time>2003-09-26T07:21:43Z</time>
<speed>0.0</speed>
</trkpt>
<trkpt lat="47.387534" lon="9.227597">
<ele>695.9</ele>
<time>2003-09-26T07:21:48Z</time>
<speed>0.0</speed>
</trkpt>
<trkpt lat="47.387522" lon="9.227597">
<ele>694.5</ele>
<time>2003-09-26T07:21:53Z</time>
<speed>0.0</speed>
</trkpt>
<trkpt lat="47.387522" lon="9.227597">
<ele>694.5</ele>
<time>2003-09-26T07:21:58Z</time>
<speed>0.0</speed>
</trkpt>
<trkpt lat="47.387528" lon="9.227599">
<ele>693.8</ele>
<time>2003-09-26T07:22:03Z</time>
<speed>0.0</speed>
</trkpt>
<trkpt lat="47.387528" lon="9.227599">
<ele>693.8</ele>
<time>2003-09-26T07:22:08Z</time>
<speed>0.0</speed>
</trkpt>
<trkpt lat="47.387528" lon="9.227599">
<ele>693.8</ele>
<time>2003-09-26T07:22:13Z</time>
<speed>0.0</speed>
</trkpt>
<trkpt lat="47.387534" lon="9.227599">
<ele>694.5</ele>
<time>2003-09-26T07:22:18Z</time>
<speed>0.0</speed>
</trkpt>
<trkpt lat="47.387540" lon="9.227614">
<ele>694.0</ele>
<time>2003-09-26T07:22:23Z</time>
<speed>0.3</speed>
</trkpt>
<trkpt lat="47.387534" lon="9.227679">
<ele>694.5</ele>
<time>2003-09-26T07:22:28Z</time>
<speed>1.1</speed>
</trkpt>
<trkpt lat="47.387532" lon="9.227705">
<ele>694.7</ele>
<time>2003-09-26T07:22:33Z</time>
<speed>0.0</speed>
</trkpt>
<trkpt lat="47.387540" lon="9.227695">
<ele>693.9</ele>
<time>2003-09-26T07:22:38Z</time>
<speed>0.0</speed>
</trkpt>
<trkpt lat="47.387552" lon="9.227710">
<ele>694.1</ele>
<time>2003-09-26T07:22:43Z</time>
<speed>0.0</speed>
</trkpt>
<trkpt lat="47.387558" lon="9.227710">
<ele>694.9</ele>
<time>2003-09-26T07:22:48Z</time>
<speed>0.0</speed>
</trkpt>
<trkpt lat="47.387558" lon="9.227712">
<ele>693.4</ele>
<time>2003-09-26T07:22:53Z</time>
<speed>0.0</speed>
</trkpt>
<trkpt lat="47.387563" lon="9.227725">
<ele>694.3</ele>
<time>2003-09-26T07:22:58Z</time>
<speed>0.0</speed>
</trkpt>
<trkpt lat="47.387549" lon="9.227736">
<ele>694.3</ele>
<time>2003-09-26T07:23:03Z</time>
<speed>0.3</speed>
</trkpt>
<trkpt lat="47.387528" lon="9.227758">
<ele>695.2</ele>
<time>2003-09-26T07:23:08Z</time>
<speed>0.3</speed>
</trkpt>
<trkpt lat="47.387507" lon="9.227782">
<ele>694.6</ele>
<time>2003-09-26T07:23:13Z</time>
<speed>0.0</speed>
</trkpt>
<trkpt lat="47.387481" lon="9.227791">
<ele>694.5</ele>
<time>2003-09-26T07:23:18Z</time>
<speed>0.0</speed>
</trkpt>
<trkpt lat="47.387474" lon="9.227788">
<ele>695.2</ele>
<time>2003-09-26T07:23:23Z</time>
<speed>0.0</speed>
</trkpt>
<trkpt lat="47.387468" lon="9.227788">
<ele>694.5</ele>
<time>2003-09-26T07:23:28Z</time>
<speed>0.3</speed>
</trkpt>
<trkpt lat="47.387469" lon="9.227775">
<ele>694.4</ele>
<time>2003-09-26T07:23:33Z</time>
<speed>0.0</speed>
</trkpt>
<trkpt lat="47.387482" lon="9.227778">
<ele>694.4</ele>
<time>2003-09-26T07:23:38Z</time>
<speed>0.0</speed>
</trkpt>
<trkpt lat="47.387495" lon="9.227780">
<ele>694.5</ele>
<time>2003-09-26T07:23:43Z</time>
<speed>0.3</speed>
</trkpt>
<trkpt lat="47.387482" lon="9.227778">
<ele>694.4</ele>
<time>2003-09-26T07:23:48Z</time>
<speed>0.0</speed>
</trkpt>
<trkpt lat="47.387496" lon="9.227767">
<ele>694.4</ele>
<time>2003-09-26T07:23:53Z</time>
<speed>0.0</speed>
</trkpt>
<trkpt lat="47.387490" lon="9.227767">
<ele>693.7</ele>
<time>2003-09-26T07:23:58Z</time>
<speed>0.0</speed>
</trkpt>
<trkpt lat="47.387502" lon="9.227769">
<ele>693.7</ele>
<time>2003-09-26T07:24:03Z</time>
<speed>0.0</speed>
</trkpt>
<trkpt lat="47.387498" lon="9.227821">
<ele>694.2</ele>
<time>2003-09-26T07:24:08Z</time>
<speed>0.0</speed>
</trkpt>
<trkpt lat="47.387470" lon="9.227856">
<ele>694.3</ele>
<time>2003-09-26T07:24:13Z</time>
<speed>0.3</speed>
</trkpt>
<trkpt lat="47.387441" lon="9.227891">
<ele>694.5</ele>
<time>2003-09-26T07:24:18Z</time>
<speed>0.6</speed>
</trkpt>
<trkpt lat="47.387459" lon="9.227908">
<ele>694.0</ele>
<time>2003-09-26T07:24:23Z</time>
<speed>0.6</speed>
</trkpt>
<trkpt lat="47.387457" lon="9.227934">
<ele>694.3</ele>
<time>2003-09-26T07:24:28Z</time>
<speed>0.3</speed>
</trkpt>
<trkpt lat="47.387481" lon="9.227952">
<ele>694.5</ele>
<time>2003-09-26T07:24:33Z</time>
<speed>0.3</speed>
</trkpt>
<trkpt lat="47.387475" lon="9.227952">
<ele>693.8</ele>
<time>2003-09-26T07:24:38Z</time>
<speed>0.3</speed>
</trkpt>
<trkpt lat="47.387448" lon="9.227974">
<ele>693.9</ele>
<time>2003-09-26T07:24:43Z</time>
<speed>0.3</speed>
</trkpt>
<trkpt lat="47.387433" lon="9.227998">
<ele>694.0</ele>
<time>2003-09-26T07:24:48Z</time>
<speed>0.0</speed>
</trkpt>
<trkpt lat="47.387418" lon="9.228022">
<ele>694.2</ele>
<time>2003-09-26T07:24:53Z</time>
<speed>0.0</speed>
</trkpt>
<trkpt lat="47.387391" lon="9.228044">
<ele>694.2</ele>
<time>2003-09-26T07:24:58Z</time>
<speed>0.3</speed>
</trkpt>
<trkpt lat="47.387350" lon="9.228076">
<ele>694.4</ele>
<time>2003-09-26T07:25:03Z</time>
<speed>0.3</speed>
</trkpt>
<trkpt lat="47.387349" lon="9.228089">
<ele>694.5</ele>
<time>2003-09-26T07:25:08Z</time>
<speed>0.0</speed>
</trkpt>
<trkpt lat="47.387354" lon="9.228105">
<ele>693.9</ele>
<time>2003-09-26T07:25:13Z</time>
<speed>0.3</speed>
</trkpt>
<trkpt lat="47.387335" lon="9.228100">
<ele>694.5</ele>
<time>2003-09-26T07:25:20Z</time>
<speed>0.3</speed>
</trkpt>
<trkpt lat="47.387288" lon="9.228133">
<ele>693.9</ele>
<time>2003-09-26T07:25:25Z</time>
<speed>0.3</speed>
</trkpt>
<trkpt lat="47.387222" lon="9.228162">
<ele>693.9</ele>
<time>2003-09-26T07:25:30Z</time>
<speed>0.0</speed>
</trkpt>
<trkpt lat="47.387095" lon="9.228234">
<ele>693.3</ele>
<time>2003-09-26T07:25:35Z</time>
<speed>0.0</speed>
</trkpt>
<trkpt lat="47.387121" lon="9.228225">
<ele>693.3</ele>
<time>2003-09-26T07:25:46Z</time>
<speed>0.3</speed>
</trkpt>
<trkpt lat="47.387161" lon="9.228206">
<ele>693.3</ele>
<time>2003-09-26T07:25:51Z</time>
<speed>0.6</speed>
</trkpt>
<trkpt lat="47.387109" lon="9.228210">
<ele>693.1</ele>
<time>2003-09-26T07:25:56Z</time>
<speed>0.0</speed>
</trkpt>
<trkpt lat="47.387074" lon="9.228178">
<ele>692.7</ele>
<time>2003-09-26T07:26:01Z</time>
<speed>0.0</speed>
</trkpt>
<trkpt lat="47.387070" lon="9.228152">
<ele>691.8</ele>
<time>2003-09-26T07:26:06Z</time>
<speed>0.3</speed>
</trkpt>
<trkpt lat="47.387030" lon="9.228091">
<ele>691.8</ele>
<time>2003-09-26T07:26:11Z</time>
<speed>0.0</speed>
</trkpt>
<trkpt lat="47.387010" lon="9.228102">
<ele>691.1</ele>
<time>2003-09-26T07:26:16Z</time>
<speed>0.3</speed>
</trkpt>
<trkpt lat="47.387065" lon="9.228138">
<ele>690.9</ele>
<time>2003-09-26T07:26:21Z</time>
<speed>0.3</speed>
</trkpt>
<trkpt lat="47.387085" lon="9.228114">
<ele>691.5</ele>
<time>2003-09-26T07:26:31Z</time>
<speed>0.0</speed>
</trkpt>
<trkpt lat="47.387044" lon="9.228243">
<ele>690.3</ele>
<time>2003-09-26T07:26:36Z</time>
<speed>0.0</speed>
</trkpt>
<trkpt lat="47.387019" lon="9.228260">
<ele>684.7</ele>
<time>2003-09-26T07:26:41Z</time>
<speed>0.6</speed>
</trkpt>
<trkpt lat="47.387080" lon="9.228251">
<ele>679.9</ele>
<time>2003-09-26T07:26:46Z</time>
<speed>0.3</speed>
</trkpt>
<trkpt lat="47.387108" lon="9.228253">
<ele>672.9</ele>
<time>2003-09-26T07:26:51Z</time>
<speed>0.0</speed>
</trkpt>
<trkpt lat="47.387132" lon="9.228244">
<ele>663.6</ele>
<time>2003-09-26T07:26:56Z</time>
<speed>0.3</speed>
</trkpt>
<trkpt lat="47.387124" lon="9.228285">
<ele>661.8</ele>
<time>2003-09-26T07:27:01Z</time>
<speed>0.6</speed>
</trkpt>
<trkpt lat="47.387061" lon="9.228340">
<ele>662.7</ele>
<time>2003-09-26T07:27:07Z</time>
<speed>0.0</speed>
</trkpt>
<trkpt lat="47.387061" lon="9.228340">
<ele>662.7</ele>
<time>2003-09-26T07:27:12Z</time>
<speed>0.0</speed>
</trkpt>
<trkpt lat="47.387061" lon="9.228340">
<ele>662.7</ele>
<time>2003-09-26T07:27:17Z</time>
<speed>0.0</speed>
</trkpt>
<trkpt lat="47.387022" lon="9.228381">
<ele>657.2</ele>
<time>2003-09-26T07:27:22Z</time>
<speed>0.6</speed>
</trkpt>
<trkpt lat="47.386986" lon="9.228447">
<ele>654.1</ele>
<time>2003-09-26T07:27:27Z</time>
<speed>0.6</speed>
</trkpt>
<trkpt lat="47.386999" lon="9.228512">
<ele>656.9</ele>
<time>2003-09-26T07:27:32Z</time>
<speed>0.8</speed>
</trkpt>
<trkpt lat="47.387010" lon="9.228621">
<ele>657.1</ele>
<time>2003-09-26T07:27:37Z</time>
<speed>0.3</speed>
</trkpt>
<trkpt lat="47.387014" lon="9.228684">
<ele>651.3</ele>
<time>2003-09-26T07:27:42Z</time>
<speed>0.6</speed>
</trkpt>
<trkpt lat="47.387073" lon="9.228783">
<ele>645.2</ele>
<time>2003-09-26T07:27:47Z</time>
<speed>0.6</speed>
</trkpt>
<trkpt lat="47.387082" lon="9.228842">
<ele>642.9</ele>
<time>2003-09-26T07:27:52Z</time>
<speed>0.3</speed>
</trkpt>
<trkpt lat="47.387083" lon="9.228881">
<ele>634.7</ele>
<time>2003-09-26T07:27:57Z</time>
<speed>0.6</speed>
</trkpt>
<trkpt lat="47.387092" lon="9.228957">
<ele>629.7</ele>
<time>2003-09-26T07:28:02Z</time>
<speed>0.8</speed>
</trkpt>
<trkpt lat="47.387091" lon="9.229050">
<ele>629.8</ele>
<time>2003-09-26T07:28:07Z</time>
<speed>0.8</speed>
</trkpt>
<trkpt lat="47.387126" lon="9.229159">
<ele>633.0</ele>
<time>2003-09-26T07:28:12Z</time>
<speed>1.1</speed>
</trkpt>
<trkpt lat="47.387206" lon="9.229244">
<ele>639.8</ele>
<time>2003-09-26T07:28:17Z</time>
<speed>1.1</speed>
</trkpt>
<trkpt lat="47.387248" lon="9.229340">
<ele>643.6</ele>
<time>2003-09-26T07:28:22Z</time>
<speed>0.8</speed>
</trkpt>
<trkpt lat="47.387251" lon="9.229458">
<ele>646.1</ele>
<time>2003-09-26T07:28:27Z</time>
<speed>0.8</speed>
</trkpt>
<trkpt lat="47.387269" lon="9.229538">
<ele>648.3</ele>
<time>2003-09-26T07:28:32Z</time>
<speed>0.8</speed>
</trkpt>
<trkpt lat="47.387302" lon="9.229595">
<ele>650.3</ele>
<time>2003-09-26T07:28:37Z</time>
<speed>0.6</speed>
</trkpt>
<trkpt lat="47.387303" lon="9.229658">
<ele>653.0</ele>
<time>2003-09-26T07:28:42Z</time>
<speed>0.6</speed>
</trkpt>
<trkpt lat="47.387295" lon="9.229747">
<ele>655.1</ele>
<time>2003-09-26T07:28:47Z</time>
<speed>0.8</speed>
</trkpt>
<trkpt lat="47.387306" lon="9.229841">
<ele>656.7</ele>
<time>2003-09-26T07:28:52Z</time>
<speed>0.8</speed>
</trkpt>
<trkpt lat="47.387313" lon="9.229906">
<ele>658.7</ele>
<time>2003-09-26T07:28:57Z</time>
<speed>0.8</speed>
</trkpt>
<trkpt lat="47.387333" lon="9.229993">
<ele>656.7</ele>
<time>2003-09-26T07:29:02Z</time>
<speed>1.1</speed>
</trkpt>
<trkpt lat="47.387340" lon="9.230078">
<ele>654.6</ele>
<time>2003-09-26T07:29:07Z</time>
<speed>1.1</speed>
</trkpt>
<trkpt lat="47.387334" lon="9.230156">
<ele>655.3</ele>
<time>2003-09-26T07:29:12Z</time>
<speed>0.8</speed>
</trkpt>
<trkpt lat="47.387319" lon="9.230182">
<ele>654.0</ele>
<time>2003-09-26T07:29:17Z</time>
<speed>0.3</speed>
</trkpt>
<trkpt lat="47.387291" lon="9.230217">
<ele>654.2</ele>
<time>2003-09-26T07:29:22Z</time>
<speed>0.0</speed>
</trkpt>
<trkpt lat="47.387302" lon="9.230248">
<ele>653.1</ele>
<time>2003-09-26T07:29:27Z</time>
<speed>0.0</speed>
</trkpt>
<trkpt lat="47.387351" lon="9.230285">
<ele>652.2</ele>
<time>2003-09-26T07:29:32Z</time>
<speed>0.8</speed>
</trkpt>
<trkpt lat="47.387411" lon="9.230337">
<ele>651.4</ele>
<time>2003-09-26T07:29:37Z</time>
<speed>0.6</speed>
</trkpt>
<trkpt lat="47.387427" lon="9.230382">
<ele>649.7</ele>
<time>2003-09-26T07:29:42Z</time>
<speed>0.3</speed>
</trkpt>
<trkpt lat="47.387454" lon="9.230454">
<ele>649.8</ele>
<time>2003-09-26T07:29:47Z</time>
<speed>0.8</speed>
</trkpt>
<trkpt lat="47.387466" lon="9.230534">
<ele>651.2</ele>
<time>2003-09-26T07:29:52Z</time>
<speed>0.8</speed>
</trkpt>
<trkpt lat="47.387505" lon="9.230606">
<ele>652.7</ele>
<time>2003-09-26T07:29:57Z</time>
<speed>1.1</speed>
</trkpt>
<trkpt lat="47.387552" lon="9.230652">
<ele>654.7</ele>
<time>2003-09-26T07:30:02Z</time>
<speed>1.1</speed>
</trkpt>
<trkpt lat="47.387591" lon="9.230726">
<ele>654.8</ele>
<time>2003-09-26T07:30:07Z</time>
<speed>0.8</speed>
</trkpt>
<trkpt lat="47.387623" lon="9.230797">
<ele>655.5</ele>
<time>2003-09-26T07:30:12Z</time>
<speed>0.8</speed>
</trkpt>
<trkpt lat="47.387637" lon="9.230882">
<ele>654.2</ele>
<time>2003-09-26T07:30:17Z</time>
<speed>0.8</speed>
</trkpt>
<trkpt lat="47.387662" lon="9.230889">
<ele>652.9</ele>
<time>2003-09-26T07:30:22Z</time>
<speed>0.0</speed>
</trkpt>
<trkpt lat="47.387667" lon="9.230917">
<ele>652.4</ele>
<time>2003-09-26T07:30:27Z</time>
<speed>0.6</speed>
</trkpt>
<trkpt lat="47.387634" lon="9.231004">
<ele>653.1</ele>
<time>2003-09-26T07:30:32Z</time>
<speed>0.6</speed>
</trkpt>
<trkpt lat="47.387629" lon="9.231054">
<ele>654.9</ele>
<time>2003-09-26T07:30:37Z</time>
<speed>0.3</speed>
</trkpt>
<trkpt lat="47.387605" lon="9.231115">
<ele>656.0</ele>
<time>2003-09-26T07:30:42Z</time>
<speed>0.6</speed>
</trkpt>
<trkpt lat="47.387594" lon="9.231165">
<ele>657.1</ele>
<time>2003-09-26T07:30:47Z</time>
<speed>0.8</speed>
</trkpt>
<trkpt lat="47.387568" lon="9.231253">
<ele>658.5</ele>
<time>2003-09-26T07:30:52Z</time>
<speed>0.8</speed>
</trkpt>
<trkpt lat="47.387547" lon="9.231342">
<ele>659.2</ele>
<time>2003-09-26T07:30:57Z</time>
<speed>1.1</speed>
</trkpt>
<trkpt lat="47.387545" lon="9.231447">
<ele>660.8</ele>
<time>2003-09-26T07:31:02Z</time>
<speed>0.8</speed>
</trkpt>
<trkpt lat="47.387532" lon="9.231538">
<ele>660.8</ele>
<time>2003-09-26T07:31:07Z</time>
<speed>0.8</speed>
</trkpt>
<trkpt lat="47.387548" lon="9.231647">
<ele>661.8</ele>
<time>2003-09-26T07:31:12Z</time>
<speed>0.8</speed>
</trkpt>
<trkpt lat="47.387571" lon="9.231756">
<ele>663.6</ele>
<time>2003-09-26T07:31:17Z</time>
<speed>1.1</speed>
</trkpt>
<trkpt lat="47.387615" lon="9.231843">
<ele>664.5</ele>
<time>2003-09-26T07:31:23Z</time>
<speed>0.6</speed>
</trkpt>
<trkpt lat="47.387627" lon="9.231938">
<ele>664.7</ele>
<time>2003-09-26T07:31:28Z</time>
<speed>0.6</speed>
</trkpt>
<trkpt lat="47.387653" lon="9.232010">
<ele>664.7</ele>
<time>2003-09-26T07:31:33Z</time>
<speed>0.6</speed>
</trkpt>
<trkpt lat="47.387703" lon="9.232110">
<ele>666.4</ele>
<time>2003-09-26T07:31:38Z</time>
<speed>0.8</speed>
</trkpt>
<trkpt lat="47.387734" lon="9.232195">
<ele>667.3</ele>
<time>2003-09-26T07:31:43Z</time>
<speed>0.8</speed>
</trkpt>
<trkpt lat="47.387725" lon="9.232313">
<ele>668.3</ele>
<time>2003-09-26T07:31:48Z</time>
<speed>0.8</speed>
</trkpt>
<trkpt lat="47.387688" lon="9.232359">
<ele>669.2</ele>
<time>2003-09-26T07:31:53Z</time>
<speed>0.3</speed>
</trkpt>
<trkpt lat="47.387691" lon="9.232398">
<ele>670.3</ele>
<time>2003-09-26T07:31:58Z</time>
<speed>0.3</speed>
</trkpt>
<trkpt lat="47.387722" lon="9.232415">
<ele>671.3</ele>
<time>2003-09-26T07:32:03Z</time>
<speed>0.3</speed>
</trkpt>
<trkpt lat="47.387784" lon="9.232439">
<ele>671.7</ele>
<time>2003-09-26T07:32:08Z</time>
<speed>0.3</speed>
</trkpt>
<trkpt lat="47.387835" lon="9.232434">
<ele>671.9</ele>
<time>2003-09-26T07:32:13Z</time>
<speed>0.3</speed>
</trkpt>
<trkpt lat="47.387907" lon="9.232419">
<ele>672.7</ele>
<time>2003-09-26T07:32:18Z</time>
<speed>0.3</speed>
</trkpt>
<trkpt lat="47.387955" lon="9.232451">
<ele>674.6</ele>
<time>2003-09-26T07:32:23Z</time>
<speed>0.6</speed>
</trkpt>
<trkpt lat="47.388017" lon="9.232475">
<ele>675.1</ele>
<time>2003-09-26T07:32:28Z</time>
<speed>0.6</speed>
</trkpt>
<trkpt lat="47.388070" lon="9.232523">
<ele>676.4</ele>
<time>2003-09-26T07:32:33Z</time>
<speed>1.1</speed>
</trkpt>
<trkpt lat="47.388115" lon="9.232594">
<ele>678.6</ele>
<time>2003-09-26T07:32:38Z</time>
<speed>0.8</speed>
</trkpt>
<trkpt lat="47.388149" lon="9.232640">
<ele>679.2</ele>
<time>2003-09-26T07:32:43Z</time>
<speed>0.8</speed>
</trkpt>
<trkpt lat="47.388157" lon="9.232692">
<ele>681.1</ele>
<time>2003-09-26T07:32:48Z</time>
<speed>0.6</speed>
</trkpt>
<trkpt lat="47.388166" lon="9.232747">
<ele>681.6</ele>
<time>2003-09-26T07:32:53Z</time>
<speed>0.6</speed>
</trkpt>
<trkpt lat="47.388211" lon="9.232805">
<ele>683.7</ele>
<time>2003-09-26T07:32:58Z</time>
<speed>0.6</speed>
</trkpt>
<trkpt lat="47.388290" lon="9.232857">
<ele>685.1</ele>
<time>2003-09-26T07:33:03Z</time>
<speed>0.8</speed>
</trkpt>
<trkpt lat="47.388377" lon="9.232885">
<ele>685.7</ele>
<time>2003-09-26T07:33:08Z</time>
<speed>0.8</speed>
</trkpt>
<trkpt lat="47.388421" lon="9.232907">
<ele>685.4</ele>
<time>2003-09-26T07:33:13Z</time>
<speed>0.6</speed>
</trkpt>
<trkpt lat="47.388456" lon="9.232939">
<ele>685.8</ele>
<time>2003-09-26T07:33:18Z</time>
<speed>0.3</speed>
</trkpt>
<trkpt lat="47.388507" lon="9.232948">
<ele>686.1</ele>
<time>2003-09-26T07:33:23Z</time>
<speed>0.3</speed>
</trkpt>
<trkpt lat="47.388538" lon="9.232952">
<ele>686.9</ele>
<time>2003-09-26T07:33:28Z</time>
<speed>0.6</speed>
</trkpt>
<trkpt lat="47.388553" lon="9.233006">
<ele>688.2</ele>
<time>2003-09-26T07:33:33Z</time>
<speed>0.8</speed>
</trkpt>
<trkpt lat="47.388586" lon="9.233065">
<ele>688.8</ele>
<time>2003-09-26T07:33:38Z</time>
<speed>0.6</speed>
</trkpt>
<trkpt lat="47.388616" lon="9.233098">
<ele>688.5</ele>
<time>2003-09-26T07:33:43Z</time>
<speed>0.3</speed>
</trkpt>
<trkpt lat="47.388652" lon="9.233132">
<ele>687.5</ele>
<time>2003-09-26T07:33:48Z</time>
<speed>0.6</speed>
</trkpt>
<trkpt lat="47.388703" lon="9.233141">
<ele>687.8</ele>
<time>2003-09-26T07:33:53Z</time>
<speed>0.6</speed>
</trkpt>
<trkpt lat="47.388719" lon="9.233169">
<ele>688.8</ele>
<time>2003-09-26T07:33:58Z</time>
<speed>0.3</speed>
</trkpt>
<trkpt lat="47.388751" lon="9.233175">
<ele>688.3</ele>
<time>2003-09-26T07:34:03Z</time>
<speed>0.0</speed>
</trkpt>
<trkpt lat="47.388782" lon="9.233180">
<ele>689.1</ele>
<time>2003-09-26T07:34:08Z</time>
<speed>0.3</speed>
</trkpt>
<trkpt lat="47.388833" lon="9.233188">
<ele>689.4</ele>
<time>2003-09-26T07:34:13Z</time>
<speed>0.3</speed>
</trkpt>
<trkpt lat="47.388878" lon="9.233181">
<ele>690.2</ele>
<time>2003-09-26T07:34:18Z</time>
<speed>0.6</speed>
</trkpt>
<trkpt lat="47.388908" lon="9.233199">
<ele>691.2</ele>
<time>2003-09-26T07:34:23Z</time>
<speed>0.3</speed>
</trkpt>
<trkpt lat="47.388941" lon="9.233192">
<ele>690.6</ele>
<time>2003-09-26T07:34:28Z</time>
<speed>0.3</speed>
</trkpt>
<trkpt lat="47.388938" lon="9.233233">
<ele>689.5</ele>
<time>2003-09-26T07:34:33Z</time>
<speed>0.3</speed>
</trkpt>
<trkpt lat="47.388948" lon="9.233275">
<ele>689.9</ele>
<time>2003-09-26T07:34:38Z</time>
<speed>0.6</speed>
</trkpt>
<trkpt lat="47.388973" lon="9.233360">
<ele>690.0</ele>
<time>2003-09-26T07:34:43Z</time>
<speed>0.6</speed>
</trkpt>
<trkpt lat="47.388955" lon="9.233423">
<ele>690.5</ele>
<time>2003-09-26T07:34:48Z</time>
<speed>0.6</speed>
</trkpt>
<trkpt lat="47.388940" lon="9.233447">
<ele>690.6</ele>
<time>2003-09-26T07:34:53Z</time>
<speed>0.8</speed>
</trkpt>
<trkpt lat="47.388915" lon="9.233458">
<ele>689.2</ele>
<time>2003-09-26T07:34:58Z</time>
<speed>0.6</speed>
</trkpt>
<trkpt lat="47.388885" lon="9.233506">
<ele>689.5</ele>
<time>2003-09-26T07:35:03Z</time>
<speed>0.6</speed>
</trkpt>
<trkpt lat="47.388871" lon="9.233595">
<ele>690.9</ele>
<time>2003-09-26T07:35:08Z</time>
<speed>0.6</speed>
</trkpt>
<trkpt lat="47.388890" lon="9.233678">
<ele>691.7</ele>
<time>2003-09-26T07:35:13Z</time>
<speed>0.6</speed>
</trkpt>
<trkpt lat="47.388901" lon="9.233771">
<ele>693.3</ele>
<time>2003-09-26T07:35:18Z</time>
<speed>0.6</speed>
</trkpt>
<trkpt lat="47.388915" lon="9.233841">
<ele>693.2</ele>
<time>2003-09-26T07:35:23Z</time>
<speed>0.3</speed>
</trkpt>
<trkpt lat="47.388949" lon="9.233885">
<ele>695.2</ele>
<time>2003-09-26T07:35:28Z</time>
<speed>0.6</speed>
</trkpt>
<trkpt lat="47.388969" lon="9.233954">
<ele>695.8</ele>
<time>2003-09-26T07:35:33Z</time>
<speed>0.6</speed>
</trkpt>
<trkpt lat="47.389012" lon="9.233910">
<ele>694.2</ele>
<time>2003-09-26T07:35:38Z</time>
<speed>0.8</speed>
</trkpt>
<trkpt lat="47.389060" lon="9.233864">
<ele>694.7</ele>
<time>2003-09-26T07:35:43Z</time>
<speed>0.6</speed>
</trkpt>
<trkpt lat="47.389088" lon="9.233830">
<ele>694.5</ele>
<time>2003-09-26T07:35:48Z</time>
<speed>0.6</speed>
</trkpt>
<trkpt lat="47.389142" lon="9.233799">
<ele>694.5</ele>
<time>2003-09-26T07:35:53Z</time>
<speed>0.3</speed>
</trkpt>
<trkpt lat="47.389200" lon="9.233794">
<ele>695.4</ele>
<time>2003-09-26T07:35:58Z</time>
<speed>0.8</speed>
</trkpt>
<trkpt lat="47.389252" lon="9.233774">
<ele>696.8</ele>
<time>2003-09-26T07:36:03Z</time>
<speed>0.6</speed>
</trkpt>
<trkpt lat="47.389305" lon="9.233757">
<ele>696.9</ele>
<time>2003-09-26T07:36:08Z</time>
<speed>0.3</speed>
</trkpt>
<trkpt lat="47.389329" lon="9.233774">
<ele>697.1</ele>
<time>2003-09-26T07:36:13Z</time>
<speed>0.3</speed>
</trkpt>
<trkpt lat="47.389418" lon="9.233776">
<ele>697.5</ele>
<time>2003-09-26T07:36:18Z</time>
<speed>0.6</speed>
</trkpt>
<trkpt lat="47.389474" lon="9.233800">
<ele>697.2</ele>
<time>2003-09-26T07:36:23Z</time>
<speed>0.6</speed>
</trkpt>
<trkpt lat="47.389523" lon="9.233836">
<ele>696.3</ele>
<time>2003-09-26T07:36:28Z</time>
<speed>0.6</speed>
</trkpt>
<trkpt lat="47.389567" lon="9.233845">
<ele>695.8</ele>
<time>2003-09-26T07:36:33Z</time>
<speed>0.3</speed>
</trkpt>
<trkpt lat="47.389603" lon="9.233877">
<ele>696.2</ele>
<time>2003-09-26T07:36:38Z</time>
<speed>0.6</speed>
</trkpt>
<trkpt lat="47.389634" lon="9.233897">
<ele>695.8</ele>
<time>2003-09-26T07:36:43Z</time>
<speed>0.6</speed>
</trkpt>
<trkpt lat="47.389673" lon="9.233910">
<ele>691.8</ele>
<time>2003-09-26T07:36:48Z</time>
<speed>0.0</speed>
</trkpt>
<trkpt lat="47.389706" lon="9.233920">
<ele>688.5</ele>
<time>2003-09-26T07:36:53Z</time>
<speed>0.0</speed>
</trkpt>
<trkpt lat="47.389741" lon="9.233953">
<ele>688.9</ele>
<time>2003-09-26T07:36:58Z</time>
<speed>0.0</speed>
</trkpt>
<trkpt lat="47.389724" lon="9.233922">
<ele>689.3</ele>
<time>2003-09-26T07:37:03Z</time>
<speed>0.6</speed>
</trkpt>
<trkpt lat="47.389718" lon="9.233922">
<ele>688.5</ele>
<time>2003-09-26T07:37:08Z</time>
<speed>0.0</speed>
</trkpt>
<trkpt lat="47.389761" lon="9.233961">
<ele>685.5</ele>
<time>2003-09-26T07:37:13Z</time>
<speed>0.3</speed>
</trkpt>
<trkpt lat="47.389818" lon="9.233970">
<ele>686.5</ele>
<time>2003-09-26T07:37:18Z</time>
<speed>0.6</speed>
</trkpt>
<trkpt lat="47.389862" lon="9.233978">
<ele>686.0</ele>
<time>2003-09-26T07:37:23Z</time>
<speed>0.6</speed>
</trkpt>
<trkpt lat="47.389942" lon="9.233954">
<ele>684.7</ele>
<time>2003-09-26T07:37:28Z</time>
<speed>0.6</speed>
</trkpt>
<trkpt lat="47.390000" lon="9.233951">
<ele>684.2</ele>
<time>2003-09-26T07:37:33Z</time>
<speed>0.6</speed>
</trkpt>
<trkpt lat="47.390070" lon="9.233964">
<ele>683.9</ele>
<time>2003-09-26T07:37:38Z</time>
<speed>0.6</speed>
</trkpt>
<trkpt lat="47.390129" lon="9.233949">
<ele>683.2</ele>
<time>2003-09-26T07:37:43Z</time>
<speed>0.3</speed>
</trkpt>
<trkpt lat="47.390167" lon="9.233957">
<ele>682.0</ele>
<time>2003-09-26T07:37:48Z</time>
<speed>0.0</speed>
</trkpt>
<trkpt lat="47.390228" lon="9.233916">
<ele>681.2</ele>
<time>2003-09-26T07:37:53Z</time>
<speed>0.6</speed>
</trkpt>
<trkpt lat="47.390319" lon="9.233826">
<ele>680.1</ele>
<time>2003-09-26T07:37:58Z</time>
<speed>0.3</speed>
</trkpt>
<trkpt lat="47.390361" lon="9.233780">
<ele>679.8</ele>
<time>2003-09-26T07:38:03Z</time>
<speed>0.0</speed>
</trkpt>
<trkpt lat="47.390375" lon="9.233769">
<ele>679.8</ele>
<time>2003-09-26T07:38:08Z</time>
<speed>0.0</speed>
</trkpt>
<trkpt lat="47.390390" lon="9.233745">
<ele>679.7</ele>
<time>2003-09-26T07:38:13Z</time>
<speed>0.0</speed>
</trkpt>
<trkpt lat="47.390390" lon="9.233745">
<ele>679.7</ele>
<time>2003-09-26T07:38:18Z</time>
<speed>0.0</speed>
</trkpt>
<trkpt lat="47.390390" lon="9.233745">
<ele>679.7</ele>
<time>2003-09-26T07:38:23Z</time>
<speed>0.0</speed>
</trkpt>
<trkpt lat="47.390390" lon="9.233745">
<ele>679.7</ele>
<time>2003-09-26T07:38:28Z</time>
<speed>0.0</speed>
</trkpt>
<trkpt lat="47.390390" lon="9.233745">
<ele>679.7</ele>
<time>2003-09-26T07:38:33Z</time>
<speed>0.0</speed>
</trkpt>
<trkpt lat="47.390416" lon="9.233736">
<ele>679.7</ele>
<time>2003-09-26T07:38:38Z</time>
<speed>0.0</speed>
</trkpt>
<trkpt lat="47.390409" lon="9.233734">
<ele>680.4</ele>
<time>2003-09-26T07:38:43Z</time>
<speed>0.0</speed>
</trkpt>
<trkpt lat="47.390415" lon="9.233734">
<ele>681.1</ele>
<time>2003-09-26T07:38:48Z</time>
<speed>0.0</speed>
</trkpt>
<trkpt lat="47.390409" lon="9.233732">
<ele>681.8</ele>
<time>2003-09-26T07:38:53Z</time>
<speed>0.0</speed>
</trkpt>
<trkpt lat="47.390424" lon="9.233708">
<ele>681.6</ele>
<time>2003-09-26T07:38:58Z</time>
<speed>0.0</speed>
</trkpt>
<trkpt lat="47.390453" lon="9.233660">
<ele>681.3</ele>
<time>2003-09-26T07:39:03Z</time>
<speed>0.6</speed>
</trkpt>
<trkpt lat="47.390483" lon="9.233612">
<ele>681.0</ele>
<time>2003-09-26T07:39:08Z</time>
<speed>0.3</speed>
</trkpt>
<trkpt lat="47.390483" lon="9.233612">
<ele>681.0</ele>
<time>2003-09-26T07:39:13Z</time>
<speed>0.0</speed>
</trkpt>
<trkpt lat="47.390504" lon="9.233592">
<ele>678.8</ele>
<time>2003-09-26T07:39:18Z</time>
<speed>0.0</speed>
</trkpt>
<trkpt lat="47.390532" lon="9.233572">
<ele>677.3</ele>
<time>2003-09-26T07:39:23Z</time>
<speed>0.0</speed>
</trkpt>
<trkpt lat="47.390528" lon="9.233544">
<ele>677.8</ele>
<time>2003-09-26T07:39:28Z</time>
<speed>0.3</speed>
</trkpt>
<trkpt lat="47.390535" lon="9.233533">
<ele>677.0</ele>
<time>2003-09-26T07:39:33Z</time>
<speed>0.0</speed>
</trkpt>
<trkpt lat="47.390544" lon="9.233507">
<ele>677.5</ele>
<time>2003-09-26T07:39:38Z</time>
<speed>0.0</speed>
</trkpt>
<trkpt lat="47.390550" lon="9.233507">
<ele>678.2</ele>
<time>2003-09-26T07:39:43Z</time>
<speed>0.0</speed>
</trkpt>
<trkpt lat="47.390556" lon="9.233507">
<ele>679.0</ele>
<time>2003-09-26T07:39:48Z</time>
<speed>0.0</speed>
</trkpt>
<trkpt lat="47.390563" lon="9.233494">
<ele>679.6</ele>
<time>2003-09-26T07:39:53Z</time>
<speed>0.0</speed>
</trkpt>
<trkpt lat="47.390540" lon="9.233463">
<ele>679.2</ele>
<time>2003-09-26T07:39:58Z</time>
<speed>0.0</speed>
</trkpt>
<trkpt lat="47.390541" lon="9.233450">
<ele>679.1</ele>
<time>2003-09-26T07:40:03Z</time>
<speed>0.3</speed>
</trkpt>
<trkpt lat="47.390554" lon="9.233437">
<ele>680.5</ele>
<time>2003-09-26T07:40:08Z</time>
<speed>0.0</speed>
</trkpt>
<trkpt lat="47.390578" lon="9.233374">
<ele>680.8</ele>
<time>2003-09-26T07:40:13Z</time>
<speed>0.3</speed>
</trkpt>
<trkpt lat="47.390593" lon="9.233335">
<ele>681.9</ele>
<time>2003-09-26T07:40:18Z</time>
<speed>0.3</speed>
</trkpt>
<trkpt lat="47.390615" lon="9.233313">
<ele>681.1</ele>
<time>2003-09-26T07:40:23Z</time>
<speed>0.0</speed>
</trkpt>
<trkpt lat="47.390623" lon="9.233287">
<ele>681.6</ele>
<time>2003-09-26T07:40:28Z</time>
<speed>0.0</speed>
</trkpt>
<trkpt lat="47.390638" lon="9.233263">
<ele>681.5</ele>
<time>2003-09-26T07:40:33Z</time>
<speed>0.3</speed>
</trkpt>
<trkpt lat="47.390645" lon="9.233252">
<ele>680.7</ele>
<time>2003-09-26T07:40:38Z</time>
<speed>0.0</speed>
</trkpt>
<trkpt lat="47.390653" lon="9.233226">
<ele>681.2</ele>
<time>2003-09-26T07:40:43Z</time>
<speed>0.3</speed>
</trkpt>
<trkpt lat="47.390662" lon="9.233202">
<ele>680.3</ele>
<time>2003-09-26T07:40:48Z</time>
<speed>0.3</speed>
</trkpt>
<trkpt lat="47.390658" lon="9.233173">
<ele>680.8</ele>
<time>2003-09-26T07:40:53Z</time>
<speed>0.0</speed>
</trkpt>
<trkpt lat="47.390659" lon="9.233160">
<ele>680.7</ele>
<time>2003-09-26T07:40:58Z</time>
<speed>0.0</speed>
</trkpt>
<trkpt lat="47.390654" lon="9.233147">
<ele>679.8</ele>
<time>2003-09-26T07:41:03Z</time>
<speed>0.0</speed>
</trkpt>
<trkpt lat="47.390656" lon="9.233121">
<ele>679.6</ele>
<time>2003-09-26T07:41:08Z</time>
<speed>0.0</speed>
</trkpt>
<trkpt lat="47.390650" lon="9.233106">
<ele>680.2</ele>
<time>2003-09-26T07:41:13Z</time>
<speed>0.0</speed>
</trkpt>
<trkpt lat="47.390651" lon="9.233091">
<ele>681.4</ele>
<time>2003-09-26T07:41:18Z</time>
<speed>0.0</speed>
</trkpt>
<trkpt lat="47.390637" lon="9.233036">
<ele>680.2</ele>
<time>2003-09-26T07:41:23Z</time>
<speed>0.3</speed>
</trkpt>
<trkpt lat="47.390595" lon="9.233006">
<ele>677.6</ele>
<time>2003-09-26T07:41:28Z</time>
<speed>0.6</speed>
</trkpt>
<trkpt lat="47.390578" lon="9.232991">
<ele>676.7</ele>
<time>2003-09-26T07:41:33Z</time>
<speed>0.0</speed>
</trkpt>
<trkpt lat="47.390566" lon="9.232973">
<ele>678.0</ele>
<time>2003-09-26T07:41:38Z</time>
<speed>0.0</speed>
</trkpt>
<trkpt lat="47.390567" lon="9.232960">
<ele>677.9</ele>
<time>2003-09-26T07:41:43Z</time>
<speed>0.0</speed>
</trkpt>
<trkpt lat="47.390573" lon="9.232960">
<ele>678.6</ele>
<time>2003-09-26T07:41:48Z</time>
<speed>0.0</speed>
</trkpt>
<trkpt lat="47.390579" lon="9.232960">
<ele>679.3</ele>
<time>2003-09-26T07:41:53Z</time>
<speed>0.3</speed>
</trkpt>
<trkpt lat="47.390577" lon="9.232971">
<ele>680.8</ele>
<time>2003-09-26T07:41:58Z</time>
<speed>0.0</speed>
</trkpt>
<trkpt lat="47.390571" lon="9.232969">
<ele>681.5</ele>
<time>2003-09-26T07:42:03Z</time>
<speed>0.0</speed>
</trkpt>
<trkpt lat="47.390572" lon="9.232956">
<ele>681.4</ele>
<time>2003-09-26T07:42:08Z</time>
<speed>0.0</speed>
</trkpt>
<trkpt lat="47.390571" lon="9.232954">
<ele>682.8</ele>
<time>2003-09-26T07:42:13Z</time>
<speed>0.0</speed>
</trkpt>
<trkpt lat="47.390571" lon="9.232954">
<ele>682.8</ele>
<time>2003-09-26T07:42:18Z</time>
<speed>0.3</speed>
</trkpt>
<trkpt lat="47.390507" lon="9.232954">
<ele>684.0</ele>
<time>2003-09-26T07:42:23Z</time>
<speed>0.8</speed>
</trkpt>
<trkpt lat="47.390438" lon="9.232909">
<ele>688.3</ele>
<time>2003-09-26T07:42:28Z</time>
<speed>0.3</speed>
</trkpt>
<trkpt lat="47.390419" lon="9.232890">
<ele>690.2</ele>
<time>2003-09-26T07:42:33Z</time>
<speed>0.0</speed>
</trkpt>
<trkpt lat="47.390414" lon="9.232876">
<ele>689.4</ele>
<time>2003-09-26T07:42:38Z</time>
<speed>0.0</speed>
</trkpt>
<trkpt lat="47.390414" lon="9.232874">
<ele>690.8</ele>
<time>2003-09-26T07:42:43Z</time>
<speed>0.0</speed>
</trkpt>
<trkpt lat="47.390414" lon="9.232876">
<ele>689.4</ele>
<time>2003-09-26T07:42:48Z</time>
<speed>0.0</speed>
</trkpt>
<trkpt lat="47.390415" lon="9.232861">
<ele>690.7</ele>
<time>2003-09-26T07:42:53Z</time>
<speed>0.0</speed>
</trkpt>
<trkpt lat="47.390424" lon="9.232837">
<ele>689.8</ele>
<time>2003-09-26T07:42:58Z</time>
<speed>0.0</speed>
</trkpt>
<trkpt lat="47.390418" lon="9.232842">
<ele>686.2</ele>
<time>2003-09-26T07:43:03Z</time>
<speed>0.0</speed>
</trkpt>
<trkpt lat="47.390401" lon="9.232811">
<ele>686.6</ele>
<time>2003-09-26T07:43:08Z</time>
<speed>0.0</speed>
</trkpt>
<trkpt lat="47.390415" lon="9.232818">
<ele>683.9</ele>
<time>2003-09-26T07:43:13Z</time>
<speed>0.0</speed>
</trkpt>
<trkpt lat="47.390427" lon="9.232835">
<ele>682.6</ele>
<time>2003-09-26T07:43:18Z</time>
<speed>0.0</speed>
</trkpt>
<trkpt lat="47.390440" lon="9.232839">
<ele>681.3</ele>
<time>2003-09-26T07:43:23Z</time>
<speed>0.0</speed>
</trkpt>
<trkpt lat="47.390458" lon="9.232859">
<ele>679.4</ele>
<time>2003-09-26T07:43:28Z</time>
<speed>0.0</speed>
</trkpt>
<trkpt lat="47.390460" lon="9.232848">
<ele>677.9</ele>
<time>2003-09-26T07:43:33Z</time>
<speed>0.0</speed>
</trkpt>
<trkpt lat="47.390475" lon="9.232824">
<ele>677.7</ele>
<time>2003-09-26T07:43:38Z</time>
<speed>0.0</speed>
</trkpt>
<trkpt lat="47.390527" lon="9.232884">
<ele>679.2</ele>
<time>2003-09-26T07:43:43Z</time>
<speed>0.8</speed>
</trkpt>
<trkpt lat="47.390531" lon="9.232908">
<ele>681.5</ele>
<time>2003-09-26T07:43:48Z</time>
<speed>0.0</speed>
</trkpt>
<trkpt lat="47.390456" lon="9.232865">
<ele>683.7</ele>
<time>2003-09-26T07:43:53Z</time>
<speed>0.3</speed>
</trkpt>
<trkpt lat="47.390499" lon="9.232885">
<ele>684.8</ele>
<time>2003-09-26T07:43:58Z</time>
<speed>0.0</speed>
</trkpt>
<trkpt lat="47.390545" lon="9.232882">
<ele>682.8</ele>
<time>2003-09-26T07:44:03Z</time>
<speed>0.0</speed>
</trkpt>
<trkpt lat="47.390572" lon="9.232939">
<ele>684.1</ele>
<time>2003-09-26T07:44:08Z</time>
<speed>0.8</speed>
</trkpt>
<trkpt lat="47.390614" lon="9.232971">
<ele>685.3</ele>
<time>2003-09-26T07:44:13Z</time>
<speed>1.1</speed>
</trkpt>
<trkpt lat="47.390668" lon="9.233021">
<ele>685.2</ele>
<time>2003-09-26T07:44:18Z</time>
<speed>1.1</speed>
</trkpt>
<trkpt lat="47.390717" lon="9.233043">
<ele>685.6</ele>
<time>2003-09-26T07:44:23Z</time>
<speed>0.6</speed>
</trkpt>
<trkpt lat="47.390751" lon="9.233023">
<ele>684.8</ele>
<time>2003-09-26T07:44:28Z</time>
<speed>0.6</speed>
</trkpt>
<trkpt lat="47.390776" lon="9.233025">
<ele>686.4</ele>
<time>2003-09-26T07:44:33Z</time>
<speed>0.6</speed>
</trkpt>
<trkpt lat="47.390828" lon="9.233007">
<ele>686.4</ele>
<time>2003-09-26T07:44:38Z</time>
<speed>1.1</speed>
</trkpt>
<trkpt lat="47.390867" lon="9.233001">
<ele>686.5</ele>
<time>2003-09-26T07:44:43Z</time>
<speed>0.8</speed>
</trkpt>
<trkpt lat="47.390914" lon="9.232983">
<ele>685.8</ele>
<time>2003-09-26T07:44:48Z</time>
<speed>0.6</speed>
</trkpt>
<trkpt lat="47.390960" lon="9.232965">
<ele>685.1</ele>
<time>2003-09-26T07:44:53Z</time>
<speed>0.3</speed>
</trkpt>
<trkpt lat="47.391011" lon="9.232976">
<ele>684.0</ele>
<time>2003-09-26T07:44:58Z</time>
<speed>0.6</speed>
</trkpt>
<trkpt lat="47.391068" lon="9.233004">
<ele>680.9</ele>
<time>2003-09-26T07:45:03Z</time>
<speed>0.6</speed>
</trkpt>
<trkpt lat="47.391113" lon="9.233032">
<ele>676.3</ele>
<time>2003-09-26T07:45:08Z</time>
<speed>0.8</speed>
</trkpt>
<trkpt lat="47.391152" lon="9.233025">
<ele>676.4</ele>
<time>2003-09-26T07:45:13Z</time>
<speed>0.8</speed>
</trkpt>
<trkpt lat="47.391187" lon="9.232992">
<ele>675.6</ele>
<time>2003-09-26T07:45:18Z</time>
<speed>0.6</speed>
</trkpt>
<trkpt lat="47.391235" lon="9.232964">
<ele>673.4</ele>
<time>2003-09-26T07:45:23Z</time>
<speed>1.1</speed>
</trkpt>
<trkpt lat="47.391302" lon="9.232957">
<ele>667.9</ele>
<time>2003-09-26T07:45:28Z</time>
<speed>1.4</speed>
</trkpt>
<trkpt lat="47.391368" lon="9.232948">
<ele>663.8</ele>
<time>2003-09-26T07:45:33Z</time>
<speed>1.1</speed>
</trkpt>
<trkpt lat="47.391429" lon="9.232921">
<ele>661.7</ele>
<time>2003-09-26T07:45:38Z</time>
<speed>1.1</speed>
</trkpt>
<trkpt lat="47.391483" lon="9.232893">
<ele>660.2</ele>
<time>2003-09-26T07:45:43Z</time>
<speed>0.8</speed>
</trkpt>
<trkpt lat="47.391544" lon="9.232851">
<ele>659.4</ele>
<time>2003-09-26T07:45:48Z</time>
<speed>1.1</speed>
</trkpt>
<trkpt lat="47.391598" lon="9.232822">
<ele>657.9</ele>
<time>2003-09-26T07:45:53Z</time>
<speed>1.1</speed>
</trkpt>
<trkpt lat="47.391660" lon="9.232781">
<ele>657.1</ele>
<time>2003-09-26T07:45:58Z</time>
<speed>1.1</speed>
</trkpt>
<trkpt lat="47.391705" lon="9.232776">
<ele>656.5</ele>
<time>2003-09-26T07:46:03Z</time>
<speed>0.3</speed>
</trkpt>
<trkpt lat="47.391717" lon="9.232791">
<ele>656.7</ele>
<time>2003-09-26T07:46:08Z</time>
<speed>0.0</speed>
</trkpt>
<trkpt lat="47.391717" lon="9.232791">
<ele>656.7</ele>
<time>2003-09-26T07:46:13Z</time>
<speed>0.0</speed>
</trkpt>
<trkpt lat="47.391711" lon="9.232791">
<ele>656.0</ele>
<time>2003-09-26T07:46:18Z</time>
<speed>0.0</speed>
</trkpt>
<trkpt lat="47.391711" lon="9.232791">
<ele>656.0</ele>
<time>2003-09-26T07:46:23Z</time>
<speed>0.0</speed>
</trkpt>
<trkpt lat="47.391711" lon="9.232791">
<ele>656.0</ele>
<time>2003-09-26T07:46:28Z</time>
<speed>0.0</speed>
</trkpt>
<trkpt lat="47.391711" lon="9.232791">
<ele>656.0</ele>
<time>2003-09-26T07:46:33Z</time>
<speed>0.0</speed>
</trkpt>
<trkpt lat="47.391705" lon="9.232791">
<ele>655.2</ele>
<time>2003-09-26T07:46:38Z</time>
<speed>0.0</speed>
</trkpt>
<trkpt lat="47.391705" lon="9.232791">
<ele>655.2</ele>
<time>2003-09-26T07:46:43Z</time>
<speed>0.0</speed>
</trkpt>
<trkpt lat="47.391705" lon="9.232791">
<ele>655.2</ele>
<time>2003-09-26T07:46:48Z</time>
<speed>0.0</speed>
</trkpt>
<trkpt lat="47.391706" lon="9.232778">
<ele>655.1</ele>
<time>2003-09-26T07:46:53Z</time>
<speed>0.0</speed>
</trkpt>
<trkpt lat="47.391706" lon="9.232780">
<ele>653.7</ele>
<time>2003-09-26T07:46:58Z</time>
<speed>0.0</speed>
</trkpt>
<trkpt lat="47.391707" lon="9.232782">
<ele>652.3</ele>
<time>2003-09-26T07:47:03Z</time>
<speed>0.0</speed>
</trkpt>
<trkpt lat="47.391705" lon="9.232796">
<ele>652.4</ele>
<time>2003-09-26T07:47:08Z</time>
<speed>0.0</speed>
</trkpt>
<trkpt lat="47.391711" lon="9.232811">
<ele>651.8</ele>
<time>2003-09-26T07:47:13Z</time>
<speed>0.0</speed>
</trkpt>
<trkpt lat="47.391717" lon="9.232811">
<ele>652.6</ele>
<time>2003-09-26T07:47:18Z</time>
<speed>0.0</speed>
</trkpt>
<trkpt lat="47.391725" lon="9.232800">
<ele>651.8</ele>
<time>2003-09-26T07:47:23Z</time>
<speed>0.0</speed>
</trkpt>
<trkpt lat="47.391733" lon="9.232776">
<ele>650.9</ele>
<time>2003-09-26T07:47:28Z</time>
<speed>0.0</speed>
</trkpt>
<trkpt lat="47.391742" lon="9.232752">
<ele>650.0</ele>
<time>2003-09-26T07:47:33Z</time>
<speed>0.0</speed>
</trkpt>
<trkpt lat="47.391756" lon="9.232741">
<ele>650.0</ele>
<time>2003-09-26T07:47:38Z</time>
<speed>0.0</speed>
</trkpt>
<trkpt lat="47.391756" lon="9.232741">
<ele>650.0</ele>
<time>2003-09-26T07:47:43Z</time>
<speed>0.0</speed>
</trkpt>
<trkpt lat="47.391757" lon="9.232728">
<ele>649.9</ele>
<time>2003-09-26T07:47:48Z</time>
<speed>0.0</speed>
</trkpt>
<trkpt lat="47.391773" lon="9.232739">
<ele>653.6</ele>
<time>2003-09-26T07:47:53Z</time>
<speed>0.6</speed>
</trkpt>
<trkpt lat="47.391787" lon="9.232726">
<ele>655.0</ele>
<time>2003-09-26T07:47:58Z</time>
<speed>0.0</speed>
</trkpt>
<trkpt lat="47.391787" lon="9.232726">
<ele>655.0</ele>
<time>2003-09-26T07:48:03Z</time>
<speed>0.0</speed>
</trkpt>
<trkpt lat="47.391787" lon="9.232726">
<ele>655.0</ele>
<time>2003-09-26T07:48:08Z</time>
<speed>0.0</speed>
</trkpt>
<trkpt lat="47.391787" lon="9.232726">
<ele>655.0</ele>
<time>2003-09-26T07:48:13Z</time>
<speed>0.0</speed>
</trkpt>
<trkpt lat="47.391784" lon="9.232686">
<ele>653.9</ele>
<time>2003-09-26T07:48:18Z</time>
<speed>0.8</speed>
</trkpt>
<trkpt lat="47.391789" lon="9.232621">
<ele>653.4</ele>
<time>2003-09-26T07:48:23Z</time>
<speed>0.6</speed>
</trkpt>
<trkpt lat="47.391807" lon="9.232558">
<ele>652.9</ele>
<time>2003-09-26T07:48:28Z</time>
<speed>0.8</speed>
</trkpt>
<trkpt lat="47.391815" lon="9.232532">
<ele>653.4</ele>
<time>2003-09-26T07:48:33Z</time>
<speed>0.3</speed>
</trkpt>
<trkpt lat="47.391794" lon="9.232556">
<ele>652.8</ele>
<time>2003-09-26T07:48:38Z</time>
<speed>0.0</speed>
</trkpt>
<trkpt lat="47.391768" lon="9.232564">
<ele>652.8</ele>
<time>2003-09-26T07:48:43Z</time>
<speed>0.0</speed>
</trkpt>
<trkpt lat="47.391723" lon="9.232571">
<ele>652.0</ele>
<time>2003-09-26T07:48:48Z</time>
<speed>0.3</speed>
</trkpt>
<trkpt lat="47.391715" lon="9.232519">
<ele>650.1</ele>
<time>2003-09-26T07:48:53Z</time>
<speed>0.0</speed>
</trkpt>
<trkpt lat="47.391720" lon="9.232454">
<ele>649.5</ele>
<time>2003-09-26T07:48:58Z</time>
<speed>0.3</speed>
</trkpt>
<trkpt lat="47.391727" lon="9.232456">
<ele>648.8</ele>
<time>2003-09-26T07:49:03Z</time>
<speed>0.3</speed>
</trkpt>
<trkpt lat="47.391721" lon="9.232456">
<ele>648.1</ele>
<time>2003-09-26T07:49:08Z</time>
<speed>0.0</speed>
</trkpt>
<trkpt lat="47.391741" lon="9.232447">
<ele>647.4</ele>
<time>2003-09-26T07:49:13Z</time>
<speed>0.3</speed>
</trkpt>
<trkpt lat="47.391806" lon="9.232351">
<ele>647.5</ele>
<time>2003-09-26T07:49:18Z</time>
<speed>0.3</speed>
</trkpt>
<trkpt lat="47.391751" lon="9.232312">
<ele>649.1</ele>
<time>2003-09-26T07:49:23Z</time>
<speed>0.0</speed>
</trkpt>
<trkpt lat="47.391763" lon="9.232314">
<ele>649.2</ele>
<time>2003-09-26T07:49:28Z</time>
<speed>0.3</speed>
</trkpt>
<trkpt lat="47.391768" lon="9.232327">
<ele>650.0</ele>
<time>2003-09-26T07:49:33Z</time>
<speed>0.0</speed>
</trkpt>
<trkpt lat="47.391755" lon="9.232321">
<ele>652.8</ele>
<time>2003-09-26T07:49:38Z</time>
<speed>0.0</speed>
</trkpt>
<trkpt lat="47.391755" lon="9.232319">
<ele>654.2</ele>
<time>2003-09-26T07:49:43Z</time>
<speed>0.0</speed>
</trkpt>
<trkpt lat="47.391737" lon="9.232286">
<ele>656.0</ele>
<time>2003-09-26T07:49:48Z</time>
<speed>0.3</speed>
</trkpt>
<trkpt lat="47.391696" lon="9.232302">
<ele>658.8</ele>
<time>2003-09-26T07:49:53Z</time>
<speed>0.6</speed>
</trkpt>
<trkpt lat="47.391719" lon="9.232315">
<ele>661.8</ele>
<time>2003-09-26T07:49:58Z</time>
<speed>0.8</speed>
</trkpt>
<trkpt lat="47.391740" lon="9.232369">
<ele>663.8</ele>
<time>2003-09-26T07:50:03Z</time>
<speed>0.6</speed>
</trkpt>
<trkpt lat="47.391724" lon="9.232406">
<ele>664.1</ele>
<time>2003-09-26T07:50:08Z</time>
<speed>0.8</speed>
</trkpt>
<trkpt lat="47.391726" lon="9.232476">
<ele>662.5</ele>
<time>2003-09-26T07:50:13Z</time>
<speed>0.6</speed>
</trkpt>
<trkpt lat="47.391716" lon="9.232528">
<ele>662.2</ele>
<time>2003-09-26T07:50:18Z</time>
<speed>0.3</speed>
</trkpt>
<trkpt lat="47.391704" lon="9.232593">
<ele>662.1</ele>
<time>2003-09-26T07:50:23Z</time>
<speed>0.6</speed>
</trkpt>
<trkpt lat="47.391737" lon="9.232685">
<ele>658.7</ele>
<time>2003-09-26T07:50:28Z</time>
<speed>0.6</speed>
</trkpt>
<trkpt lat="47.391747" lon="9.232728">
<ele>657.7</ele>
<time>2003-09-26T07:50:33Z</time>
<speed>0.6</speed>
</trkpt>
<trkpt lat="47.391752" lon="9.232761">
<ele>654.4</ele>
<time>2003-09-26T07:50:38Z</time>
<speed>0.6</speed>
</trkpt>
<trkpt lat="47.391745" lon="9.232774">
<ele>653.8</ele>
<time>2003-09-26T07:50:43Z</time>
<speed>0.0</speed>
</trkpt>
<trkpt lat="47.391746" lon="9.232761">
<ele>653.7</ele>
<time>2003-09-26T07:50:48Z</time>
<speed>0.0</speed>
</trkpt>
<trkpt lat="47.391733" lon="9.232758">
<ele>653.6</ele>
<time>2003-09-26T07:50:53Z</time>
<speed>0.0</speed>
</trkpt>
<trkpt lat="47.391737" lon="9.232785">
<ele>654.6</ele>
<time>2003-09-26T07:50:58Z</time>
<speed>0.3</speed>
</trkpt>
<trkpt lat="47.391702" lon="9.232833">
<ele>654.1</ele>
<time>2003-09-26T07:51:03Z</time>
<speed>0.8</speed>
</trkpt>
<trkpt lat="47.391667" lon="9.232865">
<ele>655.0</ele>
<time>2003-09-26T07:51:08Z</time>
<speed>0.8</speed>
</trkpt>
<trkpt lat="47.391632" lon="9.232900">
<ele>654.5</ele>
<time>2003-09-26T07:51:13Z</time>
<speed>0.8</speed>
</trkpt>
<trkpt lat="47.391591" lon="9.232933">
<ele>654.6</ele>
<time>2003-09-26T07:51:18Z</time>
<speed>0.6</speed>
</trkpt>
<trkpt lat="47.391551" lon="9.232953">
<ele>654.6</ele>
<time>2003-09-26T07:51:23Z</time>
<speed>0.8</speed>
</trkpt>
<trkpt lat="47.391511" lon="9.232973">
<ele>654.6</ele>
<time>2003-09-26T07:51:28Z</time>
<speed>0.6</speed>
</trkpt>
<trkpt lat="47.391477" lon="9.232990">
<ele>656.8</ele>
<time>2003-09-26T07:51:33Z</time>
<speed>0.6</speed>
</trkpt>
<trkpt lat="47.391442" lon="9.233023">
<ele>657.6</ele>
<time>2003-09-26T07:51:38Z</time>
<speed>0.6</speed>
</trkpt>
<trkpt lat="47.391407" lon="9.233056">
<ele>658.5</ele>
<time>2003-09-26T07:51:43Z</time>
<speed>0.3</speed>
</trkpt>
<trkpt lat="47.391366" lon="9.233087">
<ele>660.0</ele>
<time>2003-09-26T07:51:48Z</time>
<speed>0.8</speed>
</trkpt>
<trkpt lat="47.391331" lon="9.233120">
<ele>660.9</ele>
<time>2003-09-26T07:51:53Z</time>
<speed>0.6</speed>
</trkpt>
<trkpt lat="47.391289" lon="9.233150">
<ele>662.4</ele>
<time>2003-09-26T07:51:58Z</time>
<speed>0.8</speed>
</trkpt>
<trkpt lat="47.391260" lon="9.233183">
<ele>664.0</ele>
<time>2003-09-26T07:52:03Z</time>
<speed>0.6</speed>
</trkpt>
<trkpt lat="47.391230" lon="9.233229">
<ele>665.7</ele>
<time>2003-09-26T07:52:08Z</time>
<speed>0.6</speed>
</trkpt>
<trkpt lat="47.391189" lon="9.233260">
<ele>667.2</ele>
<time>2003-09-26T07:52:13Z</time>
<speed>0.6</speed>
</trkpt>
<trkpt lat="47.391159" lon="9.233306">
<ele>668.9</ele>
<time>2003-09-26T07:52:18Z</time>
<speed>0.6</speed>
</trkpt>
<trkpt lat="47.391130" lon="9.233339">
<ele>670.5</ele>
<time>2003-09-26T07:52:23Z</time>
<speed>0.6</speed>
</trkpt>
<trkpt lat="47.391100" lon="9.233387">
<ele>670.8</ele>
<time>2003-09-26T07:52:28Z</time>
<speed>0.6</speed>
</trkpt>
<trkpt lat="47.391072" lon="9.233420">
<ele>672.4</ele>
<time>2003-09-26T07:52:33Z</time>
<speed>0.6</speed>
</trkpt>
<trkpt lat="47.391038" lon="9.233439">
<ele>673.2</ele>
<time>2003-09-26T07:52:38Z</time>
<speed>0.6</speed>
</trkpt>
<trkpt lat="47.391026" lon="9.233487">
<ele>675.7</ele>
<time>2003-09-26T07:52:43Z</time>
<speed>0.6</speed>
</trkpt>
<trkpt lat="47.391005" lon="9.233524">
<ele>675.2</ele>
<time>2003-09-26T07:52:48Z</time>
<speed>0.8</speed>
</trkpt>
<trkpt lat="47.390989" lon="9.233562">
<ele>675.4</ele>
<time>2003-09-26T07:52:53Z</time>
<speed>0.6</speed>
</trkpt>
<trkpt lat="47.390973" lon="9.233599">
<ele>675.7</ele>
<time>2003-09-26T07:52:58Z</time>
<speed>0.6</speed>
</trkpt>
<trkpt lat="47.390958" lon="9.233638">
<ele>674.6</ele>
<time>2003-09-26T07:53:03Z</time>
<speed>0.8</speed>
</trkpt>
<trkpt lat="47.390961" lon="9.233696">
<ele>671.5</ele>
<time>2003-09-26T07:53:08Z</time>
<speed>0.8</speed>
</trkpt>
<trkpt lat="47.390976" lon="9.233755">
<ele>669.9</ele>
<time>2003-09-26T07:53:13Z</time>
<speed>0.3</speed>
</trkpt>
<trkpt lat="47.390977" lon="9.233821">
<ele>671.2</ele>
<time>2003-09-26T07:53:18Z</time>
<speed>0.6</speed>
</trkpt>
<trkpt lat="47.390984" lon="9.233888">
<ele>671.8</ele>
<time>2003-09-26T07:53:23Z</time>
<speed>0.3</speed>
</trkpt>
<trkpt lat="47.391020" lon="9.233923">
<ele>670.8</ele>
<time>2003-09-26T07:53:28Z</time>
<speed>0.6</speed>
</trkpt>
<trkpt lat="47.391051" lon="9.233942">
<ele>670.4</ele>
<time>2003-09-26T07:53:33Z</time>
<speed>0.6</speed>
</trkpt>
<trkpt lat="47.391100" lon="9.233962">
<ele>672.2</ele>
<time>2003-09-26T07:53:38Z</time>
<speed>0.8</speed>
</trkpt>
<trkpt lat="47.391139" lon="9.233955">
<ele>672.3</ele>
<time>2003-09-26T07:53:43Z</time>
<speed>0.6</speed>
</trkpt>
<trkpt lat="47.391177" lon="9.233961">
<ele>672.5</ele>
<time>2003-09-26T07:53:48Z</time>
<speed>0.3</speed>
</trkpt>
<trkpt lat="47.391219" lon="9.233996">
<ele>672.3</ele>
<time>2003-09-26T07:53:53Z</time>
<speed>0.8</speed>
</trkpt>
<trkpt lat="47.391264" lon="9.234004">
<ele>671.8</ele>
<time>2003-09-26T07:53:58Z</time>
<speed>0.6</speed>
</trkpt>
<trkpt lat="47.391314" lon="9.234015">
<ele>670.7</ele>
<time>2003-09-26T07:54:03Z</time>
<speed>0.8</speed>
</trkpt>
<trkpt lat="47.391358" lon="9.234037">
<ele>670.3</ele>
<time>2003-09-26T07:54:08Z</time>
<speed>0.6</speed>
</trkpt>
<trkpt lat="47.391375" lon="9.234067">
<ele>669.9</ele>
<time>2003-09-26T07:54:13Z</time>
<speed>0.3</speed>
</trkpt>
<trkpt lat="47.391385" lon="9.234095">
<ele>670.2</ele>
<time>2003-09-26T07:54:18Z</time>
<speed>0.3</speed>
</trkpt>
<trkpt lat="47.391402" lon="9.234126">
<ele>669.8</ele>
<time>2003-09-26T07:54:23Z</time>
<speed>0.3</speed>
</trkpt>
<trkpt lat="47.391420" lon="9.234143">
<ele>669.3</ele>
<time>2003-09-26T07:54:28Z</time>
<speed>0.0</speed>
</trkpt>
<trkpt lat="47.391443" lon="9.234186">
<ele>669.8</ele>
<time>2003-09-26T07:54:33Z</time>
<speed>0.3</speed>
</trkpt>
<trkpt lat="47.391465" lon="9.234230">
<ele>670.3</ele>
<time>2003-09-26T07:54:38Z</time>
<speed>0.6</speed>
</trkpt>
<trkpt lat="47.391493" lon="9.234273">
<ele>671.4</ele>
<time>2003-09-26T07:54:43Z</time>
<speed>0.3</speed>
</trkpt>
<trkpt lat="47.391535" lon="9.234306">
<ele>672.6</ele>
<time>2003-09-26T07:54:48Z</time>
<speed>0.6</speed>
</trkpt>
<trkpt lat="47.391582" lon="9.234354">
<ele>673.2</ele>
<time>2003-09-26T07:54:53Z</time>
<speed>0.6</speed>
</trkpt>
<trkpt lat="47.391629" lon="9.234401">
<ele>673.8</ele>
<time>2003-09-26T07:54:58Z</time>
<speed>0.6</speed>
</trkpt>
<trkpt lat="47.391669" lon="9.234445">
<ele>676.5</ele>
<time>2003-09-26T07:55:03Z</time>
<speed>0.8</speed>
</trkpt>
<trkpt lat="47.391722" lon="9.234488">
<ele>680.6</ele>
<time>2003-09-26T07:55:08Z</time>
<speed>0.6</speed>
</trkpt>
<trkpt lat="47.391755" lon="9.234545">
<ele>682.7</ele>
<time>2003-09-26T07:55:13Z</time>
<speed>0.8</speed>
</trkpt>
<trkpt lat="47.391787" lon="9.234614">
<ele>684.8</ele>
<time>2003-09-26T07:55:18Z</time>
<speed>0.8</speed>
</trkpt>
<trkpt lat="47.391823" lon="9.234645">
<ele>686.6</ele>
<time>2003-09-26T07:55:23Z</time>
<speed>0.8</speed>
</trkpt>
<trkpt lat="47.391856" lon="9.234701">
<ele>688.7</ele>
<time>2003-09-26T07:55:28Z</time>
<speed>0.6</speed>
</trkpt>
<trkpt lat="47.391884" lon="9.234745">
<ele>689.9</ele>
<time>2003-09-26T07:55:33Z</time>
<speed>0.8</speed>
</trkpt>
<trkpt lat="47.391911" lon="9.234801">
<ele>691.2</ele>
<time>2003-09-26T07:55:38Z</time>
<speed>0.6</speed>
</trkpt>
<trkpt lat="47.391940" lon="9.234832">
<ele>692.3</ele>
<time>2003-09-26T07:55:43Z</time>
<speed>0.8</speed>
</trkpt>
<trkpt lat="47.391976" lon="9.234864">
<ele>692.7</ele>
<time>2003-09-26T07:55:48Z</time>
<speed>0.6</speed>
</trkpt>
<trkpt lat="47.392012" lon="9.234897">
<ele>693.1</ele>
<time>2003-09-26T07:55:53Z</time>
<speed>0.8</speed>
</trkpt>
<trkpt lat="47.392041" lon="9.234927">
<ele>694.2</ele>
<time>2003-09-26T07:55:58Z</time>
<speed>0.6</speed>
</trkpt>
<trkpt lat="47.392071" lon="9.234960">
<ele>693.9</ele>
<time>2003-09-26T07:56:03Z</time>
<speed>0.8</speed>
</trkpt>
<trkpt lat="47.392099" lon="9.235003">
<ele>695.1</ele>
<time>2003-09-26T07:56:08Z</time>
<speed>0.6</speed>
</trkpt>
<trkpt lat="47.392128" lon="9.235036">
<ele>694.8</ele>
<time>2003-09-26T07:56:13Z</time>
<speed>0.8</speed>
</trkpt>
<trkpt lat="47.392137" lon="9.235075">
<ele>696.6</ele>
<time>2003-09-26T07:56:18Z</time>
<speed>0.0</speed>
</trkpt>
<trkpt lat="47.392144" lon="9.235077">
<ele>695.9</ele>
<time>2003-09-26T07:56:23Z</time>
<speed>0.6</speed>
</trkpt>
<trkpt lat="47.392165" lon="9.235134">
<ele>696.5</ele>
<time>2003-09-26T07:56:28Z</time>
<speed>0.6</speed>
</trkpt>
<trkpt lat="47.392179" lon="9.235188">
<ele>697.7</ele>
<time>2003-09-26T07:56:33Z</time>
<speed>0.8</speed>
</trkpt>
<trkpt lat="47.392200" lon="9.235245">
<ele>698.3</ele>
<time>2003-09-26T07:56:38Z</time>
<speed>0.8</speed>
</trkpt>
<trkpt lat="47.392209" lon="9.235299">
<ele>698.8</ele>
<time>2003-09-26T07:56:43Z</time>
<speed>0.8</speed>
</trkpt>
<trkpt lat="47.392224" lon="9.235355">
<ele>698.6</ele>
<time>2003-09-26T07:56:48Z</time>
<speed>0.6</speed>
</trkpt>
<trkpt lat="47.392231" lon="9.235423">
<ele>699.2</ele>
<time>2003-09-26T07:56:53Z</time>
<speed>0.8</speed>
</trkpt>
<trkpt lat="47.392239" lon="9.235477">
<ele>699.7</ele>
<time>2003-09-26T07:56:58Z</time>
<speed>0.8</speed>
</trkpt>
<trkpt lat="47.392248" lon="9.235532">
<ele>700.2</ele>
<time>2003-09-26T07:57:03Z</time>
<speed>0.8</speed>
</trkpt>
<trkpt lat="47.392256" lon="9.235586">
<ele>700.7</ele>
<time>2003-09-26T07:57:08Z</time>
<speed>0.8</speed>
</trkpt>
<trkpt lat="47.392276" lon="9.235658">
<ele>700.0</ele>
<time>2003-09-26T07:57:13Z</time>
<speed>1.1</speed>
</trkpt>
<trkpt lat="47.392296" lon="9.235728">
<ele>700.7</ele>
<time>2003-09-26T07:57:18Z</time>
<speed>0.8</speed>
</trkpt>
<trkpt lat="47.392323" lon="9.235799">
<ele>700.7</ele>
<time>2003-09-26T07:57:23Z</time>
<speed>1.1</speed>
</trkpt>
<trkpt lat="47.392349" lon="9.235871">
<ele>700.7</ele>
<time>2003-09-26T07:57:28Z</time>
<speed>1.1</speed>
</trkpt>
<trkpt lat="47.392383" lon="9.235932">
<ele>699.9</ele>
<time>2003-09-26T07:57:33Z</time>
<speed>1.1</speed>
</trkpt>
<trkpt lat="47.392417" lon="9.235990">
<ele>700.6</ele>
<time>2003-09-26T07:57:38Z</time>
<speed>0.8</speed>
</trkpt>
<trkpt lat="47.392444" lon="9.236049">
<ele>700.5</ele>
<time>2003-09-26T07:57:43Z</time>
<speed>1.4</speed>
</trkpt>
<trkpt lat="47.392484" lon="9.236123">
<ele>700.5</ele>
<time>2003-09-26T07:57:48Z</time>
<speed>1.4</speed>
</trkpt>
<trkpt lat="47.392523" lon="9.236197">
<ele>700.6</ele>
<time>2003-09-26T07:57:53Z</time>
<speed>1.1</speed>
</trkpt>
<trkpt lat="47.392557" lon="9.236258">
<ele>699.9</ele>
<time>2003-09-26T07:57:58Z</time>
<speed>0.8</speed>
</trkpt>
<trkpt lat="47.392582" lon="9.236342">
<ele>700.0</ele>
<time>2003-09-26T07:58:03Z</time>
<speed>1.1</speed>
</trkpt>
<trkpt lat="47.392607" lon="9.236427">
<ele>700.1</ele>
<time>2003-09-26T07:58:08Z</time>
<speed>1.1</speed>
</trkpt>
<trkpt lat="47.392620" lon="9.236510">
<ele>700.2</ele>
<time>2003-09-26T07:58:13Z</time>
<speed>1.1</speed>
</trkpt>
<trkpt lat="47.392646" lon="9.236595">
<ele>700.3</ele>
<time>2003-09-26T07:58:18Z</time>
<speed>0.8</speed>
</trkpt>
<trkpt lat="47.392660" lon="9.236664">
<ele>700.2</ele>
<time>2003-09-26T07:58:23Z</time>
<speed>1.4</speed>
</trkpt>
<trkpt lat="47.392685" lon="9.236749">
<ele>700.3</ele>
<time>2003-09-26T07:58:28Z</time>
<speed>1.1</speed>
</trkpt>
<trkpt lat="47.392704" lon="9.236832">
<ele>701.1</ele>
<time>2003-09-26T07:58:33Z</time>
<speed>1.1</speed>
</trkpt>
<trkpt lat="47.392732" lon="9.236893">
<ele>699.6</ele>
<time>2003-09-26T07:58:38Z</time>
<speed>1.1</speed>
</trkpt>
<trkpt lat="47.392765" lon="9.236967">
<ele>699.0</ele>
<time>2003-09-26T07:58:43Z</time>
<speed>1.1</speed>
</trkpt>
<trkpt lat="47.392814" lon="9.236988">
<ele>699.3</ele>
<time>2003-09-26T07:58:48Z</time>
<speed>1.1</speed>
</trkpt>
<trkpt lat="47.392869" lon="9.237025">
<ele>699.2</ele>
<time>2003-09-26T07:58:53Z</time>
<speed>1.1</speed>
</trkpt>
<trkpt lat="47.392926" lon="9.237033">
<ele>700.2</ele>
<time>2003-09-26T07:58:58Z</time>
<speed>1.1</speed>
</trkpt>
<trkpt lat="47.392976" lon="9.237042">
<ele>700.4</ele>
<time>2003-09-26T07:59:03Z</time>
<speed>1.1</speed>
</trkpt>
<trkpt lat="47.393038" lon="9.237066">
<ele>700.9</ele>
<time>2003-09-26T07:59:08Z</time>
<speed>1.1</speed>
</trkpt>
<trkpt lat="47.393093" lon="9.237102">
<ele>700.7</ele>
<time>2003-09-26T07:59:13Z</time>
<speed>1.1</speed>
</trkpt>
<trkpt lat="47.393143" lon="9.237124">
<ele>701.1</ele>
<time>2003-09-26T07:59:18Z</time>
<speed>0.6</speed>
</trkpt>
<trkpt lat="47.393184" lon="9.237172">
<ele>701.0</ele>
<time>2003-09-26T07:59:23Z</time>
<speed>0.8</speed>
</trkpt>
<trkpt lat="47.393218" lon="9.237232">
<ele>700.2</ele>
<time>2003-09-26T07:59:28Z</time>
<speed>1.1</speed>
</trkpt>
<trkpt lat="47.393252" lon="9.237293">
<ele>699.4</ele>
<time>2003-09-26T07:59:33Z</time>
<speed>1.1</speed>
</trkpt>
<trkpt lat="47.393278" lon="9.237365">
<ele>699.4</ele>
<time>2003-09-26T07:59:38Z</time>
<speed>1.1</speed>
</trkpt>
<trkpt lat="47.393305" lon="9.237437">
<ele>699.4</ele>
<time>2003-09-26T07:59:43Z</time>
<speed>1.1</speed>
</trkpt>
<trkpt lat="47.393324" lon="9.237522">
<ele>698.8</ele>
<time>2003-09-26T07:59:48Z</time>
<speed>1.4</speed>
</trkpt>
<trkpt lat="47.393349" lon="9.237606">
<ele>698.9</ele>
<time>2003-09-26T07:59:53Z</time>
<speed>1.1</speed>
</trkpt>
<trkpt lat="47.393376" lon="9.237678">
<ele>699.0</ele>
<time>2003-09-26T07:59:58Z</time>
<speed>1.1</speed>
</trkpt>
<trkpt lat="47.393390" lon="9.237748">
<ele>698.9</ele>
<time>2003-09-26T08:00:03Z</time>
<speed>1.1</speed>
</trkpt>
<trkpt lat="47.393409" lon="9.237833">
<ele>698.3</ele>
<time>2003-09-26T08:00:08Z</time>
<speed>1.1</speed>
</trkpt>
<trkpt lat="47.393435" lon="9.237917">
<ele>698.4</ele>
<time>2003-09-26T08:00:13Z</time>
<speed>1.1</speed>
</trkpt>
<trkpt lat="47.393461" lon="9.237989">
<ele>698.4</ele>
<time>2003-09-26T08:00:18Z</time>
<speed>1.1</speed>
</trkpt>
<trkpt lat="47.393486" lon="9.238074">
<ele>698.5</ele>
<time>2003-09-26T08:00:23Z</time>
<speed>1.1</speed>
</trkpt>
<trkpt lat="47.393505" lon="9.238157">
<ele>699.3</ele>
<time>2003-09-26T08:00:28Z</time>
<speed>1.1</speed>
</trkpt>
<trkpt lat="47.393531" lon="9.238241">
<ele>699.4</ele>
<time>2003-09-26T08:00:33Z</time>
<speed>1.1</speed>
</trkpt>
<trkpt lat="47.393564" lon="9.238300">
<ele>700.1</ele>
<time>2003-09-26T08:00:38Z</time>
<speed>1.1</speed>
</trkpt>
<trkpt lat="47.393589" lon="9.238398">
<ele>700.3</ele>
<time>2003-09-26T08:00:43Z</time>
<speed>1.4</speed>
</trkpt>
<trkpt lat="47.393609" lon="9.238470">
<ele>699.6</ele>
<time>2003-09-26T08:00:48Z</time>
<speed>1.1</speed>
</trkpt>
<trkpt lat="47.393633" lon="9.238568">
<ele>699.8</ele>
<time>2003-09-26T08:00:53Z</time>
<speed>1.1</speed>
</trkpt>
<trkpt lat="47.393653" lon="9.238637">
<ele>700.5</ele>
<time>2003-09-26T08:00:58Z</time>
<speed>1.1</speed>
</trkpt>
<trkpt lat="47.393680" lon="9.238709">
<ele>700.5</ele>
<time>2003-09-26T08:01:03Z</time>
<speed>1.1</speed>
</trkpt>
<trkpt lat="47.393713" lon="9.238768">
<ele>701.1</ele>
<time>2003-09-26T08:01:08Z</time>
<speed>0.8</speed>
</trkpt>
<trkpt lat="47.393740" lon="9.238839">
<ele>701.1</ele>
<time>2003-09-26T08:01:13Z</time>
<speed>0.8</speed>
</trkpt>
<trkpt lat="47.393760" lon="9.238911">
<ele>700.4</ele>
<time>2003-09-26T08:01:18Z</time>
<speed>0.8</speed>
</trkpt>
<trkpt lat="47.393779" lon="9.238994">
<ele>701.2</ele>
<time>2003-09-26T08:01:23Z</time>
<speed>0.8</speed>
</trkpt>
<trkpt lat="47.393799" lon="9.239063">
<ele>701.9</ele>
<time>2003-09-26T08:01:28Z</time>
<speed>1.1</speed>
</trkpt>
<trkpt lat="47.393825" lon="9.239135">
<ele>701.9</ele>
<time>2003-09-26T08:01:33Z</time>
<speed>0.8</speed>
</trkpt>
<trkpt lat="47.393845" lon="9.239205">
<ele>702.6</ele>
<time>2003-09-26T08:01:38Z</time>
<speed>0.8</speed>
</trkpt>
<trkpt lat="47.393872" lon="9.239261">
<ele>703.9</ele>
<time>2003-09-26T08:01:43Z</time>
<speed>0.8</speed>
</trkpt>
<trkpt lat="47.393880" lon="9.239329">
<ele>704.5</ele>
<time>2003-09-26T08:01:48Z</time>
<speed>0.8</speed>
</trkpt>
<trkpt lat="47.393901" lon="9.239385">
<ele>705.1</ele>
<time>2003-09-26T08:01:53Z</time>
<speed>0.6</speed>
</trkpt>
<trkpt lat="47.393916" lon="9.239442">
<ele>704.9</ele>
<time>2003-09-26T08:01:58Z</time>
<speed>0.8</speed>
</trkpt>
<trkpt lat="47.393958" lon="9.239477">
<ele>704.7</ele>
<time>2003-09-26T08:02:03Z</time>
<speed>0.6</speed>
</trkpt>
<trkpt lat="47.393985" lon="9.239535">
<ele>704.6</ele>
<time>2003-09-26T08:02:08Z</time>
<speed>0.6</speed>
</trkpt>
<trkpt lat="47.393983" lon="9.239559">
<ele>706.2</ele>
<time>2003-09-26T08:02:13Z</time>
<speed>0.0</speed>
</trkpt>
<trkpt lat="47.393988" lon="9.239574">
<ele>705.6</ele>
<time>2003-09-26T08:02:18Z</time>
<speed>0.6</speed>
</trkpt>
<trkpt lat="47.393993" lon="9.239588">
<ele>706.5</ele>
<time>2003-09-26T08:02:23Z</time>
<speed>0.0</speed>
</trkpt>
<trkpt lat="47.393994" lon="9.239570">
<ele>709.2</ele>
<time>2003-09-26T08:02:28Z</time>
<speed>0.0</speed>
</trkpt>
<trkpt lat="47.393992" lon="9.239581">
<ele>710.7</ele>
<time>2003-09-26T08:02:33Z</time>
<speed>0.0</speed>
</trkpt>
<trkpt lat="47.393997" lon="9.239594">
<ele>711.5</ele>
<time>2003-09-26T08:02:38Z</time>
<speed>0.0</speed>
</trkpt>
<trkpt lat="47.394002" lon="9.239607">
<ele>712.4</ele>
<time>2003-09-26T08:02:43Z</time>
<speed>0.0</speed>
</trkpt>
<trkpt lat="47.394015" lon="9.239609">
<ele>712.4</ele>
<time>2003-09-26T08:02:48Z</time>
<speed>0.0</speed>
</trkpt>
<trkpt lat="47.394026" lon="9.239640">
<ele>711.3</ele>
<time>2003-09-26T08:02:53Z</time>
<speed>0.0</speed>
</trkpt>
<trkpt lat="47.394032" lon="9.239642">
<ele>710.6</ele>
<time>2003-09-26T08:02:58Z</time>
<speed>0.3</speed>
</trkpt>
<trkpt lat="47.394015" lon="9.239707">
<ele>709.7</ele>
<time>2003-09-26T08:03:03Z</time>
<speed>0.6</speed>
</trkpt>
<trkpt lat="47.394020" lon="9.239720">
<ele>710.6</ele>
<time>2003-09-26T08:03:08Z</time>
<speed>0.3</speed>
</trkpt>
<trkpt lat="47.394012" lon="9.239653">
<ele>710.0</ele>
<time>2003-09-26T08:03:13Z</time>
<speed>0.0</speed>
</trkpt>
<trkpt lat="47.394019" lon="9.239655">
<ele>709.3</ele>
<time>2003-09-26T08:03:18Z</time>
<speed>0.0</speed>
</trkpt>
<trkpt lat="47.394019" lon="9.239655">
<ele>709.3</ele>
<time>2003-09-26T08:03:23Z</time>
<speed>0.0</speed>
</trkpt>
<trkpt lat="47.394027" lon="9.239644">
<ele>708.5</ele>
<time>2003-09-26T08:03:28Z</time>
<speed>0.3</speed>
</trkpt>
<trkpt lat="47.394035" lon="9.239618">
<ele>709.0</ele>
<time>2003-09-26T08:03:33Z</time>
<speed>0.0</speed>
</trkpt>
<trkpt lat="47.394036" lon="9.239605">
<ele>708.9</ele>
<time>2003-09-26T08:03:38Z</time>
<speed>0.3</speed>
</trkpt>
<trkpt lat="47.394024" lon="9.239588">
<ele>710.1</ele>
<time>2003-09-26T08:03:43Z</time>
<speed>0.3</speed>
</trkpt>
<trkpt lat="47.394044" lon="9.239577">
<ele>710.8</ele>
<time>2003-09-26T08:03:48Z</time>
<speed>0.3</speed>
</trkpt>
<trkpt lat="47.394076" lon="9.239568">
<ele>711.6</ele>
<time>2003-09-26T08:03:53Z</time>
<speed>0.3</speed>
</trkpt>
<trkpt lat="47.394081" lon="9.239583">
<ele>711.0</ele>
<time>2003-09-26T08:03:58Z</time>
<speed>0.0</speed>
</trkpt>
<trkpt lat="47.394067" lon="9.239609">
<ele>709.8</ele>
<time>2003-09-26T08:04:03Z</time>
<speed>0.0</speed>
</trkpt>
<trkpt lat="47.394067" lon="9.239609">
<ele>709.8</ele>
<time>2003-09-26T08:04:08Z</time>
<speed>0.0</speed>
</trkpt>
<trkpt lat="47.394020" lon="9.239640">
<ele>710.6</ele>
<time>2003-09-26T08:04:13Z</time>
<speed>0.0</speed>
</trkpt>
<trkpt lat="47.393997" lon="9.239675">
<ele>711.5</ele>
<time>2003-09-26T08:04:18Z</time>
<speed>0.0</speed>
</trkpt>
<trkpt lat="47.393997" lon="9.239675">
<ele>711.5</ele>
<time>2003-09-26T08:04:23Z</time>
<speed>0.0</speed>
</trkpt>
<trkpt lat="47.393985" lon="9.239673">
<ele>711.4</ele>
<time>2003-09-26T08:04:28Z</time>
<speed>0.0</speed>
</trkpt>
<trkpt lat="47.393997" lon="9.239675">
<ele>711.5</ele>
<time>2003-09-26T08:04:33Z</time>
<speed>0.0</speed>
</trkpt>
<trkpt lat="47.393997" lon="9.239675">
<ele>711.5</ele>
<time>2003-09-26T08:04:38Z</time>
<speed>0.0</speed>
</trkpt>
<trkpt lat="47.393997" lon="9.239675">
<ele>711.5</ele>
<time>2003-09-26T08:04:43Z</time>
<speed>0.0</speed>
</trkpt>
<trkpt lat="47.393997" lon="9.239675">
<ele>711.5</ele>
<time>2003-09-26T08:04:48Z</time>
<speed>0.0</speed>
</trkpt>
<trkpt lat="47.393997" lon="9.239675">
<ele>711.5</ele>
<time>2003-09-26T08:04:53Z</time>
<speed>0.0</speed>
</trkpt>
<trkpt lat="47.394014" lon="9.239625">
<ele>711.1</ele>
<time>2003-09-26T08:04:58Z</time>
<speed>0.0</speed>
</trkpt>
<trkpt lat="47.394028" lon="9.239614">
<ele>711.1</ele>
<time>2003-09-26T08:05:03Z</time>
<speed>0.0</speed>
</trkpt>
<trkpt lat="47.394028" lon="9.239614">
<ele>711.1</ele>
<time>2003-09-26T08:05:08Z</time>
<speed>0.0</speed>
</trkpt>
<trkpt lat="47.394028" lon="9.239614">
<ele>711.1</ele>
<time>2003-09-26T08:05:13Z</time>
<speed>0.0</speed>
</trkpt>
<trkpt lat="47.394028" lon="9.239614">
<ele>711.1</ele>
<time>2003-09-26T08:05:18Z</time>
<speed>0.0</speed>
</trkpt>
<trkpt lat="47.394028" lon="9.239614">
<ele>711.1</ele>
<time>2003-09-26T08:05:23Z</time>
<speed>0.0</speed>
</trkpt>
<trkpt lat="47.394027" lon="9.239627">
<ele>711.2</ele>
<time>2003-09-26T08:05:28Z</time>
<speed>0.0</speed>
</trkpt>
<trkpt lat="47.394020" lon="9.239625">
<ele>711.9</ele>
<time>2003-09-26T08:05:33Z</time>
<speed>0.3</speed>
</trkpt>
<trkpt lat="47.394000" lon="9.239633">
<ele>712.6</ele>
<time>2003-09-26T08:05:38Z</time>
<speed>0.0</speed>
</trkpt>
<trkpt lat="47.394014" lon="9.239622">
<ele>712.5</ele>
<time>2003-09-26T08:05:43Z</time>
<speed>0.6</speed>
</trkpt>
<trkpt lat="47.394050" lon="9.239642">
<ele>712.9</ele>
<time>2003-09-26T08:05:48Z</time>
<speed>0.3</speed>
</trkpt>
<trkpt lat="47.394076" lon="9.239646">
<ele>713.0</ele>
<time>2003-09-26T08:05:53Z</time>
<speed>0.0</speed>
</trkpt>
<trkpt lat="47.394103" lon="9.239624">
<ele>712.9</ele>
<time>2003-09-26T08:05:58Z</time>
<speed>0.0</speed>
</trkpt>
<trkpt lat="47.394102" lon="9.239637">
<ele>713.0</ele>
<time>2003-09-26T08:06:03Z</time>
<speed>0.3</speed>
</trkpt>
<trkpt lat="47.394142" lon="9.239522">
<ele>714.3</ele>
<time>2003-09-26T08:06:08Z</time>
<speed>0.6</speed>
</trkpt>
<trkpt lat="47.394140" lon="9.239406">
<ele>710.5</ele>
<time>2003-09-26T08:06:13Z</time>
<speed>0.3</speed>
</trkpt>
<trkpt lat="47.394136" lon="9.239380">
<ele>709.5</ele>
<time>2003-09-26T08:06:18Z</time>
<speed>0.6</speed>
</trkpt>
<trkpt lat="47.394153" lon="9.239330">
<ele>709.1</ele>
<time>2003-09-26T08:06:23Z</time>
<speed>0.3</speed>
</trkpt>
<trkpt lat="47.394179" lon="9.239321">
<ele>709.2</ele>
<time>2003-09-26T08:06:28Z</time>
<speed>1.1</speed>
</trkpt>
<trkpt lat="47.394166" lon="9.239413">
<ele>709.2</ele>
<time>2003-09-26T08:06:33Z</time>
<speed>0.8</speed>
</trkpt>
<trkpt lat="47.394138" lon="9.239448">
<ele>709.4</ele>
<time>2003-09-26T08:06:38Z</time>
<speed>0.3</speed>
</trkpt>
<trkpt lat="47.394112" lon="9.239441">
<ele>710.7</ele>
<time>2003-09-26T08:06:43Z</time>
<speed>0.6</speed>
</trkpt>
<trkpt lat="47.394087" lon="9.239437">
<ele>710.5</ele>
<time>2003-09-26T08:06:48Z</time>
<speed>0.0</speed>
</trkpt>
<trkpt lat="47.394093" lon="9.239437">
<ele>711.3</ele>
<time>2003-09-26T08:06:53Z</time>
<speed>0.0</speed>
</trkpt>
<trkpt lat="47.394105" lon="9.239437">
<ele>712.7</ele>
<time>2003-09-26T08:06:58Z</time>
<speed>0.0</speed>
</trkpt>
<trkpt lat="47.394111" lon="9.239439">
<ele>712.1</ele>
<time>2003-09-26T08:07:03Z</time>
<speed>0.0</speed>
</trkpt>
<trkpt lat="47.394112" lon="9.239426">
<ele>711.9</ele>
<time>2003-09-26T08:07:08Z</time>
<speed>0.0</speed>
</trkpt>
<trkpt lat="47.394120" lon="9.239413">
<ele>712.6</ele>
<time>2003-09-26T08:07:13Z</time>
<speed>0.0</speed>
</trkpt>
<trkpt lat="47.394126" lon="9.239415">
<ele>711.9</ele>
<time>2003-09-26T08:07:18Z</time>
<speed>0.0</speed>
</trkpt>
<trkpt lat="47.394126" lon="9.239415">
<ele>711.9</ele>
<time>2003-09-26T08:07:23Z</time>
<speed>0.0</speed>
</trkpt>
<trkpt lat="47.394127" lon="9.239402">
<ele>711.8</ele>
<time>2003-09-26T08:07:28Z</time>
<speed>0.0</speed>
</trkpt>
<trkpt lat="47.394116" lon="9.239387">
<ele>711.6</ele>
<time>2003-09-26T08:07:33Z</time>
<speed>0.3</speed>
</trkpt>
<trkpt lat="47.394102" lon="9.239398">
<ele>711.7</ele>
<time>2003-09-26T08:07:38Z</time>
<speed>0.0</speed>
</trkpt>
<trkpt lat="47.394097" lon="9.239385">
<ele>710.8</ele>
<time>2003-09-26T08:07:43Z</time>
<speed>0.0</speed>
</trkpt>
<trkpt lat="47.394097" lon="9.239385">
<ele>710.8</ele>
<time>2003-09-26T08:07:48Z</time>
<speed>0.0</speed>
</trkpt>
<trkpt lat="47.394097" lon="9.239385">
<ele>710.8</ele>
<time>2003-09-26T08:07:53Z</time>
<speed>0.0</speed>
</trkpt>
<trkpt lat="47.394097" lon="9.239385">
<ele>710.8</ele>
<time>2003-09-26T08:07:58Z</time>
<speed>0.0</speed>
</trkpt>
<trkpt lat="47.394097" lon="9.239385">
<ele>710.8</ele>
<time>2003-09-26T08:08:03Z</time>
<speed>0.0</speed>
</trkpt>
<trkpt lat="47.394097" lon="9.239385">
<ele>710.8</ele>
<time>2003-09-26T08:08:08Z</time>
<speed>0.0</speed>
</trkpt>
<trkpt lat="47.394097" lon="9.239385">
<ele>710.8</ele>
<time>2003-09-26T08:08:13Z</time>
<speed>0.0</speed>
</trkpt>
<trkpt lat="47.394097" lon="9.239385">
<ele>710.8</ele>
<time>2003-09-26T08:08:18Z</time>
<speed>0.0</speed>
</trkpt>
<trkpt lat="47.394097" lon="9.239385">
<ele>710.8</ele>
<time>2003-09-26T08:08:23Z</time>
<speed>0.0</speed>
</trkpt>
<trkpt lat="47.394097" lon="9.239385">
<ele>710.8</ele>
<time>2003-09-26T08:08:28Z</time>
<speed>0.0</speed>
</trkpt>
<trkpt lat="47.394097" lon="9.239385">
<ele>710.8</ele>
<time>2003-09-26T08:08:33Z</time>
<speed>0.0</speed>
</trkpt>
<trkpt lat="47.394103" lon="9.239387">
<ele>710.1</ele>
<time>2003-09-26T08:08:38Z</time>
<speed>0.0</speed>
</trkpt>
<trkpt lat="47.394103" lon="9.239387">
<ele>710.1</ele>
<time>2003-09-26T08:08:43Z</time>
<speed>0.0</speed>
</trkpt>
<trkpt lat="47.394103" lon="9.239387">
<ele>710.1</ele>
<time>2003-09-26T08:08:48Z</time>
<speed>0.0</speed>
</trkpt>
<trkpt lat="47.394103" lon="9.239387">
<ele>710.1</ele>
<time>2003-09-26T08:08:53Z</time>
<speed>0.0</speed>
</trkpt>
<trkpt lat="47.394103" lon="9.239387">
<ele>710.1</ele>
<time>2003-09-26T08:08:58Z</time>
<speed>0.0</speed>
</trkpt>
<trkpt lat="47.394103" lon="9.239387">
<ele>710.1</ele>
<time>2003-09-26T08:09:03Z</time>
<speed>0.0</speed>
</trkpt>
<trkpt lat="47.394103" lon="9.239387">
<ele>710.1</ele>
<time>2003-09-26T08:09:08Z</time>
<speed>0.0</speed>
</trkpt>
<trkpt lat="47.394103" lon="9.239387">
<ele>710.1</ele>
<time>2003-09-26T08:09:13Z</time>
<speed>0.0</speed>
</trkpt>
<trkpt lat="47.394103" lon="9.239387">
<ele>710.1</ele>
<time>2003-09-26T08:09:18Z</time>
<speed>0.0</speed>
</trkpt>
<trkpt lat="47.394103" lon="9.239387">
<ele>710.1</ele>
<time>2003-09-26T08:09:23Z</time>
<speed>0.0</speed>
</trkpt>
<trkpt lat="47.394103" lon="9.239387">
<ele>710.1</ele>
<time>2003-09-26T08:09:28Z</time>
<speed>0.0</speed>
</trkpt>
<trkpt lat="47.394103" lon="9.239387">
<ele>710.1</ele>
<time>2003-09-26T08:09:33Z</time>
<speed>0.0</speed>
</trkpt>
<trkpt lat="47.394103" lon="9.239387">
<ele>710.1</ele>
<time>2003-09-26T08:09:38Z</time>
<speed>0.0</speed>
</trkpt>
<trkpt lat="47.394103" lon="9.239387">
<ele>710.1</ele>
<time>2003-09-26T08:09:43Z</time>
<speed>0.0</speed>
</trkpt>
<trkpt lat="47.394103" lon="9.239387">
<ele>710.1</ele>
<time>2003-09-26T08:09:48Z</time>
<speed>0.0</speed>
</trkpt>
<trkpt lat="47.394103" lon="9.239387">
<ele>710.1</ele>
<time>2003-09-26T08:09:53Z</time>
<speed>0.0</speed>
</trkpt>
<trkpt lat="47.394103" lon="9.239387">
<ele>710.1</ele>
<time>2003-09-26T08:09:58Z</time>
<speed>0.0</speed>
</trkpt>
<trkpt lat="47.394103" lon="9.239387">
<ele>710.1</ele>
<time>2003-09-26T08:10:03Z</time>
<speed>0.0</speed>
</trkpt>
<trkpt lat="47.394103" lon="9.239387">
<ele>710.1</ele>
<time>2003-09-26T08:10:08Z</time>
<speed>0.0</speed>
</trkpt>
<trkpt lat="47.394103" lon="9.239387">
<ele>710.1</ele>
<time>2003-09-26T08:10:13Z</time>
<speed>0.0</speed>
</trkpt>
<trkpt lat="47.394103" lon="9.239387">
<ele>710.1</ele>
<time>2003-09-26T08:10:18Z</time>
<speed>0.0</speed>
</trkpt>
<trkpt lat="47.394103" lon="9.239387">
<ele>710.1</ele>
<time>2003-09-26T08:10:23Z</time>
<speed>0.0</speed>
</trkpt>
<trkpt lat="47.394103" lon="9.239387">
<ele>710.1</ele>
<time>2003-09-26T08:10:28Z</time>
<speed>0.0</speed>
</trkpt>
<trkpt lat="47.394103" lon="9.239387">
<ele>710.1</ele>
<time>2003-09-26T08:10:33Z</time>
<speed>0.0</speed>
</trkpt>
<trkpt lat="47.394103" lon="9.239387">
<ele>710.1</ele>
<time>2003-09-26T08:10:38Z</time>
<speed>0.0</speed>
</trkpt>
<trkpt lat="47.394103" lon="9.239387">
<ele>710.1</ele>
<time>2003-09-26T08:10:43Z</time>
<speed>0.0</speed>
</trkpt>
<trkpt lat="47.394103" lon="9.239387">
<ele>710.1</ele>
<time>2003-09-26T08:10:48Z</time>
<speed>0.0</speed>
</trkpt>
<trkpt lat="47.394103" lon="9.239387">
<ele>710.1</ele>
<time>2003-09-26T08:10:53Z</time>
<speed>0.0</speed>
</trkpt>
<trkpt lat="47.394103" lon="9.239387">
<ele>710.1</ele>
<time>2003-09-26T08:10:58Z</time>
<speed>0.0</speed>
</trkpt>
<trkpt lat="47.394103" lon="9.239387">
<ele>710.1</ele>
<time>2003-09-26T08:11:03Z</time>
<speed>0.0</speed>
</trkpt>
<trkpt lat="47.394103" lon="9.239387">
<ele>710.1</ele>
<time>2003-09-26T08:11:08Z</time>
<speed>0.0</speed>
</trkpt>
<trkpt lat="47.394103" lon="9.239387">
<ele>710.1</ele>
<time>2003-09-26T08:11:13Z</time>
<speed>0.0</speed>
</trkpt>
<trkpt lat="47.394103" lon="9.239387">
<ele>710.1</ele>
<time>2003-09-26T08:11:18Z</time>
<speed>0.0</speed>
</trkpt>
<trkpt lat="47.394103" lon="9.239387">
<ele>710.1</ele>
<time>2003-09-26T08:11:23Z</time>
<speed>0.0</speed>
</trkpt>
<trkpt lat="47.394103" lon="9.239387">
<ele>710.1</ele>
<time>2003-09-26T08:11:28Z</time>
<speed>0.0</speed>
</trkpt>
<trkpt lat="47.394103" lon="9.239387">
<ele>710.1</ele>
<time>2003-09-26T08:11:33Z</time>
<speed>0.0</speed>
</trkpt>
<trkpt lat="47.394103" lon="9.239387">
<ele>710.1</ele>
<time>2003-09-26T08:11:38Z</time>
<speed>0.0</speed>
</trkpt>
<trkpt lat="47.394103" lon="9.239387">
<ele>710.1</ele>
<time>2003-09-26T08:11:43Z</time>
<speed>0.0</speed>
</trkpt>
<trkpt lat="47.394103" lon="9.239387">
<ele>710.1</ele>
<time>2003-09-26T08:11:48Z</time>
<speed>0.0</speed>
</trkpt>
<trkpt lat="47.394103" lon="9.239387">
<ele>710.1</ele>
<time>2003-09-26T08:11:53Z</time>
<speed>0.0</speed>
</trkpt>
<trkpt lat="47.394103" lon="9.239387">
<ele>710.1</ele>
<time>2003-09-26T08:11:58Z</time>
<speed>0.0</speed>
</trkpt>
<trkpt lat="47.394103" lon="9.239387">
<ele>710.1</ele>
<time>2003-09-26T08:12:03Z</time>
<speed>0.0</speed>
</trkpt>
<trkpt lat="47.394103" lon="9.239387">
<ele>710.1</ele>
<time>2003-09-26T08:12:08Z</time>
<speed>0.0</speed>
</trkpt>
<trkpt lat="47.394103" lon="9.239387">
<ele>710.1</ele>
<time>2003-09-26T08:12:13Z</time>
<speed>0.0</speed>
</trkpt>
<trkpt lat="47.394103" lon="9.239387">
<ele>710.1</ele>
<time>2003-09-26T08:12:18Z</time>
<speed>0.0</speed>
</trkpt>
<trkpt lat="47.394103" lon="9.239387">
<ele>710.1</ele>
<time>2003-09-26T08:12:23Z</time>
<speed>0.0</speed>
</trkpt>
<trkpt lat="47.394103" lon="9.239387">
<ele>710.1</ele>
<time>2003-09-26T08:12:28Z</time>
<speed>0.0</speed>
</trkpt>
<trkpt lat="47.394103" lon="9.239387">
<ele>710.1</ele>
<time>2003-09-26T08:12:33Z</time>
<speed>0.0</speed>
</trkpt>
<trkpt lat="47.394103" lon="9.239387">
<ele>710.1</ele>
<time>2003-09-26T08:12:38Z</time>
<speed>0.0</speed>
</trkpt>
<trkpt lat="47.394103" lon="9.239387">
<ele>710.1</ele>
<time>2003-09-26T08:12:43Z</time>
<speed>0.0</speed>
</trkpt>
<trkpt lat="47.394103" lon="9.239387">
<ele>710.1</ele>
<time>2003-09-26T08:12:48Z</time>
<speed>0.0</speed>
</trkpt>
<trkpt lat="47.394103" lon="9.239387">
<ele>710.1</ele>
<time>2003-09-26T08:12:53Z</time>
<speed>0.0</speed>
</trkpt>
<trkpt lat="47.394103" lon="9.239387">
<ele>710.1</ele>
<time>2003-09-26T08:12:58Z</time>
<speed>0.0</speed>
</trkpt>
<trkpt lat="47.394103" lon="9.239387">
<ele>710.1</ele>
<time>2003-09-26T08:13:03Z</time>
<speed>0.0</speed>
</trkpt>
<trkpt lat="47.394103" lon="9.239387">
<ele>710.1</ele>
<time>2003-09-26T08:13:08Z</time>
<speed>0.0</speed>
</trkpt>
<trkpt lat="47.394103" lon="9.239387">
<ele>710.1</ele>
<time>2003-09-26T08:13:13Z</time>
<speed>0.0</speed>
</trkpt>
<trkpt lat="47.394103" lon="9.239387">
<ele>710.1</ele>
<time>2003-09-26T08:13:18Z</time>
<speed>0.0</speed>
</trkpt>
<trkpt lat="47.394103" lon="9.239387">
<ele>710.1</ele>
<time>2003-09-26T08:13:23Z</time>
<speed>0.0</speed>
</trkpt>
<trkpt lat="47.394103" lon="9.239387">
<ele>710.1</ele>
<time>2003-09-26T08:13:28Z</time>
<speed>0.0</speed>
</trkpt>
<trkpt lat="47.394103" lon="9.239387">
<ele>710.1</ele>
<time>2003-09-26T08:13:33Z</time>
<speed>0.0</speed>
</trkpt>
<trkpt lat="47.394103" lon="9.239387">
<ele>710.1</ele>
<time>2003-09-26T08:13:38Z</time>
<speed>0.0</speed>
</trkpt>
<trkpt lat="47.394103" lon="9.239387">
<ele>710.1</ele>
<time>2003-09-26T08:13:43Z</time>
<speed>0.0</speed>
</trkpt>
<trkpt lat="47.394103" lon="9.239387">
<ele>710.1</ele>
<time>2003-09-26T08:13:48Z</time>
<speed>0.0</speed>
</trkpt>
<trkpt lat="47.394103" lon="9.239387">
<ele>710.1</ele>
<time>2003-09-26T08:13:53Z</time>
<speed>0.0</speed>
</trkpt>
<trkpt lat="47.394103" lon="9.239387">
<ele>710.1</ele>
<time>2003-09-26T08:13:58Z</time>
<speed>0.0</speed>
</trkpt>
<trkpt lat="47.394103" lon="9.239387">
<ele>710.1</ele>
<time>2003-09-26T08:14:03Z</time>
<speed>0.0</speed>
</trkpt>
<trkpt lat="47.394103" lon="9.239387">
<ele>710.1</ele>
<time>2003-09-26T08:14:08Z</time>
<speed>0.0</speed>
</trkpt>
<trkpt lat="47.394103" lon="9.239387">
<ele>710.1</ele>
<time>2003-09-26T08:14:13Z</time>
<speed>0.0</speed>
</trkpt>
<trkpt lat="47.394103" lon="9.239387">
<ele>710.1</ele>
<time>2003-09-26T08:14:18Z</time>
<speed>0.0</speed>
</trkpt>
<trkpt lat="47.394110" lon="9.239389">
<ele>709.5</ele>
<time>2003-09-26T08:14:23Z</time>
<speed>0.0</speed>
</trkpt>
<trkpt lat="47.394110" lon="9.239389">
<ele>709.5</ele>
<time>2003-09-26T08:14:28Z</time>
<speed>0.0</speed>
</trkpt>
<trkpt lat="47.394110" lon="9.239389">
<ele>709.5</ele>
<time>2003-09-26T08:14:33Z</time>
<speed>0.0</speed>
</trkpt>
<trkpt lat="47.394110" lon="9.239389">
<ele>709.5</ele>
<time>2003-09-26T08:14:38Z</time>
<speed>0.0</speed>
</trkpt>
<trkpt lat="47.394110" lon="9.239389">
<ele>709.5</ele>
<time>2003-09-26T08:14:43Z</time>
<speed>0.0</speed>
</trkpt>
<trkpt lat="47.394110" lon="9.239389">
<ele>709.5</ele>
<time>2003-09-26T08:14:48Z</time>
<speed>0.0</speed>
</trkpt>
<trkpt lat="47.394110" lon="9.239389">
<ele>709.5</ele>
<time>2003-09-26T08:14:53Z</time>
<speed>0.0</speed>
</trkpt>
<trkpt lat="47.394110" lon="9.239389">
<ele>709.5</ele>
<time>2003-09-26T08:14:58Z</time>
<speed>0.0</speed>
</trkpt>
<trkpt lat="47.394110" lon="9.239389">
<ele>709.5</ele>
<time>2003-09-26T08:15:03Z</time>
<speed>0.0</speed>
</trkpt>
<trkpt lat="47.394110" lon="9.239389">
<ele>709.5</ele>
<time>2003-09-26T08:15:08Z</time>
<speed>0.0</speed>
</trkpt>
<trkpt lat="47.394110" lon="9.239389">
<ele>709.5</ele>
<time>2003-09-26T08:15:13Z</time>
<speed>0.0</speed>
</trkpt>
<trkpt lat="47.394110" lon="9.239389">
<ele>709.5</ele>
<time>2003-09-26T08:15:18Z</time>
<speed>0.0</speed>
</trkpt>
<trkpt lat="47.394110" lon="9.239389">
<ele>709.5</ele>
<time>2003-09-26T08:15:23Z</time>
<speed>0.0</speed>
</trkpt>
<trkpt lat="47.394110" lon="9.239389">
<ele>709.5</ele>
<time>2003-09-26T08:15:28Z</time>
<speed>0.0</speed>
</trkpt>
<trkpt lat="47.394110" lon="9.239389">
<ele>709.5</ele>
<time>2003-09-26T08:15:33Z</time>
<speed>0.0</speed>
</trkpt>
<trkpt lat="47.394110" lon="9.239389">
<ele>709.5</ele>
<time>2003-09-26T08:15:38Z</time>
<speed>0.0</speed>
</trkpt>
<trkpt lat="47.394110" lon="9.239389">
<ele>709.5</ele>
<time>2003-09-26T08:15:43Z</time>
<speed>0.0</speed>
</trkpt>
<trkpt lat="47.394110" lon="9.239389">
<ele>709.5</ele>
<time>2003-09-26T08:15:48Z</time>
<speed>0.0</speed>
</trkpt>
<trkpt lat="47.394110" lon="9.239389">
<ele>709.5</ele>
<time>2003-09-26T08:15:53Z</time>
<speed>0.0</speed>
</trkpt>
<trkpt lat="47.394110" lon="9.239389">
<ele>709.5</ele>
<time>2003-09-26T08:15:58Z</time>
<speed>0.0</speed>
</trkpt>
<trkpt lat="47.394110" lon="9.239389">
<ele>709.5</ele>
<time>2003-09-26T08:16:03Z</time>
<speed>0.0</speed>
</trkpt>
<trkpt lat="47.394110" lon="9.239389">
<ele>709.5</ele>
<time>2003-09-26T08:16:08Z</time>
<speed>0.0</speed>
</trkpt>
<trkpt lat="47.394116" lon="9.239389">
<ele>710.2</ele>
<time>2003-09-26T08:16:13Z</time>
<speed>0.0</speed>
</trkpt>
<trkpt lat="47.394116" lon="9.239389">
<ele>710.2</ele>
<time>2003-09-26T08:16:18Z</time>
<speed>0.0</speed>
</trkpt>
<trkpt lat="47.394116" lon="9.239389">
<ele>710.2</ele>
<time>2003-09-26T08:16:23Z</time>
<speed>0.0</speed>
</trkpt>
<trkpt lat="47.394116" lon="9.239389">
<ele>710.2</ele>
<time>2003-09-26T08:16:28Z</time>
<speed>0.0</speed>
</trkpt>
<trkpt lat="47.394116" lon="9.239389">
<ele>710.2</ele>
<time>2003-09-26T08:16:33Z</time>
<speed>0.0</speed>
</trkpt>
<trkpt lat="47.394116" lon="9.239389">
<ele>710.2</ele>
<time>2003-09-26T08:16:38Z</time>
<speed>0.0</speed>
</trkpt>
<trkpt lat="47.394116" lon="9.239389">
<ele>710.2</ele>
<time>2003-09-26T08:16:43Z</time>
<speed>0.0</speed>
</trkpt>
<trkpt lat="47.394116" lon="9.239389">
<ele>710.2</ele>
<time>2003-09-26T08:16:48Z</time>
<speed>0.0</speed>
</trkpt>
<trkpt lat="47.394116" lon="9.239389">
<ele>710.2</ele>
<time>2003-09-26T08:16:53Z</time>
<speed>0.0</speed>
</trkpt>
<trkpt lat="47.394116" lon="9.239389">
<ele>710.2</ele>
<time>2003-09-26T08:16:58Z</time>
<speed>0.0</speed>
</trkpt>
<trkpt lat="47.394116" lon="9.239389">
<ele>710.2</ele>
<time>2003-09-26T08:17:03Z</time>
<speed>0.0</speed>
</trkpt>
<trkpt lat="47.394116" lon="9.239389">
<ele>710.2</ele>
<time>2003-09-26T08:17:08Z</time>
<speed>0.0</speed>
</trkpt>
<trkpt lat="47.394110" lon="9.239389">
<ele>709.5</ele>
<time>2003-09-26T08:17:13Z</time>
<speed>0.0</speed>
</trkpt>
<trkpt lat="47.394110" lon="9.239389">
<ele>709.5</ele>
<time>2003-09-26T08:17:18Z</time>
<speed>0.0</speed>
</trkpt>
<trkpt lat="47.394110" lon="9.239389">
<ele>709.5</ele>
<time>2003-09-26T08:17:23Z</time>
<speed>0.0</speed>
</trkpt>
<trkpt lat="47.394110" lon="9.239389">
<ele>709.5</ele>
<time>2003-09-26T08:17:28Z</time>
<speed>0.0</speed>
</trkpt>
<trkpt lat="47.394110" lon="9.239389">
<ele>709.5</ele>
<time>2003-09-26T08:17:33Z</time>
<speed>0.0</speed>
</trkpt>
<trkpt lat="47.394110" lon="9.239389">
<ele>709.5</ele>
<time>2003-09-26T08:17:38Z</time>
<speed>0.0</speed>
</trkpt>
<trkpt lat="47.394110" lon="9.239389">
<ele>709.5</ele>
<time>2003-09-26T08:17:43Z</time>
<speed>0.0</speed>
</trkpt>
<trkpt lat="47.394110" lon="9.239389">
<ele>709.5</ele>
<time>2003-09-26T08:17:48Z</time>
<speed>0.0</speed>
</trkpt>
<trkpt lat="47.394110" lon="9.239389">
<ele>709.5</ele>
<time>2003-09-26T08:17:53Z</time>
<speed>0.0</speed>
</trkpt>
<trkpt lat="47.394110" lon="9.239389">
<ele>709.5</ele>
<time>2003-09-26T08:17:58Z</time>
<speed>0.0</speed>
</trkpt>
<trkpt lat="47.394110" lon="9.239389">
<ele>709.5</ele>
<time>2003-09-26T08:18:03Z</time>
<speed>0.0</speed>
</trkpt>
<trkpt lat="47.394110" lon="9.239389">
<ele>709.5</ele>
<time>2003-09-26T08:18:08Z</time>
<speed>0.0</speed>
</trkpt>
<trkpt lat="47.394110" lon="9.239389">
<ele>709.5</ele>
<time>2003-09-26T08:18:13Z</time>
<speed>0.0</speed>
</trkpt>
<trkpt lat="47.394110" lon="9.239389">
<ele>709.5</ele>
<time>2003-09-26T08:18:18Z</time>
<speed>0.0</speed>
</trkpt>
<trkpt lat="47.394110" lon="9.239389">
<ele>709.5</ele>
<time>2003-09-26T08:18:23Z</time>
<speed>0.0</speed>
</trkpt>
<trkpt lat="47.394110" lon="9.239389">
<ele>709.5</ele>
<time>2003-09-26T08:18:28Z</time>
<speed>0.0</speed>
</trkpt>
<trkpt lat="47.394110" lon="9.239389">
<ele>709.5</ele>
<time>2003-09-26T08:18:33Z</time>
<speed>0.0</speed>
</trkpt>
<trkpt lat="47.394110" lon="9.239389">
<ele>709.5</ele>
<time>2003-09-26T08:18:38Z</time>
<speed>0.0</speed>
</trkpt>
<trkpt lat="47.394110" lon="9.239389">
<ele>709.5</ele>
<time>2003-09-26T08:18:43Z</time>
<speed>0.0</speed>
</trkpt>
<trkpt lat="47.394110" lon="9.239389">
<ele>709.5</ele>
<time>2003-09-26T08:18:48Z</time>
<speed>0.0</speed>
</trkpt>
<trkpt lat="47.394110" lon="9.239389">
<ele>709.5</ele>
<time>2003-09-26T08:18:53Z</time>
<speed>0.0</speed>
</trkpt>
<trkpt lat="47.394110" lon="9.239389">
<ele>709.5</ele>
<time>2003-09-26T08:18:58Z</time>
<speed>0.0</speed>
</trkpt>
<trkpt lat="47.394116" lon="9.239389">
<ele>710.2</ele>
<time>2003-09-26T08:19:03Z</time>
<speed>0.0</speed>
</trkpt>
<trkpt lat="47.394116" lon="9.239389">
<ele>710.2</ele>
<time>2003-09-26T08:19:08Z</time>
<speed>0.0</speed>
</trkpt>
<trkpt lat="47.394116" lon="9.239389">
<ele>710.2</ele>
<time>2003-09-26T08:19:13Z</time>
<speed>0.0</speed>
</trkpt>
<trkpt lat="47.394116" lon="9.239389">
<ele>710.2</ele>
<time>2003-09-26T08:19:18Z</time>
<speed>0.0</speed>
</trkpt>
<trkpt lat="47.394110" lon="9.239389">
<ele>709.5</ele>
<time>2003-09-26T08:19:23Z</time>
<speed>0.0</speed>
</trkpt>
<trkpt lat="47.394116" lon="9.239389">
<ele>710.2</ele>
<time>2003-09-26T08:19:28Z</time>
<speed>0.0</speed>
</trkpt>
<trkpt lat="47.394116" lon="9.239389">
<ele>710.2</ele>
<time>2003-09-26T08:19:33Z</time>
<speed>0.0</speed>
</trkpt>
<trkpt lat="47.394110" lon="9.239389">
<ele>709.5</ele>
<time>2003-09-26T08:19:38Z</time>
<speed>0.0</speed>
</trkpt>
<trkpt lat="47.394110" lon="9.239389">
<ele>709.5</ele>
<time>2003-09-26T08:19:43Z</time>
<speed>0.0</speed>
</trkpt>
<trkpt lat="47.394110" lon="9.239389">
<ele>709.5</ele>
<time>2003-09-26T08:19:48Z</time>
<speed>0.0</speed>
</trkpt>
<trkpt lat="47.394110" lon="9.239389">
<ele>709.5</ele>
<time>2003-09-26T08:19:53Z</time>
<speed>0.0</speed>
</trkpt>
<trkpt lat="47.394110" lon="9.239389">
<ele>709.5</ele>
<time>2003-09-26T08:19:58Z</time>
<speed>0.0</speed>
</trkpt>
<trkpt lat="47.394110" lon="9.239389">
<ele>709.5</ele>
<time>2003-09-26T08:20:03Z</time>
<speed>0.0</speed>
</trkpt>
<trkpt lat="47.394110" lon="9.239389">
<ele>709.5</ele>
<time>2003-09-26T08:20:08Z</time>
<speed>0.0</speed>
</trkpt>
<trkpt lat="47.394110" lon="9.239389">
<ele>709.5</ele>
<time>2003-09-26T08:20:13Z</time>
<speed>0.0</speed>
</trkpt>
<trkpt lat="47.394110" lon="9.239389">
<ele>709.5</ele>
<time>2003-09-26T08:20:18Z</time>
<speed>0.0</speed>
</trkpt>
<trkpt lat="47.394110" lon="9.239389">
<ele>709.5</ele>
<time>2003-09-26T08:20:23Z</time>
<speed>0.0</speed>
</trkpt>
<trkpt lat="47.394110" lon="9.239389">
<ele>709.5</ele>
<time>2003-09-26T08:20:28Z</time>
<speed>0.0</speed>
</trkpt>
<trkpt lat="47.394110" lon="9.239389">
<ele>709.5</ele>
<time>2003-09-26T08:20:33Z</time>
<speed>0.0</speed>
</trkpt>
<trkpt lat="47.394110" lon="9.239389">
<ele>709.5</ele>
<time>2003-09-26T08:20:38Z</time>
<speed>0.0</speed>
</trkpt>
<trkpt lat="47.394110" lon="9.239389">
<ele>709.5</ele>
<time>2003-09-26T08:20:43Z</time>
<speed>0.0</speed>
</trkpt>
<trkpt lat="47.394110" lon="9.239389">
<ele>709.5</ele>
<time>2003-09-26T08:20:48Z</time>
<speed>0.0</speed>
</trkpt>
<trkpt lat="47.394110" lon="9.239389">
<ele>709.5</ele>
<time>2003-09-26T08:20:53Z</time>
<speed>0.0</speed>
</trkpt>
<trkpt lat="47.394110" lon="9.239389">
<ele>709.5</ele>
<time>2003-09-26T08:20:58Z</time>
<speed>0.0</speed>
</trkpt>
<trkpt lat="47.394110" lon="9.239389">
<ele>709.5</ele>
<time>2003-09-26T08:21:03Z</time>
<speed>0.0</speed>
</trkpt>
<trkpt lat="47.394110" lon="9.239389">
<ele>709.5</ele>
<time>2003-09-26T08:21:08Z</time>
<speed>0.0</speed>
</trkpt>
<trkpt lat="47.394110" lon="9.239389">
<ele>709.5</ele>
<time>2003-09-26T08:21:13Z</time>
<speed>0.0</speed>
</trkpt>
<trkpt lat="47.394110" lon="9.239389">
<ele>709.5</ele>
<time>2003-09-26T08:21:18Z</time>
<speed>0.0</speed>
</trkpt>
<trkpt lat="47.394110" lon="9.239389">
<ele>709.5</ele>
<time>2003-09-26T08:21:23Z</time>
<speed>0.0</speed>
</trkpt>
<trkpt lat="47.394110" lon="9.239389">
<ele>709.5</ele>
<time>2003-09-26T08:21:28Z</time>
<speed>0.0</speed>
</trkpt>
<trkpt lat="47.394110" lon="9.239389">
<ele>709.5</ele>
<time>2003-09-26T08:21:33Z</time>
<speed>0.0</speed>
</trkpt>
<trkpt lat="47.394110" lon="9.239389">
<ele>709.5</ele>
<time>2003-09-26T08:21:38Z</time>
<speed>0.0</speed>
</trkpt>
<trkpt lat="47.394110" lon="9.239389">
<ele>709.5</ele>
<time>2003-09-26T08:21:43Z</time>
<speed>0.0</speed>
</trkpt>
<trkpt lat="47.394110" lon="9.239389">
<ele>709.5</ele>
<time>2003-09-26T08:21:48Z</time>
<speed>0.0</speed>
</trkpt>
<trkpt lat="47.394110" lon="9.239389">
<ele>709.5</ele>
<time>2003-09-26T08:21:53Z</time>
<speed>0.0</speed>
</trkpt>
<trkpt lat="47.394110" lon="9.239389">
<ele>709.5</ele>
<time>2003-09-26T08:21:58Z</time>
<speed>0.0</speed>
</trkpt>
<trkpt lat="47.394110" lon="9.239389">
<ele>709.5</ele>
<time>2003-09-26T08:22:03Z</time>
<speed>0.0</speed>
</trkpt>
<trkpt lat="47.394110" lon="9.239389">
<ele>709.5</ele>
<time>2003-09-26T08:22:08Z</time>
<speed>0.0</speed>
</trkpt>
<trkpt lat="47.394110" lon="9.239389">
<ele>709.5</ele>
<time>2003-09-26T08:22:13Z</time>
<speed>0.0</speed>
</trkpt>
<trkpt lat="47.394110" lon="9.239389">
<ele>709.5</ele>
<time>2003-09-26T08:22:18Z</time>
<speed>0.0</speed>
</trkpt>
<trkpt lat="47.394110" lon="9.239389">
<ele>709.5</ele>
<time>2003-09-26T08:22:23Z</time>
<speed>0.0</speed>
</trkpt>
<trkpt lat="47.394110" lon="9.239389">
<ele>709.5</ele>
<time>2003-09-26T08:22:28Z</time>
<speed>0.0</speed>
</trkpt>
<trkpt lat="47.394110" lon="9.239389">
<ele>709.5</ele>
<time>2003-09-26T08:22:33Z</time>
<speed>0.0</speed>
</trkpt>
<trkpt lat="47.394110" lon="9.239389">
<ele>709.5</ele>
<time>2003-09-26T08:22:38Z</time>
<speed>0.0</speed>
</trkpt>
<trkpt lat="47.394110" lon="9.239389">
<ele>709.5</ele>
<time>2003-09-26T08:22:43Z</time>
<speed>0.0</speed>
</trkpt>
<trkpt lat="47.394110" lon="9.239389">
<ele>709.5</ele>
<time>2003-09-26T08:22:48Z</time>
<speed>0.0</speed>
</trkpt>
<trkpt lat="47.394110" lon="9.239389">
<ele>709.5</ele>
<time>2003-09-26T08:22:53Z</time>
<speed>0.0</speed>
</trkpt>
<trkpt lat="47.394110" lon="9.239389">
<ele>709.5</ele>
<time>2003-09-26T08:22:58Z</time>
<speed>0.0</speed>
</trkpt>
<trkpt lat="47.394110" lon="9.239389">
<ele>709.5</ele>
<time>2003-09-26T08:23:03Z</time>
<speed>0.0</speed>
</trkpt>
<trkpt lat="47.394110" lon="9.239389">
<ele>709.5</ele>
<time>2003-09-26T08:23:08Z</time>
<speed>0.0</speed>
</trkpt>
<trkpt lat="47.394110" lon="9.239389">
<ele>709.5</ele>
<time>2003-09-26T08:23:13Z</time>
<speed>0.0</speed>
</trkpt>
<trkpt lat="47.394110" lon="9.239389">
<ele>709.5</ele>
<time>2003-09-26T08:23:18Z</time>
<speed>0.0</speed>
</trkpt>
<trkpt lat="47.394110" lon="9.239389">
<ele>709.5</ele>
<time>2003-09-26T08:23:23Z</time>
<speed>0.0</speed>
</trkpt>
<trkpt lat="47.394110" lon="9.239389">
<ele>709.5</ele>
<time>2003-09-26T08:23:28Z</time>
<speed>0.0</speed>
</trkpt>
<trkpt lat="47.394110" lon="9.239389">
<ele>709.5</ele>
<time>2003-09-26T08:23:33Z</time>
<speed>0.0</speed>
</trkpt>
<trkpt lat="47.394110" lon="9.239389">
<ele>709.5</ele>
<time>2003-09-26T08:23:38Z</time>
<speed>0.0</speed>
</trkpt>
<trkpt lat="47.394110" lon="9.239389">
<ele>709.5</ele>
<time>2003-09-26T08:23:43Z</time>
<speed>0.0</speed>
</trkpt>
<trkpt lat="47.394110" lon="9.239389">
<ele>709.5</ele>
<time>2003-09-26T08:23:48Z</time>
<speed>0.0</speed>
</trkpt>
<trkpt lat="47.394110" lon="9.239389">
<ele>709.5</ele>
<time>2003-09-26T08:23:53Z</time>
<speed>0.0</speed>
</trkpt>
<trkpt lat="47.394117" lon="9.239391">
<ele>708.8</ele>
<time>2003-09-26T08:23:58Z</time>
<speed>0.0</speed>
</trkpt>
<trkpt lat="47.394117" lon="9.239391">
<ele>708.8</ele>
<time>2003-09-26T08:24:03Z</time>
<speed>0.0</speed>
</trkpt>
<trkpt lat="47.394117" lon="9.239391">
<ele>708.8</ele>
<time>2003-09-26T08:24:08Z</time>
<speed>0.0</speed>
</trkpt>
<trkpt lat="47.394117" lon="9.239391">
<ele>708.8</ele>
<time>2003-09-26T08:24:13Z</time>
<speed>0.0</speed>
</trkpt>
<trkpt lat="47.394117" lon="9.239391">
<ele>708.8</ele>
<time>2003-09-26T08:24:18Z</time>
<speed>0.0</speed>
</trkpt>
<trkpt lat="47.394117" lon="9.239391">
<ele>708.8</ele>
<time>2003-09-26T08:24:23Z</time>
<speed>0.0</speed>
</trkpt>
<trkpt lat="47.394117" lon="9.239391">
<ele>708.8</ele>
<time>2003-09-26T08:24:28Z</time>
<speed>0.0</speed>
</trkpt>
<trkpt lat="47.394117" lon="9.239391">
<ele>708.8</ele>
<time>2003-09-26T08:24:33Z</time>
<speed>0.0</speed>
</trkpt>
<trkpt lat="47.394117" lon="9.239391">
<ele>708.8</ele>
<time>2003-09-26T08:24:38Z</time>
<speed>0.0</speed>
</trkpt>
<trkpt lat="47.394117" lon="9.239391">
<ele>708.8</ele>
<time>2003-09-26T08:24:43Z</time>
<speed>0.0</speed>
</trkpt>
<trkpt lat="47.394117" lon="9.239391">
<ele>708.8</ele>
<time>2003-09-26T08:24:48Z</time>
<speed>0.0</speed>
</trkpt>
<trkpt lat="47.394117" lon="9.239391">
<ele>708.8</ele>
<time>2003-09-26T08:24:53Z</time>
<speed>0.0</speed>
</trkpt>
<trkpt lat="47.394117" lon="9.239391">
<ele>708.8</ele>
<time>2003-09-26T08:24:58Z</time>
<speed>0.0</speed>
</trkpt>
<trkpt lat="47.394117" lon="9.239391">
<ele>708.8</ele>
<time>2003-09-26T08:25:03Z</time>
<speed>0.0</speed>
</trkpt>
<trkpt lat="47.394117" lon="9.239391">
<ele>708.8</ele>
<time>2003-09-26T08:25:08Z</time>
<speed>0.0</speed>
</trkpt>
<trkpt lat="47.394117" lon="9.239391">
<ele>708.8</ele>
<time>2003-09-26T08:25:13Z</time>
<speed>0.0</speed>
</trkpt>
<trkpt lat="47.394117" lon="9.239391">
<ele>708.8</ele>
<time>2003-09-26T08:25:18Z</time>
<speed>0.0</speed>
</trkpt>
<trkpt lat="47.394117" lon="9.239391">
<ele>708.8</ele>
<time>2003-09-26T08:25:23Z</time>
<speed>0.0</speed>
</trkpt>
<trkpt lat="47.394117" lon="9.239391">
<ele>708.8</ele>
<time>2003-09-26T08:25:28Z</time>
<speed>0.0</speed>
</trkpt>
<trkpt lat="47.394117" lon="9.239391">
<ele>708.8</ele>
<time>2003-09-26T08:25:33Z</time>
<speed>0.0</speed>
</trkpt>
<trkpt lat="47.394117" lon="9.239391">
<ele>708.8</ele>
<time>2003-09-26T08:25:38Z</time>
<speed>0.0</speed>
</trkpt>
<trkpt lat="47.394117" lon="9.239391">
<ele>708.8</ele>
<time>2003-09-26T08:25:43Z</time>
<speed>0.0</speed>
</trkpt>
<trkpt lat="47.394117" lon="9.239391">
<ele>708.8</ele>
<time>2003-09-26T08:25:48Z</time>
<speed>0.0</speed>
</trkpt>
<trkpt lat="47.394117" lon="9.239391">
<ele>708.8</ele>
<time>2003-09-26T08:25:53Z</time>
<speed>0.0</speed>
</trkpt>
<trkpt lat="47.394117" lon="9.239391">
<ele>708.8</ele>
<time>2003-09-26T08:25:58Z</time>
<speed>0.0</speed>
</trkpt>
<trkpt lat="47.394117" lon="9.239391">
<ele>708.8</ele>
<time>2003-09-26T08:26:03Z</time>
<speed>0.0</speed>
</trkpt>
<trkpt lat="47.394117" lon="9.239391">
<ele>708.8</ele>
<time>2003-09-26T08:26:08Z</time>
<speed>0.0</speed>
</trkpt>
<trkpt lat="47.394117" lon="9.239391">
<ele>708.8</ele>
<time>2003-09-26T08:26:13Z</time>
<speed>0.0</speed>
</trkpt>
<trkpt lat="47.394117" lon="9.239391">
<ele>708.8</ele>
<time>2003-09-26T08:26:18Z</time>
<speed>0.0</speed>
</trkpt>
<trkpt lat="47.394117" lon="9.239391">
<ele>708.8</ele>
<time>2003-09-26T08:26:23Z</time>
<speed>0.0</speed>
</trkpt>
<trkpt lat="47.394117" lon="9.239391">
<ele>708.8</ele>
<time>2003-09-26T08:26:28Z</time>
<speed>0.0</speed>
</trkpt>
<trkpt lat="47.394117" lon="9.239391">
<ele>708.8</ele>
<time>2003-09-26T08:26:33Z</time>
<speed>0.0</speed>
</trkpt>
<trkpt lat="47.394117" lon="9.239391">
<ele>708.8</ele>
<time>2003-09-26T08:26:38Z</time>
<speed>0.0</speed>
</trkpt>
<trkpt lat="47.394117" lon="9.239391">
<ele>708.8</ele>
<time>2003-09-26T08:26:43Z</time>
<speed>0.0</speed>
</trkpt>
<trkpt lat="47.394117" lon="9.239391">
<ele>708.8</ele>
<time>2003-09-26T08:26:48Z</time>
<speed>0.0</speed>
</trkpt>
<trkpt lat="47.394117" lon="9.239391">
<ele>708.8</ele>
<time>2003-09-26T08:26:53Z</time>
<speed>0.0</speed>
</trkpt>
<trkpt lat="47.394117" lon="9.239391">
<ele>708.8</ele>
<time>2003-09-26T08:26:58Z</time>
<speed>0.0</speed>
</trkpt>
<trkpt lat="47.394117" lon="9.239391">
<ele>708.8</ele>
<time>2003-09-26T08:27:03Z</time>
<speed>0.0</speed>
</trkpt>
<trkpt lat="47.394117" lon="9.239391">
<ele>708.8</ele>
<time>2003-09-26T08:27:08Z</time>
<speed>0.0</speed>
</trkpt>
<trkpt lat="47.394117" lon="9.239391">
<ele>708.8</ele>
<time>2003-09-26T08:27:13Z</time>
<speed>0.0</speed>
</trkpt>
<trkpt lat="47.394117" lon="9.239391">
<ele>708.8</ele>
<time>2003-09-26T08:27:18Z</time>
<speed>0.0</speed>
</trkpt>
<trkpt lat="47.394117" lon="9.239391">
<ele>708.8</ele>
<time>2003-09-26T08:27:23Z</time>
<speed>0.0</speed>
</trkpt>
<trkpt lat="47.394117" lon="9.239391">
<ele>708.8</ele>
<time>2003-09-26T08:27:28Z</time>
<speed>0.0</speed>
</trkpt>
<trkpt lat="47.394117" lon="9.239391">
<ele>708.8</ele>
<time>2003-09-26T08:27:33Z</time>
<speed>0.0</speed>
</trkpt>
<trkpt lat="47.394117" lon="9.239391">
<ele>708.8</ele>
<time>2003-09-26T08:27:38Z</time>
<speed>0.0</speed>
</trkpt>
<trkpt lat="47.394117" lon="9.239391">
<ele>708.8</ele>
<time>2003-09-26T08:27:43Z</time>
<speed>0.0</speed>
</trkpt>
<trkpt lat="47.394117" lon="9.239391">
<ele>708.8</ele>
<time>2003-09-26T08:27:48Z</time>
<speed>0.0</speed>
</trkpt>
<trkpt lat="47.394117" lon="9.239391">
<ele>708.8</ele>
<time>2003-09-26T08:27:53Z</time>
<speed>0.0</speed>
</trkpt>
<trkpt lat="47.394117" lon="9.239391">
<ele>708.8</ele>
<time>2003-09-26T08:27:58Z</time>
<speed>0.0</speed>
</trkpt>
<trkpt lat="47.394117" lon="9.239391">
<ele>708.8</ele>
<time>2003-09-26T08:28:03Z</time>
<speed>0.0</speed>
</trkpt>
<trkpt lat="47.394117" lon="9.239391">
<ele>708.8</ele>
<time>2003-09-26T08:28:08Z</time>
<speed>0.0</speed>
</trkpt>
<trkpt lat="47.394117" lon="9.239391">
<ele>708.8</ele>
<time>2003-09-26T08:28:13Z</time>
<speed>0.0</speed>
</trkpt>
<trkpt lat="47.394117" lon="9.239391">
<ele>708.8</ele>
<time>2003-09-26T08:28:18Z</time>
<speed>0.0</speed>
</trkpt>
<trkpt lat="47.394117" lon="9.239391">
<ele>708.8</ele>
<time>2003-09-26T08:28:23Z</time>
<speed>0.0</speed>
</trkpt>
<trkpt lat="47.394117" lon="9.239391">
<ele>708.8</ele>
<time>2003-09-26T08:28:28Z</time>
<speed>0.0</speed>
</trkpt>
<trkpt lat="47.394117" lon="9.239391">
<ele>708.8</ele>
<time>2003-09-26T08:28:33Z</time>
<speed>0.0</speed>
</trkpt>
<trkpt lat="47.394117" lon="9.239391">
<ele>708.8</ele>
<time>2003-09-26T08:28:38Z</time>
<speed>0.0</speed>
</trkpt>
<trkpt lat="47.394117" lon="9.239391">
<ele>708.8</ele>
<time>2003-09-26T08:28:43Z</time>
<speed>0.0</speed>
</trkpt>
<trkpt lat="47.394117" lon="9.239391">
<ele>708.8</ele>
<time>2003-09-26T08:28:48Z</time>
<speed>0.0</speed>
</trkpt>
<trkpt lat="47.394117" lon="9.239391">
<ele>708.8</ele>
<time>2003-09-26T08:28:53Z</time>
<speed>0.0</speed>
</trkpt>
<trkpt lat="47.394117" lon="9.239391">
<ele>708.8</ele>
<time>2003-09-26T08:28:58Z</time>
<speed>0.0</speed>
</trkpt>
<trkpt lat="47.394117" lon="9.239391">
<ele>708.8</ele>
<time>2003-09-26T08:29:03Z</time>
<speed>0.0</speed>
</trkpt>
<trkpt lat="47.394117" lon="9.239391">
<ele>708.8</ele>
<time>2003-09-26T08:29:08Z</time>
<speed>0.0</speed>
</trkpt>
<trkpt lat="47.394117" lon="9.239391">
<ele>708.8</ele>
<time>2003-09-26T08:29:13Z</time>
<speed>0.0</speed>
</trkpt>
<trkpt lat="47.394117" lon="9.239391">
<ele>708.8</ele>
<time>2003-09-26T08:29:18Z</time>
<speed>0.0</speed>
</trkpt>
<trkpt lat="47.394117" lon="9.239391">
<ele>708.8</ele>
<time>2003-09-26T08:29:23Z</time>
<speed>0.0</speed>
</trkpt>
<trkpt lat="47.394117" lon="9.239391">
<ele>708.8</ele>
<time>2003-09-26T08:29:28Z</time>
<speed>0.0</speed>
</trkpt>
<trkpt lat="47.394117" lon="9.239391">
<ele>708.8</ele>
<time>2003-09-26T08:29:33Z</time>
<speed>0.0</speed>
</trkpt>
<trkpt lat="47.394117" lon="9.239391">
<ele>708.8</ele>
<time>2003-09-26T08:29:38Z</time>
<speed>0.0</speed>
</trkpt>
<trkpt lat="47.394117" lon="9.239391">
<ele>708.8</ele>
<time>2003-09-26T08:29:43Z</time>
<speed>0.0</speed>
</trkpt>
<trkpt lat="47.394117" lon="9.239391">
<ele>708.8</ele>
<time>2003-09-26T08:29:48Z</time>
<speed>0.0</speed>
</trkpt>
<trkpt lat="47.394117" lon="9.239391">
<ele>708.8</ele>
<time>2003-09-26T08:29:53Z</time>
<speed>0.0</speed>
</trkpt>
<trkpt lat="47.394117" lon="9.239391">
<ele>708.8</ele>
<time>2003-09-26T08:29:58Z</time>
<speed>0.0</speed>
</trkpt>
<trkpt lat="47.394117" lon="9.239391">
<ele>708.8</ele>
<time>2003-09-26T08:30:03Z</time>
<speed>0.0</speed>
</trkpt>
<trkpt lat="47.394117" lon="9.239391">
<ele>708.8</ele>
<time>2003-09-26T08:30:08Z</time>
<speed>0.0</speed>
</trkpt>
<trkpt lat="47.394117" lon="9.239391">
<ele>708.8</ele>
<time>2003-09-26T08:30:13Z</time>
<speed>0.0</speed>
</trkpt>
<trkpt lat="47.394123" lon="9.239393">
<ele>708.1</ele>
<time>2003-09-26T08:30:18Z</time>
<speed>0.0</speed>
</trkpt>
<trkpt lat="47.394123" lon="9.239393">
<ele>708.1</ele>
<time>2003-09-26T08:30:23Z</time>
<speed>0.0</speed>
</trkpt>
<trkpt lat="47.394123" lon="9.239393">
<ele>708.1</ele>
<time>2003-09-26T08:30:28Z</time>
<speed>0.0</speed>
</trkpt>
<trkpt lat="47.394123" lon="9.239393">
<ele>708.1</ele>
<time>2003-09-26T08:30:33Z</time>
<speed>0.0</speed>
</trkpt>
<trkpt lat="47.394123" lon="9.239393">
<ele>708.1</ele>
<time>2003-09-26T08:30:38Z</time>
<speed>0.0</speed>
</trkpt>
<trkpt lat="47.394123" lon="9.239393">
<ele>708.1</ele>
<time>2003-09-26T08:30:43Z</time>
<speed>0.0</speed>
</trkpt>
<trkpt lat="47.394123" lon="9.239393">
<ele>708.1</ele>
<time>2003-09-26T08:30:48Z</time>
<speed>0.0</speed>
</trkpt>
<trkpt lat="47.394123" lon="9.239393">
<ele>708.1</ele>
<time>2003-09-26T08:30:53Z</time>
<speed>0.0</speed>
</trkpt>
<trkpt lat="47.394123" lon="9.239393">
<ele>708.1</ele>
<time>2003-09-26T08:30:58Z</time>
<speed>0.0</speed>
</trkpt>
<trkpt lat="47.394123" lon="9.239393">
<ele>708.1</ele>
<time>2003-09-26T08:31:03Z</time>
<speed>0.0</speed>
</trkpt>
<trkpt lat="47.394123" lon="9.239393">
<ele>708.1</ele>
<time>2003-09-26T08:31:08Z</time>
<speed>0.0</speed>
</trkpt>
<trkpt lat="47.394123" lon="9.239393">
<ele>708.1</ele>
<time>2003-09-26T08:31:13Z</time>
<speed>0.0</speed>
</trkpt>
<trkpt lat="47.394123" lon="9.239393">
<ele>708.1</ele>
<time>2003-09-26T08:31:18Z</time>
<speed>0.0</speed>
</trkpt>
<trkpt lat="47.394123" lon="9.239393">
<ele>708.1</ele>
<time>2003-09-26T08:31:23Z</time>
<speed>0.0</speed>
</trkpt>
<trkpt lat="47.394123" lon="9.239393">
<ele>708.1</ele>
<time>2003-09-26T08:31:28Z</time>
<speed>0.0</speed>
</trkpt>
<trkpt lat="47.394123" lon="9.239393">
<ele>708.1</ele>
<time>2003-09-26T08:31:33Z</time>
<speed>0.0</speed>
</trkpt>
<trkpt lat="47.394123" lon="9.239393">
<ele>708.1</ele>
<time>2003-09-26T08:31:38Z</time>
<speed>0.0</speed>
</trkpt>
<trkpt lat="47.394123" lon="9.239393">
<ele>708.1</ele>
<time>2003-09-26T08:31:43Z</time>
<speed>0.0</speed>
</trkpt>
<trkpt lat="47.394124" lon="9.239380">
<ele>708.0</ele>
<time>2003-09-26T08:31:48Z</time>
<speed>0.0</speed>
</trkpt>
<trkpt lat="47.394124" lon="9.239380">
<ele>708.0</ele>
<time>2003-09-26T08:31:53Z</time>
<speed>0.0</speed>
</trkpt>
<trkpt lat="47.394124" lon="9.239380">
<ele>708.0</ele>
<time>2003-09-26T08:31:58Z</time>
<speed>0.0</speed>
</trkpt>
<trkpt lat="47.394124" lon="9.239380">
<ele>708.0</ele>
<time>2003-09-26T08:32:03Z</time>
<speed>0.0</speed>
</trkpt>
<trkpt lat="47.394124" lon="9.239380">
<ele>708.0</ele>
<time>2003-09-26T08:32:08Z</time>
<speed>0.0</speed>
</trkpt>
<trkpt lat="47.394124" lon="9.239380">
<ele>708.0</ele>
<time>2003-09-26T08:32:13Z</time>
<speed>0.0</speed>
</trkpt>
<trkpt lat="47.394124" lon="9.239380">
<ele>708.0</ele>
<time>2003-09-26T08:32:18Z</time>
<speed>0.0</speed>
</trkpt>
<trkpt lat="47.394124" lon="9.239380">
<ele>708.0</ele>
<time>2003-09-26T08:32:23Z</time>
<speed>0.0</speed>
</trkpt>
<trkpt lat="47.394124" lon="9.239380">
<ele>708.0</ele>
<time>2003-09-26T08:32:28Z</time>
<speed>0.0</speed>
</trkpt>
<trkpt lat="47.394124" lon="9.239380">
<ele>708.0</ele>
<time>2003-09-26T08:32:33Z</time>
<speed>0.0</speed>
</trkpt>
<trkpt lat="47.394124" lon="9.239380">
<ele>708.0</ele>
<time>2003-09-26T08:32:38Z</time>
<speed>0.0</speed>
</trkpt>
<trkpt lat="47.394124" lon="9.239380">
<ele>708.0</ele>
<time>2003-09-26T08:32:43Z</time>
<speed>0.0</speed>
</trkpt>
<trkpt lat="47.394124" lon="9.239380">
<ele>708.0</ele>
<time>2003-09-26T08:32:48Z</time>
<speed>0.0</speed>
</trkpt>
<trkpt lat="47.394124" lon="9.239380">
<ele>708.0</ele>
<time>2003-09-26T08:32:53Z</time>
<speed>0.0</speed>
</trkpt>
<trkpt lat="47.394124" lon="9.239380">
<ele>708.0</ele>
<time>2003-09-26T08:32:58Z</time>
<speed>0.0</speed>
</trkpt>
<trkpt lat="47.394124" lon="9.239380">
<ele>708.0</ele>
<time>2003-09-26T08:33:03Z</time>
<speed>0.0</speed>
</trkpt>
<trkpt lat="47.394124" lon="9.239380">
<ele>708.0</ele>
<time>2003-09-26T08:33:08Z</time>
<speed>0.0</speed>
</trkpt>
<trkpt lat="47.394124" lon="9.239380">
<ele>708.0</ele>
<time>2003-09-26T08:33:13Z</time>
<speed>0.0</speed>
</trkpt>
<trkpt lat="47.394124" lon="9.239380">
<ele>708.0</ele>
<time>2003-09-26T08:33:18Z</time>
<speed>0.0</speed>
</trkpt>
<trkpt lat="47.394124" lon="9.239380">
<ele>708.0</ele>
<time>2003-09-26T08:33:23Z</time>
<speed>0.0</speed>
</trkpt>
<trkpt lat="47.394124" lon="9.239380">
<ele>708.0</ele>
<time>2003-09-26T08:33:28Z</time>
<speed>0.0</speed>
</trkpt>
<trkpt lat="47.394124" lon="9.239380">
<ele>708.0</ele>
<time>2003-09-26T08:33:33Z</time>
<speed>0.0</speed>
</trkpt>
<trkpt lat="47.394124" lon="9.239380">
<ele>708.0</ele>
<time>2003-09-26T08:33:38Z</time>
<speed>0.0</speed>
</trkpt>
<trkpt lat="47.394124" lon="9.239380">
<ele>708.0</ele>
<time>2003-09-26T08:33:43Z</time>
<speed>0.0</speed>
</trkpt>
<trkpt lat="47.394124" lon="9.239380">
<ele>708.0</ele>
<time>2003-09-26T08:33:48Z</time>
<speed>0.0</speed>
</trkpt>
<trkpt lat="47.394124" lon="9.239380">
<ele>708.0</ele>
<time>2003-09-26T08:33:53Z</time>
<speed>0.0</speed>
</trkpt>
<trkpt lat="47.394124" lon="9.239380">
<ele>708.0</ele>
<time>2003-09-26T08:33:58Z</time>
<speed>0.0</speed>
</trkpt>
<trkpt lat="47.394124" lon="9.239380">
<ele>708.0</ele>
<time>2003-09-26T08:34:03Z</time>
<speed>0.0</speed>
</trkpt>
<trkpt lat="47.394124" lon="9.239380">
<ele>708.0</ele>
<time>2003-09-26T08:34:08Z</time>
<speed>0.0</speed>
</trkpt>
<trkpt lat="47.394124" lon="9.239380">
<ele>708.0</ele>
<time>2003-09-26T08:34:13Z</time>
<speed>0.0</speed>
</trkpt>
<trkpt lat="47.394124" lon="9.239380">
<ele>708.0</ele>
<time>2003-09-26T08:34:18Z</time>
<speed>0.0</speed>
</trkpt>
<trkpt lat="47.394124" lon="9.239380">
<ele>708.0</ele>
<time>2003-09-26T08:34:23Z</time>
<speed>0.0</speed>
</trkpt>
<trkpt lat="47.394124" lon="9.239380">
<ele>708.0</ele>
<time>2003-09-26T08:34:28Z</time>
<speed>0.0</speed>
</trkpt>
<trkpt lat="47.394124" lon="9.239380">
<ele>708.0</ele>
<time>2003-09-26T08:34:33Z</time>
<speed>0.0</speed>
</trkpt>
<trkpt lat="47.394124" lon="9.239380">
<ele>708.0</ele>
<time>2003-09-26T08:34:38Z</time>
<speed>0.0</speed>
</trkpt>
<trkpt lat="47.394124" lon="9.239380">
<ele>708.0</ele>
<time>2003-09-26T08:34:43Z</time>
<speed>0.0</speed>
</trkpt>
<trkpt lat="47.394124" lon="9.239380">
<ele>708.0</ele>
<time>2003-09-26T08:34:48Z</time>
<speed>0.0</speed>
</trkpt>
<trkpt lat="47.394124" lon="9.239380">
<ele>708.0</ele>
<time>2003-09-26T08:34:53Z</time>
<speed>0.0</speed>
</trkpt>
<trkpt lat="47.394124" lon="9.239380">
<ele>708.0</ele>
<time>2003-09-26T08:34:58Z</time>
<speed>0.0</speed>
</trkpt>
<trkpt lat="47.394124" lon="9.239380">
<ele>708.0</ele>
<time>2003-09-26T08:35:03Z</time>
<speed>0.0</speed>
</trkpt>
<trkpt lat="47.394124" lon="9.239380">
<ele>708.0</ele>
<time>2003-09-26T08:35:08Z</time>
<speed>0.0</speed>
</trkpt>
<trkpt lat="47.394124" lon="9.239380">
<ele>708.0</ele>
<time>2003-09-26T08:35:13Z</time>
<speed>0.0</speed>
</trkpt>
<trkpt lat="47.394124" lon="9.239380">
<ele>708.0</ele>
<time>2003-09-26T08:35:18Z</time>
<speed>0.0</speed>
</trkpt>
<trkpt lat="47.394124" lon="9.239380">
<ele>708.0</ele>
<time>2003-09-26T08:35:23Z</time>
<speed>0.0</speed>
</trkpt>
<trkpt lat="47.394124" lon="9.239380">
<ele>708.0</ele>
<time>2003-09-26T08:35:28Z</time>
<speed>0.0</speed>
</trkpt>
<trkpt lat="47.394124" lon="9.239380">
<ele>708.0</ele>
<time>2003-09-26T08:35:33Z</time>
<speed>0.0</speed>
</trkpt>
<trkpt lat="47.394124" lon="9.239380">
<ele>708.0</ele>
<time>2003-09-26T08:35:38Z</time>
<speed>0.0</speed>
</trkpt>
<trkpt lat="47.394124" lon="9.239380">
<ele>708.0</ele>
<time>2003-09-26T08:35:43Z</time>
<speed>0.0</speed>
</trkpt>
<trkpt lat="47.394124" lon="9.239380">
<ele>708.0</ele>
<time>2003-09-26T08:35:48Z</time>
<speed>0.0</speed>
</trkpt>
<trkpt lat="47.394124" lon="9.239380">
<ele>708.0</ele>
<time>2003-09-26T08:35:53Z</time>
<speed>0.0</speed>
</trkpt>
<trkpt lat="47.394124" lon="9.239380">
<ele>708.0</ele>
<time>2003-09-26T08:35:58Z</time>
<speed>0.0</speed>
</trkpt>
<trkpt lat="47.394124" lon="9.239380">
<ele>708.0</ele>
<time>2003-09-26T08:36:03Z</time>
<speed>0.0</speed>
</trkpt>
<trkpt lat="47.394124" lon="9.239380">
<ele>708.0</ele>
<time>2003-09-26T08:36:08Z</time>
<speed>0.0</speed>
</trkpt>
<trkpt lat="47.394124" lon="9.239380">
<ele>708.0</ele>
<time>2003-09-26T08:36:13Z</time>
<speed>0.0</speed>
</trkpt>
<trkpt lat="47.394124" lon="9.239380">
<ele>708.0</ele>
<time>2003-09-26T08:36:18Z</time>
<speed>0.0</speed>
</trkpt>
<trkpt lat="47.394124" lon="9.239380">
<ele>708.0</ele>
<time>2003-09-26T08:36:23Z</time>
<speed>0.0</speed>
</trkpt>
<trkpt lat="47.394124" lon="9.239380">
<ele>708.0</ele>
<time>2003-09-26T08:36:28Z</time>
<speed>0.0</speed>
</trkpt>
<trkpt lat="47.394124" lon="9.239380">
<ele>708.0</ele>
<time>2003-09-26T08:36:33Z</time>
<speed>0.0</speed>
</trkpt>
<trkpt lat="47.394124" lon="9.239380">
<ele>708.0</ele>
<time>2003-09-26T08:36:38Z</time>
<speed>0.0</speed>
</trkpt>
<trkpt lat="47.394124" lon="9.239380">
<ele>708.0</ele>
<time>2003-09-26T08:36:43Z</time>
<speed>0.0</speed>
</trkpt>
<trkpt lat="47.394124" lon="9.239380">
<ele>708.0</ele>
<time>2003-09-26T08:36:48Z</time>
<speed>0.0</speed>
</trkpt>
<trkpt lat="47.394124" lon="9.239380">
<ele>708.0</ele>
<time>2003-09-26T08:36:53Z</time>
<speed>0.0</speed>
</trkpt>
<trkpt lat="47.394124" lon="9.239380">
<ele>708.0</ele>
<time>2003-09-26T08:36:58Z</time>
<speed>0.0</speed>
</trkpt>
<trkpt lat="47.394124" lon="9.239380">
<ele>708.0</ele>
<time>2003-09-26T08:37:03Z</time>
<speed>0.0</speed>
</trkpt>
<trkpt lat="47.394124" lon="9.239380">
<ele>708.0</ele>
<time>2003-09-26T08:37:08Z</time>
<speed>0.0</speed>
</trkpt>
<trkpt lat="47.394124" lon="9.239380">
<ele>708.0</ele>
<time>2003-09-26T08:37:13Z</time>
<speed>0.0</speed>
</trkpt>
<trkpt lat="47.394124" lon="9.239380">
<ele>708.0</ele>
<time>2003-09-26T08:37:18Z</time>
<speed>0.0</speed>
</trkpt>
<trkpt lat="47.394124" lon="9.239380">
<ele>708.0</ele>
<time>2003-09-26T08:37:23Z</time>
<speed>0.0</speed>
</trkpt>
<trkpt lat="47.394124" lon="9.239380">
<ele>708.0</ele>
<time>2003-09-26T08:37:28Z</time>
<speed>0.0</speed>
</trkpt>
<trkpt lat="47.394124" lon="9.239380">
<ele>708.0</ele>
<time>2003-09-26T08:37:33Z</time>
<speed>0.0</speed>
</trkpt>
<trkpt lat="47.394124" lon="9.239380">
<ele>708.0</ele>
<time>2003-09-26T08:37:38Z</time>
<speed>0.0</speed>
</trkpt>
<trkpt lat="47.394124" lon="9.239380">
<ele>708.0</ele>
<time>2003-09-26T08:37:43Z</time>
<speed>0.0</speed>
</trkpt>
<trkpt lat="47.394124" lon="9.239380">
<ele>708.0</ele>
<time>2003-09-26T08:37:48Z</time>
<speed>0.0</speed>
</trkpt>
<trkpt lat="47.394124" lon="9.239380">
<ele>708.0</ele>
<time>2003-09-26T08:37:53Z</time>
<speed>0.0</speed>
</trkpt>
<trkpt lat="47.394124" lon="9.239380">
<ele>708.0</ele>
<time>2003-09-26T08:37:58Z</time>
<speed>0.0</speed>
</trkpt>
<trkpt lat="47.394124" lon="9.239380">
<ele>708.0</ele>
<time>2003-09-26T08:38:03Z</time>
<speed>0.0</speed>
</trkpt>
<trkpt lat="47.394124" lon="9.239380">
<ele>708.0</ele>
<time>2003-09-26T08:38:08Z</time>
<speed>0.0</speed>
</trkpt>
<trkpt lat="47.394124" lon="9.239380">
<ele>708.0</ele>
<time>2003-09-26T08:38:13Z</time>
<speed>0.0</speed>
</trkpt>
<trkpt lat="47.394124" lon="9.239380">
<ele>708.0</ele>
<time>2003-09-26T08:38:18Z</time>
<speed>0.0</speed>
</trkpt>
<trkpt lat="47.394124" lon="9.239380">
<ele>708.0</ele>
<time>2003-09-26T08:38:23Z</time>
<speed>0.0</speed>
</trkpt>
<trkpt lat="47.394124" lon="9.239380">
<ele>708.0</ele>
<time>2003-09-26T08:38:28Z</time>
<speed>0.0</speed>
</trkpt>
<trkpt lat="47.394124" lon="9.239380">
<ele>708.0</ele>
<time>2003-09-26T08:38:33Z</time>
<speed>0.0</speed>
</trkpt>
<trkpt lat="47.394124" lon="9.239380">
<ele>708.0</ele>
<time>2003-09-26T08:38:38Z</time>
<speed>0.0</speed>
</trkpt>
<trkpt lat="47.394124" lon="9.239380">
<ele>708.0</ele>
<time>2003-09-26T08:38:43Z</time>
<speed>0.0</speed>
</trkpt>
<trkpt lat="47.394124" lon="9.239380">
<ele>708.0</ele>
<time>2003-09-26T08:38:48Z</time>
<speed>0.0</speed>
</trkpt>
<trkpt lat="47.394124" lon="9.239380">
<ele>708.0</ele>
<time>2003-09-26T08:38:53Z</time>
<speed>0.0</speed>
</trkpt>
<trkpt lat="47.394124" lon="9.239380">
<ele>708.0</ele>
<time>2003-09-26T08:38:58Z</time>
<speed>0.0</speed>
</trkpt>
<trkpt lat="47.394124" lon="9.239380">
<ele>708.0</ele>
<time>2003-09-26T08:39:03Z</time>
<speed>0.0</speed>
</trkpt>
<trkpt lat="47.394124" lon="9.239380">
<ele>708.0</ele>
<time>2003-09-26T08:39:08Z</time>
<speed>0.0</speed>
</trkpt>
<trkpt lat="47.394124" lon="9.239380">
<ele>708.0</ele>
<time>2003-09-26T08:39:13Z</time>
<speed>0.0</speed>
</trkpt>
<trkpt lat="47.394124" lon="9.239380">
<ele>708.0</ele>
<time>2003-09-26T08:39:18Z</time>
<speed>0.0</speed>
</trkpt>
<trkpt lat="47.394124" lon="9.239380">
<ele>708.0</ele>
<time>2003-09-26T08:39:23Z</time>
<speed>0.0</speed>
</trkpt>
<trkpt lat="47.394124" lon="9.239380">
<ele>708.0</ele>
<time>2003-09-26T08:39:28Z</time>
<speed>0.0</speed>
</trkpt>
<trkpt lat="47.394124" lon="9.239380">
<ele>708.0</ele>
<time>2003-09-26T08:39:33Z</time>
<speed>0.0</speed>
</trkpt>
<trkpt lat="47.394124" lon="9.239380">
<ele>708.0</ele>
<time>2003-09-26T08:39:38Z</time>
<speed>0.0</speed>
</trkpt>
<trkpt lat="47.394124" lon="9.239380">
<ele>708.0</ele>
<time>2003-09-26T08:39:43Z</time>
<speed>0.0</speed>
</trkpt>
<trkpt lat="47.394124" lon="9.239380">
<ele>708.0</ele>
<time>2003-09-26T08:39:48Z</time>
<speed>0.0</speed>
</trkpt>
<trkpt lat="47.394124" lon="9.239380">
<ele>708.0</ele>
<time>2003-09-26T08:39:53Z</time>
<speed>0.0</speed>
</trkpt>
<trkpt lat="47.394124" lon="9.239380">
<ele>708.0</ele>
<time>2003-09-26T08:39:58Z</time>
<speed>0.0</speed>
</trkpt>
<trkpt lat="47.394124" lon="9.239380">
<ele>708.0</ele>
<time>2003-09-26T08:40:03Z</time>
<speed>0.0</speed>
</trkpt>
<trkpt lat="47.394124" lon="9.239380">
<ele>708.0</ele>
<time>2003-09-26T08:40:08Z</time>
<speed>0.0</speed>
</trkpt>
<trkpt lat="47.394124" lon="9.239380">
<ele>708.0</ele>
<time>2003-09-26T08:40:13Z</time>
<speed>0.0</speed>
</trkpt>
<trkpt lat="47.394124" lon="9.239380">
<ele>708.0</ele>
<time>2003-09-26T08:40:18Z</time>
<speed>0.0</speed>
</trkpt>
<trkpt lat="47.394124" lon="9.239380">
<ele>708.0</ele>
<time>2003-09-26T08:40:23Z</time>
<speed>0.0</speed>
</trkpt>
<trkpt lat="47.394124" lon="9.239380">
<ele>708.0</ele>
<time>2003-09-26T08:40:28Z</time>
<speed>0.0</speed>
</trkpt>
<trkpt lat="47.394124" lon="9.239380">
<ele>708.0</ele>
<time>2003-09-26T08:40:33Z</time>
<speed>0.0</speed>
</trkpt>
<trkpt lat="47.394124" lon="9.239380">
<ele>708.0</ele>
<time>2003-09-26T08:40:38Z</time>
<speed>0.0</speed>
</trkpt>
<trkpt lat="47.394124" lon="9.239380">
<ele>708.0</ele>
<time>2003-09-26T08:40:43Z</time>
<speed>0.0</speed>
</trkpt>
<trkpt lat="47.394124" lon="9.239380">
<ele>708.0</ele>
<time>2003-09-26T08:40:48Z</time>
<speed>0.0</speed>
</trkpt>
<trkpt lat="47.394124" lon="9.239380">
<ele>708.0</ele>
<time>2003-09-26T08:40:53Z</time>
<speed>0.0</speed>
</trkpt>
<trkpt lat="47.394124" lon="9.239380">
<ele>708.0</ele>
<time>2003-09-26T08:40:58Z</time>
<speed>0.0</speed>
</trkpt>
<trkpt lat="47.394124" lon="9.239380">
<ele>708.0</ele>
<time>2003-09-26T08:41:03Z</time>
<speed>0.0</speed>
</trkpt>
<trkpt lat="47.394124" lon="9.239380">
<ele>708.0</ele>
<time>2003-09-26T08:41:08Z</time>
<speed>0.0</speed>
</trkpt>
<trkpt lat="47.394124" lon="9.239380">
<ele>708.0</ele>
<time>2003-09-26T08:41:13Z</time>
<speed>0.0</speed>
</trkpt>
<trkpt lat="47.394124" lon="9.239380">
<ele>708.0</ele>
<time>2003-09-26T08:41:18Z</time>
<speed>0.0</speed>
</trkpt>
<trkpt lat="47.394124" lon="9.239380">
<ele>708.0</ele>
<time>2003-09-26T08:41:23Z</time>
<speed>0.0</speed>
</trkpt>
<trkpt lat="47.394124" lon="9.239380">
<ele>708.0</ele>
<time>2003-09-26T08:41:28Z</time>
<speed>0.0</speed>
</trkpt>
<trkpt lat="47.394124" lon="9.239380">
<ele>708.0</ele>
<time>2003-09-26T08:41:33Z</time>
<speed>0.0</speed>
</trkpt>
<trkpt lat="47.394124" lon="9.239380">
<ele>708.0</ele>
<time>2003-09-26T08:41:38Z</time>
<speed>0.0</speed>
</trkpt>
<trkpt lat="47.394111" lon="9.239376">
<ele>709.4</ele>
<time>2003-09-26T08:41:43Z</time>
<speed>0.0</speed>
</trkpt>
<trkpt lat="47.394117" lon="9.239376">
<ele>710.1</ele>
<time>2003-09-26T08:41:48Z</time>
<speed>0.0</speed>
</trkpt>
<trkpt lat="47.394110" lon="9.239389">
<ele>709.5</ele>
<time>2003-09-26T08:41:53Z</time>
<speed>0.0</speed>
</trkpt>
<trkpt lat="47.394110" lon="9.239389">
<ele>709.5</ele>
<time>2003-09-26T08:41:58Z</time>
<speed>0.0</speed>
</trkpt>
<trkpt lat="47.394103" lon="9.239387">
<ele>710.1</ele>
<time>2003-09-26T08:42:03Z</time>
<speed>0.0</speed>
</trkpt>
<trkpt lat="47.394103" lon="9.239387">
<ele>710.1</ele>
<time>2003-09-26T08:42:08Z</time>
<speed>0.0</speed>
</trkpt>
<trkpt lat="47.394103" lon="9.239387">
<ele>710.1</ele>
<time>2003-09-26T08:42:13Z</time>
<speed>0.0</speed>
</trkpt>
<trkpt lat="47.394102" lon="9.239400">
<ele>710.3</ele>
<time>2003-09-26T08:42:18Z</time>
<speed>0.0</speed>
</trkpt>
<trkpt lat="47.394108" lon="9.239400">
<ele>711.0</ele>
<time>2003-09-26T08:42:23Z</time>
<speed>0.0</speed>
</trkpt>
<trkpt lat="47.394108" lon="9.239400">
<ele>711.0</ele>
<time>2003-09-26T08:42:28Z</time>
<speed>0.0</speed>
</trkpt>
<trkpt lat="47.394114" lon="9.239413">
<ele>711.8</ele>
<time>2003-09-26T08:42:33Z</time>
<speed>0.0</speed>
</trkpt>
<trkpt lat="47.394122" lon="9.239387">
<ele>712.4</ele>
<time>2003-09-26T08:42:38Z</time>
<speed>0.3</speed>
</trkpt>
<trkpt lat="47.394145" lon="9.239337">
<ele>712.7</ele>
<time>2003-09-26T08:42:43Z</time>
<speed>0.8</speed>
</trkpt>
<trkpt lat="47.394164" lon="9.239245">
<ele>713.4</ele>
<time>2003-09-26T08:42:48Z</time>
<speed>0.6</speed>
</trkpt>
<trkpt lat="47.394116" lon="9.239291">
<ele>712.9</ele>
<time>2003-09-26T08:42:53Z</time>
<speed>0.6</speed>
</trkpt>
<trkpt lat="47.394086" lon="9.239352">
<ele>713.3</ele>
<time>2003-09-26T08:42:58Z</time>
<speed>0.6</speed>
</trkpt>
<trkpt lat="47.394078" lon="9.239365">
<ele>712.7</ele>
<time>2003-09-26T08:43:03Z</time>
<speed>0.0</speed>
</trkpt>
<trkpt lat="47.394076" lon="9.239391">
<ele>712.9</ele>
<time>2003-09-26T08:43:08Z</time>
<speed>0.3</speed>
</trkpt>
<trkpt lat="47.394077" lon="9.239378">
<ele>712.8</ele>
<time>2003-09-26T08:43:13Z</time>
<speed>0.3</speed>
</trkpt>
<trkpt lat="47.394083" lon="9.239396">
<ele>710.9</ele>
<time>2003-09-26T08:43:18Z</time>
<speed>0.6</speed>
</trkpt>
<trkpt lat="47.394038" lon="9.239481">
<ele>711.4</ele>
<time>2003-09-26T08:43:23Z</time>
<speed>0.6</speed>
</trkpt>
<trkpt lat="47.394111" lon="9.239454">
<ele>710.8</ele>
<time>2003-09-26T08:43:28Z</time>
<speed>0.0</speed>
</trkpt>
<trkpt lat="47.394177" lon="9.239426">
<ele>710.8</ele>
<time>2003-09-26T08:43:33Z</time>
<speed>0.0</speed>
</trkpt>
<trkpt lat="47.394214" lon="9.239445">
<ele>711.1</ele>
<time>2003-09-26T08:43:38Z</time>
<speed>0.0</speed>
</trkpt>
<trkpt lat="47.394080" lon="9.239674">
<ele>712.5</ele>
<time>2003-09-26T08:43:43Z</time>
<speed>0.0</speed>
</trkpt>
<trkpt lat="47.394074" lon="9.239579">
<ele>713.1</ele>
<time>2003-09-26T08:43:48Z</time>
<speed>1.1</speed>
</trkpt>
<trkpt lat="47.394026" lon="9.239466">
<ele>711.2</ele>
<time>2003-09-26T08:43:53Z</time>
<speed>0.8</speed>
</trkpt>
<trkpt lat="47.394004" lon="9.239357">
<ele>709.5</ele>
<time>2003-09-26T08:43:58Z</time>
<speed>0.6</speed>
</trkpt>
<trkpt lat="47.393981" lon="9.239313">
<ele>709.0</ele>
<time>2003-09-26T08:44:03Z</time>
<speed>0.0</speed>
</trkpt>
<trkpt lat="47.393981" lon="9.239313">
<ele>709.0</ele>
<time>2003-09-26T08:44:08Z</time>
<speed>0.0</speed>
</trkpt>
<trkpt lat="47.393981" lon="9.239313">
<ele>709.0</ele>
<time>2003-09-26T08:44:13Z</time>
<speed>0.0</speed>
</trkpt>
<trkpt lat="47.393981" lon="9.239313">
<ele>709.0</ele>
<time>2003-09-26T08:44:18Z</time>
<speed>0.0</speed>
</trkpt>
<trkpt lat="47.393988" lon="9.239313">
<ele>709.8</ele>
<time>2003-09-26T08:44:23Z</time>
<speed>0.0</speed>
</trkpt>
<trkpt lat="47.393988" lon="9.239313">
<ele>709.8</ele>
<time>2003-09-26T08:44:28Z</time>
<speed>0.0</speed>
</trkpt>
<trkpt lat="47.393988" lon="9.239313">
<ele>709.8</ele>
<time>2003-09-26T08:44:33Z</time>
<speed>0.0</speed>
</trkpt>
<trkpt lat="47.393981" lon="9.239313">
<ele>709.0</ele>
<time>2003-09-26T08:44:38Z</time>
<speed>0.0</speed>
</trkpt>
<trkpt lat="47.393981" lon="9.239313">
<ele>709.0</ele>
<time>2003-09-26T08:44:43Z</time>
<speed>0.0</speed>
</trkpt>
<trkpt lat="47.393975" lon="9.239313">
<ele>708.3</ele>
<time>2003-09-26T08:44:48Z</time>
<speed>0.0</speed>
</trkpt>
<trkpt lat="47.393964" lon="9.239300">
<ele>706.7</ele>
<time>2003-09-26T08:44:53Z</time>
<speed>0.3</speed>
</trkpt>
<trkpt lat="47.393934" lon="9.239283">
<ele>705.7</ele>
<time>2003-09-26T08:44:58Z</time>
<speed>0.6</speed>
</trkpt>
<trkpt lat="47.393918" lon="9.239239">
<ele>706.0</ele>
<time>2003-09-26T08:45:03Z</time>
<speed>0.3</speed>
</trkpt>
<trkpt lat="47.393889" lon="9.239194">
<ele>706.2</ele>
<time>2003-09-26T08:45:08Z</time>
<speed>0.6</speed>
</trkpt>
<trkpt lat="47.393881" lon="9.239139">
<ele>705.7</ele>
<time>2003-09-26T08:45:13Z</time>
<speed>0.8</speed>
</trkpt>
<trkpt lat="47.393858" lon="9.239109">
<ele>705.4</ele>
<time>2003-09-26T08:45:18Z</time>
<speed>0.6</speed>
</trkpt>
<trkpt lat="47.393846" lon="9.239094">
<ele>705.2</ele>
<time>2003-09-26T08:45:23Z</time>
<speed>0.0</speed>
</trkpt>
<trkpt lat="47.393840" lon="9.239092">
<ele>705.9</ele>
<time>2003-09-26T08:45:28Z</time>
<speed>0.3</speed>
</trkpt>
<trkpt lat="47.393819" lon="9.239035">
<ele>705.3</ele>
<time>2003-09-26T08:45:34Z</time>
<speed>0.6</speed>
</trkpt>
<trkpt lat="47.393796" lon="9.238990">
<ele>706.2</ele>
<time>2003-09-26T08:45:39Z</time>
<speed>0.6</speed>
</trkpt>
<trkpt lat="47.393774" lon="9.238946">
<ele>705.8</ele>
<time>2003-09-26T08:45:44Z</time>
<speed>0.8</speed>
</trkpt>
<trkpt lat="47.393754" lon="9.238876">
<ele>705.1</ele>
<time>2003-09-26T08:45:49Z</time>
<speed>0.8</speed>
</trkpt>
<trkpt lat="47.393726" lon="9.238831">
<ele>705.3</ele>
<time>2003-09-26T08:45:54Z</time>
<speed>0.8</speed>
</trkpt>
<trkpt lat="47.393705" lon="9.238774">
<ele>704.7</ele>
<time>2003-09-26T08:45:59Z</time>
<speed>0.8</speed>
</trkpt>
<trkpt lat="47.393685" lon="9.238705">
<ele>704.0</ele>
<time>2003-09-26T08:46:04Z</time>
<speed>0.8</speed>
</trkpt>
<trkpt lat="47.393672" lon="9.238622">
<ele>704.0</ele>
<time>2003-09-26T08:46:09Z</time>
<speed>0.8</speed>
</trkpt>
<trkpt lat="47.393658" lon="9.238552">
<ele>704.0</ele>
<time>2003-09-26T08:46:14Z</time>
<speed>1.1</speed>
</trkpt>
<trkpt lat="47.393633" lon="9.238468">
<ele>703.9</ele>
<time>2003-09-26T08:46:19Z</time>
<speed>0.8</speed>
</trkpt>
<trkpt lat="47.393606" lon="9.238396">
<ele>703.9</ele>
<time>2003-09-26T08:46:24Z</time>
<speed>1.1</speed>
</trkpt>
<trkpt lat="47.393581" lon="9.238313">
<ele>702.4</ele>
<time>2003-09-26T08:46:29Z</time>
<speed>0.8</speed>
</trkpt>
<trkpt lat="47.393547" lon="9.238252">
<ele>703.2</ele>
<time>2003-09-26T08:46:34Z</time>
<speed>1.1</speed>
</trkpt>
<trkpt lat="47.393542" lon="9.238157">
<ele>703.7</ele>
<time>2003-09-26T08:46:39Z</time>
<speed>1.1</speed>
</trkpt>
<trkpt lat="47.393523" lon="9.238074">
<ele>702.9</ele>
<time>2003-09-26T08:46:44Z</time>
<speed>1.1</speed>
</trkpt>
<trkpt lat="47.393503" lon="9.238004">
<ele>702.3</ele>
<time>2003-09-26T08:46:49Z</time>
<speed>0.8</speed>
</trkpt>
<trkpt lat="47.393484" lon="9.237922">
<ele>701.5</ele>
<time>2003-09-26T08:46:54Z</time>
<speed>0.8</speed>
</trkpt>
<trkpt lat="47.393463" lon="9.237865">
<ele>700.9</ele>
<time>2003-09-26T08:46:59Z</time>
<speed>0.8</speed>
</trkpt>
<trkpt lat="47.393444" lon="9.237782">
<ele>700.1</ele>
<time>2003-09-26T08:47:04Z</time>
<speed>0.8</speed>
</trkpt>
<trkpt lat="47.393439" lon="9.237769">
<ele>699.3</ele>
<time>2003-09-26T08:47:09Z</time>
<speed>0.0</speed>
</trkpt>
<trkpt lat="47.393422" lon="9.237739">
<ele>699.7</ele>
<time>2003-09-26T08:47:14Z</time>
<speed>1.1</speed>
</trkpt>
<trkpt lat="47.393404" lon="9.237643">
<ele>698.8</ele>
<time>2003-09-26T08:47:19Z</time>
<speed>1.4</speed>
</trkpt>
<trkpt lat="47.393386" lon="9.237545">
<ele>699.3</ele>
<time>2003-09-26T08:47:24Z</time>
<speed>1.4</speed>
</trkpt>
<trkpt lat="47.393361" lon="9.237460">
<ele>699.2</ele>
<time>2003-09-26T08:47:29Z</time>
<speed>1.4</speed>
</trkpt>
<trkpt lat="47.393354" lon="9.237380">
<ele>698.4</ele>
<time>2003-09-26T08:47:34Z</time>
<speed>0.8</speed>
</trkpt>
<trkpt lat="47.393371" lon="9.237328">
<ele>699.5</ele>
<time>2003-09-26T08:47:39Z</time>
<speed>1.1</speed>
</trkpt>
<trkpt lat="47.393405" lon="9.237293">
<ele>700.0</ele>
<time>2003-09-26T08:47:44Z</time>
<speed>1.1</speed>
</trkpt>
<trkpt lat="47.393459" lon="9.237262">
<ele>700.0</ele>
<time>2003-09-26T08:47:49Z</time>
<speed>1.1</speed>
</trkpt>
<trkpt lat="47.393512" lon="9.237244">
<ele>700.0</ele>
<time>2003-09-26T08:47:54Z</time>
<speed>1.1</speed>
</trkpt>
<trkpt lat="47.393571" lon="9.237214">
<ele>700.7</ele>
<time>2003-09-26T08:47:59Z</time>
<speed>1.1</speed>
</trkpt>
<trkpt lat="47.393570" lon="9.237227">
<ele>700.8</ele>
<time>2003-09-26T08:48:04Z</time>
<speed>0.3</speed>
</trkpt>
<trkpt lat="47.393623" lon="9.237207">
<ele>702.3</ele>
<time>2003-09-26T08:48:09Z</time>
<speed>0.8</speed>
</trkpt>
<trkpt lat="47.393701" lon="9.237178">
<ele>703.7</ele>
<time>2003-09-26T08:48:14Z</time>
<speed>1.4</speed>
</trkpt>
<trkpt lat="47.393781" lon="9.237139">
<ele>703.7</ele>
<time>2003-09-26T08:48:19Z</time>
<speed>1.4</speed>
</trkpt>
<trkpt lat="47.393848" lon="9.237112">
<ele>702.3</ele>
<time>2003-09-26T08:48:24Z</time>
<speed>1.1</speed>
</trkpt>
<trkpt lat="47.393890" lon="9.237066">
<ele>702.1</ele>
<time>2003-09-26T08:48:29Z</time>
<speed>1.1</speed>
</trkpt>
<trkpt lat="47.393951" lon="9.237023">
<ele>702.7</ele>
<time>2003-09-26T08:48:34Z</time>
<speed>1.1</speed>
</trkpt>
<trkpt lat="47.394004" lon="9.236992">
<ele>702.6</ele>
<time>2003-09-26T08:48:39Z</time>
<speed>1.1</speed>
</trkpt>
<trkpt lat="47.394057" lon="9.236974">
<ele>702.7</ele>
<time>2003-09-26T08:48:44Z</time>
<speed>1.1</speed>
</trkpt>
<trkpt lat="47.394110" lon="9.236957">
<ele>702.7</ele>
<time>2003-09-26T08:48:49Z</time>
<speed>1.1</speed>
</trkpt>
<trkpt lat="47.394163" lon="9.236926">
<ele>702.7</ele>
<time>2003-09-26T08:48:54Z</time>
<speed>1.1</speed>
</trkpt>
<trkpt lat="47.394222" lon="9.236908">
<ele>703.5</ele>
<time>2003-09-26T08:48:59Z</time>
<speed>1.1</speed>
</trkpt>
<trkpt lat="47.394255" lon="9.236902">
<ele>702.8</ele>
<time>2003-09-26T08:49:04Z</time>
<speed>1.1</speed>
</trkpt>
<trkpt lat="47.394310" lon="9.236858">
<ele>702.7</ele>
<time>2003-09-26T08:49:09Z</time>
<speed>1.4</speed>
</trkpt>
<trkpt lat="47.394362" lon="9.236840">
<ele>702.7</ele>
<time>2003-09-26T08:49:14Z</time>
<speed>1.1</speed>
</trkpt>
<trkpt lat="47.394422" lon="9.236809">
<ele>703.4</ele>
<time>2003-09-26T08:49:19Z</time>
<speed>1.4</speed>
</trkpt>
<trkpt lat="47.394489" lon="9.236768">
<ele>703.3</ele>
<time>2003-09-26T08:49:24Z</time>
<speed>1.1</speed>
</trkpt>
<trkpt lat="47.394536" lon="9.236735">
<ele>703.9</ele>
<time>2003-09-26T08:49:29Z</time>
<speed>1.1</speed>
</trkpt>
<trkpt lat="47.394579" lon="9.236689">
<ele>703.7</ele>
<time>2003-09-26T08:49:34Z</time>
<speed>1.1</speed>
</trkpt>
<trkpt lat="47.394627" lon="9.236645">
<ele>702.8</ele>
<time>2003-09-26T08:49:39Z</time>
<speed>1.1</speed>
</trkpt>
<trkpt lat="47.394667" lon="9.236625">
<ele>702.8</ele>
<time>2003-09-26T08:49:44Z</time>
<speed>0.8</speed>
</trkpt>
<trkpt lat="47.394715" lon="9.236595">
<ele>702.0</ele>
<time>2003-09-26T08:49:49Z</time>
<speed>1.1</speed>
</trkpt>
<trkpt lat="47.394767" lon="9.236577">
<ele>702.0</ele>
<time>2003-09-26T08:49:54Z</time>
<speed>0.8</speed>
</trkpt>
<trkpt lat="47.394813" lon="9.236573">
<ele>701.5</ele>
<time>2003-09-26T08:49:59Z</time>
<speed>0.8</speed>
</trkpt>
<trkpt lat="47.394846" lon="9.236566">
<ele>700.8</ele>
<time>2003-09-26T08:50:04Z</time>
<speed>0.8</speed>
</trkpt>
<trkpt lat="47.394880" lon="9.236546">
<ele>700.1</ele>
<time>2003-09-26T08:50:09Z</time>
<speed>0.6</speed>
</trkpt>
<trkpt lat="47.394912" lon="9.236555">
<ele>698.1</ele>
<time>2003-09-26T08:50:14Z</time>
<speed>0.6</speed>
</trkpt>
<trkpt lat="47.394950" lon="9.236561">
<ele>698.3</ele>
<time>2003-09-26T08:50:19Z</time>
<speed>0.6</speed>
</trkpt>
<trkpt lat="47.394990" lon="9.236543">
<ele>696.9</ele>
<time>2003-09-26T08:50:24Z</time>
<speed>0.8</speed>
</trkpt>
<trkpt lat="47.395030" lon="9.236524">
<ele>696.9</ele>
<time>2003-09-26T08:50:29Z</time>
<speed>0.6</speed>
</trkpt>
<trkpt lat="47.395050" lon="9.236513">
<ele>697.6</ele>
<time>2003-09-26T08:50:34Z</time>
<speed>0.0</speed>
</trkpt>
<trkpt lat="47.395077" lon="9.236491">
<ele>697.5</ele>
<time>2003-09-26T08:50:39Z</time>
<speed>0.6</speed>
</trkpt>
<trkpt lat="47.395100" lon="9.236456">
<ele>696.6</ele>
<time>2003-09-26T08:50:44Z</time>
<speed>0.6</speed>
</trkpt>
<trkpt lat="47.395123" lon="9.236406">
<ele>697.0</ele>
<time>2003-09-26T08:50:49Z</time>
<speed>1.1</speed>
</trkpt>
<trkpt lat="47.395144" lon="9.236368">
<ele>697.4</ele>
<time>2003-09-26T08:50:54Z</time>
<speed>0.8</speed>
</trkpt>
<trkpt lat="47.395135" lon="9.236327">
<ele>697.0</ele>
<time>2003-09-26T08:50:59Z</time>
<speed>0.8</speed>
</trkpt>
<trkpt lat="47.395132" lon="9.236286">
<ele>697.4</ele>
<time>2003-09-26T08:51:04Z</time>
<speed>0.6</speed>
</trkpt>
<trkpt lat="47.395167" lon="9.236238">
<ele>697.8</ele>
<time>2003-09-26T08:51:09Z</time>
<speed>0.6</speed>
</trkpt>
<trkpt lat="47.395197" lon="9.236192">
<ele>696.1</ele>
<time>2003-09-26T08:51:14Z</time>
<speed>0.3</speed>
</trkpt>
<trkpt lat="47.395222" lon="9.236131">
<ele>695.0</ele>
<time>2003-09-26T08:51:19Z</time>
<speed>0.6</speed>
</trkpt>
<trkpt lat="47.395250" lon="9.236096">
<ele>694.8</ele>
<time>2003-09-26T08:51:24Z</time>
<speed>0.8</speed>
</trkpt>
<trkpt lat="47.395259" lon="9.236072">
<ele>693.9</ele>
<time>2003-09-26T08:51:29Z</time>
<speed>0.6</speed>
</trkpt>
<trkpt lat="47.395288" lon="9.236024">
<ele>693.6</ele>
<time>2003-09-26T08:51:34Z</time>
<speed>0.6</speed>
</trkpt>
<trkpt lat="47.395358" lon="9.235958">
<ele>691.9</ele>
<time>2003-09-26T08:51:39Z</time>
<speed>0.6</speed>
</trkpt>
<trkpt lat="47.395395" lon="9.235914">
<ele>689.5</ele>
<time>2003-09-26T08:51:44Z</time>
<speed>0.3</speed>
</trkpt>
<trkpt lat="47.395456" lon="9.235809">
<ele>686.0</ele>
<time>2003-09-26T08:51:49Z</time>
<speed>0.6</speed>
</trkpt>
<trkpt lat="47.395500" lon="9.235739">
<ele>684.1</ele>
<time>2003-09-26T08:51:54Z</time>
<speed>0.6</speed>
</trkpt>
<trkpt lat="47.395515" lon="9.235715">
<ele>684.0</ele>
<time>2003-09-26T08:51:59Z</time>
<speed>0.0</speed>
</trkpt>
<trkpt lat="47.395515" lon="9.235715">
<ele>684.0</ele>
<time>2003-09-26T08:52:04Z</time>
<speed>0.0</speed>
</trkpt>
<trkpt lat="47.395516" lon="9.235702">
<ele>683.9</ele>
<time>2003-09-26T08:52:09Z</time>
<speed>0.0</speed>
</trkpt>
<trkpt lat="47.395524" lon="9.235691">
<ele>683.1</ele>
<time>2003-09-26T08:52:14Z</time>
<speed>0.0</speed>
</trkpt>
<trkpt lat="47.395516" lon="9.235702">
<ele>683.9</ele>
<time>2003-09-26T08:52:19Z</time>
<speed>0.3</speed>
</trkpt>
<trkpt lat="47.395529" lon="9.235704">
<ele>684.0</ele>
<time>2003-09-26T08:52:24Z</time>
<speed>0.0</speed>
</trkpt>
<trkpt lat="47.395523" lon="9.235689">
<ele>684.5</ele>
<time>2003-09-26T08:52:29Z</time>
<speed>0.0</speed>
</trkpt>
<trkpt lat="47.395517" lon="9.235687">
<ele>685.2</ele>
<time>2003-09-26T08:52:34Z</time>
<speed>0.0</speed>
</trkpt>
<trkpt lat="47.395511" lon="9.235687">
<ele>684.4</ele>
<time>2003-09-26T08:52:39Z</time>
<speed>0.0</speed>
</trkpt>
<trkpt lat="47.395516" lon="9.235700">
<ele>685.3</ele>
<time>2003-09-26T08:52:44Z</time>
<speed>0.0</speed>
</trkpt>
<trkpt lat="47.395512" lon="9.235674">
<ele>684.3</ele>
<time>2003-09-26T08:52:49Z</time>
<speed>0.3</speed>
</trkpt>
<trkpt lat="47.395525" lon="9.235663">
<ele>684.3</ele>
<time>2003-09-26T08:52:54Z</time>
<speed>0.0</speed>
</trkpt>
<trkpt lat="47.395538" lon="9.235665">
<ele>684.4</ele>
<time>2003-09-26T08:52:59Z</time>
<speed>0.3</speed>
</trkpt>
<trkpt lat="47.395539" lon="9.235652">
<ele>684.3</ele>
<time>2003-09-26T08:53:05Z</time>
<speed>0.0</speed>
</trkpt>
<trkpt lat="47.395567" lon="9.235617">
<ele>684.1</ele>
<time>2003-09-26T08:53:10Z</time>
<speed>0.8</speed>
</trkpt>
<trkpt lat="47.395574" lon="9.235619">
<ele>683.4</ele>
<time>2003-09-26T08:53:15Z</time>
<speed>0.3</speed>
</trkpt>
<trkpt lat="47.395642" lon="9.235499">
<ele>681.9</ele>
<time>2003-09-26T08:53:20Z</time>
<speed>0.8</speed>
</trkpt>
<trkpt lat="47.395645" lon="9.235460">
<ele>681.6</ele>
<time>2003-09-26T08:53:25Z</time>
<speed>0.3</speed>
</trkpt>
<trkpt lat="47.395636" lon="9.235421">
<ele>679.8</ele>
<time>2003-09-26T08:53:30Z</time>
<speed>0.3</speed>
</trkpt>
<trkpt lat="47.395653" lon="9.235371">
<ele>679.4</ele>
<time>2003-09-26T08:53:35Z</time>
<speed>0.6</speed>
</trkpt>
<trkpt lat="47.395658" lon="9.235305">
<ele>678.9</ele>
<time>2003-09-26T08:53:40Z</time>
<speed>0.6</speed>
</trkpt>
<trkpt lat="47.395678" lon="9.235216">
<ele>678.2</ele>
<time>2003-09-26T08:53:45Z</time>
<speed>0.6</speed>
</trkpt>
<trkpt lat="47.395670" lon="9.235146">
<ele>679.0</ele>
<time>2003-09-26T08:53:50Z</time>
<speed>0.3</speed>
</trkpt>
<trkpt lat="47.395674" lon="9.235090">
<ele>681.4</ele>
<time>2003-09-26T08:53:55Z</time>
<speed>0.3</speed>
</trkpt>
<trkpt lat="47.395712" lon="9.235018">
<ele>680.2</ele>
<time>2003-09-26T08:54:00Z</time>
<speed>0.6</speed>
</trkpt>
<trkpt lat="47.395741" lon="9.234970">
<ele>679.9</ele>
<time>2003-09-26T08:54:05Z</time>
<speed>0.6</speed>
</trkpt>
<trkpt lat="47.395770" lon="9.234919">
<ele>681.0</ele>
<time>2003-09-26T08:54:10Z</time>
<speed>0.3</speed>
</trkpt>
<trkpt lat="47.395807" lon="9.234856">
<ele>682.7</ele>
<time>2003-09-26T08:54:15Z</time>
<speed>0.3</speed>
</trkpt>
<trkpt lat="47.395797" lon="9.234813">
<ele>683.7</ele>
<time>2003-09-26T08:54:20Z</time>
<speed>0.3</speed>
</trkpt>
<trkpt lat="47.395805" lon="9.234786">
<ele>684.2</ele>
<time>2003-09-26T08:54:25Z</time>
<speed>0.6</speed>
</trkpt>
<trkpt lat="47.395804" lon="9.234721">
<ele>683.0</ele>
<time>2003-09-26T08:54:30Z</time>
<speed>0.3</speed>
</trkpt>
<trkpt lat="47.395759" lon="9.234667">
<ele>678.0</ele>
<time>2003-09-26T08:54:35Z</time>
<speed>0.6</speed>
</trkpt>
<trkpt lat="47.395738" lon="9.234625">
<ele>676.2</ele>
<time>2003-09-26T08:54:40Z</time>
<speed>0.3</speed>
</trkpt>
<trkpt lat="47.395716" lon="9.234584">
<ele>674.3</ele>
<time>2003-09-26T08:54:45Z</time>
<speed>0.6</speed>
</trkpt>
<trkpt lat="47.395688" lon="9.234541">
<ele>673.1</ele>
<time>2003-09-26T08:54:50Z</time>
<speed>0.3</speed>
</trkpt>
<trkpt lat="47.395682" lon="9.234462">
<ele>671.0</ele>
<time>2003-09-26T08:54:55Z</time>
<speed>0.3</speed>
</trkpt>
<trkpt lat="47.395638" lon="9.234456">
<ele>670.0</ele>
<time>2003-09-26T08:55:00Z</time>
<speed>0.6</speed>
</trkpt>
<trkpt lat="47.395537" lon="9.234519">
<ele>669.5</ele>
<time>2003-09-26T08:55:05Z</time>
<speed>0.8</speed>
</trkpt>
<trkpt lat="47.395492" lon="9.234526">
<ele>668.7</ele>
<time>2003-09-26T08:55:10Z</time>
<speed>0.8</speed>
</trkpt>
<trkpt lat="47.395438" lon="9.234555">
<ele>670.1</ele>
<time>2003-09-26T08:55:15Z</time>
<speed>0.8</speed>
</trkpt>
<trkpt lat="47.395400" lon="9.234548">
<ele>669.9</ele>
<time>2003-09-26T08:55:20Z</time>
<speed>0.6</speed>
</trkpt>
<trkpt lat="47.395355" lon="9.234553">
<ele>670.5</ele>
<time>2003-09-26T08:55:25Z</time>
<speed>0.8</speed>
</trkpt>
<trkpt lat="47.395278" lon="9.234551">
<ele>671.6</ele>
<time>2003-09-26T08:55:30Z</time>
<speed>1.1</speed>
</trkpt>
<trkpt lat="47.395152" lon="9.234595">
<ele>672.2</ele>
<time>2003-09-26T08:55:35Z</time>
<speed>1.7</speed>
</trkpt>
<trkpt lat="47.395073" lon="9.234619">
<ele>673.5</ele>
<time>2003-09-26T08:55:40Z</time>
<speed>1.4</speed>
</trkpt>
<trkpt lat="47.394989" lon="9.234618">
<ele>673.9</ele>
<time>2003-09-26T08:55:45Z</time>
<speed>1.4</speed>
</trkpt>
<trkpt lat="47.394926" lon="9.234607">
<ele>673.5</ele>
<time>2003-09-26T08:55:50Z</time>
<speed>1.4</speed>
</trkpt>
<trkpt lat="47.394865" lon="9.234585">
<ele>671.7</ele>
<time>2003-09-26T08:55:55Z</time>
<speed>1.1</speed>
</trkpt>
<trkpt lat="47.394822" lon="9.234568">
<ele>669.2</ele>
<time>2003-09-26T08:56:00Z</time>
<speed>1.1</speed>
</trkpt>
<trkpt lat="47.394795" lon="9.234512">
<ele>667.9</ele>
<time>2003-09-26T08:56:05Z</time>
<speed>0.8</speed>
</trkpt>
<trkpt lat="47.394747" lon="9.234477">
<ele>667.4</ele>
<time>2003-09-26T08:56:10Z</time>
<speed>0.8</speed>
</trkpt>
<trkpt lat="47.394705" lon="9.234442">
<ele>667.7</ele>
<time>2003-09-26T08:56:15Z</time>
<speed>0.6</speed>
</trkpt>
<trkpt lat="47.394656" lon="9.234405">
<ele>668.6</ele>
<time>2003-09-26T08:56:20Z</time>
<speed>0.6</speed>
</trkpt>
<trkpt lat="47.394623" lon="9.234334">
<ele>667.9</ele>
<time>2003-09-26T08:56:25Z</time>
<speed>0.8</speed>
</trkpt>
<trkpt lat="47.394608" lon="9.234277">
<ele>668.0</ele>
<time>2003-09-26T08:56:30Z</time>
<speed>0.6</speed>
</trkpt>
<trkpt lat="47.394620" lon="9.234212">
<ele>668.2</ele>
<time>2003-09-26T08:56:35Z</time>
<speed>0.3</speed>
</trkpt>
<trkpt lat="47.394736" lon="9.234083">
<ele>660.4</ele>
<time>2003-09-26T08:56:40Z</time>
<speed>0.6</speed>
</trkpt>
<trkpt lat="47.394761" lon="9.234024">
<ele>657.9</ele>
<time>2003-09-26T08:56:45Z</time>
<speed>0.6</speed>
</trkpt>
<trkpt lat="47.394791" lon="9.233962">
<ele>657.5</ele>
<time>2003-09-26T08:56:50Z</time>
<speed>0.8</speed>
</trkpt>
<trkpt lat="47.394823" lon="9.233888">
<ele>657.0</ele>
<time>2003-09-26T08:56:55Z</time>
<speed>0.8</speed>
</trkpt>
<trkpt lat="47.394825" lon="9.233862">
<ele>656.8</ele>
<time>2003-09-26T08:57:00Z</time>
<speed>0.6</speed>
</trkpt>
<trkpt lat="47.394830" lon="9.233797">
<ele>656.2</ele>
<time>2003-09-26T08:57:05Z</time>
<speed>0.8</speed>
</trkpt>
<trkpt lat="47.394869" lon="9.233712">
<ele>654.9</ele>
<time>2003-09-26T08:57:10Z</time>
<speed>1.1</speed>
</trkpt>
<trkpt lat="47.394904" lon="9.233679">
<ele>654.1</ele>
<time>2003-09-26T08:57:15Z</time>
<speed>1.1</speed>
</trkpt>
<trkpt lat="47.394938" lon="9.233659">
<ele>653.3</ele>
<time>2003-09-26T08:57:20Z</time>
<speed>0.8</speed>
</trkpt>
<trkpt lat="47.394932" lon="9.233659">
<ele>652.6</ele>
<time>2003-09-26T08:57:25Z</time>
<speed>0.6</speed>
</trkpt>
<trkpt lat="47.394952" lon="9.233665">
<ele>650.6</ele>
<time>2003-09-26T08:57:30Z</time>
<speed>0.3</speed>
</trkpt>
<trkpt lat="47.394952" lon="9.233665">
<ele>650.6</ele>
<time>2003-09-26T08:57:35Z</time>
<speed>0.0</speed>
</trkpt>
<trkpt lat="47.394958" lon="9.233665">
<ele>651.3</ele>
<time>2003-09-26T08:57:40Z</time>
<speed>0.0</speed>
</trkpt>
<trkpt lat="47.394958" lon="9.233665">
<ele>651.3</ele>
<time>2003-09-26T08:57:45Z</time>
<speed>0.0</speed>
</trkpt>
<trkpt lat="47.394979" lon="9.233644">
<ele>650.5</ele>
<time>2003-09-26T08:57:50Z</time>
<speed>0.6</speed>
</trkpt>
<trkpt lat="47.395040" lon="9.233602">
<ele>649.7</ele>
<time>2003-09-26T08:57:55Z</time>
<speed>0.8</speed>
</trkpt>
<trkpt lat="47.395155" lon="9.233529">
<ele>648.8</ele>
<time>2003-09-26T08:58:00Z</time>
<speed>1.1</speed>
</trkpt>
<trkpt lat="47.395203" lon="9.233499">
<ele>648.0</ele>
<time>2003-09-26T08:58:05Z</time>
<speed>0.3</speed>
</trkpt>
<trkpt lat="47.395251" lon="9.233468">
<ele>647.2</ele>
<time>2003-09-26T08:58:10Z</time>
<speed>0.8</speed>
</trkpt>
<trkpt lat="47.395398" lon="9.233389">
<ele>645.7</ele>
<time>2003-09-26T08:58:15Z</time>
<speed>1.4</speed>
</trkpt>
<trkpt lat="47.395471" lon="9.233360">
<ele>646.4</ele>
<time>2003-09-26T08:58:20Z</time>
<speed>1.1</speed>
</trkpt>
<trkpt lat="47.395538" lon="9.233319">
<ele>646.3</ele>
<time>2003-09-26T08:58:25Z</time>
<speed>1.4</speed>
</trkpt>
<trkpt lat="47.395587" lon="9.233277">
<ele>644.0</ele>
<time>2003-09-26T08:58:30Z</time>
<speed>1.1</speed>
</trkpt>
<trkpt lat="47.395641" lon="9.233246">
<ele>644.0</ele>
<time>2003-09-26T08:58:35Z</time>
<speed>0.8</speed>
</trkpt>
<trkpt lat="47.395721" lon="9.233207">
<ele>643.9</ele>
<time>2003-09-26T08:58:40Z</time>
<speed>1.1</speed>
</trkpt>
<trkpt lat="47.395776" lon="9.233163">
<ele>643.8</ele>
<time>2003-09-26T08:58:45Z</time>
<speed>1.1</speed>
</trkpt>
<trkpt lat="47.395843" lon="9.233121">
<ele>643.7</ele>
<time>2003-09-26T08:58:50Z</time>
<speed>1.1</speed>
</trkpt>
<trkpt lat="47.395898" lon="9.233077">
<ele>643.5</ele>
<time>2003-09-26T08:58:55Z</time>
<speed>0.8</speed>
</trkpt>
<trkpt lat="47.395862" lon="9.233062">
<ele>640.4</ele>
<time>2003-09-26T08:59:00Z</time>
<speed>0.0</speed>
</trkpt>
<trkpt lat="47.395842" lon="9.233073">
<ele>639.7</ele>
<time>2003-09-26T08:59:05Z</time>
<speed>0.0</speed>
</trkpt>
<trkpt lat="47.395841" lon="9.233008">
<ele>638.4</ele>
<time>2003-09-26T08:59:10Z</time>
<speed>0.6</speed>
</trkpt>
<trkpt lat="47.395849" lon="9.232916">
<ele>637.7</ele>
<time>2003-09-26T08:59:15Z</time>
<speed>0.6</speed>
</trkpt>
<trkpt lat="47.395876" lon="9.232814">
<ele>637.6</ele>
<time>2003-09-26T08:59:20Z</time>
<speed>0.8</speed>
</trkpt>
<trkpt lat="47.395865" lon="9.232786">
<ele>637.3</ele>
<time>2003-09-26T08:59:25Z</time>
<speed>0.3</speed>
</trkpt>
<trkpt lat="47.395857" lon="9.232812">
<ele>636.8</ele>
<time>2003-09-26T08:59:30Z</time>
<speed>0.0</speed>
</trkpt>
<trkpt lat="47.395849" lon="9.232838">
<ele>636.3</ele>
<time>2003-09-26T08:59:35Z</time>
<speed>0.0</speed>
</trkpt>
<trkpt lat="47.395855" lon="9.232838">
<ele>637.0</ele>
<time>2003-09-26T08:59:40Z</time>
<speed>0.0</speed>
</trkpt>
<trkpt lat="47.395846" lon="9.232879">
<ele>635.2</ele>
<time>2003-09-26T08:59:45Z</time>
<speed>0.3</speed>
</trkpt>
<trkpt lat="47.395829" lon="9.232929">
<ele>635.6</ele>
<time>2003-09-26T08:59:50Z</time>
<speed>0.3</speed>
</trkpt>
<trkpt lat="47.395835" lon="9.232929">
<ele>636.3</ele>
<time>2003-09-26T08:59:55Z</time>
<speed>0.0</speed>
</trkpt>
<trkpt lat="47.395835" lon="9.232929">
<ele>636.3</ele>
<time>2003-09-26T09:00:00Z</time>
<speed>0.0</speed>
</trkpt>
<trkpt lat="47.395835" lon="9.232929">
<ele>636.3</ele>
<time>2003-09-26T09:00:05Z</time>
<speed>0.0</speed>
</trkpt>
<trkpt lat="47.395840" lon="9.232943">
<ele>637.1</ele>
<time>2003-09-26T09:00:10Z</time>
<speed>0.0</speed>
</trkpt>
<trkpt lat="47.395853" lon="9.232945">
<ele>637.2</ele>
<time>2003-09-26T09:00:15Z</time>
<speed>0.0</speed>
</trkpt>
<trkpt lat="47.395854" lon="9.232932">
<ele>637.1</ele>
<time>2003-09-26T09:00:20Z</time>
<speed>0.0</speed>
</trkpt>
<trkpt lat="47.395861" lon="9.232934">
<ele>636.4</ele>
<time>2003-09-26T09:00:25Z</time>
<speed>0.0</speed>
</trkpt>
<trkpt lat="47.395867" lon="9.232934">
<ele>637.2</ele>
<time>2003-09-26T09:00:30Z</time>
<speed>0.0</speed>
</trkpt>
<trkpt lat="47.395893" lon="9.232925">
<ele>637.2</ele>
<time>2003-09-26T09:00:35Z</time>
<speed>0.0</speed>
</trkpt>
<trkpt lat="47.395893" lon="9.232925">
<ele>637.2</ele>
<time>2003-09-26T09:00:40Z</time>
<speed>0.0</speed>
</trkpt>
<trkpt lat="47.395900" lon="9.232912">
<ele>637.8</ele>
<time>2003-09-26T09:00:45Z</time>
<speed>0.0</speed>
</trkpt>
<trkpt lat="47.395940" lon="9.232892">
<ele>637.8</ele>
<time>2003-09-26T09:00:50Z</time>
<speed>0.0</speed>
</trkpt>
<trkpt lat="47.395943" lon="9.232853">
<ele>637.5</ele>
<time>2003-09-26T09:00:55Z</time>
<speed>0.6</speed>
</trkpt>
<trkpt lat="47.395943" lon="9.232853">
<ele>637.5</ele>
<time>2003-09-26T09:01:00Z</time>
<speed>0.0</speed>
</trkpt>
<trkpt lat="47.395942" lon="9.232801">
<ele>636.3</ele>
<time>2003-09-26T09:01:05Z</time>
<speed>0.8</speed>
</trkpt>
<trkpt lat="47.395925" lon="9.232772">
<ele>635.3</ele>
<time>2003-09-26T09:01:10Z</time>
<speed>0.0</speed>
</trkpt>
<trkpt lat="47.395934" lon="9.232733">
<ele>635.7</ele>
<time>2003-09-26T09:01:15Z</time>
<speed>0.3</speed>
</trkpt>
<trkpt lat="47.395970" lon="9.232685">
<ele>636.1</ele>
<time>2003-09-26T09:01:20Z</time>
<speed>1.1</speed>
</trkpt>
<trkpt lat="47.396004" lon="9.232650">
<ele>636.7</ele>
<time>2003-09-26T09:01:25Z</time>
<speed>0.8</speed>
</trkpt>
<trkpt lat="47.396030" lon="9.232639">
<ele>638.1</ele>
<time>2003-09-26T09:01:30Z</time>
<speed>0.6</speed>
</trkpt>
<trkpt lat="47.396083" lon="9.232606">
<ele>639.5</ele>
<time>2003-09-26T09:01:35Z</time>
<speed>1.1</speed>
</trkpt>
<trkpt lat="47.396190" lon="9.232543">
<ele>640.8</ele>
<time>2003-09-26T09:01:40Z</time>
<speed>1.7</speed>
</trkpt>
<trkpt lat="47.396270" lon="9.232501">
<ele>642.1</ele>
<time>2003-09-26T09:01:45Z</time>
<speed>0.8</speed>
</trkpt>
<trkpt lat="47.396330" lon="9.232470">
<ele>642.8</ele>
<time>2003-09-26T09:01:50Z</time>
<speed>0.6</speed>
</trkpt>
<trkpt lat="47.396369" lon="9.232464">
<ele>642.9</ele>
<time>2003-09-26T09:01:55Z</time>
<speed>0.6</speed>
</trkpt>
<trkpt lat="47.396414" lon="9.232459">
<ele>642.3</ele>
<time>2003-09-26T09:02:00Z</time>
<speed>0.0</speed>
</trkpt>
<trkpt lat="47.396439" lon="9.232463">
<ele>642.5</ele>
<time>2003-09-26T09:02:05Z</time>
<speed>0.0</speed>
</trkpt>
<trkpt lat="47.396458" lon="9.232467">
<ele>641.9</ele>
<time>2003-09-26T09:02:10Z</time>
<speed>0.6</speed>
</trkpt>
<trkpt lat="47.396479" lon="9.232459">
<ele>641.2</ele>
<time>2003-09-26T09:02:15Z</time>
<speed>0.0</speed>
</trkpt>
<trkpt lat="47.396504" lon="9.232463">
<ele>641.3</ele>
<time>2003-09-26T09:02:20Z</time>
<speed>0.6</speed>
</trkpt>
<trkpt lat="47.396554" lon="9.232471">
<ele>641.6</ele>
<time>2003-09-26T09:02:25Z</time>
<speed>0.3</speed>
</trkpt>
<trkpt lat="47.396599" lon="9.232480">
<ele>641.1</ele>
<time>2003-09-26T09:02:30Z</time>
<speed>0.3</speed>
</trkpt>
<trkpt lat="47.396644" lon="9.232475">
<ele>640.5</ele>
<time>2003-09-26T09:02:35Z</time>
<speed>0.6</speed>
</trkpt>
<trkpt lat="47.396695" lon="9.232484">
<ele>640.8</ele>
<time>2003-09-26T09:02:40Z</time>
<speed>0.6</speed>
</trkpt>
<trkpt lat="47.396774" lon="9.232457">
<ele>640.9</ele>
<time>2003-09-26T09:02:45Z</time>
<speed>0.6</speed>
</trkpt>
<trkpt lat="47.396832" lon="9.232455">
<ele>640.4</ele>
<time>2003-09-26T09:02:50Z</time>
<speed>0.8</speed>
</trkpt>
<trkpt lat="47.396883" lon="9.232450">
<ele>640.5</ele>
<time>2003-09-26T09:02:55Z</time>
<speed>0.3</speed>
</trkpt>
<trkpt lat="47.396913" lon="9.232483">
<ele>640.2</ele>
<time>2003-09-26T09:03:00Z</time>
<speed>0.3</speed>
</trkpt>
<trkpt lat="47.396975" lon="9.232509">
<ele>639.3</ele>
<time>2003-09-26T09:03:05Z</time>
<speed>0.6</speed>
</trkpt>
<trkpt lat="47.397013" lon="9.232530">
<ele>638.2</ele>
<time>2003-09-26T09:03:10Z</time>
<speed>0.3</speed>
</trkpt>
<trkpt lat="47.397064" lon="9.232526">
<ele>638.3</ele>
<time>2003-09-26T09:03:15Z</time>
<speed>0.3</speed>
</trkpt>
<trkpt lat="47.397122" lon="9.232523">
<ele>637.8</ele>
<time>2003-09-26T09:03:20Z</time>
<speed>0.3</speed>
</trkpt>
<trkpt lat="47.397175" lon="9.232506">
<ele>637.9</ele>
<time>2003-09-26T09:03:25Z</time>
<speed>0.3</speed>
</trkpt>
<trkpt lat="47.397253" lon="9.232492">
<ele>638.1</ele>
<time>2003-09-26T09:03:30Z</time>
<speed>0.6</speed>
</trkpt>
<trkpt lat="47.397291" lon="9.232499">
<ele>638.3</ele>
<time>2003-09-26T09:03:35Z</time>
<speed>0.3</speed>
</trkpt>
<trkpt lat="47.397335" lon="9.232507">
<ele>637.8</ele>
<time>2003-09-26T09:03:40Z</time>
<speed>0.0</speed>
</trkpt>
<trkpt lat="47.397379" lon="9.232513">
<ele>638.8</ele>
<time>2003-09-26T09:03:45Z</time>
<speed>0.3</speed>
</trkpt>
<trkpt lat="47.397377" lon="9.232540">
<ele>639.0</ele>
<time>2003-09-26T09:03:50Z</time>
<speed>0.3</speed>
</trkpt>
<trkpt lat="47.397389" lon="9.232542">
<ele>639.1</ele>
<time>2003-09-26T09:03:55Z</time>
<speed>0.0</speed>
</trkpt>
<trkpt lat="47.397446" lon="9.232552">
<ele>638.7</ele>
<time>2003-09-26T09:04:00Z</time>
<speed>0.0</speed>
</trkpt>
<trkpt lat="47.397544" lon="9.232528">
<ele>639.5</ele>
<time>2003-09-26T09:04:05Z</time>
<speed>0.0</speed>
</trkpt>
<trkpt lat="47.397608" lon="9.232526">
<ele>639.8</ele>
<time>2003-09-26T09:04:10Z</time>
<speed>0.3</speed>
</trkpt>
<trkpt lat="47.397706" lon="9.232501">
<ele>640.7</ele>
<time>2003-09-26T09:04:15Z</time>
<speed>0.0</speed>
</trkpt>
<trkpt lat="47.397771" lon="9.232486">
<ele>640.8</ele>
<time>2003-09-26T09:04:20Z</time>
<speed>0.0</speed>
</trkpt>
<trkpt lat="47.397757" lon="9.232497">
<ele>640.8</ele>
<time>2003-09-26T09:04:25Z</time>
<speed>0.0</speed>
</trkpt>
<trkpt lat="47.397744" lon="9.232508">
<ele>640.9</ele>
<time>2003-09-26T09:04:30Z</time>
<speed>0.0</speed>
</trkpt>
<trkpt lat="47.397724" lon="9.232519">
<ele>640.2</ele>
<time>2003-09-26T09:04:35Z</time>
<speed>0.0</speed>
</trkpt>
<trkpt lat="47.397724" lon="9.232519">
<ele>640.2</ele>
<time>2003-09-26T09:04:40Z</time>
<speed>0.0</speed>
</trkpt>
<trkpt lat="47.397744" lon="9.232508">
<ele>640.9</ele>
<time>2003-09-26T09:04:45Z</time>
<speed>0.0</speed>
</trkpt>
<trkpt lat="47.397791" lon="9.232477">
<ele>640.1</ele>
<time>2003-09-26T09:04:50Z</time>
<speed>0.0</speed>
</trkpt>
<trkpt lat="47.397825" lon="9.232455">
<ele>640.7</ele>
<time>2003-09-26T09:04:55Z</time>
<speed>0.3</speed>
</trkpt>
<trkpt lat="47.397889" lon="9.232453">
<ele>641.0</ele>
<time>2003-09-26T09:05:00Z</time>
<speed>0.3</speed>
</trkpt>
<trkpt lat="47.397934" lon="9.232448">
<ele>640.4</ele>
<time>2003-09-26T09:05:05Z</time>
<speed>0.3</speed>
</trkpt>
<trkpt lat="47.397942" lon="9.232435">
<ele>641.0</ele>
<time>2003-09-26T09:05:10Z</time>
<speed>0.0</speed>
</trkpt>
<trkpt lat="47.397974" lon="9.232428">
<ele>640.4</ele>
<time>2003-09-26T09:05:15Z</time>
<speed>0.0</speed>
</trkpt>
<trkpt lat="47.397988" lon="9.232417">
<ele>640.3</ele>
<time>2003-09-26T09:05:20Z</time>
<speed>0.0</speed>
</trkpt>
<trkpt lat="47.398009" lon="9.232393">
<ele>640.9</ele>
<time>2003-09-26T09:05:25Z</time>
<speed>0.0</speed>
</trkpt>
<trkpt lat="47.398061" lon="9.232389">
<ele>641.1</ele>
<time>2003-09-26T09:05:30Z</time>
<speed>0.3</speed>
</trkpt>
<trkpt lat="47.398063" lon="9.232443">
<ele>640.8</ele>
<time>2003-09-26T09:05:35Z</time>
<speed>1.4</speed>
</trkpt>
<trkpt lat="47.398036" lon="9.232546">
<ele>640.9</ele>
<time>2003-09-26T09:05:40Z</time>
<speed>1.9</speed>
</trkpt>
<trkpt lat="47.398061" lon="9.232630">
<ele>641.0</ele>
<time>2003-09-26T09:05:45Z</time>
<speed>1.4</speed>
</trkpt>
<trkpt lat="47.398103" lon="9.232665">
<ele>640.8</ele>
<time>2003-09-26T09:05:50Z</time>
<speed>0.3</speed>
</trkpt>
<trkpt lat="47.398188" lon="9.232639">
<ele>641.6</ele>
<time>2003-09-26T09:05:55Z</time>
<speed>0.0</speed>
</trkpt>
<trkpt lat="47.398294" lon="9.232603">
<ele>641.7</ele>
<time>2003-09-26T09:06:00Z</time>
<speed>0.0</speed>
</trkpt>
<trkpt lat="47.398334" lon="9.232583">
<ele>641.7</ele>
<time>2003-09-26T09:06:05Z</time>
<speed>0.0</speed>
</trkpt>
<trkpt lat="47.398381" lon="9.232551">
<ele>642.3</ele>
<time>2003-09-26T09:06:10Z</time>
<speed>0.3</speed>
</trkpt>
<trkpt lat="47.398401" lon="9.232542">
<ele>641.6</ele>
<time>2003-09-26T09:06:15Z</time>
<speed>0.3</speed>
</trkpt>
<trkpt lat="47.398427" lon="9.232533">
<ele>641.6</ele>
<time>2003-09-26T09:06:20Z</time>
<speed>0.0</speed>
</trkpt>
<trkpt lat="47.398440" lon="9.232535">
<ele>641.7</ele>
<time>2003-09-26T09:06:25Z</time>
<speed>0.0</speed>
</trkpt>
<trkpt lat="47.398465" lon="9.232539">
<ele>641.8</ele>
<time>2003-09-26T09:06:30Z</time>
<speed>0.0</speed>
</trkpt>
<trkpt lat="47.398478" lon="9.232541">
<ele>641.9</ele>
<time>2003-09-26T09:06:35Z</time>
<speed>0.0</speed>
</trkpt>
<trkpt lat="47.398479" lon="9.232528">
<ele>641.8</ele>
<time>2003-09-26T09:06:40Z</time>
<speed>0.0</speed>
</trkpt>
<trkpt lat="47.398495" lon="9.232491">
<ele>641.5</ele>
<time>2003-09-26T09:06:45Z</time>
<speed>0.0</speed>
</trkpt>
<trkpt lat="47.398544" lon="9.232432">
<ele>641.9</ele>
<time>2003-09-26T09:06:50Z</time>
<speed>0.3</speed>
</trkpt>
<trkpt lat="47.398567" lon="9.232382">
<ele>642.3</ele>
<time>2003-09-26T09:06:55Z</time>
<speed>0.0</speed>
</trkpt>
<trkpt lat="47.398590" lon="9.232332">
<ele>642.7</ele>
<time>2003-09-26T09:07:00Z</time>
<speed>0.3</speed>
</trkpt>
<trkpt lat="47.398612" lon="9.232295">
<ele>643.1</ele>
<time>2003-09-26T09:07:05Z</time>
<speed>0.0</speed>
</trkpt>
<trkpt lat="47.398682" lon="9.232214">
<ele>642.7</ele>
<time>2003-09-26T09:07:10Z</time>
<speed>0.6</speed>
</trkpt>
<trkpt lat="47.398774" lon="9.232111">
<ele>641.5</ele>
<time>2003-09-26T09:07:15Z</time>
<speed>0.6</speed>
</trkpt>
<trkpt lat="47.398974" lon="9.231951">
<ele>637.3</ele>
<time>2003-09-26T09:07:20Z</time>
<speed>1.1</speed>
</trkpt>
<trkpt lat="47.399035" lon="9.231907">
<ele>637.9</ele>
<time>2003-09-26T09:07:25Z</time>
<speed>0.8</speed>
</trkpt>
<trkpt lat="47.399135" lon="9.231859">
<ele>637.2</ele>
<time>2003-09-26T09:07:30Z</time>
<speed>1.1</speed>
</trkpt>
<trkpt lat="47.399207" lon="9.231846">
<ele>636.6</ele>
<time>2003-09-26T09:07:35Z</time>
<speed>0.8</speed>
</trkpt>
<trkpt lat="47.399273" lon="9.231817">
<ele>636.6</ele>
<time>2003-09-26T09:07:40Z</time>
<speed>1.1</speed>
</trkpt>
<trkpt lat="47.399338" lon="9.231817">
<ele>635.5</ele>
<time>2003-09-26T09:07:45Z</time>
<speed>0.8</speed>
</trkpt>
<trkpt lat="47.399366" lon="9.231862">
<ele>635.3</ele>
<time>2003-09-26T09:07:50Z</time>
<speed>1.1</speed>
</trkpt>
<trkpt lat="47.399402" lon="9.231895">
<ele>635.7</ele>
<time>2003-09-26T09:07:55Z</time>
<speed>0.8</speed>
</trkpt>
<trkpt lat="47.399449" lon="9.231943">
<ele>636.3</ele>
<time>2003-09-26T09:08:00Z</time>
<speed>0.6</speed>
</trkpt>
<trkpt lat="47.399494" lon="9.231951">
<ele>635.8</ele>
<time>2003-09-26T09:08:05Z</time>
<speed>0.8</speed>
</trkpt>
<trkpt lat="47.399530" lon="9.231984">
<ele>636.2</ele>
<time>2003-09-26T09:08:10Z</time>
<speed>0.6</speed>
</trkpt>
<trkpt lat="47.399580" lon="9.231992">
<ele>636.5</ele>
<time>2003-09-26T09:08:15Z</time>
<speed>1.1</speed>
</trkpt>
<trkpt lat="47.399645" lon="9.231977">
<ele>636.6</ele>
<time>2003-09-26T09:08:20Z</time>
<speed>1.1</speed>
</trkpt>
<trkpt lat="47.399695" lon="9.231998">
<ele>637.0</ele>
<time>2003-09-26T09:08:25Z</time>
<speed>0.8</speed>
</trkpt>
<trkpt lat="47.399719" lon="9.232015">
<ele>637.3</ele>
<time>2003-09-26T09:08:30Z</time>
<speed>0.8</speed>
</trkpt>
<trkpt lat="47.399769" lon="9.232024">
<ele>637.5</ele>
<time>2003-09-26T09:08:35Z</time>
<speed>0.8</speed>
</trkpt>
<trkpt lat="47.399820" lon="9.232032">
<ele>637.8</ele>
<time>2003-09-26T09:08:40Z</time>
<speed>1.1</speed>
</trkpt>
<trkpt lat="47.399883" lon="9.232043">
<ele>638.1</ele>
<time>2003-09-26T09:08:45Z</time>
<speed>0.8</speed>
</trkpt>
<trkpt lat="47.399943" lon="9.232012">
<ele>638.8</ele>
<time>2003-09-26T09:08:50Z</time>
<speed>0.8</speed>
</trkpt>
<trkpt lat="47.400002" lon="9.231982">
<ele>639.5</ele>
<time>2003-09-26T09:08:55Z</time>
<speed>0.8</speed>
</trkpt>
<trkpt lat="47.400062" lon="9.231951">
<ele>640.2</ele>
<time>2003-09-26T09:09:00Z</time>
<speed>0.6</speed>
</trkpt>
<trkpt lat="47.400131" lon="9.231881">
<ele>641.3</ele>
<time>2003-09-26T09:09:05Z</time>
<speed>1.1</speed>
</trkpt>
<trkpt lat="47.400181" lon="9.231822">
<ele>641.7</ele>
<time>2003-09-26T09:09:10Z</time>
<speed>0.8</speed>
</trkpt>
<trkpt lat="47.400210" lon="9.231772">
<ele>642.8</ele>
<time>2003-09-26T09:09:15Z</time>
<speed>0.8</speed>
</trkpt>
<trkpt lat="47.400273" lon="9.231687">
<ele>644.4</ele>
<time>2003-09-26T09:09:20Z</time>
<speed>0.8</speed>
</trkpt>
<trkpt lat="47.400291" lon="9.231623">
<ele>644.0</ele>
<time>2003-09-26T09:09:25Z</time>
<speed>0.6</speed>
</trkpt>
<trkpt lat="47.400307" lon="9.231571">
<ele>645.0</ele>
<time>2003-09-26T09:09:30Z</time>
<speed>0.6</speed>
</trkpt>
<trkpt lat="47.400320" lon="9.231493">
<ele>645.1</ele>
<time>2003-09-26T09:09:35Z</time>
<speed>1.1</speed>
</trkpt>
<trkpt lat="47.400358" lon="9.231403">
<ele>646.6</ele>
<time>2003-09-26T09:09:40Z</time>
<speed>1.4</speed>
</trkpt>
<trkpt lat="47.400384" lon="9.231314">
<ele>646.6</ele>
<time>2003-09-26T09:09:45Z</time>
<speed>1.7</speed>
</trkpt>
<trkpt lat="47.400412" lon="9.231211">
<ele>646.6</ele>
<time>2003-09-26T09:09:50Z</time>
<speed>1.1</speed>
</trkpt>
<trkpt lat="47.400450" lon="9.231124">
<ele>646.7</ele>
<time>2003-09-26T09:09:55Z</time>
<speed>1.7</speed>
</trkpt>
<trkpt lat="47.400485" lon="9.231089">
<ele>647.2</ele>
<time>2003-09-26T09:10:00Z</time>
<speed>0.8</speed>
</trkpt>
<trkpt lat="47.400474" lon="9.231139">
<ele>648.3</ele>
<time>2003-09-26T09:10:05Z</time>
<speed>0.3</speed>
</trkpt>
<trkpt lat="47.400458" lon="9.231194">
<ele>645.9</ele>
<time>2003-09-26T09:10:10Z</time>
<speed>0.8</speed>
</trkpt>
<trkpt lat="47.400434" lon="9.231257">
<ele>645.6</ele>
<time>2003-09-26T09:10:15Z</time>
<speed>0.3</speed>
</trkpt>
<trkpt lat="47.400423" lon="9.231242">
<ele>645.5</ele>
<time>2003-09-26T09:10:20Z</time>
<speed>0.0</speed>
</trkpt>
<trkpt lat="47.400423" lon="9.231242">
<ele>645.5</ele>
<time>2003-09-26T09:10:25Z</time>
<speed>0.0</speed>
</trkpt>
<trkpt lat="47.400395" lon="9.231264">
<ele>645.5</ele>
<time>2003-09-26T09:10:30Z</time>
<speed>0.0</speed>
</trkpt>
<trkpt lat="47.400389" lon="9.231262">
<ele>646.2</ele>
<time>2003-09-26T09:10:35Z</time>
<speed>0.0</speed>
</trkpt>
<trkpt lat="47.400382" lon="9.231259">
<ele>646.9</ele>
<time>2003-09-26T09:10:40Z</time>
<speed>0.0</speed>
</trkpt>
<trkpt lat="47.400376" lon="9.231259">
<ele>646.1</ele>
<time>2003-09-26T09:10:45Z</time>
<speed>0.0</speed>
</trkpt>
<trkpt lat="47.400361" lon="9.231283">
<ele>646.3</ele>
<time>2003-09-26T09:10:50Z</time>
<speed>0.0</speed>
</trkpt>
<trkpt lat="47.400398" lon="9.231301">
<ele>648.0</ele>
<time>2003-09-26T09:10:55Z</time>
<speed>0.6</speed>
</trkpt>
<trkpt lat="47.400415" lon="9.231331">
<ele>647.6</ele>
<time>2003-09-26T09:11:00Z</time>
<speed>0.3</speed>
</trkpt>
<trkpt lat="47.400433" lon="9.231348">
<ele>647.1</ele>
<time>2003-09-26T09:11:05Z</time>
<speed>0.6</speed>
</trkpt>
<trkpt lat="47.400419" lon="9.231440">
<ele>647.2</ele>
<time>2003-09-26T09:11:10Z</time>
<speed>0.8</speed>
</trkpt>
<trkpt lat="47.400425" lon="9.231455">
<ele>646.6</ele>
<time>2003-09-26T09:11:15Z</time>
<speed>0.3</speed>
</trkpt>
<trkpt lat="47.400429" lon="9.231483">
<ele>646.1</ele>
<time>2003-09-26T09:11:20Z</time>
<speed>0.3</speed>
</trkpt>
<trkpt lat="47.400392" lon="9.231542">
<ele>647.2</ele>
<time>2003-09-26T09:11:25Z</time>
<speed>0.3</speed>
</trkpt>
<trkpt lat="47.400415" lon="9.231573">
<ele>647.6</ele>
<time>2003-09-26T09:11:30Z</time>
<speed>0.6</speed>
</trkpt>
<trkpt lat="47.400412" lon="9.231612">
<ele>647.9</ele>
<time>2003-09-26T09:11:35Z</time>
<speed>0.3</speed>
</trkpt>
<trkpt lat="47.400414" lon="9.231664">
<ele>649.1</ele>
<time>2003-09-26T09:11:40Z</time>
<speed>0.8</speed>
</trkpt>
<trkpt lat="47.400410" lon="9.231717">
<ele>649.5</ele>
<time>2003-09-26T09:11:45Z</time>
<speed>0.6</speed>
</trkpt>
<trkpt lat="47.400425" lon="9.231758">
<ele>650.6</ele>
<time>2003-09-26T09:11:50Z</time>
<speed>0.6</speed>
</trkpt>
<trkpt lat="47.400436" lon="9.231786">
<ele>650.9</ele>
<time>2003-09-26T09:11:55Z</time>
<speed>0.3</speed>
</trkpt>
<trkpt lat="47.400439" lon="9.231828">
<ele>650.6</ele>
<time>2003-09-26T09:12:00Z</time>
<speed>0.3</speed>
</trkpt>
<trkpt lat="47.400442" lon="9.231867">
<ele>651.6</ele>
<time>2003-09-26T09:12:05Z</time>
<speed>0.6</speed>
</trkpt>
<trkpt lat="47.400477" lon="9.231915">
<ele>650.8</ele>
<time>2003-09-26T09:12:10Z</time>
<speed>0.8</speed>
</trkpt>
<trkpt lat="47.400479" lon="9.231967">
<ele>651.9</ele>
<time>2003-09-26T09:12:15Z</time>
<speed>0.6</speed>
</trkpt>
<trkpt lat="47.400517" lon="9.232054">
<ele>652.1</ele>
<time>2003-09-26T09:12:20Z</time>
<speed>0.6</speed>
</trkpt>
<trkpt lat="47.400531" lon="9.232108">
<ele>653.4</ele>
<time>2003-09-26T09:12:25Z</time>
<speed>0.6</speed>
</trkpt>
<trkpt lat="47.400534" lon="9.232148">
<ele>654.4</ele>
<time>2003-09-26T09:12:30Z</time>
<speed>0.3</speed>
</trkpt>
<trkpt lat="47.400538" lon="9.232174">
<ele>655.4</ele>
<time>2003-09-26T09:12:35Z</time>
<speed>0.6</speed>
</trkpt>
<trkpt lat="47.400573" lon="9.232219">
<ele>655.9</ele>
<time>2003-09-26T09:12:40Z</time>
<speed>0.8</speed>
</trkpt>
<trkpt lat="47.400588" lon="9.232258">
<ele>658.4</ele>
<time>2003-09-26T09:12:45Z</time>
<speed>0.6</speed>
</trkpt>
<trkpt lat="47.400596" lon="9.232313">
<ele>658.9</ele>
<time>2003-09-26T09:12:50Z</time>
<speed>0.8</speed>
</trkpt>
<trkpt lat="47.400611" lon="9.232367">
<ele>660.2</ele>
<time>2003-09-26T09:12:55Z</time>
<speed>0.6</speed>
</trkpt>
<trkpt lat="47.400613" lon="9.232420">
<ele>661.4</ele>
<time>2003-09-26T09:13:00Z</time>
<speed>0.6</speed>
</trkpt>
<trkpt lat="47.400609" lon="9.232459">
<ele>661.7</ele>
<time>2003-09-26T09:13:05Z</time>
<speed>0.6</speed>
</trkpt>
<trkpt lat="47.400604" lon="9.232522">
<ele>663.6</ele>
<time>2003-09-26T09:13:10Z</time>
<speed>0.6</speed>
</trkpt>
<trkpt lat="47.400592" lon="9.232570">
<ele>666.1</ele>
<time>2003-09-26T09:13:15Z</time>
<speed>0.6</speed>
</trkpt>
<trkpt lat="47.400589" lon="9.232607">
<ele>667.9</ele>
<time>2003-09-26T09:13:20Z</time>
<speed>0.6</speed>
</trkpt>
<trkpt lat="47.400598" lon="9.232649">
<ele>668.3</ele>
<time>2003-09-26T09:13:25Z</time>
<speed>0.6</speed>
</trkpt>
<trkpt lat="47.400601" lon="9.232688">
<ele>669.3</ele>
<time>2003-09-26T09:13:30Z</time>
<speed>0.6</speed>
</trkpt>
<trkpt lat="47.400590" lon="9.232736">
<ele>671.8</ele>
<time>2003-09-26T09:13:35Z</time>
<speed>0.6</speed>
</trkpt>
<trkpt lat="47.400592" lon="9.232790">
<ele>671.6</ele>
<time>2003-09-26T09:13:40Z</time>
<speed>0.8</speed>
</trkpt>
<trkpt lat="47.400623" lon="9.232810">
<ele>671.2</ele>
<time>2003-09-26T09:13:45Z</time>
<speed>0.0</speed>
</trkpt>
<trkpt lat="47.400662" lon="9.232803">
<ele>671.3</ele>
<time>2003-09-26T09:13:50Z</time>
<speed>0.8</speed>
</trkpt>
<trkpt lat="47.400719" lon="9.232814">
<ele>670.9</ele>
<time>2003-09-26T09:13:55Z</time>
<speed>0.8</speed>
</trkpt>
<trkpt lat="47.400711" lon="9.232840">
<ele>670.3</ele>
<time>2003-09-26T09:14:00Z</time>
<speed>0.8</speed>
</trkpt>
<trkpt lat="47.400668" lon="9.232901">
<ele>669.3</ele>
<time>2003-09-26T09:14:05Z</time>
<speed>1.1</speed>
</trkpt>
<trkpt lat="47.400651" lon="9.232951">
<ele>669.7</ele>
<time>2003-09-26T09:14:10Z</time>
<speed>0.6</speed>
</trkpt>
<trkpt lat="47.400643" lon="9.232977">
<ele>669.1</ele>
<time>2003-09-26T09:14:15Z</time>
<speed>0.3</speed>
</trkpt>
<trkpt lat="47.400600" lon="9.233036">
<ele>669.5</ele>
<time>2003-09-26T09:14:20Z</time>
<speed>0.3</speed>
</trkpt>
<trkpt lat="47.400575" lon="9.233097">
<ele>670.6</ele>
<time>2003-09-26T09:14:25Z</time>
<speed>0.8</speed>
</trkpt>
<trkpt lat="47.400567" lon="9.233124">
<ele>670.1</ele>
<time>2003-09-26T09:14:30Z</time>
<speed>0.3</speed>
</trkpt>
<trkpt lat="47.400559" lon="9.233150">
<ele>669.6</ele>
<time>2003-09-26T09:14:35Z</time>
<speed>0.3</speed>
</trkpt>
<trkpt lat="47.400545" lon="9.233161">
<ele>669.6</ele>
<time>2003-09-26T09:14:40Z</time>
<speed>0.3</speed>
</trkpt>
<trkpt lat="47.400525" lon="9.233172">
<ele>668.9</ele>
<time>2003-09-26T09:14:45Z</time>
<speed>0.6</speed>
</trkpt>
<trkpt lat="47.400493" lon="9.233180">
<ele>668.2</ele>
<time>2003-09-26T09:14:50Z</time>
<speed>0.6</speed>
</trkpt>
<trkpt lat="47.400446" lon="9.233198">
<ele>668.8</ele>
<time>2003-09-26T09:14:55Z</time>
<speed>0.8</speed>
</trkpt>
<trkpt lat="47.400416" lon="9.233179">
<ele>669.3</ele>
<time>2003-09-26T09:15:00Z</time>
<speed>0.3</speed>
</trkpt>
<trkpt lat="47.400378" lon="9.233172">
<ele>669.1</ele>
<time>2003-09-26T09:15:05Z</time>
<speed>0.6</speed>
</trkpt>
<trkpt lat="47.400338" lon="9.233177">
<ele>670.4</ele>
<time>2003-09-26T09:15:10Z</time>
<speed>0.3</speed>
</trkpt>
<trkpt lat="47.400312" lon="9.233186">
<ele>670.3</ele>
<time>2003-09-26T09:15:15Z</time>
<speed>0.3</speed>
</trkpt>
<trkpt lat="47.400278" lon="9.233205">
<ele>671.1</ele>
<time>2003-09-26T09:15:20Z</time>
<speed>0.3</speed>
</trkpt>
<trkpt lat="47.400244" lon="9.233240">
<ele>670.5</ele>
<time>2003-09-26T09:15:25Z</time>
<speed>0.6</speed>
</trkpt>
<trkpt lat="47.400213" lon="9.233221">
<ele>671.0</ele>
<time>2003-09-26T09:15:30Z</time>
<speed>0.3</speed>
</trkpt>
<trkpt lat="47.400181" lon="9.233215">
<ele>671.5</ele>
<time>2003-09-26T09:15:35Z</time>
<speed>0.6</speed>
</trkpt>
<trkpt lat="47.400149" lon="9.233208">
<ele>672.0</ele>
<time>2003-09-26T09:15:40Z</time>
<speed>0.6</speed>
</trkpt>
<trkpt lat="47.400097" lon="9.233145">
<ele>672.0</ele>
<time>2003-09-26T09:15:45Z</time>
<speed>0.8</speed>
</trkpt>
<trkpt lat="47.400057" lon="9.233069">
<ele>673.3</ele>
<time>2003-09-26T09:15:50Z</time>
<speed>1.1</speed>
</trkpt>
<trkpt lat="47.399736" lon="9.233365">
<ele>680.3</ele>
<time>2003-09-26T09:15:55Z</time>
<speed>0.8</speed>
</trkpt>
<trkpt lat="47.399623" lon="9.233409">
<ele>682.4</ele>
<time>2003-09-26T09:16:00Z</time>
<speed>0.8</speed>
</trkpt>
<trkpt lat="47.399528" lon="9.233407">
<ele>681.3</ele>
<time>2003-09-26T09:16:05Z</time>
<speed>0.8</speed>
</trkpt>
<trkpt lat="47.399481" lon="9.233425">
<ele>682.0</ele>
<time>2003-09-26T09:16:10Z</time>
<speed>0.6</speed>
</trkpt>
<trkpt lat="47.399439" lon="9.233471">
<ele>682.2</ele>
<time>2003-09-26T09:16:15Z</time>
<speed>0.8</speed>
</trkpt>
<trkpt lat="47.399386" lon="9.233488">
<ele>682.1</ele>
<time>2003-09-26T09:16:20Z</time>
<speed>0.6</speed>
</trkpt>
<trkpt lat="47.399339" lon="9.233519">
<ele>682.9</ele>
<time>2003-09-26T09:16:25Z</time>
<speed>0.6</speed>
</trkpt>
<trkpt lat="47.399280" lon="9.233535">
<ele>683.5</ele>
<time>2003-09-26T09:16:30Z</time>
<speed>0.6</speed>
</trkpt>
<trkpt lat="47.399213" lon="9.233563">
<ele>683.5</ele>
<time>2003-09-26T09:16:35Z</time>
<speed>0.6</speed>
</trkpt>
<trkpt lat="47.399153" lon="9.233592">
<ele>684.2</ele>
<time>2003-09-26T09:16:40Z</time>
<speed>1.1</speed>
</trkpt>
<trkpt lat="47.399074" lon="9.233633">
<ele>682.9</ele>
<time>2003-09-26T09:16:45Z</time>
<speed>0.8</speed>
</trkpt>
<trkpt lat="47.399025" lon="9.233679">
<ele>682.4</ele>
<time>2003-09-26T09:16:50Z</time>
<speed>0.8</speed>
</trkpt>
<trkpt lat="47.398983" lon="9.233723">
<ele>684.0</ele>
<time>2003-09-26T09:16:55Z</time>
<speed>0.6</speed>
</trkpt>
<trkpt lat="47.398958" lon="9.233800">
<ele>683.8</ele>
<time>2003-09-26T09:17:00Z</time>
<speed>0.6</speed>
</trkpt>
<trkpt lat="47.398903" lon="9.233841">
<ele>685.4</ele>
<time>2003-09-26T09:17:05Z</time>
<speed>0.6</speed>
</trkpt>
<trkpt lat="47.398855" lon="9.233874">
<ele>684.8</ele>
<time>2003-09-26T09:17:10Z</time>
<speed>0.8</speed>
</trkpt>
<trkpt lat="47.398785" lon="9.233874">
<ele>685.2</ele>
<time>2003-09-26T09:17:15Z</time>
<speed>0.8</speed>
</trkpt>
<trkpt lat="47.398741" lon="9.233853">
<ele>685.6</ele>
<time>2003-09-26T09:17:20Z</time>
<speed>0.8</speed>
</trkpt>
<trkpt lat="47.398686" lon="9.233816">
<ele>685.8</ele>
<time>2003-09-26T09:17:25Z</time>
<speed>0.8</speed>
</trkpt>
<trkpt lat="47.398631" lon="9.233777">
<ele>687.3</ele>
<time>2003-09-26T09:17:30Z</time>
<speed>0.8</speed>
</trkpt>
<trkpt lat="47.398589" lon="9.233742">
<ele>687.6</ele>
<time>2003-09-26T09:17:35Z</time>
<speed>0.6</speed>
</trkpt>
<trkpt lat="47.398548" lon="9.233695">
<ele>687.7</ele>
<time>2003-09-26T09:17:40Z</time>
<speed>0.6</speed>
</trkpt>
<trkpt lat="47.398496" lon="9.233717">
<ele>684.9</ele>
<time>2003-09-26T09:17:45Z</time>
<speed>0.6</speed>
</trkpt>
<trkpt lat="47.398420" lon="9.233719">
<ele>683.2</ele>
<time>2003-09-26T09:17:50Z</time>
<speed>0.8</speed>
</trkpt>
<trkpt lat="47.398372" lon="9.233767">
<ele>681.3</ele>
<time>2003-09-26T09:17:55Z</time>
<speed>1.1</speed>
</trkpt>
<trkpt lat="47.398315" lon="9.233872">
<ele>676.2</ele>
<time>2003-09-26T09:18:00Z</time>
<speed>1.1</speed>
</trkpt>
<trkpt lat="47.398271" lon="9.233963">
<ele>672.6</ele>
<time>2003-09-26T09:18:05Z</time>
<speed>1.1</speed>
</trkpt>
<trkpt lat="47.398221" lon="9.234022">
<ele>672.2</ele>
<time>2003-09-26T09:18:10Z</time>
<speed>0.8</speed>
</trkpt>
<trkpt lat="47.398181" lon="9.234057">
<ele>670.9</ele>
<time>2003-09-26T09:18:15Z</time>
<speed>1.1</speed>
</trkpt>
<trkpt lat="47.398138" lon="9.234116">
<ele>671.2</ele>
<time>2003-09-26T09:18:20Z</time>
<speed>1.4</speed>
</trkpt>
<trkpt lat="47.398082" lon="9.234173">
<ele>671.5</ele>
<time>2003-09-26T09:18:25Z</time>
<speed>1.4</speed>
</trkpt>
<trkpt lat="47.398033" lon="9.234232">
<ele>671.1</ele>
<time>2003-09-26T09:18:30Z</time>
<speed>1.4</speed>
</trkpt>
<trkpt lat="47.397989" lon="9.234291">
<ele>671.5</ele>
<time>2003-09-26T09:18:35Z</time>
<speed>1.4</speed>
</trkpt>
<trkpt lat="47.397934" lon="9.234348">
<ele>671.7</ele>
<time>2003-09-26T09:18:40Z</time>
<speed>1.4</speed>
</trkpt>
<trkpt lat="47.397892" lon="9.234396">
<ele>670.6</ele>
<time>2003-09-26T09:18:45Z</time>
<speed>1.1</speed>
</trkpt>
<trkpt lat="47.397848" lon="9.234468">
<ele>671.0</ele>
<time>2003-09-26T09:18:50Z</time>
<speed>1.4</speed>
</trkpt>
<trkpt lat="47.397805" lon="9.234529">
<ele>669.9</ele>
<time>2003-09-26T09:18:55Z</time>
<speed>1.1</speed>
</trkpt>
<trkpt lat="47.397773" lon="9.234603">
<ele>670.5</ele>
<time>2003-09-26T09:19:00Z</time>
<speed>1.1</speed>
</trkpt>
<trkpt lat="47.397742" lon="9.234680">
<ele>669.6</ele>
<time>2003-09-26T09:19:05Z</time>
<speed>1.1</speed>
</trkpt>
<trkpt lat="47.397704" lon="9.234754">
<ele>669.3</ele>
<time>2003-09-26T09:19:10Z</time>
<speed>1.1</speed>
</trkpt>
<trkpt lat="47.397685" lon="9.234830">
<ele>669.9</ele>
<time>2003-09-26T09:19:15Z</time>
<speed>0.8</speed>
</trkpt>
<trkpt lat="47.397655" lon="9.234891">
<ele>670.3</ele>
<time>2003-09-26T09:19:20Z</time>
<speed>0.8</speed>
</trkpt>
<trkpt lat="47.397637" lon="9.234955">
<ele>670.8</ele>
<time>2003-09-26T09:19:25Z</time>
<speed>0.8</speed>
</trkpt>
<trkpt lat="47.397639" lon="9.235007">
<ele>672.0</ele>
<time>2003-09-26T09:19:30Z</time>
<speed>0.3</speed>
</trkpt>
<trkpt lat="47.397624" lon="9.235031">
<ele>672.1</ele>
<time>2003-09-26T09:19:35Z</time>
<speed>0.6</speed>
</trkpt>
<trkpt lat="47.397621" lon="9.235070">
<ele>672.5</ele>
<time>2003-09-26T09:19:40Z</time>
<speed>0.3</speed>
</trkpt>
<trkpt lat="47.397617" lon="9.235124">
<ele>671.5</ele>
<time>2003-09-26T09:19:45Z</time>
<speed>0.6</speed>
</trkpt>
<trkpt lat="47.397601" lon="9.235162">
<ele>671.7</ele>
<time>2003-09-26T09:19:50Z</time>
<speed>0.3</speed>
</trkpt>
<trkpt lat="47.397597" lon="9.235214">
<ele>672.2</ele>
<time>2003-09-26T09:19:55Z</time>
<speed>0.6</speed>
</trkpt>
<trkpt lat="47.397616" lon="9.235299">
<ele>671.6</ele>
<time>2003-09-26T09:20:00Z</time>
<speed>0.6</speed>
</trkpt>
<trkpt lat="47.397616" lon="9.235379">
<ele>671.5</ele>
<time>2003-09-26T09:20:05Z</time>
<speed>0.6</speed>
</trkpt>
<trkpt lat="47.397612" lon="9.235429">
<ele>673.4</ele>
<time>2003-09-26T09:20:10Z</time>
<speed>0.3</speed>
</trkpt>
<trkpt lat="47.397602" lon="9.235467">
<ele>674.4</ele>
<time>2003-09-26T09:20:15Z</time>
<speed>0.3</speed>
</trkpt>
<trkpt lat="47.397598" lon="9.235504">
<ele>676.1</ele>
<time>2003-09-26T09:20:20Z</time>
<speed>0.3</speed>
</trkpt>
<trkpt lat="47.397582" lon="9.235554">
<ele>676.5</ele>
<time>2003-09-26T09:20:25Z</time>
<speed>0.3</speed>
</trkpt>
<trkpt lat="47.397573" lon="9.235578">
<ele>677.4</ele>
<time>2003-09-26T09:20:30Z</time>
<speed>0.0</speed>
</trkpt>
<trkpt lat="47.397561" lon="9.235643">
<ele>677.2</ele>
<time>2003-09-26T09:20:35Z</time>
<speed>0.3</speed>
</trkpt>
<trkpt lat="47.397551" lon="9.235695">
<ele>676.9</ele>
<time>2003-09-26T09:20:40Z</time>
<speed>0.3</speed>
</trkpt>
<trkpt lat="47.397541" lon="9.235748">
<ele>676.6</ele>
<time>2003-09-26T09:20:45Z</time>
<speed>0.8</speed>
</trkpt>
<trkpt lat="47.397524" lon="9.235800">
<ele>675.5</ele>
<time>2003-09-26T09:20:50Z</time>
<speed>0.6</speed>
</trkpt>
<trkpt lat="47.397527" lon="9.235854">
<ele>675.3</ele>
<time>2003-09-26T09:20:55Z</time>
<speed>0.3</speed>
</trkpt>
<trkpt lat="47.397504" lon="9.235905">
<ele>674.9</ele>
<time>2003-09-26T09:21:00Z</time>
<speed>0.6</speed>
</trkpt>
<trkpt lat="47.397499" lon="9.235972">
<ele>674.1</ele>
<time>2003-09-26T09:21:05Z</time>
<speed>0.6</speed>
</trkpt>
<trkpt lat="47.397503" lon="9.236081">
<ele>673.6</ele>
<time>2003-09-26T09:21:10Z</time>
<speed>0.8</speed>
</trkpt>
<trkpt lat="47.397511" lon="9.236148">
<ele>674.2</ele>
<time>2003-09-26T09:21:15Z</time>
<speed>0.6</speed>
</trkpt>
<trkpt lat="47.397504" lon="9.236227">
<ele>674.9</ele>
<time>2003-09-26T09:21:20Z</time>
<speed>0.8</speed>
</trkpt>
<trkpt lat="47.397519" lon="9.236283">
<ele>674.7</ele>
<time>2003-09-26T09:21:25Z</time>
<speed>0.8</speed>
</trkpt>
<trkpt lat="47.397514" lon="9.236349">
<ele>675.2</ele>
<time>2003-09-26T09:21:30Z</time>
<speed>0.6</speed>
</trkpt>
<trkpt lat="47.397511" lon="9.236388">
<ele>675.6</ele>
<time>2003-09-26T09:21:35Z</time>
<speed>0.6</speed>
</trkpt>
<trkpt lat="47.397505" lon="9.236451">
<ele>677.5</ele>
<time>2003-09-26T09:21:40Z</time>
<speed>0.6</speed>
</trkpt>
<trkpt lat="47.397494" lon="9.236517">
<ele>677.3</ele>
<time>2003-09-26T09:21:45Z</time>
<speed>0.6</speed>
</trkpt>
<trkpt lat="47.397487" lon="9.236593">
<ele>679.4</ele>
<time>2003-09-26T09:21:51Z</time>
<speed>0.6</speed>
</trkpt>
<trkpt lat="47.397475" lon="9.236658">
<ele>679.2</ele>
<time>2003-09-26T09:21:56Z</time>
<speed>0.6</speed>
</trkpt>
<trkpt lat="47.397457" lon="9.236722">
<ele>679.7</ele>
<time>2003-09-26T09:22:01Z</time>
<speed>0.8</speed>
</trkpt>
<trkpt lat="47.397447" lon="9.236774">
<ele>679.4</ele>
<time>2003-09-26T09:22:06Z</time>
<speed>0.6</speed>
</trkpt>
<trkpt lat="47.397449" lon="9.236828">
<ele>679.1</ele>
<time>2003-09-26T09:22:11Z</time>
<speed>0.6</speed>
</trkpt>
<trkpt lat="47.397453" lon="9.236870">
<ele>678.8</ele>
<time>2003-09-26T09:22:16Z</time>
<speed>0.3</speed>
</trkpt>
<trkpt lat="47.397449" lon="9.236907">
<ele>680.5</ele>
<time>2003-09-26T09:22:21Z</time>
<speed>0.3</speed>
</trkpt>
<trkpt lat="47.397458" lon="9.236948">
<ele>680.9</ele>
<time>2003-09-26T09:22:26Z</time>
<speed>0.3</speed>
</trkpt>
<trkpt lat="47.397481" lon="9.236992">
<ele>681.4</ele>
<time>2003-09-26T09:22:31Z</time>
<speed>0.6</speed>
</trkpt>
<trkpt lat="47.397489" lon="9.237046">
<ele>681.9</ele>
<time>2003-09-26T09:22:36Z</time>
<speed>0.6</speed>
</trkpt>
<trkpt lat="47.397514" lon="9.237131">
<ele>682.0</ele>
<time>2003-09-26T09:22:41Z</time>
<speed>0.8</speed>
</trkpt>
<trkpt lat="47.397534" lon="9.237200">
<ele>682.7</ele>
<time>2003-09-26T09:22:46Z</time>
<speed>0.8</speed>
</trkpt>
<trkpt lat="47.397554" lon="9.237270">
<ele>683.3</ele>
<time>2003-09-26T09:22:51Z</time>
<speed>0.6</speed>
</trkpt>
<trkpt lat="47.397575" lon="9.237327">
<ele>683.9</ele>
<time>2003-09-26T09:22:56Z</time>
<speed>0.8</speed>
</trkpt>
<trkpt lat="47.397596" lon="9.237381">
<ele>685.9</ele>
<time>2003-09-26T09:23:01Z</time>
<speed>0.6</speed>
</trkpt>
<trkpt lat="47.397624" lon="9.237424">
<ele>687.1</ele>
<time>2003-09-26T09:23:06Z</time>
<speed>0.3</speed>
</trkpt>
<trkpt lat="47.397646" lon="9.237468">
<ele>687.5</ele>
<time>2003-09-26T09:23:11Z</time>
<speed>0.8</speed>
</trkpt>
<trkpt lat="47.397667" lon="9.237525">
<ele>688.1</ele>
<time>2003-09-26T09:23:16Z</time>
<speed>0.8</speed>
</trkpt>
<trkpt lat="47.397692" lon="9.237607">
<ele>689.6</ele>
<time>2003-09-26T09:23:21Z</time>
<speed>0.6</speed>
</trkpt>
<trkpt lat="47.397687" lon="9.237675">
<ele>688.8</ele>
<time>2003-09-26T09:23:26Z</time>
<speed>0.6</speed>
</trkpt>
<trkpt lat="47.397677" lon="9.237727">
<ele>688.5</ele>
<time>2003-09-26T09:23:31Z</time>
<speed>0.6</speed>
</trkpt>
<trkpt lat="47.397686" lon="9.237768">
<ele>688.9</ele>
<time>2003-09-26T09:23:36Z</time>
<speed>0.6</speed>
</trkpt>
<trkpt lat="47.397688" lon="9.237823">
<ele>688.6</ele>
<time>2003-09-26T09:23:41Z</time>
<speed>0.6</speed>
</trkpt>
<trkpt lat="47.397697" lon="9.237879">
<ele>687.7</ele>
<time>2003-09-26T09:23:46Z</time>
<speed>0.6</speed>
</trkpt>
<trkpt lat="47.397705" lon="9.237947">
<ele>688.4</ele>
<time>2003-09-26T09:23:51Z</time>
<speed>0.6</speed>
</trkpt>
<trkpt lat="47.397730" lon="9.238034">
<ele>687.1</ele>
<time>2003-09-26T09:23:56Z</time>
<speed>1.1</speed>
</trkpt>
<trkpt lat="47.397726" lon="9.238084">
<ele>688.9</ele>
<time>2003-09-26T09:24:01Z</time>
<speed>0.8</speed>
</trkpt>
<trkpt lat="47.397739" lon="9.238169">
<ele>687.6</ele>
<time>2003-09-26T09:24:06Z</time>
<speed>0.6</speed>
</trkpt>
<trkpt lat="47.397754" lon="9.238225">
<ele>687.4</ele>
<time>2003-09-26T09:24:11Z</time>
<speed>0.6</speed>
</trkpt>
<trkpt lat="47.397774" lon="9.238295">
<ele>688.1</ele>
<time>2003-09-26T09:24:16Z</time>
<speed>1.1</speed>
</trkpt>
<trkpt lat="47.397788" lon="9.238365">
<ele>688.0</ele>
<time>2003-09-26T09:24:21Z</time>
<speed>0.8</speed>
</trkpt>
<trkpt lat="47.397809" lon="9.238406">
<ele>689.9</ele>
<time>2003-09-26T09:24:26Z</time>
<speed>0.6</speed>
</trkpt>
<trkpt lat="47.397837" lon="9.238465">
<ele>689.8</ele>
<time>2003-09-26T09:24:31Z</time>
<speed>0.8</speed>
</trkpt>
<trkpt lat="47.397851" lon="9.238519">
<ele>691.0</ele>
<time>2003-09-26T09:24:36Z</time>
<speed>0.6</speed>
</trkpt>
<trkpt lat="47.397860" lon="9.238573">
<ele>691.5</ele>
<time>2003-09-26T09:24:41Z</time>
<speed>0.3</speed>
</trkpt>
<trkpt lat="47.397859" lon="9.238650">
<ele>694.3</ele>
<time>2003-09-26T09:24:46Z</time>
<speed>0.3</speed>
</trkpt>
<trkpt lat="47.397843" lon="9.238685">
<ele>696.0</ele>
<time>2003-09-26T09:24:51Z</time>
<speed>0.3</speed>
</trkpt>
<trkpt lat="47.397832" lon="9.238735">
<ele>697.1</ele>
<time>2003-09-26T09:24:56Z</time>
<speed>0.6</speed>
</trkpt>
<trkpt lat="47.397854" lon="9.238778">
<ele>697.5</ele>
<time>2003-09-26T09:25:01Z</time>
<speed>0.6</speed>
</trkpt>
<trkpt lat="47.397888" lon="9.238824">
<ele>698.1</ele>
<time>2003-09-26T09:25:06Z</time>
<speed>0.8</speed>
</trkpt>
<trkpt lat="47.397928" lon="9.238898">
<ele>698.1</ele>
<time>2003-09-26T09:25:11Z</time>
<speed>0.6</speed>
</trkpt>
<trkpt lat="47.397951" lon="9.238928">
<ele>698.5</ele>
<time>2003-09-26T09:25:16Z</time>
<speed>0.3</speed>
</trkpt>
<trkpt lat="47.397992" lon="9.238976">
<ele>698.4</ele>
<time>2003-09-26T09:25:21Z</time>
<speed>0.6</speed>
</trkpt>
<trkpt lat="47.398000" lon="9.239028">
<ele>700.3</ele>
<time>2003-09-26T09:25:26Z</time>
<speed>0.3</speed>
</trkpt>
<trkpt lat="47.398015" lon="9.239070">
<ele>701.4</ele>
<time>2003-09-26T09:25:31Z</time>
<speed>0.6</speed>
</trkpt>
<trkpt lat="47.398036" lon="9.239126">
<ele>702.0</ele>
<time>2003-09-26T09:25:36Z</time>
<speed>0.8</speed>
</trkpt>
<trkpt lat="47.398084" lon="9.239176">
<ele>701.2</ele>
<time>2003-09-26T09:25:41Z</time>
<speed>0.3</speed>
</trkpt>
<trkpt lat="47.398105" lon="9.239233">
<ele>701.7</ele>
<time>2003-09-26T09:25:46Z</time>
<speed>0.8</speed>
</trkpt>
<trkpt lat="47.398145" lon="9.239291">
<ele>703.1</ele>
<time>2003-09-26T09:25:51Z</time>
<speed>0.6</speed>
</trkpt>
<trkpt lat="47.398172" lon="9.239350">
<ele>703.0</ele>
<time>2003-09-26T09:25:56Z</time>
<speed>0.8</speed>
</trkpt>
<trkpt lat="47.398199" lon="9.239406">
<ele>704.3</ele>
<time>2003-09-26T09:26:01Z</time>
<speed>0.3</speed>
</trkpt>
<trkpt lat="47.398204" lon="9.239435">
<ele>703.9</ele>
<time>2003-09-26T09:26:06Z</time>
<speed>0.3</speed>
</trkpt>
<trkpt lat="47.398189" lon="9.239459">
<ele>704.0</ele>
<time>2003-09-26T09:26:11Z</time>
<speed>0.3</speed>
</trkpt>
<trkpt lat="47.398187" lon="9.239485">
<ele>704.2</ele>
<time>2003-09-26T09:26:16Z</time>
<speed>0.3</speed>
</trkpt>
<trkpt lat="47.398179" lon="9.239511">
<ele>703.7</ele>
<time>2003-09-26T09:26:21Z</time>
<speed>0.3</speed>
</trkpt>
<trkpt lat="47.398186" lon="9.239578">
<ele>704.3</ele>
<time>2003-09-26T09:26:26Z</time>
<speed>0.3</speed>
</trkpt>
<trkpt lat="47.398195" lon="9.239635">
<ele>703.4</ele>
<time>2003-09-26T09:26:31Z</time>
<speed>0.3</speed>
</trkpt>
<trkpt lat="47.398215" lon="9.239705">
<ele>704.1</ele>
<time>2003-09-26T09:26:36Z</time>
<speed>0.0</speed>
</trkpt>
<trkpt lat="47.398224" lon="9.239761">
<ele>703.2</ele>
<time>2003-09-26T09:26:41Z</time>
<speed>0.3</speed>
</trkpt>
<trkpt lat="47.398241" lon="9.239792">
<ele>702.8</ele>
<time>2003-09-26T09:26:46Z</time>
<speed>0.3</speed>
</trkpt>
<trkpt lat="47.398263" lon="9.239835">
<ele>703.3</ele>
<time>2003-09-26T09:26:51Z</time>
<speed>0.6</speed>
</trkpt>
<trkpt lat="47.398291" lon="9.239881">
<ele>703.1</ele>
<time>2003-09-26T09:26:56Z</time>
<speed>0.3</speed>
</trkpt>
<trkpt lat="47.398314" lon="9.239909">
<ele>704.8</ele>
<time>2003-09-26T09:27:01Z</time>
<speed>0.3</speed>
</trkpt>
<trkpt lat="47.398330" lon="9.239952">
<ele>704.6</ele>
<time>2003-09-26T09:27:06Z</time>
<speed>0.3</speed>
</trkpt>
<trkpt lat="47.398347" lon="9.239983">
<ele>704.2</ele>
<time>2003-09-26T09:27:11Z</time>
<speed>0.3</speed>
</trkpt>
<trkpt lat="47.398341" lon="9.240046">
<ele>706.1</ele>
<time>2003-09-26T09:27:16Z</time>
<speed>0.6</speed>
</trkpt>
<trkpt lat="47.398362" lon="9.240118">
<ele>705.4</ele>
<time>2003-09-26T09:27:21Z</time>
<speed>0.6</speed>
</trkpt>
<trkpt lat="47.398389" lon="9.240176">
<ele>705.3</ele>
<time>2003-09-26T09:27:26Z</time>
<speed>0.8</speed>
</trkpt>
<trkpt lat="47.398417" lon="9.240235">
<ele>705.2</ele>
<time>2003-09-26T09:27:31Z</time>
<speed>0.8</speed>
</trkpt>
<trkpt lat="47.398431" lon="9.240307">
<ele>703.7</ele>
<time>2003-09-26T09:27:36Z</time>
<speed>0.6</speed>
</trkpt>
<trkpt lat="47.398440" lon="9.240363">
<ele>702.8</ele>
<time>2003-09-26T09:27:41Z</time>
<speed>0.3</speed>
</trkpt>
<trkpt lat="47.398443" lon="9.240405">
<ele>702.5</ele>
<time>2003-09-26T09:27:46Z</time>
<speed>0.0</speed>
</trkpt>
<trkpt lat="47.398441" lon="9.240431">
<ele>702.7</ele>
<time>2003-09-26T09:27:51Z</time>
<speed>0.3</speed>
</trkpt>
<trkpt lat="47.398436" lon="9.240496">
<ele>703.3</ele>
<time>2003-09-26T09:27:56Z</time>
<speed>0.6</speed>
</trkpt>
<trkpt lat="47.398435" lon="9.240590">
<ele>703.4</ele>
<time>2003-09-26T09:28:01Z</time>
<speed>0.6</speed>
</trkpt>
<trkpt lat="47.398452" lon="9.240686">
<ele>704.3</ele>
<time>2003-09-26T09:28:06Z</time>
<speed>0.8</speed>
</trkpt>
<trkpt lat="47.398480" lon="9.240744">
<ele>704.2</ele>
<time>2003-09-26T09:28:11Z</time>
<speed>0.6</speed>
</trkpt>
<trkpt lat="47.398516" lon="9.240777">
<ele>704.6</ele>
<time>2003-09-26T09:28:16Z</time>
<speed>0.8</speed>
</trkpt>
<trkpt lat="47.398532" lon="9.240820">
<ele>704.3</ele>
<time>2003-09-26T09:28:21Z</time>
<speed>0.0</speed>
</trkpt>
<trkpt lat="47.398572" lon="9.240881">
<ele>704.3</ele>
<time>2003-09-26T09:28:26Z</time>
<speed>0.8</speed>
</trkpt>
<trkpt lat="47.398621" lon="9.240918">
<ele>703.4</ele>
<time>2003-09-26T09:28:31Z</time>
<speed>0.6</speed>
</trkpt>
<trkpt lat="47.398649" lon="9.240964">
<ele>703.2</ele>
<time>2003-09-26T09:28:36Z</time>
<speed>0.6</speed>
</trkpt>
<trkpt lat="47.398677" lon="9.241007">
<ele>704.4</ele>
<time>2003-09-26T09:28:41Z</time>
<speed>0.8</speed>
</trkpt>
<trkpt lat="47.398714" lon="9.241027">
<ele>704.7</ele>
<time>2003-09-26T09:28:46Z</time>
<speed>0.6</speed>
</trkpt>
<trkpt lat="47.398735" lon="9.241100">
<ele>702.5</ele>
<time>2003-09-26T09:28:51Z</time>
<speed>0.6</speed>
</trkpt>
<trkpt lat="47.398728" lon="9.241098">
<ele>703.2</ele>
<time>2003-09-26T09:28:56Z</time>
<speed>0.0</speed>
</trkpt>
<trkpt lat="47.398752" lon="9.241129">
<ele>703.6</ele>
<time>2003-09-26T09:29:01Z</time>
<speed>0.3</speed>
</trkpt>
<trkpt lat="47.398769" lon="9.241144">
<ele>704.5</ele>
<time>2003-09-26T09:29:06Z</time>
<speed>0.3</speed>
</trkpt>
<trkpt lat="47.398811" lon="9.241194">
<ele>702.9</ele>
<time>2003-09-26T09:29:11Z</time>
<speed>0.6</speed>
</trkpt>
<trkpt lat="47.398845" lon="9.241237">
<ele>704.9</ele>
<time>2003-09-26T09:29:16Z</time>
<speed>0.6</speed>
</trkpt>
<trkpt lat="47.398853" lon="9.241292">
<ele>705.4</ele>
<time>2003-09-26T09:29:21Z</time>
<speed>0.3</speed>
</trkpt>
<trkpt lat="47.398854" lon="9.241357">
<ele>706.6</ele>
<time>2003-09-26T09:29:26Z</time>
<speed>0.3</speed>
</trkpt>
<trkpt lat="47.398855" lon="9.241425">
<ele>706.5</ele>
<time>2003-09-26T09:29:31Z</time>
<speed>0.3</speed>
</trkpt>
<trkpt lat="47.398875" lon="9.241494">
<ele>707.2</ele>
<time>2003-09-26T09:29:36Z</time>
<speed>0.6</speed>
</trkpt>
<trkpt lat="47.398891" lon="9.241538">
<ele>706.9</ele>
<time>2003-09-26T09:29:41Z</time>
<speed>0.3</speed>
</trkpt>
<trkpt lat="47.398883" lon="9.241564">
<ele>706.4</ele>
<time>2003-09-26T09:29:46Z</time>
<speed>0.0</speed>
</trkpt>
<trkpt lat="47.398888" lon="9.241592">
<ele>706.0</ele>
<time>2003-09-26T09:29:51Z</time>
<speed>0.3</speed>
</trkpt>
<trkpt lat="47.398876" lon="9.241655">
<ele>707.2</ele>
<time>2003-09-26T09:29:56Z</time>
<speed>0.3</speed>
</trkpt>
<trkpt lat="47.398878" lon="9.241710">
<ele>706.9</ele>
<time>2003-09-26T09:30:01Z</time>
<speed>0.3</speed>
</trkpt>
<trkpt lat="47.398882" lon="9.241738">
<ele>706.5</ele>
<time>2003-09-26T09:30:06Z</time>
<speed>0.0</speed>
</trkpt>
<trkpt lat="47.398892" lon="9.241781">
<ele>705.5</ele>
<time>2003-09-26T09:30:11Z</time>
<speed>0.0</speed>
</trkpt>
<trkpt lat="47.398881" lon="9.241849">
<ele>703.9</ele>
<time>2003-09-26T09:30:16Z</time>
<speed>0.6</speed>
</trkpt>
<trkpt lat="47.398884" lon="9.241903">
<ele>703.6</ele>
<time>2003-09-26T09:30:21Z</time>
<speed>0.3</speed>
</trkpt>
<trkpt lat="47.398906" lon="9.241949">
<ele>702.7</ele>
<time>2003-09-26T09:30:26Z</time>
<speed>0.3</speed>
</trkpt>
<trkpt lat="47.398944" lon="9.241957">
<ele>701.5</ele>
<time>2003-09-26T09:30:31Z</time>
<speed>0.6</speed>
</trkpt>
<trkpt lat="47.398956" lon="9.241973">
<ele>701.7</ele>
<time>2003-09-26T09:30:36Z</time>
<speed>0.3</speed>
</trkpt>
<trkpt lat="47.398987" lon="9.241994">
<ele>699.8</ele>
<time>2003-09-26T09:30:41Z</time>
<speed>0.3</speed>
</trkpt>
<trkpt lat="47.399003" lon="9.242036">
<ele>701.0</ele>
<time>2003-09-26T09:30:46Z</time>
<speed>0.3</speed>
</trkpt>
<trkpt lat="47.399019" lon="9.242079">
<ele>700.7</ele>
<time>2003-09-26T09:30:51Z</time>
<speed>0.6</speed>
</trkpt>
<trkpt lat="47.399027" lon="9.242134">
<ele>701.2</ele>
<time>2003-09-26T09:30:56Z</time>
<speed>0.6</speed>
</trkpt>
<trkpt lat="47.399022" lon="9.242184">
<ele>703.0</ele>
<time>2003-09-26T09:31:01Z</time>
<speed>0.3</speed>
</trkpt>
<trkpt lat="47.399013" lon="9.242221">
<ele>704.0</ele>
<time>2003-09-26T09:31:06Z</time>
<speed>0.6</speed>
</trkpt>
<trkpt lat="47.399015" lon="9.242275">
<ele>703.8</ele>
<time>2003-09-26T09:31:11Z</time>
<speed>0.6</speed>
</trkpt>
<trkpt lat="47.399023" lon="9.242330">
<ele>704.3</ele>
<time>2003-09-26T09:31:16Z</time>
<speed>0.3</speed>
</trkpt>
<trkpt lat="47.399046" lon="9.242360">
<ele>704.7</ele>
<time>2003-09-26T09:31:21Z</time>
<speed>0.3</speed>
</trkpt>
<trkpt lat="47.399055" lon="9.242417">
<ele>703.8</ele>
<time>2003-09-26T09:31:26Z</time>
<speed>0.6</speed>
</trkpt>
<trkpt lat="47.399102" lon="9.242482">
<ele>701.7</ele>
<time>2003-09-26T09:31:31Z</time>
<speed>0.6</speed>
</trkpt>
<trkpt lat="47.399124" lon="9.242540">
<ele>700.8</ele>
<time>2003-09-26T09:31:36Z</time>
<speed>0.3</speed>
</trkpt>
<trkpt lat="47.399133" lon="9.242582">
<ele>701.2</ele>
<time>2003-09-26T09:31:41Z</time>
<speed>0.3</speed>
</trkpt>
<trkpt lat="47.399157" lon="9.242599">
<ele>701.5</ele>
<time>2003-09-26T09:31:46Z</time>
<speed>0.3</speed>
</trkpt>
<trkpt lat="47.399173" lon="9.242642">
<ele>701.2</ele>
<time>2003-09-26T09:31:51Z</time>
<speed>0.8</speed>
</trkpt>
<trkpt lat="47.399199" lon="9.242727">
<ele>701.3</ele>
<time>2003-09-26T09:31:56Z</time>
<speed>0.3</speed>
</trkpt>
<trkpt lat="47.399213" lon="9.242780">
<ele>704.0</ele>
<time>2003-09-26T09:32:01Z</time>
<speed>0.6</speed>
</trkpt>
<trkpt lat="47.399214" lon="9.242830">
<ele>706.5</ele>
<time>2003-09-26T09:32:06Z</time>
<speed>0.3</speed>
</trkpt>
<trkpt lat="47.399223" lon="9.242869">
<ele>708.3</ele>
<time>2003-09-26T09:32:11Z</time>
<speed>0.3</speed>
</trkpt>
<trkpt lat="47.399229" lon="9.242932">
<ele>711.7</ele>
<time>2003-09-26T09:32:16Z</time>
<speed>0.3</speed>
</trkpt>
<trkpt lat="47.399244" lon="9.242987">
<ele>713.0</ele>
<time>2003-09-26T09:32:21Z</time>
<speed>0.6</speed>
</trkpt>
<trkpt lat="47.399279" lon="9.243034">
<ele>712.1</ele>
<time>2003-09-26T09:32:26Z</time>
<speed>0.6</speed>
</trkpt>
<trkpt lat="47.399313" lon="9.243095">
<ele>711.3</ele>
<time>2003-09-26T09:32:31Z</time>
<speed>0.6</speed>
</trkpt>
<trkpt lat="47.399336" lon="9.243126">
<ele>711.7</ele>
<time>2003-09-26T09:32:36Z</time>
<speed>0.6</speed>
</trkpt>
<trkpt lat="47.399370" lon="9.243169">
<ele>713.6</ele>
<time>2003-09-26T09:32:41Z</time>
<speed>0.8</speed>
</trkpt>
<trkpt lat="47.399405" lon="9.243215">
<ele>714.2</ele>
<time>2003-09-26T09:32:46Z</time>
<speed>0.8</speed>
</trkpt>
<trkpt lat="47.399435" lon="9.243247">
<ele>713.9</ele>
<time>2003-09-26T09:32:51Z</time>
<speed>0.3</speed>
</trkpt>
<trkpt lat="47.399476" lon="9.243293">
<ele>715.1</ele>
<time>2003-09-26T09:32:56Z</time>
<speed>0.8</speed>
</trkpt>
<trkpt lat="47.399497" lon="9.243349">
<ele>715.7</ele>
<time>2003-09-26T09:33:01Z</time>
<speed>0.3</speed>
</trkpt>
<trkpt lat="47.399522" lon="9.243434">
<ele>715.8</ele>
<time>2003-09-26T09:33:06Z</time>
<speed>0.8</speed>
</trkpt>
<trkpt lat="47.399556" lon="9.243493">
<ele>716.4</ele>
<time>2003-09-26T09:33:11Z</time>
<speed>0.8</speed>
</trkpt>
<trkpt lat="47.399578" lon="9.243538">
<ele>715.5</ele>
<time>2003-09-26T09:33:16Z</time>
<speed>0.3</speed>
</trkpt>
<trkpt lat="47.399601" lon="9.243584">
<ele>714.6</ele>
<time>2003-09-26T09:33:21Z</time>
<speed>0.8</speed>
</trkpt>
<trkpt lat="47.399623" lon="9.243628">
<ele>715.0</ele>
<time>2003-09-26T09:33:26Z</time>
<speed>0.6</speed>
</trkpt>
<trkpt lat="47.399625" lon="9.243682">
<ele>714.8</ele>
<time>2003-09-26T09:33:31Z</time>
<speed>0.6</speed>
</trkpt>
<trkpt lat="47.399652" lon="9.243741">
<ele>714.7</ele>
<time>2003-09-26T09:33:36Z</time>
<speed>0.3</speed>
</trkpt>
<trkpt lat="47.399655" lon="9.243795">
<ele>714.5</ele>
<time>2003-09-26T09:33:41Z</time>
<speed>0.8</speed>
</trkpt>
<trkpt lat="47.399692" lon="9.243895">
<ele>714.8</ele>
<time>2003-09-26T09:33:47Z</time>
<speed>0.8</speed>
</trkpt>
<trkpt lat="47.399716" lon="9.243993">
<ele>715.0</ele>
<time>2003-09-26T09:33:52Z</time>
<speed>0.8</speed>
</trkpt>
<trkpt lat="47.399744" lon="9.244052">
<ele>714.9</ele>
<time>2003-09-26T09:33:57Z</time>
<speed>0.6</speed>
</trkpt>
<trkpt lat="47.399759" lon="9.244093">
<ele>716.0</ele>
<time>2003-09-26T09:34:02Z</time>
<speed>0.3</speed>
</trkpt>
<trkpt lat="47.399782" lon="9.244123">
<ele>716.4</ele>
<time>2003-09-26T09:34:07Z</time>
<speed>0.0</speed>
</trkpt>
<trkpt lat="47.399782" lon="9.244123">
<ele>716.4</ele>
<time>2003-09-26T09:34:12Z</time>
<speed>0.0</speed>
</trkpt>
<trkpt lat="47.399780" lon="9.244147">
<ele>718.0</ele>
<time>2003-09-26T09:34:17Z</time>
<speed>0.0</speed>
</trkpt>
<trkpt lat="47.399780" lon="9.244147">
<ele>718.0</ele>
<time>2003-09-26T09:34:22Z</time>
<speed>0.0</speed>
</trkpt>
<trkpt lat="47.399773" lon="9.244145">
<ele>718.7</ele>
<time>2003-09-26T09:34:27Z</time>
<speed>0.0</speed>
</trkpt>
<trkpt lat="47.399776" lon="9.244187">
<ele>718.3</ele>
<time>2003-09-26T09:34:32Z</time>
<speed>0.3</speed>
</trkpt>
<trkpt lat="47.399788" lon="9.244202">
<ele>718.5</ele>
<time>2003-09-26T09:34:37Z</time>
<speed>0.0</speed>
</trkpt>
<trkpt lat="47.399794" lon="9.244204">
<ele>717.8</ele>
<time>2003-09-26T09:34:42Z</time>
<speed>0.0</speed>
</trkpt>
<trkpt lat="47.399794" lon="9.244204">
<ele>717.8</ele>
<time>2003-09-26T09:34:47Z</time>
<speed>0.0</speed>
</trkpt>
<trkpt lat="47.399801" lon="9.244204">
<ele>718.6</ele>
<time>2003-09-26T09:34:52Z</time>
<speed>0.0</speed>
</trkpt>
<trkpt lat="47.399825" lon="9.244221">
<ele>718.8</ele>
<time>2003-09-26T09:34:57Z</time>
<speed>0.0</speed>
</trkpt>
<trkpt lat="47.399825" lon="9.244221">
<ele>718.8</ele>
<time>2003-09-26T09:35:02Z</time>
<speed>0.0</speed>
</trkpt>
<trkpt lat="47.399846" lon="9.244199">
<ele>718.0</ele>
<time>2003-09-26T09:35:07Z</time>
<speed>0.0</speed>
</trkpt>
<trkpt lat="47.399846" lon="9.244199">
<ele>718.0</ele>
<time>2003-09-26T09:35:12Z</time>
<speed>0.3</speed>
</trkpt>
<trkpt lat="47.399839" lon="9.244197">
<ele>718.7</ele>
<time>2003-09-26T09:35:17Z</time>
<speed>0.0</speed>
</trkpt>
<trkpt lat="47.399834" lon="9.244184">
<ele>717.8</ele>
<time>2003-09-26T09:35:22Z</time>
<speed>0.0</speed>
</trkpt>
<trkpt lat="47.399828" lon="9.244182">
<ele>718.5</ele>
<time>2003-09-26T09:35:27Z</time>
<speed>0.0</speed>
</trkpt>
<trkpt lat="47.399828" lon="9.244182">
<ele>718.5</ele>
<time>2003-09-26T09:35:32Z</time>
<speed>0.0</speed>
</trkpt>
<trkpt lat="47.399828" lon="9.244182">
<ele>718.5</ele>
<time>2003-09-26T09:35:37Z</time>
<speed>0.0</speed>
</trkpt>
<trkpt lat="47.399828" lon="9.244182">
<ele>718.5</ele>
<time>2003-09-26T09:35:42Z</time>
<speed>0.0</speed>
</trkpt>
<trkpt lat="47.399833" lon="9.244195">
<ele>719.3</ele>
<time>2003-09-26T09:35:47Z</time>
<speed>0.3</speed>
</trkpt>
<trkpt lat="47.399836" lon="9.244234">
<ele>720.4</ele>
<time>2003-09-26T09:35:52Z</time>
<speed>0.6</speed>
</trkpt>
<trkpt lat="47.399865" lon="9.244282">
<ele>718.8</ele>
<time>2003-09-26T09:35:57Z</time>
<speed>0.0</speed>
</trkpt>
<trkpt lat="47.399861" lon="9.244334">
<ele>719.2</ele>
<time>2003-09-26T09:36:02Z</time>
<speed>0.6</speed>
</trkpt>
<trkpt lat="47.399856" lon="9.244387">
<ele>719.7</ele>
<time>2003-09-26T09:36:07Z</time>
<speed>0.6</speed>
</trkpt>
<trkpt lat="47.399852" lon="9.244439">
<ele>720.1</ele>
<time>2003-09-26T09:36:12Z</time>
<speed>0.3</speed>
</trkpt>
<trkpt lat="47.399860" lon="9.244493">
<ele>720.6</ele>
<time>2003-09-26T09:36:17Z</time>
<speed>0.8</speed>
</trkpt>
<trkpt lat="47.399870" lon="9.244537">
<ele>719.6</ele>
<time>2003-09-26T09:36:22Z</time>
<speed>0.6</speed>
</trkpt>
<trkpt lat="47.399877" lon="9.244617">
<ele>720.3</ele>
<time>2003-09-26T09:36:27Z</time>
<speed>0.3</speed>
</trkpt>
<trkpt lat="47.399889" lon="9.244700">
<ele>720.4</ele>
<time>2003-09-26T09:36:32Z</time>
<speed>0.8</speed>
</trkpt>
<trkpt lat="47.399922" lon="9.244774">
<ele>719.7</ele>
<time>2003-09-26T09:36:37Z</time>
<speed>0.6</speed>
</trkpt>
<trkpt lat="47.399936" lon="9.244859">
<ele>718.3</ele>
<time>2003-09-26T09:36:42Z</time>
<speed>0.6</speed>
</trkpt>
<trkpt lat="47.399945" lon="9.244902">
<ele>717.3</ele>
<time>2003-09-26T09:36:47Z</time>
<speed>0.6</speed>
</trkpt>
<trkpt lat="47.399954" lon="9.244957">
<ele>717.8</ele>
<time>2003-09-26T09:36:52Z</time>
<speed>0.3</speed>
</trkpt>
<trkpt lat="47.399963" lon="9.244998">
<ele>718.2</ele>
<time>2003-09-26T09:36:57Z</time>
<speed>0.3</speed>
</trkpt>
<trkpt lat="47.399939" lon="9.245061">
<ele>718.0</ele>
<time>2003-09-26T09:37:02Z</time>
<speed>0.8</speed>
</trkpt>
<trkpt lat="47.399922" lon="9.245129">
<ele>715.6</ele>
<time>2003-09-26T09:37:07Z</time>
<speed>0.8</speed>
</trkpt>
<trkpt lat="47.399905" lon="9.245194">
<ele>714.7</ele>
<time>2003-09-26T09:37:12Z</time>
<speed>0.8</speed>
</trkpt>
<trkpt lat="47.399899" lon="9.245260">
<ele>715.3</ele>
<time>2003-09-26T09:37:17Z</time>
<speed>0.6</speed>
</trkpt>
<trkpt lat="47.399882" lon="9.245325">
<ele>714.3</ele>
<time>2003-09-26T09:37:22Z</time>
<speed>0.6</speed>
</trkpt>
<trkpt lat="47.399896" lon="9.245395">
<ele>714.3</ele>
<time>2003-09-26T09:37:27Z</time>
<speed>0.6</speed>
</trkpt>
<trkpt lat="47.399900" lon="9.245438">
<ele>712.5</ele>
<time>2003-09-26T09:37:32Z</time>
<speed>0.6</speed>
</trkpt>
<trkpt lat="47.399895" lon="9.245490">
<ele>713.0</ele>
<time>2003-09-26T09:37:37Z</time>
<speed>0.6</speed>
</trkpt>
<trkpt lat="47.399895" lon="9.245586">
<ele>711.6</ele>
<time>2003-09-26T09:37:42Z</time>
<speed>0.6</speed>
</trkpt>
<trkpt lat="47.399922" lon="9.245645">
<ele>711.6</ele>
<time>2003-09-26T09:37:47Z</time>
<speed>0.6</speed>
</trkpt>
<trkpt lat="47.399917" lon="9.245712">
<ele>710.7</ele>
<time>2003-09-26T09:37:52Z</time>
<speed>0.6</speed>
</trkpt>
<trkpt lat="47.399913" lon="9.245765">
<ele>711.1</ele>
<time>2003-09-26T09:37:57Z</time>
<speed>0.6</speed>
</trkpt>
<trkpt lat="47.399904" lon="9.245804">
<ele>710.7</ele>
<time>2003-09-26T09:38:02Z</time>
<speed>0.6</speed>
</trkpt>
<trkpt lat="47.399888" lon="9.245841">
<ele>711.0</ele>
<time>2003-09-26T09:38:07Z</time>
<speed>0.3</speed>
</trkpt>
<trkpt lat="47.399879" lon="9.245880">
<ele>710.6</ele>
<time>2003-09-26T09:38:12Z</time>
<speed>0.6</speed>
</trkpt>
<trkpt lat="47.399873" lon="9.245943">
<ele>712.5</ele>
<time>2003-09-26T09:38:17Z</time>
<speed>0.3</speed>
</trkpt>
<trkpt lat="47.399879" lon="9.246039">
<ele>711.9</ele>
<time>2003-09-26T09:38:22Z</time>
<speed>0.8</speed>
</trkpt>
<trkpt lat="47.399874" lon="9.246091">
<ele>712.4</ele>
<time>2003-09-26T09:38:27Z</time>
<speed>0.3</speed>
</trkpt>
<trkpt lat="47.399871" lon="9.246129">
<ele>714.1</ele>
<time>2003-09-26T09:38:32Z</time>
<speed>0.3</speed>
</trkpt>
<trkpt lat="47.399867" lon="9.246166">
<ele>715.8</ele>
<time>2003-09-26T09:38:37Z</time>
<speed>0.3</speed>
</trkpt>
<trkpt lat="47.399856" lon="9.246216">
<ele>716.9</ele>
<time>2003-09-26T09:38:42Z</time>
<speed>0.6</speed>
</trkpt>
<trkpt lat="47.399859" lon="9.246253">
<ele>719.4</ele>
<time>2003-09-26T09:38:47Z</time>
<speed>0.3</speed>
</trkpt>
<trkpt lat="47.399861" lon="9.246305">
<ele>720.6</ele>
<time>2003-09-26T09:38:52Z</time>
<speed>0.3</speed>
</trkpt>
<trkpt lat="47.399863" lon="9.246360">
<ele>720.3</ele>
<time>2003-09-26T09:38:57Z</time>
<speed>0.3</speed>
</trkpt>
<trkpt lat="47.399841" lon="9.246395">
<ele>721.3</ele>
<time>2003-09-26T09:39:02Z</time>
<speed>0.3</speed>
</trkpt>
<trkpt lat="47.399823" lon="9.246443">
<ele>723.0</ele>
<time>2003-09-26T09:39:07Z</time>
<speed>0.6</speed>
</trkpt>
<trkpt lat="47.399816" lon="9.246534">
<ele>723.8</ele>
<time>2003-09-26T09:39:12Z</time>
<speed>0.6</speed>
</trkpt>
<trkpt lat="47.399820" lon="9.246641">
<ele>724.7</ele>
<time>2003-09-26T09:39:17Z</time>
<speed>0.6</speed>
</trkpt>
<trkpt lat="47.399820" lon="9.246721">
<ele>724.7</ele>
<time>2003-09-26T09:39:22Z</time>
<speed>0.3</speed>
</trkpt>
<trkpt lat="47.399823" lon="9.246763">
<ele>724.4</ele>
<time>2003-09-26T09:39:27Z</time>
<speed>0.3</speed>
</trkpt>
<trkpt lat="47.399813" lon="9.246813">
<ele>725.5</ele>
<time>2003-09-26T09:39:32Z</time>
<speed>0.6</speed>
</trkpt>
<trkpt lat="47.399808" lon="9.246863">
<ele>727.3</ele>
<time>2003-09-26T09:39:37Z</time>
<speed>0.3</speed>
</trkpt>
<trkpt lat="47.399817" lon="9.246920">
<ele>726.4</ele>
<time>2003-09-26T09:39:42Z</time>
<speed>0.8</speed>
</trkpt>
<trkpt lat="47.399849" lon="9.247007">
<ele>725.9</ele>
<time>2003-09-26T09:39:47Z</time>
<speed>0.6</speed>
</trkpt>
<trkpt lat="47.399882" lon="9.247065">
<ele>726.5</ele>
<time>2003-09-26T09:39:52Z</time>
<speed>0.6</speed>
</trkpt>
<trkpt lat="47.399916" lon="9.247124">
<ele>727.2</ele>
<time>2003-09-26T09:39:57Z</time>
<speed>0.3</speed>
</trkpt>
<trkpt lat="47.399922" lon="9.247220">
<ele>726.6</ele>
<time>2003-09-26T09:40:02Z</time>
<speed>0.8</speed>
</trkpt>
<trkpt lat="47.399958" lon="9.247335">
<ele>725.6</ele>
<time>2003-09-26T09:40:08Z</time>
<speed>0.8</speed>
</trkpt>
<trkpt lat="47.399959" lon="9.247402">
<ele>725.5</ele>
<time>2003-09-26T09:40:13Z</time>
<speed>0.6</speed>
</trkpt>
<trkpt lat="47.399959" lon="9.247481">
<ele>726.8</ele>
<time>2003-09-26T09:40:18Z</time>
<speed>0.3</speed>
</trkpt>
<trkpt lat="47.399954" lon="9.247531">
<ele>728.7</ele>
<time>2003-09-26T09:40:23Z</time>
<speed>0.3</speed>
</trkpt>
<trkpt lat="47.399945" lon="9.247553">
<ele>731.0</ele>
<time>2003-09-26T09:40:28Z</time>
<speed>0.0</speed>
</trkpt>
<trkpt lat="47.399957" lon="9.247634">
<ele>732.4</ele>
<time>2003-09-26T09:40:33Z</time>
<speed>0.6</speed>
</trkpt>
<trkpt lat="47.399978" lon="9.247690">
<ele>733.0</ele>
<time>2003-09-26T09:40:38Z</time>
<speed>0.6</speed>
</trkpt>
<trkpt lat="47.399999" lon="9.247747">
<ele>733.6</ele>
<time>2003-09-26T09:40:43Z</time>
<speed>0.3</speed>
</trkpt>
<trkpt lat="47.400032" lon="9.247818">
<ele>734.3</ele>
<time>2003-09-26T09:40:48Z</time>
<speed>0.6</speed>
</trkpt>
<trkpt lat="47.400055" lon="9.247849">
<ele>734.7</ele>
<time>2003-09-26T09:40:53Z</time>
<speed>0.6</speed>
</trkpt>
<trkpt lat="47.400076" lon="9.247908">
<ele>733.8</ele>
<time>2003-09-26T09:40:58Z</time>
<speed>0.6</speed>
</trkpt>
<trkpt lat="47.400084" lon="9.247975">
<ele>734.5</ele>
<time>2003-09-26T09:41:03Z</time>
<speed>0.6</speed>
</trkpt>
<trkpt lat="47.400079" lon="9.248042">
<ele>733.6</ele>
<time>2003-09-26T09:41:08Z</time>
<speed>0.8</speed>
</trkpt>
<trkpt lat="47.400079" lon="9.248123">
<ele>733.6</ele>
<time>2003-09-26T09:41:13Z</time>
<speed>0.6</speed>
</trkpt>
<trkpt lat="47.400082" lon="9.248164">
<ele>733.2</ele>
<time>2003-09-26T09:41:18Z</time>
<speed>0.3</speed>
</trkpt>
<trkpt lat="47.400085" lon="9.248219">
<ele>733.0</ele>
<time>2003-09-26T09:41:23Z</time>
<speed>0.6</speed>
</trkpt>
<trkpt lat="47.400079" lon="9.248299">
<ele>732.3</ele>
<time>2003-09-26T09:41:28Z</time>
<speed>0.6</speed>
</trkpt>
<trkpt lat="47.400086" lon="9.248369">
<ele>731.5</ele>
<time>2003-09-26T09:41:33Z</time>
<speed>0.6</speed>
</trkpt>
<trkpt lat="47.400094" lon="9.248437">
<ele>732.1</ele>
<time>2003-09-26T09:41:38Z</time>
<speed>0.6</speed>
</trkpt>
<trkpt lat="47.400121" lon="9.248495">
<ele>732.0</ele>
<time>2003-09-26T09:41:43Z</time>
<speed>0.6</speed>
</trkpt>
<trkpt lat="47.400156" lon="9.248543">
<ele>731.1</ele>
<time>2003-09-26T09:41:48Z</time>
<speed>0.6</speed>
</trkpt>
<trkpt lat="47.400191" lon="9.248591">
<ele>730.2</ele>
<time>2003-09-26T09:41:53Z</time>
<speed>0.3</speed>
</trkpt>
<trkpt lat="47.400210" lon="9.248608">
<ele>729.7</ele>
<time>2003-09-26T09:41:58Z</time>
<speed>0.0</speed>
</trkpt>
<trkpt lat="47.400241" lon="9.248614">
<ele>729.2</ele>
<time>2003-09-26T09:42:03Z</time>
<speed>0.3</speed>
</trkpt>
<trkpt lat="47.400277" lon="9.248647">
<ele>729.6</ele>
<time>2003-09-26T09:42:08Z</time>
<speed>0.3</speed>
</trkpt>
<trkpt lat="47.400306" lon="9.248693">
<ele>729.4</ele>
<time>2003-09-26T09:42:13Z</time>
<speed>0.3</speed>
</trkpt>
<trkpt lat="47.400314" lon="9.248747">
<ele>729.9</ele>
<time>2003-09-26T09:42:18Z</time>
<speed>0.6</speed>
</trkpt>
<trkpt lat="47.400320" lon="9.248828">
<ele>730.6</ele>
<time>2003-09-26T09:42:23Z</time>
<speed>0.3</speed>
</trkpt>
<trkpt lat="47.400352" lon="9.248915">
<ele>730.1</ele>
<time>2003-09-26T09:42:28Z</time>
<speed>1.1</speed>
</trkpt>
<trkpt lat="47.400376" lon="9.249010">
<ele>731.7</ele>
<time>2003-09-26T09:42:33Z</time>
<speed>1.1</speed>
</trkpt>
<trkpt lat="47.400401" lon="9.249095">
<ele>731.9</ele>
<time>2003-09-26T09:42:38Z</time>
<speed>0.8</speed>
</trkpt>
<trkpt lat="47.400421" lon="9.249163">
<ele>733.9</ele>
<time>2003-09-26T09:42:43Z</time>
<speed>0.6</speed>
</trkpt>
<trkpt lat="47.400442" lon="9.249221">
<ele>733.1</ele>
<time>2003-09-26T09:42:48Z</time>
<speed>0.6</speed>
</trkpt>
<trkpt lat="47.400451" lon="9.249278">
<ele>732.2</ele>
<time>2003-09-26T09:42:53Z</time>
<speed>0.3</speed>
</trkpt>
<trkpt lat="47.400473" lon="9.249321">
<ele>732.7</ele>
<time>2003-09-26T09:42:58Z</time>
<speed>0.8</speed>
</trkpt>
<trkpt lat="47.400503" lon="9.249354">
<ele>732.3</ele>
<time>2003-09-26T09:43:03Z</time>
<speed>0.6</speed>
</trkpt>
<trkpt lat="47.400538" lon="9.249399">
<ele>732.9</ele>
<time>2003-09-26T09:43:08Z</time>
<speed>0.6</speed>
</trkpt>
<trkpt lat="47.400578" lon="9.249460">
<ele>732.9</ele>
<time>2003-09-26T09:43:13Z</time>
<speed>0.6</speed>
</trkpt>
<trkpt lat="47.400630" lon="9.249556">
<ele>728.9</ele>
<time>2003-09-26T09:43:18Z</time>
<speed>0.8</speed>
</trkpt>
<trkpt lat="47.400658" lon="9.249617">
<ele>727.4</ele>
<time>2003-09-26T09:43:23Z</time>
<speed>0.6</speed>
</trkpt>
<trkpt lat="47.400675" lon="9.249647">
<ele>727.0</ele>
<time>2003-09-26T09:43:28Z</time>
<speed>0.8</speed>
</trkpt>
<trkpt lat="47.400703" lon="9.249708">
<ele>725.5</ele>
<time>2003-09-26T09:43:33Z</time>
<speed>0.6</speed>
</trkpt>
<trkpt lat="47.400743" lon="9.249771">
<ele>724.1</ele>
<time>2003-09-26T09:43:38Z</time>
<speed>0.3</speed>
</trkpt>
<trkpt lat="47.400770" lon="9.249842">
<ele>724.1</ele>
<time>2003-09-26T09:43:43Z</time>
<speed>0.3</speed>
</trkpt>
<trkpt lat="47.400799" lon="9.249873">
<ele>725.2</ele>
<time>2003-09-26T09:43:48Z</time>
<speed>0.8</speed>
</trkpt>
<trkpt lat="47.400820" lon="9.249914">
<ele>727.0</ele>
<time>2003-09-26T09:43:53Z</time>
<speed>0.3</speed>
</trkpt>
<trkpt lat="47.400862" lon="9.249962">
<ele>726.9</ele>
<time>2003-09-26T09:43:58Z</time>
<speed>0.8</speed>
</trkpt>
<trkpt lat="47.400894" lon="9.250032">
<ele>729.1</ele>
<time>2003-09-26T09:44:03Z</time>
<speed>0.8</speed>
</trkpt>
<trkpt lat="47.400947" lon="9.250079">
<ele>730.4</ele>
<time>2003-09-26T09:44:08Z</time>
<speed>0.8</speed>
</trkpt>
<trkpt lat="47.400974" lon="9.250134">
<ele>733.1</ele>
<time>2003-09-26T09:44:13Z</time>
<speed>0.6</speed>
</trkpt>
<trkpt lat="47.400988" lon="9.250188">
<ele>734.3</ele>
<time>2003-09-26T09:44:18Z</time>
<speed>0.6</speed>
</trkpt>
<trkpt lat="47.401019" lon="9.250271">
<ele>736.6</ele>
<time>2003-09-26T09:44:23Z</time>
<speed>0.8</speed>
</trkpt>
<trkpt lat="47.401041" lon="9.250330">
<ele>735.8</ele>
<time>2003-09-26T09:44:28Z</time>
<speed>0.8</speed>
</trkpt>
<trkpt lat="47.401069" lon="9.250375">
<ele>735.6</ele>
<time>2003-09-26T09:44:33Z</time>
<speed>0.6</speed>
</trkpt>
<trkpt lat="47.401091" lon="9.250434">
<ele>734.7</ele>
<time>2003-09-26T09:44:38Z</time>
<speed>0.6</speed>
</trkpt>
<trkpt lat="47.401111" lon="9.250503">
<ele>735.4</ele>
<time>2003-09-26T09:44:43Z</time>
<speed>0.8</speed>
</trkpt>
<trkpt lat="47.401133" lon="9.250547">
<ele>735.9</ele>
<time>2003-09-26T09:44:48Z</time>
<speed>0.6</speed>
</trkpt>
<trkpt lat="47.401150" lon="9.250577">
<ele>735.5</ele>
<time>2003-09-26T09:44:53Z</time>
<speed>0.3</speed>
</trkpt>
<trkpt lat="47.401153" lon="9.250619">
<ele>735.2</ele>
<time>2003-09-26T09:44:58Z</time>
<speed>0.6</speed>
</trkpt>
<trkpt lat="47.401153" lon="9.250697">
<ele>736.5</ele>
<time>2003-09-26T09:45:03Z</time>
<speed>0.6</speed>
</trkpt>
<trkpt lat="47.401150" lon="9.250741">
<ele>734.1</ele>
<time>2003-09-26T09:45:08Z</time>
<speed>0.8</speed>
</trkpt>
<trkpt lat="47.401142" lon="9.250784">
<ele>730.8</ele>
<time>2003-09-26T09:45:13Z</time>
<speed>0.6</speed>
</trkpt>
<trkpt lat="47.401133" lon="9.250823">
<ele>730.4</ele>
<time>2003-09-26T09:45:18Z</time>
<speed>0.6</speed>
</trkpt>
<trkpt lat="47.401128" lon="9.250891">
<ele>729.6</ele>
<time>2003-09-26T09:45:23Z</time>
<speed>0.6</speed>
</trkpt>
<trkpt lat="47.401148" lon="9.250963">
<ele>728.9</ele>
<time>2003-09-26T09:45:28Z</time>
<speed>0.8</speed>
</trkpt>
<trkpt lat="47.401162" lon="9.251032">
<ele>728.8</ele>
<time>2003-09-26T09:45:33Z</time>
<speed>0.8</speed>
</trkpt>
<trkpt lat="47.401202" lon="9.251093">
<ele>728.8</ele>
<time>2003-09-26T09:45:38Z</time>
<speed>0.8</speed>
</trkpt>
<trkpt lat="47.401251" lon="9.251130">
<ele>727.9</ele>
<time>2003-09-26T09:45:43Z</time>
<speed>0.8</speed>
</trkpt>
<trkpt lat="47.401287" lon="9.251162">
<ele>728.3</ele>
<time>2003-09-26T09:45:48Z</time>
<speed>0.6</speed>
</trkpt>
<trkpt lat="47.401337" lon="9.251186">
<ele>727.3</ele>
<time>2003-09-26T09:45:53Z</time>
<speed>0.6</speed>
</trkpt>
<trkpt lat="47.401386" lon="9.251225">
<ele>724.9</ele>
<time>2003-09-26T09:45:58Z</time>
<speed>0.8</speed>
</trkpt>
<trkpt lat="47.401433" lon="9.251273">
<ele>725.5</ele>
<time>2003-09-26T09:46:03Z</time>
<speed>0.8</speed>
</trkpt>
<trkpt lat="47.401481" lon="9.251323">
<ele>724.7</ele>
<time>2003-09-26T09:46:08Z</time>
<speed>0.8</speed>
</trkpt>
<trkpt lat="47.401510" lon="9.251368">
<ele>724.5</ele>
<time>2003-09-26T09:46:13Z</time>
<speed>0.8</speed>
</trkpt>
<trkpt lat="47.401532" lon="9.251412">
<ele>725.0</ele>
<time>2003-09-26T09:46:18Z</time>
<speed>0.6</speed>
</trkpt>
<trkpt lat="47.401544" lon="9.251414">
<ele>725.1</ele>
<time>2003-09-26T09:46:23Z</time>
<speed>0.0</speed>
</trkpt>
<trkpt lat="47.401551" lon="9.251416">
<ele>724.4</ele>
<time>2003-09-26T09:46:28Z</time>
<speed>0.0</speed>
</trkpt>
<trkpt lat="47.401563" lon="9.251418">
<ele>724.5</ele>
<time>2003-09-26T09:46:33Z</time>
<speed>0.3</speed>
</trkpt>
<trkpt lat="47.401575" lon="9.251433">
<ele>724.6</ele>
<time>2003-09-26T09:46:38Z</time>
<speed>0.0</speed>
</trkpt>
<trkpt lat="47.401575" lon="9.251433">
<ele>724.6</ele>
<time>2003-09-26T09:46:43Z</time>
<speed>0.0</speed>
</trkpt>
<trkpt lat="47.401575" lon="9.251433">
<ele>724.6</ele>
<time>2003-09-26T09:46:48Z</time>
<speed>0.0</speed>
</trkpt>
<trkpt lat="47.401575" lon="9.251433">
<ele>724.6</ele>
<time>2003-09-26T09:46:53Z</time>
<speed>0.0</speed>
</trkpt>
<trkpt lat="47.401577" lon="9.251407">
<ele>724.4</ele>
<time>2003-09-26T09:46:58Z</time>
<speed>0.0</speed>
</trkpt>
<trkpt lat="47.401584" lon="9.251409">
<ele>723.7</ele>
<time>2003-09-26T09:47:03Z</time>
<speed>0.0</speed>
</trkpt>
<trkpt lat="47.401584" lon="9.251409">
<ele>723.7</ele>
<time>2003-09-26T09:47:08Z</time>
<speed>0.0</speed>
</trkpt>
<trkpt lat="47.401584" lon="9.251409">
<ele>723.7</ele>
<time>2003-09-26T09:47:13Z</time>
<speed>0.0</speed>
</trkpt>
<trkpt lat="47.401584" lon="9.251409">
<ele>723.7</ele>
<time>2003-09-26T09:47:18Z</time>
<speed>0.0</speed>
</trkpt>
<trkpt lat="47.401584" lon="9.251409">
<ele>723.7</ele>
<time>2003-09-26T09:47:23Z</time>
<speed>0.0</speed>
</trkpt>
<trkpt lat="47.401585" lon="9.251396">
<ele>723.6</ele>
<time>2003-09-26T09:47:28Z</time>
<speed>0.0</speed>
</trkpt>
<trkpt lat="47.401585" lon="9.251396">
<ele>723.6</ele>
<time>2003-09-26T09:47:33Z</time>
<speed>0.0</speed>
</trkpt>
<trkpt lat="47.401585" lon="9.251396">
<ele>723.6</ele>
<time>2003-09-26T09:47:38Z</time>
<speed>0.0</speed>
</trkpt>
<trkpt lat="47.401585" lon="9.251396">
<ele>723.6</ele>
<time>2003-09-26T09:47:43Z</time>
<speed>0.0</speed>
</trkpt>
<trkpt lat="47.401590" lon="9.251411">
<ele>723.1</ele>
<time>2003-09-26T09:47:48Z</time>
<speed>0.0</speed>
</trkpt>
<trkpt lat="47.401590" lon="9.251411">
<ele>723.1</ele>
<time>2003-09-26T09:47:53Z</time>
<speed>0.0</speed>
</trkpt>
<trkpt lat="47.401590" lon="9.251411">
<ele>723.1</ele>
<time>2003-09-26T09:47:58Z</time>
<speed>0.0</speed>
</trkpt>
<trkpt lat="47.401590" lon="9.251411">
<ele>723.1</ele>
<time>2003-09-26T09:48:03Z</time>
<speed>0.0</speed>
</trkpt>
<trkpt lat="47.401590" lon="9.251411">
<ele>723.1</ele>
<time>2003-09-26T09:48:08Z</time>
<speed>0.0</speed>
</trkpt>
<trkpt lat="47.401590" lon="9.251411">
<ele>723.1</ele>
<time>2003-09-26T09:48:13Z</time>
<speed>0.0</speed>
</trkpt>
<trkpt lat="47.401590" lon="9.251411">
<ele>723.1</ele>
<time>2003-09-26T09:48:18Z</time>
<speed>0.0</speed>
</trkpt>
<trkpt lat="47.401590" lon="9.251411">
<ele>723.1</ele>
<time>2003-09-26T09:48:23Z</time>
<speed>0.0</speed>
</trkpt>
<trkpt lat="47.401590" lon="9.251411">
<ele>723.1</ele>
<time>2003-09-26T09:48:28Z</time>
<speed>0.0</speed>
</trkpt>
<trkpt lat="47.401590" lon="9.251411">
<ele>723.1</ele>
<time>2003-09-26T09:48:33Z</time>
<speed>0.0</speed>
</trkpt>
<trkpt lat="47.401590" lon="9.251411">
<ele>723.1</ele>
<time>2003-09-26T09:48:38Z</time>
<speed>0.0</speed>
</trkpt>
<trkpt lat="47.401590" lon="9.251411">
<ele>723.1</ele>
<time>2003-09-26T09:48:43Z</time>
<speed>0.0</speed>
</trkpt>
<trkpt lat="47.401590" lon="9.251411">
<ele>723.1</ele>
<time>2003-09-26T09:48:48Z</time>
<speed>0.0</speed>
</trkpt>
<trkpt lat="47.401590" lon="9.251411">
<ele>723.1</ele>
<time>2003-09-26T09:48:53Z</time>
<speed>0.0</speed>
</trkpt>
<trkpt lat="47.401590" lon="9.251411">
<ele>723.1</ele>
<time>2003-09-26T09:48:58Z</time>
<speed>0.0</speed>
</trkpt>
<trkpt lat="47.401590" lon="9.251411">
<ele>723.1</ele>
<time>2003-09-26T09:49:03Z</time>
<speed>0.0</speed>
</trkpt>
<trkpt lat="47.401590" lon="9.251411">
<ele>723.1</ele>
<time>2003-09-26T09:49:08Z</time>
<speed>0.0</speed>
</trkpt>
<trkpt lat="47.401590" lon="9.251411">
<ele>723.1</ele>
<time>2003-09-26T09:49:13Z</time>
<speed>0.0</speed>
</trkpt>
<trkpt lat="47.401590" lon="9.251411">
<ele>723.1</ele>
<time>2003-09-26T09:49:18Z</time>
<speed>0.0</speed>
</trkpt>
<trkpt lat="47.401590" lon="9.251411">
<ele>723.1</ele>
<time>2003-09-26T09:49:23Z</time>
<speed>0.0</speed>
</trkpt>
<trkpt lat="47.401590" lon="9.251411">
<ele>723.1</ele>
<time>2003-09-26T09:49:28Z</time>
<speed>0.0</speed>
</trkpt>
<trkpt lat="47.401590" lon="9.251411">
<ele>723.1</ele>
<time>2003-09-26T09:49:33Z</time>
<speed>0.0</speed>
</trkpt>
<trkpt lat="47.401590" lon="9.251411">
<ele>723.1</ele>
<time>2003-09-26T09:49:38Z</time>
<speed>0.0</speed>
</trkpt>
<trkpt lat="47.401590" lon="9.251411">
<ele>723.1</ele>
<time>2003-09-26T09:49:43Z</time>
<speed>0.0</speed>
</trkpt>
<trkpt lat="47.401590" lon="9.251411">
<ele>723.1</ele>
<time>2003-09-26T09:49:48Z</time>
<speed>0.0</speed>
</trkpt>
<trkpt lat="47.401590" lon="9.251411">
<ele>723.1</ele>
<time>2003-09-26T09:49:53Z</time>
<speed>0.0</speed>
</trkpt>
<trkpt lat="47.401590" lon="9.251411">
<ele>723.1</ele>
<time>2003-09-26T09:49:58Z</time>
<speed>0.0</speed>
</trkpt>
<trkpt lat="47.401590" lon="9.251411">
<ele>723.1</ele>
<time>2003-09-26T09:50:03Z</time>
<speed>0.0</speed>
</trkpt>
<trkpt lat="47.401590" lon="9.251411">
<ele>723.1</ele>
<time>2003-09-26T09:50:08Z</time>
<speed>0.0</speed>
</trkpt>
<trkpt lat="47.401590" lon="9.251411">
<ele>723.1</ele>
<time>2003-09-26T09:50:13Z</time>
<speed>0.0</speed>
</trkpt>
<trkpt lat="47.401590" lon="9.251411">
<ele>723.1</ele>
<time>2003-09-26T09:50:18Z</time>
<speed>0.0</speed>
</trkpt>
<trkpt lat="47.401598" lon="9.251400">
<ele>722.3</ele>
<time>2003-09-26T09:50:23Z</time>
<speed>0.0</speed>
</trkpt>
<trkpt lat="47.401598" lon="9.251400">
<ele>722.3</ele>
<time>2003-09-26T09:50:28Z</time>
<speed>0.0</speed>
</trkpt>
<trkpt lat="47.401598" lon="9.251400">
<ele>722.3</ele>
<time>2003-09-26T09:50:33Z</time>
<speed>0.0</speed>
</trkpt>
<trkpt lat="47.401598" lon="9.251400">
<ele>722.3</ele>
<time>2003-09-26T09:50:38Z</time>
<speed>0.0</speed>
</trkpt>
<trkpt lat="47.401598" lon="9.251400">
<ele>722.3</ele>
<time>2003-09-26T09:50:43Z</time>
<speed>0.0</speed>
</trkpt>
<trkpt lat="47.401598" lon="9.251400">
<ele>722.3</ele>
<time>2003-09-26T09:50:48Z</time>
<speed>0.0</speed>
</trkpt>
<trkpt lat="47.401598" lon="9.251400">
<ele>722.3</ele>
<time>2003-09-26T09:50:53Z</time>
<speed>0.0</speed>
</trkpt>
<trkpt lat="47.401598" lon="9.251400">
<ele>722.3</ele>
<time>2003-09-26T09:50:58Z</time>
<speed>0.0</speed>
</trkpt>
<trkpt lat="47.401598" lon="9.251400">
<ele>722.3</ele>
<time>2003-09-26T09:51:03Z</time>
<speed>0.0</speed>
</trkpt>
<trkpt lat="47.401598" lon="9.251400">
<ele>722.3</ele>
<time>2003-09-26T09:51:08Z</time>
<speed>0.0</speed>
</trkpt>
<trkpt lat="47.401598" lon="9.251400">
<ele>722.3</ele>
<time>2003-09-26T09:51:13Z</time>
<speed>0.0</speed>
</trkpt>
<trkpt lat="47.401598" lon="9.251400">
<ele>722.3</ele>
<time>2003-09-26T09:51:18Z</time>
<speed>0.0</speed>
</trkpt>
<trkpt lat="47.401598" lon="9.251400">
<ele>722.3</ele>
<time>2003-09-26T09:51:23Z</time>
<speed>0.0</speed>
</trkpt>
<trkpt lat="47.401598" lon="9.251400">
<ele>722.3</ele>
<time>2003-09-26T09:51:28Z</time>
<speed>0.0</speed>
</trkpt>
<trkpt lat="47.401598" lon="9.251400">
<ele>722.3</ele>
<time>2003-09-26T09:51:33Z</time>
<speed>0.0</speed>
</trkpt>
<trkpt lat="47.401598" lon="9.251400">
<ele>722.3</ele>
<time>2003-09-26T09:51:38Z</time>
<speed>0.0</speed>
</trkpt>
<trkpt lat="47.401598" lon="9.251400">
<ele>722.3</ele>
<time>2003-09-26T09:51:43Z</time>
<speed>0.0</speed>
</trkpt>
<trkpt lat="47.401598" lon="9.251400">
<ele>722.3</ele>
<time>2003-09-26T09:51:48Z</time>
<speed>0.0</speed>
</trkpt>
<trkpt lat="47.401598" lon="9.251400">
<ele>722.3</ele>
<time>2003-09-26T09:51:53Z</time>
<speed>0.0</speed>
</trkpt>
<trkpt lat="47.401597" lon="9.251414">
<ele>722.4</ele>
<time>2003-09-26T09:51:58Z</time>
<speed>0.0</speed>
</trkpt>
<trkpt lat="47.401603" lon="9.251414">
<ele>723.1</ele>
<time>2003-09-26T09:52:03Z</time>
<speed>0.0</speed>
</trkpt>
<trkpt lat="47.401603" lon="9.251414">
<ele>723.1</ele>
<time>2003-09-26T09:52:08Z</time>
<speed>0.0</speed>
</trkpt>
<trkpt lat="47.401603" lon="9.251414">
<ele>723.1</ele>
<time>2003-09-26T09:52:13Z</time>
<speed>0.0</speed>
</trkpt>
<trkpt lat="47.401603" lon="9.251414">
<ele>723.1</ele>
<time>2003-09-26T09:52:18Z</time>
<speed>0.0</speed>
</trkpt>
<trkpt lat="47.401597" lon="9.251414">
<ele>722.4</ele>
<time>2003-09-26T09:52:23Z</time>
<speed>0.0</speed>
</trkpt>
<trkpt lat="47.401597" lon="9.251414">
<ele>722.4</ele>
<time>2003-09-26T09:52:28Z</time>
<speed>0.0</speed>
</trkpt>
<trkpt lat="47.401598" lon="9.251400">
<ele>722.3</ele>
<time>2003-09-26T09:52:33Z</time>
<speed>0.0</speed>
</trkpt>
<trkpt lat="47.401598" lon="9.251400">
<ele>722.3</ele>
<time>2003-09-26T09:52:38Z</time>
<speed>0.0</speed>
</trkpt>
<trkpt lat="47.401597" lon="9.251414">
<ele>722.4</ele>
<time>2003-09-26T09:52:43Z</time>
<speed>0.0</speed>
</trkpt>
<trkpt lat="47.401597" lon="9.251414">
<ele>722.4</ele>
<time>2003-09-26T09:52:48Z</time>
<speed>0.0</speed>
</trkpt>
<trkpt lat="47.401597" lon="9.251414">
<ele>722.4</ele>
<time>2003-09-26T09:52:53Z</time>
<speed>0.0</speed>
</trkpt>
<trkpt lat="47.401597" lon="9.251414">
<ele>722.4</ele>
<time>2003-09-26T09:52:58Z</time>
<speed>0.0</speed>
</trkpt>
<trkpt lat="47.401597" lon="9.251414">
<ele>722.4</ele>
<time>2003-09-26T09:53:03Z</time>
<speed>0.0</speed>
</trkpt>
<trkpt lat="47.401597" lon="9.251414">
<ele>722.4</ele>
<time>2003-09-26T09:53:08Z</time>
<speed>0.0</speed>
</trkpt>
<trkpt lat="47.401597" lon="9.251414">
<ele>722.4</ele>
<time>2003-09-26T09:53:13Z</time>
<speed>0.0</speed>
</trkpt>
<trkpt lat="47.401597" lon="9.251414">
<ele>722.4</ele>
<time>2003-09-26T09:53:18Z</time>
<speed>0.0</speed>
</trkpt>
<trkpt lat="47.401597" lon="9.251414">
<ele>722.4</ele>
<time>2003-09-26T09:53:23Z</time>
<speed>0.0</speed>
</trkpt>
<trkpt lat="47.401597" lon="9.251414">
<ele>722.4</ele>
<time>2003-09-26T09:53:28Z</time>
<speed>0.0</speed>
</trkpt>
<trkpt lat="47.401590" lon="9.251411">
<ele>723.1</ele>
<time>2003-09-26T09:53:33Z</time>
<speed>0.0</speed>
</trkpt>
<trkpt lat="47.401583" lon="9.251425">
<ele>722.4</ele>
<time>2003-09-26T09:53:38Z</time>
<speed>0.0</speed>
</trkpt>
<trkpt lat="47.401583" lon="9.251425">
<ele>722.4</ele>
<time>2003-09-26T09:53:43Z</time>
<speed>0.0</speed>
</trkpt>
<trkpt lat="47.401582" lon="9.251438">
<ele>722.6</ele>
<time>2003-09-26T09:53:48Z</time>
<speed>0.0</speed>
</trkpt>
<trkpt lat="47.401582" lon="9.251438">
<ele>722.6</ele>
<time>2003-09-26T09:53:53Z</time>
<speed>0.0</speed>
</trkpt>
<trkpt lat="47.401582" lon="9.251438">
<ele>722.6</ele>
<time>2003-09-26T09:53:58Z</time>
<speed>0.0</speed>
</trkpt>
<trkpt lat="47.401582" lon="9.251438">
<ele>722.6</ele>
<time>2003-09-26T09:54:03Z</time>
<speed>0.0</speed>
</trkpt>
<trkpt lat="47.401582" lon="9.251438">
<ele>722.6</ele>
<time>2003-09-26T09:54:08Z</time>
<speed>0.0</speed>
</trkpt>
<trkpt lat="47.401582" lon="9.251438">
<ele>722.6</ele>
<time>2003-09-26T09:54:13Z</time>
<speed>0.0</speed>
</trkpt>
<trkpt lat="47.401582" lon="9.251438">
<ele>722.6</ele>
<time>2003-09-26T09:54:18Z</time>
<speed>0.0</speed>
</trkpt>
<trkpt lat="47.401582" lon="9.251438">
<ele>722.6</ele>
<time>2003-09-26T09:54:23Z</time>
<speed>0.0</speed>
</trkpt>
<trkpt lat="47.401582" lon="9.251438">
<ele>722.6</ele>
<time>2003-09-26T09:54:28Z</time>
<speed>0.0</speed>
</trkpt>
<trkpt lat="47.401582" lon="9.251438">
<ele>722.6</ele>
<time>2003-09-26T09:54:33Z</time>
<speed>0.0</speed>
</trkpt>
<trkpt lat="47.401582" lon="9.251438">
<ele>722.6</ele>
<time>2003-09-26T09:54:38Z</time>
<speed>0.0</speed>
</trkpt>
<trkpt lat="47.401582" lon="9.251438">
<ele>722.6</ele>
<time>2003-09-26T09:54:43Z</time>
<speed>0.0</speed>
</trkpt>
<trkpt lat="47.401582" lon="9.251438">
<ele>722.6</ele>
<time>2003-09-26T09:54:48Z</time>
<speed>0.0</speed>
</trkpt>
<trkpt lat="47.401582" lon="9.251438">
<ele>722.6</ele>
<time>2003-09-26T09:54:53Z</time>
<speed>0.0</speed>
</trkpt>
<trkpt lat="47.401582" lon="9.251438">
<ele>722.6</ele>
<time>2003-09-26T09:54:58Z</time>
<speed>0.0</speed>
</trkpt>
<trkpt lat="47.401581" lon="9.251451">
<ele>722.7</ele>
<time>2003-09-26T09:55:03Z</time>
<speed>0.0</speed>
</trkpt>
<trkpt lat="47.401591" lon="9.251479">
<ele>723.0</ele>
<time>2003-09-26T09:55:08Z</time>
<speed>0.3</speed>
</trkpt>
<trkpt lat="47.401609" lon="9.251496">
<ele>722.5</ele>
<time>2003-09-26T09:55:13Z</time>
<speed>0.6</speed>
</trkpt>
<trkpt lat="47.401633" lon="9.251529">
<ele>721.4</ele>
<time>2003-09-26T09:55:18Z</time>
<speed>0.6</speed>
</trkpt>
<trkpt lat="47.401650" lon="9.251559">
<ele>721.0</ele>
<time>2003-09-26T09:55:23Z</time>
<speed>0.8</speed>
</trkpt>
<trkpt lat="47.401671" lon="9.251618">
<ele>720.2</ele>
<time>2003-09-26T09:55:28Z</time>
<speed>0.8</speed>
</trkpt>
<trkpt lat="47.401700" lon="9.251666">
<ele>718.6</ele>
<time>2003-09-26T09:55:33Z</time>
<speed>0.8</speed>
</trkpt>
<trkpt lat="47.401737" lon="9.251700">
<ele>717.6</ele>
<time>2003-09-26T09:55:38Z</time>
<speed>0.6</speed>
</trkpt>
<trkpt lat="47.401765" lon="9.251746">
<ele>717.4</ele>
<time>2003-09-26T09:55:43Z</time>
<speed>0.6</speed>
</trkpt>
<trkpt lat="47.401801" lon="9.251781">
<ele>716.4</ele>
<time>2003-09-26T09:55:48Z</time>
<speed>0.8</speed>
</trkpt>
<trkpt lat="47.401829" lon="9.251839">
<ele>716.3</ele>
<time>2003-09-26T09:55:53Z</time>
<speed>0.8</speed>
</trkpt>
<trkpt lat="47.401872" lon="9.251878">
<ele>713.3</ele>
<time>2003-09-26T09:55:58Z</time>
<speed>0.8</speed>
</trkpt>
<trkpt lat="47.401888" lon="9.251924">
<ele>711.6</ele>
<time>2003-09-26T09:56:03Z</time>
<speed>0.8</speed>
</trkpt>
<trkpt lat="47.401904" lon="9.251967">
<ele>711.3</ele>
<time>2003-09-26T09:56:08Z</time>
<speed>0.8</speed>
</trkpt>
<trkpt lat="47.401939" lon="9.252028">
<ele>710.5</ele>
<time>2003-09-26T09:56:13Z</time>
<speed>0.8</speed>
</trkpt>
<trkpt lat="47.401961" lon="9.252074">
<ele>709.6</ele>
<time>2003-09-26T09:56:18Z</time>
<speed>0.8</speed>
</trkpt>
<trkpt lat="47.401976" lon="9.252130">
<ele>709.4</ele>
<time>2003-09-26T09:56:23Z</time>
<speed>0.8</speed>
</trkpt>
<trkpt lat="47.402013" lon="9.252167">
<ele>707.1</ele>
<time>2003-09-26T09:56:28Z</time>
<speed>1.1</speed>
</trkpt>
<trkpt lat="47.402026" lon="9.252237">
<ele>707.0</ele>
<time>2003-09-26T09:56:33Z</time>
<speed>0.8</speed>
</trkpt>
<trkpt lat="47.402048" lon="9.252295">
<ele>706.2</ele>
<time>2003-09-26T09:56:38Z</time>
<speed>0.8</speed>
</trkpt>
<trkpt lat="47.402076" lon="9.252341">
<ele>706.0</ele>
<time>2003-09-26T09:56:43Z</time>
<speed>0.8</speed>
</trkpt>
<trkpt lat="47.402085" lon="9.252398">
<ele>705.1</ele>
<time>2003-09-26T09:56:48Z</time>
<speed>0.8</speed>
</trkpt>
<trkpt lat="47.402107" lon="9.252456">
<ele>704.2</ele>
<time>2003-09-26T09:56:53Z</time>
<speed>0.6</speed>
</trkpt>
<trkpt lat="47.402112" lon="9.252471">
<ele>703.7</ele>
<time>2003-09-26T09:56:58Z</time>
<speed>0.3</speed>
</trkpt>
<trkpt lat="47.402135" lon="9.252517">
<ele>702.7</ele>
<time>2003-09-26T09:57:03Z</time>
<speed>0.8</speed>
</trkpt>
<trkpt lat="47.402155" lon="9.252589">
<ele>702.0</ele>
<time>2003-09-26T09:57:08Z</time>
<speed>0.8</speed>
</trkpt>
<trkpt lat="47.402177" lon="9.252634">
<ele>701.1</ele>
<time>2003-09-26T09:57:13Z</time>
<speed>0.8</speed>
</trkpt>
<trkpt lat="47.402213" lon="9.252684">
<ele>698.8</ele>
<time>2003-09-26T09:57:18Z</time>
<speed>1.1</speed>
</trkpt>
<trkpt lat="47.402246" lon="9.252758">
<ele>698.1</ele>
<time>2003-09-26T09:57:23Z</time>
<speed>0.8</speed>
</trkpt>
<trkpt lat="47.402266" lon="9.252828">
<ele>698.8</ele>
<time>2003-09-26T09:57:28Z</time>
<speed>0.8</speed>
</trkpt>
<trkpt lat="47.402291" lon="9.252913">
<ele>698.9</ele>
<time>2003-09-26T09:57:33Z</time>
<speed>0.8</speed>
</trkpt>
<trkpt lat="47.402313" lon="9.252971">
<ele>698.1</ele>
<time>2003-09-26T09:57:38Z</time>
<speed>0.8</speed>
</trkpt>
<trkpt lat="47.402348" lon="9.253019">
<ele>697.2</ele>
<time>2003-09-26T09:57:43Z</time>
<speed>0.8</speed>
</trkpt>
<trkpt lat="47.402363" lon="9.253076">
<ele>697.1</ele>
<time>2003-09-26T09:57:48Z</time>
<speed>0.8</speed>
</trkpt>
<trkpt lat="47.402384" lon="9.253134">
<ele>696.2</ele>
<time>2003-09-26T09:57:53Z</time>
<speed>0.8</speed>
</trkpt>
<trkpt lat="47.402400" lon="9.253178">
<ele>696.0</ele>
<time>2003-09-26T09:57:58Z</time>
<speed>0.8</speed>
</trkpt>
<trkpt lat="47.402414" lon="9.253245">
<ele>697.3</ele>
<time>2003-09-26T09:58:03Z</time>
<speed>0.8</speed>
</trkpt>
<trkpt lat="47.402409" lon="9.253298">
<ele>697.7</ele>
<time>2003-09-26T09:58:08Z</time>
<speed>0.6</speed>
</trkpt>
<trkpt lat="47.402417" lon="9.253365">
<ele>698.3</ele>
<time>2003-09-26T09:58:13Z</time>
<speed>0.6</speed>
</trkpt>
<trkpt lat="47.402405" lon="9.253428">
<ele>699.6</ele>
<time>2003-09-26T09:58:18Z</time>
<speed>0.8</speed>
</trkpt>
<trkpt lat="47.402405" lon="9.253509">
<ele>699.5</ele>
<time>2003-09-26T09:58:23Z</time>
<speed>0.8</speed>
</trkpt>
<trkpt lat="47.402394" lon="9.253559">
<ele>700.6</ele>
<time>2003-09-26T09:58:28Z</time>
<speed>0.6</speed>
</trkpt>
<trkpt lat="47.402384" lon="9.253611">
<ele>700.3</ele>
<time>2003-09-26T09:58:33Z</time>
<speed>0.6</speed>
</trkpt>
<trkpt lat="47.402373" lon="9.253664">
<ele>700.0</ele>
<time>2003-09-26T09:58:38Z</time>
<speed>0.6</speed>
</trkpt>
<trkpt lat="47.402358" lon="9.253701">
<ele>700.3</ele>
<time>2003-09-26T09:58:43Z</time>
<speed>0.3</speed>
</trkpt>
<trkpt lat="47.402344" lon="9.253712">
<ele>700.3</ele>
<time>2003-09-26T09:58:48Z</time>
<speed>0.0</speed>
</trkpt>
<trkpt lat="47.402318" lon="9.253721">
<ele>700.3</ele>
<time>2003-09-26T09:58:53Z</time>
<speed>0.6</speed>
</trkpt>
<trkpt lat="47.402302" lon="9.253760">
<ele>699.2</ele>
<time>2003-09-26T09:58:58Z</time>
<speed>0.6</speed>
</trkpt>
<trkpt lat="47.402281" lon="9.253784">
<ele>698.6</ele>
<time>2003-09-26T09:59:03Z</time>
<speed>0.3</speed>
</trkpt>
<trkpt lat="47.402259" lon="9.253821">
<ele>698.1</ele>
<time>2003-09-26T09:59:08Z</time>
<speed>0.6</speed>
</trkpt>
<trkpt lat="47.402251" lon="9.253847">
<ele>697.6</ele>
<time>2003-09-26T09:59:13Z</time>
<speed>0.3</speed>
</trkpt>
<trkpt lat="47.402229" lon="9.253884">
<ele>697.1</ele>
<time>2003-09-26T09:59:18Z</time>
<speed>0.3</speed>
</trkpt>
<trkpt lat="47.402206" lon="9.253934">
<ele>696.7</ele>
<time>2003-09-26T09:59:23Z</time>
<speed>1.1</speed>
</trkpt>
<trkpt lat="47.402182" lon="9.253998">
<ele>696.5</ele>
<time>2003-09-26T09:59:28Z</time>
<speed>1.1</speed>
</trkpt>
<trkpt lat="47.402171" lon="9.254063">
<ele>696.3</ele>
<time>2003-09-26T09:59:33Z</time>
<speed>0.6</speed>
</trkpt>
<trkpt lat="47.402161" lon="9.254115">
<ele>696.0</ele>
<time>2003-09-26T09:59:38Z</time>
<speed>0.8</speed>
</trkpt>
<trkpt lat="47.402137" lon="9.254178">
<ele>695.7</ele>
<time>2003-09-26T09:59:43Z</time>
<speed>0.8</speed>
</trkpt>
<trkpt lat="47.402111" lon="9.254255">
<ele>695.6</ele>
<time>2003-09-26T09:59:48Z</time>
<speed>0.8</speed>
</trkpt>
<trkpt lat="47.402087" lon="9.254318">
<ele>695.3</ele>
<time>2003-09-26T09:59:53Z</time>
<speed>0.8</speed>
</trkpt>
<trkpt lat="47.402057" lon="9.254379">
<ele>695.7</ele>
<time>2003-09-26T09:59:58Z</time>
<speed>0.8</speed>
</trkpt>
<trkpt lat="47.402032" lon="9.254455">
<ele>695.6</ele>
<time>2003-09-26T10:00:03Z</time>
<speed>1.1</speed>
</trkpt>
<trkpt lat="47.402013" lon="9.254532">
<ele>696.2</ele>
<time>2003-09-26T10:00:08Z</time>
<speed>0.8</speed>
</trkpt>
<trkpt lat="47.401989" lon="9.254595">
<ele>695.9</ele>
<time>2003-09-26T10:00:13Z</time>
<speed>0.8</speed>
</trkpt>
<trkpt lat="47.401982" lon="9.254673">
<ele>696.6</ele>
<time>2003-09-26T10:00:18Z</time>
<speed>0.8</speed>
</trkpt>
<trkpt lat="47.401979" lon="9.254728">
<ele>695.6</ele>
<time>2003-09-26T10:00:23Z</time>
<speed>0.6</speed>
</trkpt>
<trkpt lat="47.401987" lon="9.254784">
<ele>694.7</ele>
<time>2003-09-26T10:00:28Z</time>
<speed>0.6</speed>
</trkpt>
<trkpt lat="47.401984" lon="9.254824">
<ele>695.0</ele>
<time>2003-09-26T10:00:33Z</time>
<speed>0.0</speed>
</trkpt>
<trkpt lat="47.401975" lon="9.254863">
<ele>694.6</ele>
<time>2003-09-26T10:00:38Z</time>
<speed>0.8</speed>
</trkpt>
<trkpt lat="47.401970" lon="9.254928">
<ele>695.1</ele>
<time>2003-09-26T10:00:43Z</time>
<speed>0.6</speed>
</trkpt>
<trkpt lat="47.401970" lon="9.255009">
<ele>695.1</ele>
<time>2003-09-26T10:00:48Z</time>
<speed>0.6</speed>
</trkpt>
<trkpt lat="47.401972" lon="9.255063">
<ele>694.9</ele>
<time>2003-09-26T10:00:53Z</time>
<speed>0.8</speed>
</trkpt>
<trkpt lat="47.401999" lon="9.255122">
<ele>694.8</ele>
<time>2003-09-26T10:00:58Z</time>
<speed>0.8</speed>
</trkpt>
<trkpt lat="47.402042" lon="9.255159">
<ele>693.2</ele>
<time>2003-09-26T10:01:03Z</time>
<speed>0.8</speed>
</trkpt>
<trkpt lat="47.402099" lon="9.255169">
<ele>692.8</ele>
<time>2003-09-26T10:01:08Z</time>
<speed>1.1</speed>
</trkpt>
<trkpt lat="47.402156" lon="9.255195">
<ele>691.1</ele>
<time>2003-09-26T10:01:13Z</time>
<speed>1.1</speed>
</trkpt>
<trkpt lat="47.402219" lon="9.255206">
<ele>691.4</ele>
<time>2003-09-26T10:01:18Z</time>
<speed>1.1</speed>
</trkpt>
<trkpt lat="47.402277" lon="9.255203">
<ele>690.9</ele>
<time>2003-09-26T10:01:23Z</time>
<speed>1.1</speed>
</trkpt>
<trkpt lat="47.402334" lon="9.255214">
<ele>690.5</ele>
<time>2003-09-26T10:01:28Z</time>
<speed>1.4</speed>
</trkpt>
<trkpt lat="47.402396" lon="9.255240">
<ele>689.6</ele>
<time>2003-09-26T10:01:33Z</time>
<speed>1.1</speed>
</trkpt>
<trkpt lat="47.402446" lon="9.255264">
<ele>688.5</ele>
<time>2003-09-26T10:01:38Z</time>
<speed>1.1</speed>
</trkpt>
<trkpt lat="47.402502" lon="9.255287">
<ele>688.2</ele>
<time>2003-09-26T10:01:43Z</time>
<speed>0.8</speed>
</trkpt>
<trkpt lat="47.402552" lon="9.255311">
<ele>687.2</ele>
<time>2003-09-26T10:01:48Z</time>
<speed>1.1</speed>
</trkpt>
<trkpt lat="47.402601" lon="9.255333">
<ele>687.6</ele>
<time>2003-09-26T10:01:53Z</time>
<speed>1.1</speed>
</trkpt>
<trkpt lat="47.402664" lon="9.255359">
<ele>686.6</ele>
<time>2003-09-26T10:01:58Z</time>
<speed>1.1</speed>
</trkpt>
<trkpt lat="47.402726" lon="9.255382">
<ele>687.1</ele>
<time>2003-09-26T10:02:03Z</time>
<speed>1.1</speed>
</trkpt>
<trkpt lat="47.402788" lon="9.255406">
<ele>687.5</ele>
<time>2003-09-26T10:02:08Z</time>
<speed>1.1</speed>
</trkpt>
<trkpt lat="47.402852" lon="9.255419">
<ele>686.5</ele>
<time>2003-09-26T10:02:13Z</time>
<speed>1.1</speed>
</trkpt>
<trkpt lat="47.402908" lon="9.255443">
<ele>686.2</ele>
<time>2003-09-26T10:02:18Z</time>
<speed>1.4</speed>
</trkpt>
<trkpt lat="47.402970" lon="9.255466">
<ele>686.6</ele>
<time>2003-09-26T10:02:23Z</time>
<speed>1.4</speed>
</trkpt>
<trkpt lat="47.403026" lon="9.255490">
<ele>686.4</ele>
<time>2003-09-26T10:02:28Z</time>
<speed>0.8</speed>
</trkpt>
<trkpt lat="47.403086" lon="9.255527">
<ele>686.9</ele>
<time>2003-09-26T10:02:33Z</time>
<speed>1.4</speed>
</trkpt>
<trkpt lat="47.403149" lon="9.255551">
<ele>687.4</ele>
<time>2003-09-26T10:02:38Z</time>
<speed>1.1</speed>
</trkpt>
<trkpt lat="47.403204" lon="9.255574">
<ele>687.1</ele>
<time>2003-09-26T10:02:43Z</time>
<speed>1.4</speed>
</trkpt>
<trkpt lat="47.403267" lon="9.255598">
<ele>687.5</ele>
<time>2003-09-26T10:02:48Z</time>
<speed>1.1</speed>
</trkpt>
<trkpt lat="47.403322" lon="9.255622">
<ele>687.2</ele>
<time>2003-09-26T10:02:53Z</time>
<speed>1.1</speed>
</trkpt>
<trkpt lat="47.403378" lon="9.255645">
<ele>687.0</ele>
<time>2003-09-26T10:02:58Z</time>
<speed>1.1</speed>
</trkpt>
<trkpt lat="47.403439" lon="9.255682">
<ele>687.5</ele>
<time>2003-09-26T10:03:03Z</time>
<speed>1.1</speed>
</trkpt>
<trkpt lat="47.403489" lon="9.255704">
<ele>687.9</ele>
<time>2003-09-26T10:03:08Z</time>
<speed>1.1</speed>
</trkpt>
<trkpt lat="47.403547" lon="9.255701">
<ele>687.4</ele>
<time>2003-09-26T10:03:13Z</time>
<speed>1.1</speed>
</trkpt>
<trkpt lat="47.403585" lon="9.255708">
<ele>687.6</ele>
<time>2003-09-26T10:03:18Z</time>
<speed>0.3</speed>
</trkpt>
<trkpt lat="47.403597" lon="9.255710">
<ele>687.7</ele>
<time>2003-09-26T10:03:23Z</time>
<speed>0.0</speed>
</trkpt>
<trkpt lat="47.403597" lon="9.255710">
<ele>687.7</ele>
<time>2003-09-26T10:03:28Z</time>
<speed>0.0</speed>
</trkpt>
<trkpt lat="47.403609" lon="9.255725">
<ele>687.8</ele>
<time>2003-09-26T10:03:33Z</time>
<speed>0.3</speed>
</trkpt>
<trkpt lat="47.403639" lon="9.255758">
<ele>687.5</ele>
<time>2003-09-26T10:03:38Z</time>
<speed>1.1</speed>
</trkpt>
<trkpt lat="47.403680" lon="9.255805">
<ele>687.4</ele>
<time>2003-09-26T10:03:43Z</time>
<speed>1.1</speed>
</trkpt>
<trkpt lat="47.403720" lon="9.255864">
<ele>688.8</ele>
<time>2003-09-26T10:03:48Z</time>
<speed>1.1</speed>
</trkpt>
<trkpt lat="47.403752" lon="9.255938">
<ele>688.1</ele>
<time>2003-09-26T10:03:53Z</time>
<speed>0.8</speed>
</trkpt>
<trkpt lat="47.403779" lon="9.256010">
<ele>688.1</ele>
<time>2003-09-26T10:03:58Z</time>
<speed>1.1</speed>
</trkpt>
<trkpt lat="47.403819" lon="9.256071">
<ele>688.1</ele>
<time>2003-09-26T10:04:03Z</time>
<speed>1.1</speed>
</trkpt>
<trkpt lat="47.403846" lon="9.256142">
<ele>688.1</ele>
<time>2003-09-26T10:04:08Z</time>
<speed>1.1</speed>
</trkpt>
<trkpt lat="47.403885" lon="9.256216">
<ele>688.2</ele>
<time>2003-09-26T10:04:13Z</time>
<speed>1.1</speed>
</trkpt>
<trkpt lat="47.403904" lon="9.256301">
<ele>687.6</ele>
<time>2003-09-26T10:04:18Z</time>
<speed>1.1</speed>
</trkpt>
<trkpt lat="47.403936" lon="9.256373">
<ele>688.3</ele>
<time>2003-09-26T10:04:23Z</time>
<speed>1.1</speed>
</trkpt>
<trkpt lat="47.403962" lon="9.256458">
<ele>688.4</ele>
<time>2003-09-26T10:04:28Z</time>
<speed>1.4</speed>
</trkpt>
<trkpt lat="47.403994" lon="9.256545">
<ele>687.9</ele>
<time>2003-09-26T10:04:33Z</time>
<speed>1.4</speed>
</trkpt>
<trkpt lat="47.404033" lon="9.256619">
<ele>688.0</ele>
<time>2003-09-26T10:04:38Z</time>
<speed>1.4</speed>
</trkpt>
<trkpt lat="47.404058" lon="9.256703">
<ele>688.1</ele>
<time>2003-09-26T10:04:43Z</time>
<speed>1.1</speed>
</trkpt>
<trkpt lat="47.404097" lon="9.256777">
<ele>688.2</ele>
<time>2003-09-26T10:04:48Z</time>
<speed>1.4</speed>
</trkpt>
<trkpt lat="47.404143" lon="9.256853">
<ele>687.6</ele>
<time>2003-09-26T10:04:53Z</time>
<speed>1.4</speed>
</trkpt>
<trkpt lat="47.404189" lon="9.256929">
<ele>687.0</ele>
<time>2003-09-26T10:04:58Z</time>
<speed>1.1</speed>
</trkpt>
<trkpt lat="47.404222" lon="9.257003">
<ele>686.3</ele>
<time>2003-09-26T10:05:03Z</time>
<speed>1.4</speed>
</trkpt>
<trkpt lat="47.404274" lon="9.257081">
<ele>685.1</ele>
<time>2003-09-26T10:05:08Z</time>
<speed>1.4</speed>
</trkpt>
<trkpt lat="47.404306" lon="9.257168">
<ele>684.5</ele>
<time>2003-09-26T10:05:13Z</time>
<speed>1.4</speed>
</trkpt>
<trkpt lat="47.404345" lon="9.257242">
<ele>684.6</ele>
<time>2003-09-26T10:05:18Z</time>
<speed>1.4</speed>
</trkpt>
<trkpt lat="47.404378" lon="9.257316">
<ele>684.0</ele>
<time>2003-09-26T10:05:23Z</time>
<speed>1.1</speed>
</trkpt>
<trkpt lat="47.404424" lon="9.257379">
<ele>683.3</ele>
<time>2003-09-26T10:05:28Z</time>
<speed>1.4</speed>
</trkpt>
<trkpt lat="47.404463" lon="9.257453">
<ele>683.4</ele>
<time>2003-09-26T10:05:33Z</time>
<speed>1.4</speed>
</trkpt>
<trkpt lat="47.404509" lon="9.257529">
<ele>682.8</ele>
<time>2003-09-26T10:05:38Z</time>
<speed>1.4</speed>
</trkpt>
<trkpt lat="47.404549" lon="9.257590">
<ele>682.7</ele>
<time>2003-09-26T10:05:43Z</time>
<speed>1.4</speed>
</trkpt>
<trkpt lat="47.404596" lon="9.257653">
<ele>682.0</ele>
<time>2003-09-26T10:05:48Z</time>
<speed>1.1</speed>
</trkpt>
<trkpt lat="47.404637" lon="9.257701">
<ele>681.9</ele>
<time>2003-09-26T10:05:53Z</time>
<speed>1.1</speed>
</trkpt>
<trkpt lat="47.404673" lon="9.257733">
<ele>682.3</ele>
<time>2003-09-26T10:05:58Z</time>
<speed>0.3</speed>
</trkpt>
<trkpt lat="47.404701" lon="9.257698">
<ele>682.1</ele>
<time>2003-09-26T10:06:03Z</time>
<speed>0.8</speed>
</trkpt>
<trkpt lat="47.404720" lon="9.257620">
<ele>683.0</ele>
<time>2003-09-26T10:06:08Z</time>
<speed>1.1</speed>
</trkpt>
<trkpt lat="47.404732" lon="9.257541">
<ele>683.0</ele>
<time>2003-09-26T10:06:13Z</time>
<speed>1.1</speed>
</trkpt>
<trkpt lat="47.404770" lon="9.257467">
<ele>683.3</ele>
<time>2003-09-26T10:06:18Z</time>
<speed>1.1</speed>
</trkpt>
<trkpt lat="47.404795" lon="9.257391">
<ele>683.4</ele>
<time>2003-09-26T10:06:23Z</time>
<speed>1.1</speed>
</trkpt>
<trkpt lat="47.404819" lon="9.257328">
<ele>683.7</ele>
<time>2003-09-26T10:06:28Z</time>
<speed>1.1</speed>
</trkpt>
<trkpt lat="47.404844" lon="9.257251">
<ele>683.8</ele>
<time>2003-09-26T10:06:33Z</time>
<speed>0.8</speed>
</trkpt>
<trkpt lat="47.404869" lon="9.257175">
<ele>684.0</ele>
<time>2003-09-26T10:06:38Z</time>
<speed>1.1</speed>
</trkpt>
<trkpt lat="47.404900" lon="9.257099">
<ele>684.9</ele>
<time>2003-09-26T10:06:43Z</time>
<speed>1.1</speed>
</trkpt>
<trkpt lat="47.404932" lon="9.257024">
<ele>684.3</ele>
<time>2003-09-26T10:06:48Z</time>
<speed>1.1</speed>
</trkpt>
<trkpt lat="47.404957" lon="9.256948">
<ele>684.5</ele>
<time>2003-09-26T10:06:53Z</time>
<speed>1.1</speed>
</trkpt>
<trkpt lat="47.404988" lon="9.256872">
<ele>685.4</ele>
<time>2003-09-26T10:06:58Z</time>
<speed>0.8</speed>
</trkpt>
<trkpt lat="47.405007" lon="9.256795">
<ele>684.8</ele>
<time>2003-09-26T10:07:03Z</time>
<speed>1.1</speed>
</trkpt>
<trkpt lat="47.405039" lon="9.256721">
<ele>684.3</ele>
<time>2003-09-26T10:07:08Z</time>
<speed>1.1</speed>
</trkpt>
<trkpt lat="47.405077" lon="9.256647">
<ele>684.5</ele>
<time>2003-09-26T10:07:13Z</time>
<speed>1.1</speed>
</trkpt>
<trkpt lat="47.405102" lon="9.256571">
<ele>684.7</ele>
<time>2003-09-26T10:07:18Z</time>
<speed>1.1</speed>
</trkpt>
<trkpt lat="47.405138" lon="9.256510">
<ele>685.0</ele>
<time>2003-09-26T10:07:23Z</time>
<speed>1.1</speed>
</trkpt>
<trkpt lat="47.405169" lon="9.256449">
<ele>684.6</ele>
<time>2003-09-26T10:07:28Z</time>
<speed>1.1</speed>
</trkpt>
<trkpt lat="47.405201" lon="9.256374">
<ele>684.1</ele>
<time>2003-09-26T10:07:33Z</time>
<speed>0.8</speed>
</trkpt>
<trkpt lat="47.405226" lon="9.256298">
<ele>684.2</ele>
<time>2003-09-26T10:07:38Z</time>
<speed>1.4</speed>
</trkpt>
<trkpt lat="47.405263" lon="9.256224">
<ele>684.4</ele>
<time>2003-09-26T10:07:43Z</time>
<speed>1.1</speed>
</trkpt>
<trkpt lat="47.405295" lon="9.256150">
<ele>683.9</ele>
<time>2003-09-26T10:07:48Z</time>
<speed>1.1</speed>
</trkpt>
<trkpt lat="47.405320" lon="9.256089">
<ele>682.8</ele>
<time>2003-09-26T10:07:53Z</time>
<speed>1.1</speed>
</trkpt>
<trkpt lat="47.405358" lon="9.256016">
<ele>681.6</ele>
<time>2003-09-26T10:07:58Z</time>
<speed>1.1</speed>
</trkpt>
<trkpt lat="47.405395" lon="9.255942">
<ele>681.8</ele>
<time>2003-09-26T10:08:03Z</time>
<speed>1.1</speed>
</trkpt>
<trkpt lat="47.405427" lon="9.255868">
<ele>681.3</ele>
<time>2003-09-26T10:08:08Z</time>
<speed>1.1</speed>
</trkpt>
<trkpt lat="47.405470" lon="9.255809">
<ele>680.9</ele>
<time>2003-09-26T10:08:13Z</time>
<speed>1.1</speed>
</trkpt>
<trkpt lat="47.405514" lon="9.255750">
<ele>680.6</ele>
<time>2003-09-26T10:08:18Z</time>
<speed>0.8</speed>
</trkpt>
<trkpt lat="47.405544" lon="9.255689">
<ele>680.2</ele>
<time>2003-09-26T10:08:23Z</time>
<speed>1.1</speed>
</trkpt>
<trkpt lat="47.405599" lon="9.255645">
<ele>680.0</ele>
<time>2003-09-26T10:08:28Z</time>
<speed>0.8</speed>
</trkpt>
<trkpt lat="47.405635" lon="9.255584">
<ele>680.4</ele>
<time>2003-09-26T10:08:33Z</time>
<speed>1.1</speed>
</trkpt>
<trkpt lat="47.405691" lon="9.255527">
<ele>680.1</ele>
<time>2003-09-26T10:08:38Z</time>
<speed>1.1</speed>
</trkpt>
<trkpt lat="47.405739" lon="9.255481">
<ele>680.6</ele>
<time>2003-09-26T10:08:43Z</time>
<speed>1.1</speed>
</trkpt>
<trkpt lat="47.405788" lon="9.255438">
<ele>679.7</ele>
<time>2003-09-26T10:08:48Z</time>
<speed>1.1</speed>
</trkpt>
<trkpt lat="47.405849" lon="9.255394">
<ele>680.3</ele>
<time>2003-09-26T10:08:53Z</time>
<speed>1.1</speed>
</trkpt>
<trkpt lat="47.405903" lon="9.255365">
<ele>678.8</ele>
<time>2003-09-26T10:08:58Z</time>
<speed>1.1</speed>
</trkpt>
<trkpt lat="47.405970" lon="9.255339">
<ele>677.4</ele>
<time>2003-09-26T10:09:03Z</time>
<speed>1.1</speed>
</trkpt>
<trkpt lat="47.406024" lon="9.255308">
<ele>677.4</ele>
<time>2003-09-26T10:09:08Z</time>
<speed>1.1</speed>
</trkpt>
<trkpt lat="47.406077" lon="9.255293">
<ele>676.0</ele>
<time>2003-09-26T10:09:13Z</time>
<speed>1.1</speed>
</trkpt>
<trkpt lat="47.406125" lon="9.255249">
<ele>675.1</ele>
<time>2003-09-26T10:09:18Z</time>
<speed>0.8</speed>
</trkpt>
<trkpt lat="47.406177" lon="9.255229">
<ele>676.6</ele>
<time>2003-09-26T10:09:23Z</time>
<speed>1.1</speed>
</trkpt>
<trkpt lat="47.406230" lon="9.255211">
<ele>676.6</ele>
<time>2003-09-26T10:09:28Z</time>
<speed>1.1</speed>
</trkpt>
<trkpt lat="47.406290" lon="9.255181">
<ele>677.3</ele>
<time>2003-09-26T10:09:33Z</time>
<speed>1.4</speed>
</trkpt>
<trkpt lat="47.406350" lon="9.255150">
<ele>678.0</ele>
<time>2003-09-26T10:09:38Z</time>
<speed>0.8</speed>
</trkpt>
<trkpt lat="47.406377" lon="9.255128">
<ele>677.9</ele>
<time>2003-09-26T10:09:43Z</time>
<speed>0.6</speed>
</trkpt>
<trkpt lat="47.406427" lon="9.255152">
<ele>676.9</ele>
<time>2003-09-26T10:09:48Z</time>
<speed>0.8</speed>
</trkpt>
<trkpt lat="47.406478" lon="9.255147">
<ele>677.1</ele>
<time>2003-09-26T10:09:53Z</time>
<speed>0.8</speed>
</trkpt>
<trkpt lat="47.406543" lon="9.255145">
<ele>677.3</ele>
<time>2003-09-26T10:09:58Z</time>
<speed>0.8</speed>
</trkpt>
<trkpt lat="47.406595" lon="9.255127">
<ele>677.3</ele>
<time>2003-09-26T10:10:03Z</time>
<speed>0.8</speed>
</trkpt>
<trkpt lat="47.406636" lon="9.255110">
<ele>675.9</ele>
<time>2003-09-26T10:10:08Z</time>
<speed>0.8</speed>
</trkpt>
<trkpt lat="47.406682" lon="9.255090">
<ele>676.6</ele>
<time>2003-09-26T10:10:13Z</time>
<speed>0.6</speed>
</trkpt>
<trkpt lat="47.406736" lon="9.255046">
<ele>676.5</ele>
<time>2003-09-26T10:10:18Z</time>
<speed>0.6</speed>
</trkpt>
<trkpt lat="47.406796" lon="9.255031">
<ele>675.9</ele>
<time>2003-09-26T10:10:23Z</time>
<speed>0.8</speed>
</trkpt>
<trkpt lat="47.406850" lon="9.254987">
<ele>675.7</ele>
<time>2003-09-26T10:10:28Z</time>
<speed>0.8</speed>
</trkpt>
<trkpt lat="47.406891" lon="9.254969">
<ele>674.3</ele>
<time>2003-09-26T10:10:33Z</time>
<speed>0.6</speed>
</trkpt>
<trkpt lat="47.406937" lon="9.254952">
<ele>673.6</ele>
<time>2003-09-26T10:10:38Z</time>
<speed>0.6</speed>
</trkpt>
<trkpt lat="47.407011" lon="9.254910">
<ele>674.3</ele>
<time>2003-09-26T10:10:43Z</time>
<speed>0.8</speed>
</trkpt>
<trkpt lat="47.407088" lon="9.254910">
<ele>674.6</ele>
<time>2003-09-26T10:10:48Z</time>
<speed>0.8</speed>
</trkpt>
<trkpt lat="47.407129" lon="9.254877">
<ele>674.4</ele>
<time>2003-09-26T10:10:53Z</time>
<speed>0.3</speed>
</trkpt>
<trkpt lat="47.407170" lon="9.254846">
<ele>672.9</ele>
<time>2003-09-26T10:10:58Z</time>
<speed>0.3</speed>
</trkpt>
<trkpt lat="47.407217" lon="9.254828">
<ele>672.2</ele>
<time>2003-09-26T10:11:03Z</time>
<speed>0.6</speed>
</trkpt>
<trkpt lat="47.407277" lon="9.254800">
<ele>671.5</ele>
<time>2003-09-26T10:11:08Z</time>
<speed>0.6</speed>
</trkpt>
<trkpt lat="47.407322" lon="9.254793">
<ele>672.3</ele>
<time>2003-09-26T10:11:13Z</time>
<speed>0.6</speed>
</trkpt>
<trkpt lat="47.407357" lon="9.254762">
<ele>670.1</ele>
<time>2003-09-26T10:11:18Z</time>
<speed>0.6</speed>
</trkpt>
<trkpt lat="47.407412" lon="9.254719">
<ele>669.9</ele>
<time>2003-09-26T10:11:23Z</time>
<speed>0.3</speed>
</trkpt>
<trkpt lat="47.407472" lon="9.254705">
<ele>667.9</ele>
<time>2003-09-26T10:11:28Z</time>
<speed>0.8</speed>
</trkpt>
<trkpt lat="47.407519" lon="9.254657">
<ele>669.8</ele>
<time>2003-09-26T10:11:33Z</time>
<speed>0.8</speed>
</trkpt>
<trkpt lat="47.407575" lon="9.254598">
<ele>670.9</ele>
<time>2003-09-26T10:11:38Z</time>
<speed>0.6</speed>
</trkpt>
<trkpt lat="47.407634" lon="9.254583">
<ele>670.3</ele>
<time>2003-09-26T10:11:43Z</time>
<speed>0.6</speed>
</trkpt>
<trkpt lat="47.407697" lon="9.254532">
<ele>666.6</ele>
<time>2003-09-26T10:11:48Z</time>
<speed>0.8</speed>
</trkpt>
<trkpt lat="47.407745" lon="9.254504">
<ele>664.4</ele>
<time>2003-09-26T10:11:53Z</time>
<speed>0.8</speed>
</trkpt>
<trkpt lat="47.407820" lon="9.254466">
<ele>662.2</ele>
<time>2003-09-26T10:11:58Z</time>
<speed>0.6</speed>
</trkpt>
<trkpt lat="47.407881" lon="9.254427">
<ele>660.0</ele>
<time>2003-09-26T10:12:03Z</time>
<speed>0.6</speed>
</trkpt>
<trkpt lat="47.407943" lon="9.254385">
<ele>659.2</ele>
<time>2003-09-26T10:12:08Z</time>
<speed>0.8</speed>
</trkpt>
<trkpt lat="47.407992" lon="9.254328">
<ele>658.1</ele>
<time>2003-09-26T10:12:13Z</time>
<speed>0.8</speed>
</trkpt>
<trkpt lat="47.408042" lon="9.254274">
<ele>655.7</ele>
<time>2003-09-26T10:12:18Z</time>
<speed>0.8</speed>
</trkpt>
<trkpt lat="47.408097" lon="9.254230">
<ele>655.6</ele>
<time>2003-09-26T10:12:23Z</time>
<speed>0.8</speed>
</trkpt>
<trkpt lat="47.408142" lon="9.254160">
<ele>653.7</ele>
<time>2003-09-26T10:12:28Z</time>
<speed>0.8</speed>
</trkpt>
<trkpt lat="47.408197" lon="9.254118">
<ele>652.2</ele>
<time>2003-09-26T10:12:33Z</time>
<speed>0.8</speed>
</trkpt>
<trkpt lat="47.408234" lon="9.254059">
<ele>651.1</ele>
<time>2003-09-26T10:12:38Z</time>
<speed>0.8</speed>
</trkpt>
<trkpt lat="47.408272" lon="9.253987">
<ele>649.9</ele>
<time>2003-09-26T10:12:43Z</time>
<speed>1.1</speed>
</trkpt>
<trkpt lat="47.408311" lon="9.253915">
<ele>648.7</ele>
<time>2003-09-26T10:12:48Z</time>
<speed>1.1</speed>
</trkpt>
<trkpt lat="47.408342" lon="9.253841">
<ele>648.2</ele>
<time>2003-09-26T10:12:53Z</time>
<speed>1.4</speed>
</trkpt>
<trkpt lat="47.408375" lon="9.253754">
<ele>647.6</ele>
<time>2003-09-26T10:12:58Z</time>
<speed>1.1</speed>
</trkpt>
<trkpt lat="47.408408" lon="9.253669">
<ele>645.5</ele>
<time>2003-09-26T10:13:03Z</time>
<speed>1.4</speed>
</trkpt>
<trkpt lat="47.408440" lon="9.253594">
<ele>645.0</ele>
<time>2003-09-26T10:13:08Z</time>
<speed>1.1</speed>
</trkpt>
<trkpt lat="47.408471" lon="9.253520">
<ele>644.5</ele>
<time>2003-09-26T10:13:13Z</time>
<speed>1.1</speed>
</trkpt>
<trkpt lat="47.408509" lon="9.253444">
<ele>646.1</ele>
<time>2003-09-26T10:13:18Z</time>
<speed>1.4</speed>
</trkpt>
<trkpt lat="47.408541" lon="9.253357">
<ele>645.5</ele>
<time>2003-09-26T10:13:23Z</time>
<speed>1.1</speed>
</trkpt>
<trkpt lat="47.408585" lon="9.253285">
<ele>645.1</ele>
<time>2003-09-26T10:13:28Z</time>
<speed>1.4</speed>
</trkpt>
<trkpt lat="47.408623" lon="9.253210">
<ele>645.3</ele>
<time>2003-09-26T10:13:33Z</time>
<speed>1.4</speed>
</trkpt>
<trkpt lat="47.408672" lon="9.253151">
<ele>645.7</ele>
<time>2003-09-26T10:13:38Z</time>
<speed>0.8</speed>
</trkpt>
<trkpt lat="47.408719" lon="9.253214">
<ele>645.0</ele>
<time>2003-09-26T10:13:43Z</time>
<speed>1.4</speed>
</trkpt>
<trkpt lat="47.408772" lon="9.253279">
<ele>643.6</ele>
<time>2003-09-26T10:13:48Z</time>
<speed>1.1</speed>
</trkpt>
<trkpt lat="47.408813" lon="9.253344">
<ele>640.8</ele>
<time>2003-09-26T10:13:53Z</time>
<speed>1.4</speed>
</trkpt>
<trkpt lat="47.408865" lon="9.253420">
<ele>640.9</ele>
<time>2003-09-26T10:13:58Z</time>
<speed>1.4</speed>
</trkpt>
<trkpt lat="47.408904" lon="9.253494">
<ele>641.0</ele>
<time>2003-09-26T10:14:03Z</time>
<speed>1.4</speed>
</trkpt>
<trkpt lat="47.408950" lon="9.253555">
<ele>641.7</ele>
<time>2003-09-26T10:14:08Z</time>
<speed>1.1</speed>
</trkpt>
<trkpt lat="47.409003" lon="9.253618">
<ele>641.8</ele>
<time>2003-09-26T10:14:13Z</time>
<speed>1.4</speed>
</trkpt>
<trkpt lat="47.409028" lon="9.253638">
<ele>640.6</ele>
<time>2003-09-26T10:14:18Z</time>
<speed>0.0</speed>
</trkpt>
<trkpt lat="47.409021" lon="9.253636">
<ele>641.3</ele>
<time>2003-09-26T10:14:23Z</time>
<speed>0.0</speed>
</trkpt>
<trkpt lat="47.409028" lon="9.253622">
<ele>641.9</ele>
<time>2003-09-26T10:14:28Z</time>
<speed>0.0</speed>
</trkpt>
<trkpt lat="47.409022" lon="9.253620">
<ele>642.6</ele>
<time>2003-09-26T10:14:33Z</time>
<speed>0.0</speed>
</trkpt>
<trkpt lat="47.409033" lon="9.253636">
<ele>642.7</ele>
<time>2003-09-26T10:14:38Z</time>
<speed>0.3</speed>
</trkpt>
<trkpt lat="47.409044" lon="9.253664">
<ele>643.0</ele>
<time>2003-09-26T10:14:43Z</time>
<speed>0.6</speed>
</trkpt>
<trkpt lat="47.409068" lon="9.253698">
<ele>640.6</ele>
<time>2003-09-26T10:14:48Z</time>
<speed>0.8</speed>
</trkpt>
<trkpt lat="47.409118" lon="9.253722">
<ele>639.5</ele>
<time>2003-09-26T10:14:53Z</time>
<speed>0.8</speed>
</trkpt>
<trkpt lat="47.409162" lon="9.253731">
<ele>639.1</ele>
<time>2003-09-26T10:14:58Z</time>
<speed>0.8</speed>
</trkpt>
<trkpt lat="47.409200" lon="9.253737">
<ele>639.3</ele>
<time>2003-09-26T10:15:03Z</time>
<speed>0.8</speed>
</trkpt>
<trkpt lat="47.409232" lon="9.253728">
<ele>640.0</ele>
<time>2003-09-26T10:15:08Z</time>
<speed>0.8</speed>
</trkpt>
<trkpt lat="47.409284" lon="9.253724">
<ele>640.2</ele>
<time>2003-09-26T10:15:13Z</time>
<speed>1.1</speed>
</trkpt>
<trkpt lat="47.409342" lon="9.253721">
<ele>639.7</ele>
<time>2003-09-26T10:15:18Z</time>
<speed>0.8</speed>
</trkpt>
<trkpt lat="47.409400" lon="9.253719">
<ele>639.2</ele>
<time>2003-09-26T10:15:23Z</time>
<speed>0.8</speed>
</trkpt>
<trkpt lat="47.409470" lon="9.253734">
<ele>637.5</ele>
<time>2003-09-26T10:15:28Z</time>
<speed>0.8</speed>
</trkpt>
<trkpt lat="47.409527" lon="9.253762">
<ele>634.4</ele>
<time>2003-09-26T10:15:33Z</time>
<speed>0.8</speed>
</trkpt>
<trkpt lat="47.409585" lon="9.253757">
<ele>635.3</ele>
<time>2003-09-26T10:15:38Z</time>
<speed>1.1</speed>
</trkpt>
<trkpt lat="47.409643" lon="9.253735">
<ele>638.9</ele>
<time>2003-09-26T10:15:43Z</time>
<speed>1.1</speed>
</trkpt>
<trkpt lat="47.409707" lon="9.253733">
<ele>639.1</ele>
<time>2003-09-26T10:15:48Z</time>
<speed>1.1</speed>
</trkpt>
<trkpt lat="47.409752" lon="9.253728">
<ele>638.5</ele>
<time>2003-09-26T10:15:53Z</time>
<speed>0.8</speed>
</trkpt>
<trkpt lat="47.409800" lon="9.253682">
<ele>639.0</ele>
<time>2003-09-26T10:15:58Z</time>
<speed>0.8</speed>
</trkpt>
<trkpt lat="47.409833" lon="9.253593">
<ele>639.8</ele>
<time>2003-09-26T10:16:03Z</time>
<speed>0.8</speed>
</trkpt>
<trkpt lat="47.409864" lon="9.253519">
<ele>639.3</ele>
<time>2003-09-26T10:16:08Z</time>
<speed>0.8</speed>
</trkpt>
<trkpt lat="47.409906" lon="9.253408">
<ele>637.8</ele>
<time>2003-09-26T10:16:14Z</time>
<speed>0.8</speed>
</trkpt>
<trkpt lat="47.409953" lon="9.253375">
<ele>638.4</ele>
<time>2003-09-26T10:16:19Z</time>
<speed>0.8</speed>
</trkpt>
<trkpt lat="47.410017" lon="9.253372">
<ele>638.6</ele>
<time>2003-09-26T10:16:24Z</time>
<speed>0.8</speed>
</trkpt>
<trkpt lat="47.410087" lon="9.253385">
<ele>638.3</ele>
<time>2003-09-26T10:16:29Z</time>
<speed>1.1</speed>
</trkpt>
<trkpt lat="47.410145" lon="9.253383">
<ele>637.8</ele>
<time>2003-09-26T10:16:34Z</time>
<speed>1.4</speed>
</trkpt>
<trkpt lat="47.410215" lon="9.253380">
<ele>638.8</ele>
<time>2003-09-26T10:16:39Z</time>
<speed>1.1</speed>
</trkpt>
<trkpt lat="47.410248" lon="9.253374">
<ele>638.1</ele>
<time>2003-09-26T10:16:44Z</time>
<speed>1.1</speed>
</trkpt>
<trkpt lat="47.410318" lon="9.253373">
<ele>637.7</ele>
<time>2003-09-26T10:16:49Z</time>
<speed>1.1</speed>
</trkpt>
<trkpt lat="47.410383" lon="9.253371">
<ele>637.9</ele>
<time>2003-09-26T10:16:54Z</time>
<speed>1.1</speed>
</trkpt>
<trkpt lat="47.410459" lon="9.253371">
<ele>638.2</ele>
<time>2003-09-26T10:16:59Z</time>
<speed>1.1</speed>
</trkpt>
<trkpt lat="47.410515" lon="9.253392">
<ele>639.4</ele>
<time>2003-09-26T10:17:04Z</time>
<speed>1.1</speed>
</trkpt>
<trkpt lat="47.410577" lon="9.253416">
<ele>639.8</ele>
<time>2003-09-26T10:17:09Z</time>
<speed>1.1</speed>
</trkpt>
<trkpt lat="47.410634" lon="9.253427">
<ele>639.4</ele>
<time>2003-09-26T10:17:14Z</time>
<speed>1.1</speed>
</trkpt>
<trkpt lat="47.410697" lon="9.253437">
<ele>639.8</ele>
<time>2003-09-26T10:17:19Z</time>
<speed>1.1</speed>
</trkpt>
<trkpt lat="47.410760" lon="9.253446">
<ele>641.5</ele>
<time>2003-09-26T10:17:24Z</time>
<speed>1.1</speed>
</trkpt>
<trkpt lat="47.410818" lon="9.253443">
<ele>641.0</ele>
<time>2003-09-26T10:17:29Z</time>
<speed>0.8</speed>
</trkpt>
<trkpt lat="47.410876" lon="9.253441">
<ele>640.5</ele>
<time>2003-09-26T10:17:34Z</time>
<speed>1.1</speed>
</trkpt>
<trkpt lat="47.410936" lon="9.253493">
<ele>639.8</ele>
<time>2003-09-26T10:17:39Z</time>
<speed>1.1</speed>
</trkpt>
<trkpt lat="47.410997" lon="9.253530">
<ele>640.3</ele>
<time>2003-09-26T10:17:44Z</time>
<speed>0.8</speed>
</trkpt>
<trkpt lat="47.411049" lon="9.253525">
<ele>640.5</ele>
<time>2003-09-26T10:17:49Z</time>
<speed>0.8</speed>
</trkpt>
<trkpt lat="47.411087" lon="9.253531">
<ele>640.7</ele>
<time>2003-09-26T10:17:54Z</time>
<speed>0.3</speed>
</trkpt>
<trkpt lat="47.411099" lon="9.253534">
<ele>640.8</ele>
<time>2003-09-26T10:17:59Z</time>
<speed>0.0</speed>
</trkpt>
<trkpt lat="47.411099" lon="9.253534">
<ele>640.8</ele>
<time>2003-09-26T10:18:04Z</time>
<speed>0.0</speed>
</trkpt>
<trkpt lat="47.411099" lon="9.253534">
<ele>640.8</ele>
<time>2003-09-26T10:18:09Z</time>
<speed>0.0</speed>
</trkpt>
<trkpt lat="47.411099" lon="9.253534">
<ele>640.8</ele>
<time>2003-09-26T10:18:14Z</time>
<speed>0.0</speed>
</trkpt>
<trkpt lat="47.411099" lon="9.253534">
<ele>640.8</ele>
<time>2003-09-26T10:18:19Z</time>
<speed>0.0</speed>
</trkpt>
<trkpt lat="47.411081" lon="9.253531">
<ele>640.0</ele>
<time>2003-09-26T10:18:24Z</time>
<speed>0.0</speed>
</trkpt>
<trkpt lat="47.411066" lon="9.253573">
<ele>637.4</ele>
<time>2003-09-26T10:18:29Z</time>
<speed>0.6</speed>
</trkpt>
<trkpt lat="47.411110" lon="9.253579">
<ele>638.3</ele>
<time>2003-09-26T10:18:34Z</time>
<speed>0.8</speed>
</trkpt>
<trkpt lat="47.411148" lon="9.253586">
<ele>638.5</ele>
<time>2003-09-26T10:18:39Z</time>
<speed>0.6</speed>
</trkpt>
<trkpt lat="47.411193" lon="9.253581">
<ele>638.0</ele>
<time>2003-09-26T10:18:44Z</time>
<speed>1.1</speed>
</trkpt>
<trkpt lat="47.411186" lon="9.253579">
<ele>638.6</ele>
<time>2003-09-26T10:18:49Z</time>
<speed>0.3</speed>
</trkpt>
<trkpt lat="47.411165" lon="9.253616">
<ele>638.2</ele>
<time>2003-09-26T10:18:55Z</time>
<speed>0.3</speed>
</trkpt>
<trkpt lat="47.411279" lon="9.253622">
<ele>638.7</ele>
<time>2003-09-26T10:19:29Z</time>
<speed>0.3</speed>
</trkpt>
<trkpt lat="47.411691" lon="9.253440">
<ele>638.7</ele>
<time>2003-09-26T10:19:34Z</time>
<speed>0.0</speed>
</trkpt>
<trkpt lat="47.411849" lon="9.253529">
<ele>643.0</ele>
<time>2003-09-26T10:19:39Z</time>
<speed>0.0</speed>
</trkpt>
<trkpt lat="47.411962" lon="9.253563">
<ele>642.3</ele>
<time>2003-09-26T10:19:44Z</time>
<speed>0.3</speed>
</trkpt>
<trkpt lat="47.411965" lon="9.253567">
<ele>648.7</ele>
<time>2003-09-26T10:19:49Z</time>
<speed>0.3</speed>
</trkpt>
<trkpt lat="47.411992" lon="9.253491">
<ele>658.2</ele>
<time>2003-09-26T10:19:54Z</time>
<speed>0.8</speed>
</trkpt>
<trkpt lat="47.412007" lon="9.253380">
<ele>644.4</ele>
<time>2003-09-26T10:19:59Z</time>
<speed>1.1</speed>
</trkpt>
<trkpt lat="47.412029" lon="9.253282">
<ele>640.8</ele>
<time>2003-09-26T10:20:04Z</time>
<speed>1.1</speed>
</trkpt>
<trkpt lat="47.412042" lon="9.253190">
<ele>640.8</ele>
<time>2003-09-26T10:20:09Z</time>
<speed>1.1</speed>
</trkpt>
<trkpt lat="47.412067" lon="9.253112">
<ele>642.4</ele>
<time>2003-09-26T10:20:14Z</time>
<speed>0.8</speed>
</trkpt>
<trkpt lat="47.412073" lon="9.253029">
<ele>644.5</ele>
<time>2003-09-26T10:20:19Z</time>
<speed>1.1</speed>
</trkpt>
<trkpt lat="47.412072" lon="9.252946">
<ele>645.9</ele>
<time>2003-09-26T10:20:24Z</time>
<speed>1.1</speed>
</trkpt>
<trkpt lat="47.412091" lon="9.252868">
<ele>646.8</ele>
<time>2003-09-26T10:20:29Z</time>
<speed>1.1</speed>
</trkpt>
<trkpt lat="47.412114" lon="9.252802">
<ele>648.4</ele>
<time>2003-09-26T10:20:34Z</time>
<speed>0.8</speed>
</trkpt>
<trkpt lat="47.412136" lon="9.252763">
<ele>650.3</ele>
<time>2003-09-26T10:20:39Z</time>
<speed>0.6</speed>
</trkpt>
<trkpt lat="47.412135" lon="9.252761">
<ele>651.7</ele>
<time>2003-09-26T10:20:44Z</time>
<speed>0.0</speed>
</trkpt>
<trkpt lat="47.412128" lon="9.252772">
<ele>652.5</ele>
<time>2003-09-26T10:20:49Z</time>
<speed>0.0</speed>
</trkpt>
<trkpt lat="47.412126" lon="9.252785">
<ele>652.6</ele>
<time>2003-09-26T10:20:54Z</time>
<speed>0.0</speed>
</trkpt>
<trkpt lat="47.412113" lon="9.252796">
<ele>652.6</ele>
<time>2003-09-26T10:20:59Z</time>
<speed>0.0</speed>
</trkpt>
<trkpt lat="47.412113" lon="9.252796">
<ele>652.6</ele>
<time>2003-09-26T10:21:04Z</time>
<speed>0.0</speed>
</trkpt>
<trkpt lat="47.412112" lon="9.252809">
<ele>652.7</ele>
<time>2003-09-26T10:21:09Z</time>
<speed>0.0</speed>
</trkpt>
<trkpt lat="47.412109" lon="9.252833">
<ele>654.4</ele>
<time>2003-09-26T10:21:14Z</time>
<speed>0.0</speed>
</trkpt>
<trkpt lat="47.412099" lon="9.252870">
<ele>655.4</ele>
<time>2003-09-26T10:21:19Z</time>
<speed>0.0</speed>
</trkpt>
<trkpt lat="47.412099" lon="9.252870">
<ele>655.4</ele>
<time>2003-09-26T10:21:24Z</time>
<speed>0.0</speed>
</trkpt>
<trkpt lat="47.412098" lon="9.252881">
<ele>656.9</ele>
<time>2003-09-26T10:21:29Z</time>
<speed>0.0</speed>
</trkpt>
<trkpt lat="47.412091" lon="9.252879">
<ele>657.5</ele>
<time>2003-09-26T10:21:34Z</time>
<speed>0.0</speed>
</trkpt>
<trkpt lat="47.412091" lon="9.252879">
<ele>657.5</ele>
<time>2003-09-26T10:21:39Z</time>
<speed>0.0</speed>
</trkpt>
<trkpt lat="47.412090" lon="9.252892">
<ele>657.6</ele>
<time>2003-09-26T10:21:44Z</time>
<speed>0.0</speed>
</trkpt>
<trkpt lat="47.412084" lon="9.252890">
<ele>658.3</ele>
<time>2003-09-26T10:21:49Z</time>
<speed>0.0</speed>
</trkpt>
<trkpt lat="47.412083" lon="9.252888">
<ele>659.7</ele>
<time>2003-09-26T10:21:54Z</time>
<speed>0.0</speed>
</trkpt>
<trkpt lat="47.412082" lon="9.252901">
<ele>659.8</ele>
<time>2003-09-26T10:22:00Z</time>
<speed>0.0</speed>
</trkpt>
<trkpt lat="47.412082" lon="9.252901">
<ele>659.8</ele>
<time>2003-09-26T10:22:05Z</time>
<speed>0.0</speed>
</trkpt>
<trkpt lat="47.412083" lon="9.252888">
<ele>659.7</ele>
<time>2003-09-26T10:22:10Z</time>
<speed>0.0</speed>
</trkpt>
<trkpt lat="47.412083" lon="9.252888">
<ele>659.7</ele>
<time>2003-09-26T10:22:15Z</time>
<speed>0.0</speed>
</trkpt>
<trkpt lat="47.412090" lon="9.252890">
<ele>659.0</ele>
<time>2003-09-26T10:22:20Z</time>
<speed>0.0</speed>
</trkpt>
<trkpt lat="47.412090" lon="9.252890">
<ele>659.0</ele>
<time>2003-09-26T10:22:25Z</time>
<speed>0.0</speed>
</trkpt>
<trkpt lat="47.412090" lon="9.252890">
<ele>659.0</ele>
<time>2003-09-26T10:22:30Z</time>
<speed>0.0</speed>
</trkpt>
<trkpt lat="47.412090" lon="9.252890">
<ele>659.0</ele>
<time>2003-09-26T10:22:35Z</time>
<speed>0.0</speed>
</trkpt>
<trkpt lat="47.412085" lon="9.252877">
<ele>658.2</ele>
<time>2003-09-26T10:22:40Z</time>
<speed>0.3</speed>
</trkpt>
<trkpt lat="47.412092" lon="9.252864">
<ele>658.8</ele>
<time>2003-09-26T10:22:45Z</time>
<speed>0.3</speed>
</trkpt>
<trkpt lat="47.412078" lon="9.252875">
<ele>658.9</ele>
<time>2003-09-26T10:22:51Z</time>
<speed>0.0</speed>
</trkpt>
<trkpt lat="47.412099" lon="9.252866">
<ele>658.2</ele>
<time>2003-09-26T10:22:56Z</time>
<speed>0.0</speed>
</trkpt>
<trkpt lat="47.412099" lon="9.252868">
<ele>656.8</ele>
<time>2003-09-26T10:23:01Z</time>
<speed>0.3</speed>
</trkpt>
<trkpt lat="47.412096" lon="9.252827">
<ele>657.1</ele>
<time>2003-09-26T10:23:06Z</time>
<speed>0.3</speed>
</trkpt>
<trkpt lat="47.412079" lon="9.252781">
<ele>658.8</ele>
<time>2003-09-26T10:23:11Z</time>
<speed>0.3</speed>
</trkpt>
<trkpt lat="47.412071" lon="9.252709">
<ele>661.0</ele>
<time>2003-09-26T10:23:16Z</time>
<speed>0.6</speed>
</trkpt>
<trkpt lat="47.412052" lon="9.252705">
<ele>661.6</ele>
<time>2003-09-26T10:23:21Z</time>
<speed>0.3</speed>
</trkpt>
<trkpt lat="47.412046" lon="9.252690">
<ele>662.1</ele>
<time>2003-09-26T10:23:26Z</time>
<speed>0.3</speed>
</trkpt>
</trkseg>
</trk>
</gpx>
